# Wetter Temperatur Luftdruck Luftfeuchtigkeit Sichtweite Windgeschwindigkeit Windrichtung Zeit
1 Clouds 27 1018 54 10000 2.6 70 09:40 29.01.2020
2 Clouds 27 1018 54 10000 2.6 70 09:22 29.01.2020
3 Clouds 27 1018 57 10000 3.1 60 08:59 29.01.2020
4 Clouds 27 1018 57 10000 3.1 60 08:40 29.01.2020
5 Clouds 26 1018 65 10000 3.1 40 08:22 29.01.2020
6 Clouds 26 1018 65 10000 3.1 60 07:45 29.01.2020
7 Clouds 25 1018 69 10000 2.6 40 07:25 29.01.2020
8 Clouds 24 1018 73 10000 2.6 70 06:55 29.01.2020
9 Clouds 24 1018 73 10000 2.6 70 06:55 29.01.2020
10 Clouds 24 1018 73 10000 2.6 70 06:37 29.01.2020
11 Clouds 23 1018 78 10000 2.1 60 06:18 29.01.2020
12 Clouds 23 1018 78 10000 1.5 0 05:46 29.01.2020
13 Clouds 21 1018 94 10000 1 0 05:27 29.01.2020
14 Clouds 20 1018 94 10000 2.1 60 04:38 29.01.2020
15 Clouds 20 1017 94 10000 1.5 0 03:50 29.01.2020
16 Clouds 20 1017 94 10000 0.5 80 02:33 29.01.2020
17 Clouds 20 1017 94 10000 2.1 30 00:44 29.01.2020
18 Clouds 20 1017 94 10000 2.1 40 00:25 29.01.2020
19 Thunderstorm 20 1017 94 10000 2.1 30 23:58 28.01.2020
20 Thunderstorm 20 1017 94 10000 2.1 30 23:37 28.01.2020
21 Thunderstorm 20 1017 94 10000 1 0 23:18 28.01.2020
22 Thunderstorm 20 1017 94 10000 0.44 93 22:41 28.01.2020
23 Clouds 20 1018 94 10000 1.5 10 22:21 28.01.2020
24 Thunderstorm 20 1018 94 10000 0.5 0 21:54 28.01.2020
25 Thunderstorm 20 1018 94 10000 0.5 0 21:36 28.01.2020
26 Clouds 20 1018 94 10000 2.6 80 21:18 28.01.2020
27 Clouds 20 1018 100 10000 2.1 100 20:42 28.01.2020
28 Thunderstorm 20 1018 94 10000 2.1 0 20:23 28.01.2020
29 Thunderstorm 20 1018 94 10000 2.1 110 19:39 28.01.2020
30 Thunderstorm 20 1018 94 10000 2.1 110 19:39 28.01.2020
31 Thunderstorm 20 1018 94 8000 2.71 57 19:21 28.01.2020
32 Thunderstorm 20 1018 94 9000 3.1 170 18:59 28.01.2020
33 Thunderstorm 20 1018 94 9000 3.1 170 18:40 28.01.2020
34 Thunderstorm 21 1017 88 7000 3.6 170 18:21 28.01.2020
35 Thunderstorm 21 1017 88 10000 1 0 17:57 28.01.2020
36 Thunderstorm 21 1017 88 10000 1 0 17:37 28.01.2020
37 Thunderstorm 21 1016 88 10000 1.5 80 17:19 28.01.2020
38 Thunderstorm 21 1016 88 7000 5.1 90 16:55 28.01.2020
39 Thunderstorm 21 1016 88 7000 5.1 90 16:36 28.01.2020
40 Thunderstorm 23 1016 83 4500 5.7 180 16:18 28.01.2020
41 Thunderstorm 27 1015 54 10000 3.1 280 15:42 28.01.2020
42 Clouds 29 1015 51 10000 4.1 300 15:19 28.01.2020
43 Clouds 29 1015 54 10000 5.7 310 14:54 28.01.2020
44 Clouds 29 1015 54 10000 5.7 310 14:36 28.01.2020
45 Clouds 29 1015 54 10000 5.7 310 14:18 28.01.2020
46 Clouds 27 1015 57 10000 2.6 60 13:39 28.01.2020
47 Clouds 28 1015 54 10000 3.6 40 13:21 28.01.2020
48 Clouds 30 1015 48 10000 2.1 0 12:42 28.01.2020
49 Clouds 29 1016 51 10000 2.1 320 12:23 28.01.2020
50 Clouds 29 1016 51 10000 2.1 50 11:48 28.01.2020
51 Clouds 28 1016 51 10000 1.5 0 11:23 28.01.2020
52 Clouds 28 1017 51 10000 1.5 0 10:58 28.01.2020
53 Clouds 28 1017 51 10000 1.5 0 10:39 28.01.2020
54 Clouds 26 1017 57 10000 2.1 260 10:20 28.01.2020
55 Clouds 27 1017 54 10000 2.1 0 09:43 28.01.2020
56 Clouds 26 1017 57 10000 2.6 230 09:21 28.01.2020
57 Clouds 26 1017 57 10000 1 0 08:58 28.01.2020
58 Clouds 26 1017 57 10000 1 0 08:39 28.01.2020
59 Clouds 25 1017 65 10000 1.5 170 08:18 28.01.2020
60 Clouds 24 1017 64 10000 2.1 210 07:37 28.01.2020
61 Clouds 24 1017 64 10000 2.1 210 07:37 28.01.2020
62 Clouds 22 1018 78 10000 1 0 06:50 28.01.2020
63 Clouds 22 1018 83 10000 1 0 06:26 28.01.2020
64 Clouds 20 1018 94 10000 1 0 05:54 28.01.2020
65 Clouds 20 1018 88 10000 1.5 0 05:26 28.01.2020
66 Clouds 19 1017 93 10000 1.5 40 03:59 28.01.2020
67 Clouds 19 1016 93 10000 2.6 60 02:58 28.01.2020
68 Clouds 19 1016 93 10000 2.1 60 02:25 28.01.2020
69 Clouds 19 1016 93 10000 2.1 40 01:57 28.01.2020
70 Clouds 19 1016 93 10000 1.5 60 01:24 28.01.2020
71 Clouds 19 1016 93 10000 2.1 40 00:48 28.01.2020
72 Drizzle 19 1017 93 10000 2.1 100 00:28 28.01.2020
73 Drizzle 19 1017 93 10000 1.5 80 23:49 27.01.2020
74 Drizzle 19 1017 100 10000 0.5 60 23:30 27.01.2020
75 Clouds 19 1017 100 10000 1.57 138 22:55 27.01.2020
76 Clouds 19 1017 100 10000 1.57 138 22:36 27.01.2020
77 Clouds 19 1018 100 10000 1.57 138 22:18 27.01.2020
78 Clouds 19 1018 100 10000 1 0 21:54 27.01.2020
79 Clouds 19 1018 100 10000 1 0 21:36 27.01.2020
80 Drizzle 20 1019 88 8000 1.57 138 21:18 27.01.2020
81 Drizzle 20 1019 88 8000 1 0 20:42 27.01.2020
82 Clouds 20 1019 88 10000 2.6 130 20:21 27.01.2020
83 Clouds 20 1019 88 10000 4.1 130 19:59 27.01.2020
84 Clouds 20 1019 88 10000 4.1 130 19:40 27.01.2020
85 Clouds 20 1018 88 10000 3.1 90 19:21 27.01.2020
86 Clouds 20 1018 88 10000 4.6 110 18:56 27.01.2020
87 Clouds 20 1018 88 10000 4.6 110 18:37 27.01.2020
88 Clouds 20 1018 88 10000 4.6 110 18:37 27.01.2020
89 Clouds 21 1018 83 10000 4.1 100 18:19 27.01.2020
90 Clouds 21 1018 83 10000 4.6 100 17:39 27.01.2020
91 Clouds 21 1018 83 10000 4.6 100 17:39 27.01.2020
92 Clouds 21 1018 83 10000 5.7 100 17:19 27.01.2020
93 Clouds 22 1017 83 10000 5.7 110 16:57 27.01.2020
94 Clouds 22 1017 83 10000 5.7 110 16:39 27.01.2020
95 Rain 24 1017 69 10000 3.6 90 16:21 27.01.2020
96 Rain 24 1017 69 10000 2.1 140 15:54 27.01.2020
97 Rain 24 1017 69 10000 2.1 140 15:36 27.01.2020
98 Rain 24 1017 69 10000 3.6 190 15:18 27.01.2020
99 Clouds 25 1017 65 10000 1.5 0 14:40 27.01.2020
100 Clouds 25 1017 65 10000 1.5 0 14:21 27.01.2020
101 Clouds 26 1017 61 10000 2.6 220 13:54 27.01.2020
102 Clouds 26 1017 61 10000 2.6 220 13:36 27.01.2020
103 Clouds 27 1017 57 10000 2.1 0 13:18 27.01.2020
104 Clouds 26 1018 57 10000 2.1 0 12:41 27.01.2020
105 Clouds 26 1018 61 10000 2.1 180 12:22 27.01.2020
106 Clouds 26 1018 61 10000 1.5 0 11:43 27.01.2020
107 Clouds 25 1019 65 10000 1 0 11:22 27.01.2020
108 Clouds 24 1019 69 10000 1 0 10:57 27.01.2020
109 Clouds 24 1019 69 10000 1 0 10:39 27.01.2020
110 Clouds 24 1019 69 10000 1.5 0 10:20 27.01.2020
111 Clouds 22 1020 73 10000 2.1 10 09:40 27.01.2020
112 Clouds 22 1020 68 10000 1 0 09:19 27.01.2020
113 Clouds 21 1020 73 10000 2.1 180 08:56 27.01.2020
114 Clouds 21 1020 73 10000 2.1 180 08:38 27.01.2020
115 Clouds 22 1020 73 10000 1.5 180 08:18 27.01.2020
116 Rain 20 1021 77 8000 2.1 180 07:46 27.01.2020
117 Clouds 20 1021 77 10000 2.6 180 07:26 27.01.2020
118 Clouds 20 1021 72 5000 1.5 0 06:38 27.01.2020
119 Clouds 18 1020 82 10000 1.5 60 05:43 27.01.2020
120 Clouds 17 1020 88 10000 2.6 140 04:37 27.01.2020
121 Clouds 16 1020 93 10000 2.1 170 03:35 27.01.2020
122 Clouds 16 1020 93 10000 3.1 140 01:54 27.01.2020
123 Clouds 16 1020 87 10000 3.1 150 01:25 27.01.2020
124 Clouds 16 1020 93 10000 4.1 110 00:41 27.01.2020
125 Clouds 17 1020 88 10000 4.6 90 00:21 27.01.2020
126 Clouds 17 1020 93 10000 4.6 90 23:43 26.01.2020
127 Clouds 18 1020 88 10000 4.6 100 23:22 26.01.2020
128 Clouds 18 1020 88 10000 3.1 80 22:58 26.01.2020
129 Clouds 18 1020 88 10000 3.1 80 22:38 26.01.2020
130 Clouds 18 1021 93 10000 3.1 130 22:20 26.01.2020
131 Clouds 18 1021 88 10000 4.1 130 21:57 26.01.2020
132 Clouds 18 1021 88 10000 4.1 130 21:39 26.01.2020
133 Clouds 18 1021 93 10000 3.6 100 21:20 26.01.2020
134 Clouds 18 1021 93 10000 2.1 90 20:58 26.01.2020
135 Clouds 18 1021 93 10000 2.1 90 20:38 26.01.2020
136 Clouds 18 1021 93 10000 3.1 100 20:19 26.01.2020
137 Clouds 18 1021 93 10000 2.6 90 19:57 26.01.2020
138 Clouds 18 1021 93 10000 2.6 90 19:38 26.01.2020
139 Clouds 18 1021 93 10000 3.6 100 19:19 26.01.2020
140 Clouds 18 1021 93 10000 3.6 100 19:19 26.01.2020
141 Clouds 18 1020 100 10000 4.1 90 18:55 26.01.2020
142 Clouds 18 1020 100 10000 4.1 90 18:55 26.01.2020
143 Clouds 18 1020 100 10000 4.1 90 18:36 26.01.2020
144 Drizzle 18 1020 93 10000 3.1 90 18:18 26.01.2020
145 Drizzle 18 1020 93 10000 3.1 90 18:18 26.01.2020
146 Drizzle 19 1020 88 8000 4.1 130 17:54 26.01.2020
147 Drizzle 19 1020 88 8000 4.1 130 17:36 26.01.2020
148 Drizzle 20 1020 88 8000 3.6 100 17:18 26.01.2020
149 Rain 20 1019 82 10000 5.1 100 16:54 26.01.2020
150 Rain 20 1019 82 10000 5.1 100 16:36 26.01.2020
151 Rain 21 1019 77 10000 5.7 100 16:18 26.01.2020
152 Rain 22 1019 78 10000 5.7 110 15:41 26.01.2020
153 Rain 22 1018 73 10000 3.6 80 15:19 26.01.2020
154 Clouds 23 1018 69 10000 2.6 30 14:41 26.01.2020
155 Clouds 23 1018 69 10000 2.6 30 14:23 26.01.2020
156 Clouds 23 1018 69 10000 2.6 30 13:59 26.01.2020
157 Clouds 23 1018 69 10000 2.6 30 13:59 26.01.2020
158 Rain 22 1014 75 0 3.35 66 13:38 26.01.2020
159 Rain 24 1019 64 10000 4.1 110 13:18 26.01.2020
160 Rain 24 1019 64 10000 4.1 110 12:43 26.01.2020
161 Rain 24 1019 64 10000 4.1 110 12:24 26.01.2020
162 Clouds 25 1019 65 10000 3.6 120 11:58 26.01.2020
163 Clouds 25 1019 65 10000 3.6 120 11:40 26.01.2020
164 Clouds 25 1020 61 10000 2.1 0 11:19 26.01.2020
165 Clouds 25 1020 61 10000 2.1 0 10:59 26.01.2020
166 Clouds 25 1020 61 10000 2.1 0 10:38 26.01.2020
167 Clouds 25 1020 61 10000 2.1 0 10:20 26.01.2020
168 Clouds 25 1020 61 10000 2.6 0 09:58 26.01.2020
169 Clouds 25 1020 61 10000 2.6 0 09:40 26.01.2020
170 Clouds 25 1021 61 10000 3.1 110 09:21 26.01.2020
171 Clouds 24 1021 64 10000 3.6 130 08:43 26.01.2020
172 Clouds 22 1021 68 10000 3.6 140 08:23 26.01.2020
173 Clouds 22 1021 68 10000 3.6 130 07:57 26.01.2020
174 Clouds 22 1021 68 10000 3.6 130 07:39 26.01.2020
175 Clouds 22 1021 68 10000 3.6 120 07:21 26.01.2020
176 Clouds 19 1021 82 10000 4.1 140 06:31 26.01.2020
177 Rain 18 1021 82 10000 4.1 150 05:32 26.01.2020
178 Rain 18 1021 88 10000 3.6 160 04:45 26.01.2020
179 Clouds 18 1020 82 10000 3.6 150 02:42 26.01.2020
180 Clouds 18 1020 82 10000 2.1 150 01:48 26.01.2020
181 Clouds 18 1020 82 10000 2.6 150 01:24 26.01.2020
182 Clouds 18 1020 82 10000 2.6 140 00:48 26.01.2020
183 Clouds 18 1020 88 10000 2.6 140 00:29 26.01.2020
184 Clouds 18 1020 88 10000 2.6 140 23:41 25.01.2020
185 Clouds 17 1016 89 0 1.73 125 23:22 25.01.2020
186 Clouds 16 1017 91 0 1.39 117 22:58 25.01.2020
187 Clouds 16 1017 91 0 1.39 117 22:40 25.01.2020
188 Clouds 18 1022 88 10000 3.1 150 22:18 25.01.2020
189 Clouds 18 1022 88 10000 3.1 150 21:56 25.01.2020
190 Clouds 18 1022 88 10000 3.1 150 21:38 25.01.2020
191 Clouds 18 1022 88 10000 3.1 150 21:19 25.01.2020
192 Clouds 16 1017 91 0 1.39 117 20:43 25.01.2020
193 Clouds 16 1017 91 0 1.39 117 20:25 25.01.2020
194 Clouds 16 1017 92 0 2.21 119 19:54 25.01.2020
195 Clouds 16 1017 92 0 2.21 119 19:36 25.01.2020
196 Clouds 16 1017 92 0 2.21 119 19:18 25.01.2020
197 Clouds 16 1017 92 0 2.21 119 18:41 25.01.2020
198 Clouds 16 1017 92 0 2.21 119 18:21 25.01.2020
199 Clouds 16 1017 92 0 2.21 119 17:57 25.01.2020
200 Clouds 16 1017 92 0 2.21 119 17:37 25.01.2020
201 Clouds 16 1017 92 0 2.21 119 17:37 25.01.2020
202 Clouds 18 1014 85 0 3.45 118 17:18 25.01.2020
203 Clouds 21 1019 77 10000 4.1 120 16:42 25.01.2020
204 Clouds 21 1019 77 10000 4.1 120 16:42 25.01.2020
205 Clouds 21 1019 77 10000 4.1 120 16:23 25.01.2020
206 Clouds 21 1018 77 10000 6.7 140 15:56 25.01.2020
207 Clouds 21 1018 77 10000 6.7 140 15:38 25.01.2020
208 Clouds 24 1018 64 10000 4.6 150 15:19 25.01.2020
209 Clouds 25 1017 61 10000 5.1 120 14:42 25.01.2020
210 Clouds 25 1017 61 10000 5.1 120 14:19 25.01.2020
211 Rain 19 1014 88 0 4.08 97 13:45 25.01.2020
212 Rain 19 1014 88 0 4.08 97 13:26 25.01.2020
213 Rain 18 1014 92 0 3.68 103 12:51 25.01.2020
214 Clouds 26 1019 57 10000 5.1 160 12:31 25.01.2020
215 Clouds 26 1019 57 10000 5.1 160 11:57 25.01.2020
216 Clouds 26 1019 57 10000 5.1 160 11:38 25.01.2020
217 Clouds 26 1019 57 10000 5.1 160 11:19 25.01.2020
218 Clouds 26 1019 61 10000 4.1 160 10:42 25.01.2020
219 Clouds 25 1019 61 10000 3.6 140 10:21 25.01.2020
220 Clouds 24 1020 64 10000 4.1 120 09:57 25.01.2020
221 Clouds 24 1020 64 10000 4.1 120 09:37 25.01.2020
222 Clouds 22 1020 73 10000 3.6 140 09:18 25.01.2020
223 Clouds 24 1020 69 10000 4.1 110 08:42 25.01.2020
224 Clouds 24 1020 69 10000 4.1 110 08:42 25.01.2020
225 Clouds 21 1020 73 10000 4.1 140 07:53 25.01.2020
226 Clouds 21 1020 77 10000 3.1 140 06:58 25.01.2020
227 Clouds 20 1020 77 10000 2.6 120 06:31 25.01.2020
228 Clouds 19 1020 82 10000 2.6 120 05:50 25.01.2020
229 Clouds 19 1020 82 10000 2.6 120 05:30 25.01.2020
230 Clouds 18 1018 88 10000 3.1 150 03:55 25.01.2020
231 Clouds 18 1018 88 10000 3.1 150 03:34 25.01.2020
232 Clouds 18 1018 88 10000 3.1 150 02:24 25.01.2020
233 Clouds 18 1018 93 10000 3.1 150 01:53 25.01.2020
234 Clouds 18 1018 93 10000 3.1 160 00:52 25.01.2020
235 Clouds 19 1018 88 10000 4.1 150 00:26 25.01.2020
236 Clouds 19 1018 88 10000 4.1 150 00:26 25.01.2020
237 Clouds 19 1018 93 10000 2.1 150 23:59 24.01.2020
238 Clouds 19 1018 93 10000 2.1 150 23:59 24.01.2020
239 Clouds 19 1018 93 10000 2.1 150 23:40 24.01.2020
240 Clouds 19 1018 93 10000 2.1 150 23:40 24.01.2020
241 Clouds 19 1018 93 10000 2.6 160 23:22 24.01.2020
242 Clouds 19 1018 93 10000 2.1 150 22:45 24.01.2020
243 Clouds 19 1018 93 10000 2.6 120 22:25 24.01.2020
244 Clouds 19 1019 93 10000 2.6 140 21:56 24.01.2020
245 Clouds 19 1019 93 10000 2.6 140 21:37 24.01.2020
246 Clouds 20 1019 88 10000 3.1 140 21:18 24.01.2020
247 Clouds 20 1019 88 10000 3.6 120 20:42 24.01.2020
248 Clouds 20 1019 88 10000 4.1 130 20:21 24.01.2020
249 Clouds 21 1019 83 10000 2.6 140 19:57 24.01.2020
250 Clouds 21 1019 83 10000 2.6 140 19:38 24.01.2020
251 Clouds 20 1019 88 10000 2.1 150 19:20 24.01.2020
252 Clouds 20 1018 88 10000 2.1 140 18:43 24.01.2020
253 Clouds 20 1018 88 10000 2.6 170 18:24 24.01.2020
254 Clouds 20 1017 88 10000 3.6 160 17:54 24.01.2020
255 Clouds 20 1017 88 10000 3.6 160 17:36 24.01.2020
256 Clouds 20 1017 88 10000 3.6 150 17:18 24.01.2020
257 Clouds 21 1016 88 10000 4.1 160 16:39 24.01.2020
258 Rain 21 1016 88 8000 5.7 140 16:20 24.01.2020
259 Rain 26 1015 69 10000 3.6 60 15:43 24.01.2020
260 Clouds 27 1014 57 10000 1 0 15:22 24.01.2020
261 Clouds 28 1014 58 10000 1.5 0 14:57 24.01.2020
262 Clouds 28 1014 58 10000 1.5 0 14:38 24.01.2020
263 Clouds 28 1014 58 10000 1.5 0 14:38 24.01.2020
264 Clouds 28 1014 54 10000 2.6 140 14:20 24.01.2020
265 Clouds 29 1014 54 10000 1.5 0 13:42 24.01.2020
266 Clouds 29 1014 54 10000 1.5 0 13:23 24.01.2020
267 Clouds 28 1015 54 10000 1.5 0 12:44 24.01.2020
268 Clouds 28 1015 58 10000 1.5 0 12:22 24.01.2020
269 Clouds 27 1016 61 10000 1.5 0 11:45 24.01.2020
270 Clouds 27 1016 65 10000 2.1 30 11:20 24.01.2020
271 Clouds 26 1016 65 10000 1.5 0 10:59 24.01.2020
272 Clouds 26 1016 65 10000 1.5 0 10:41 24.01.2020
273 Clouds 26 1016 65 10000 1.5 0 10:41 24.01.2020
274 Clouds 24 1017 73 10000 1 0 10:19 24.01.2020
275 Clouds 24 1017 73 10000 1 0 09:42 24.01.2020
276 Clouds 24 1017 73 10000 1 0 09:42 24.01.2020
277 Clouds 24 1017 73 10000 1.5 0 09:24 24.01.2020
278 Clouds 22 1018 78 10000 1.5 0 08:59 24.01.2020
279 Clouds 22 1018 78 10000 1.5 0 08:36 24.01.2020
280 Drizzle 20 1018 94 8000 1.5 50 08:18 24.01.2020
281 Drizzle 20 1018 88 8000 1.5 50 07:42 24.01.2020
282 Clouds 21 1018 83 10000 2.1 120 07:18 24.01.2020
283 Clouds 20 1018 88 10000 2.1 130 06:42 24.01.2020
284 Clouds 21 1017 83 10000 2.1 160 06:18 24.01.2020
285 Clouds 20 1016 88 10000 0.5 0 05:20 24.01.2020
286 Clouds 18 1015 100 10000 0.97 72 02:56 24.01.2020
287 Clouds 18 1015 100 10000 0.97 72 02:38 24.01.2020
288 Clouds 18 1015 100 10000 1.5 350 02:18 24.01.2020
289 Clouds 19 1014 93 10000 1.5 0 01:37 24.01.2020
290 Clouds 18 1014 100 10000 1 60 00:39 24.01.2020
291 Drizzle 18 1014 100 10000 2.1 80 23:59 23.01.2020
292 Drizzle 18 1014 100 10000 2.1 80 23:59 23.01.2020
293 Drizzle 18 1014 100 10000 2.1 80 23:40 23.01.2020
294 Drizzle 18 1014 100 10000 1 0 23:21 23.01.2020
295 Drizzle 18 1015 100 10000 1.5 0 22:55 23.01.2020
296 Drizzle 18 1015 100 10000 1.5 0 22:55 23.01.2020
297 Drizzle 18 1015 100 10000 1.5 0 22:36 23.01.2020
298 Drizzle 18 1015 100 10000 1.5 0 22:36 23.01.2020
299 Drizzle 18 1015 100 10000 1 0 22:18 23.01.2020
300 Drizzle 18 1015 100 10000 1 0 22:18 23.01.2020
301 Drizzle 18 1015 100 8000 0.5 0 21:54 23.01.2020
302 Drizzle 18 1015 100 8000 0.5 0 21:36 23.01.2020
303 Drizzle 19 1015 93 6000 1.5 200 21:18 23.01.2020
304 Drizzle 19 1015 93 6000 2.6 210 20:40 23.01.2020
305 Drizzle 19 1015 100 5000 2.6 300 20:22 23.01.2020
306 Drizzle 19 1015 100 8000 1.5 300 19:57 23.01.2020
307 Drizzle 19 1015 100 8000 1.5 300 19:38 23.01.2020
308 Drizzle 19 1015 100 8000 1.5 300 19:38 23.01.2020
309 Drizzle 19 1015 100 6000 2.1 290 19:20 23.01.2020
310 Drizzle 19 1014 100 5000 1.5 0 18:56 23.01.2020
311 Drizzle 19 1014 100 5000 1.5 0 18:56 23.01.2020
312 Drizzle 19 1014 100 4500 1.5 260 18:37 23.01.2020
313 Drizzle 19 1014 100 4500 1.5 260 18:19 23.01.2020
314 Rain 19 1014 100 9000 1 0 17:43 23.01.2020
315 Drizzle 19 1013 100 7000 2.1 240 17:20 23.01.2020
316 Drizzle 19 1013 100 7000 3.1 250 16:58 23.01.2020
317 Drizzle 19 1013 100 7000 3.1 250 16:38 23.01.2020
318 Rain 20 1012 94 10000 3.6 270 16:19 23.01.2020
319 Rain 20 1012 94 10000 2.1 250 15:57 23.01.2020
320 Rain 20 1012 94 10000 2.1 250 15:38 23.01.2020
321 Drizzle 20 1011 94 8000 2.6 240 15:18 23.01.2020
322 Drizzle 20 1011 94 8000 2.6 240 15:18 23.01.2020
323 Drizzle 20 1011 94 8000 1.5 240 14:56 23.01.2020
324 Drizzle 20 1011 94 8000 1.5 240 14:56 23.01.2020
325 Drizzle 20 1011 94 8000 1.5 240 14:38 23.01.2020
326 Drizzle 20 1011 94 6000 1.5 220 14:20 23.01.2020
327 Drizzle 20 1011 94 5000 3.6 180 13:45 23.01.2020
328 Drizzle 20 1011 94 5000 4.6 200 13:21 23.01.2020
329 Drizzle 20 1011 94 5000 3.1 170 12:55 23.01.2020
330 Drizzle 20 1011 94 5000 3.1 170 12:36 23.01.2020
331 Drizzle 20 1011 94 5000 2.6 230 12:18 23.01.2020
332 Drizzle 21 1011 88 8000 4.1 190 11:43 23.01.2020
333 Drizzle 21 1011 83 10000 4.1 170 11:24 23.01.2020
334 Drizzle 21 1011 88 8000 4.1 170 10:58 23.01.2020
335 Drizzle 21 1011 88 8000 4.1 170 10:40 23.01.2020
336 Rain 21 1011 83 10000 4.6 160 10:18 23.01.2020
337 Clouds 21 1011 83 10000 4.6 160 09:40 23.01.2020
338 Clouds 21 1011 77 10000 5.1 170 09:21 23.01.2020
339 Clouds 20 1012 88 10000 5.7 170 08:43 23.01.2020
340 Rain 20 1012 88 10000 5.7 160 08:25 23.01.2020
341 Rain 19 1012 88 7000 6.7 170 07:52 23.01.2020
342 Rain 19 1012 88 7000 5.7 160 07:27 23.01.2020
343 Rain 18 1012 93 10000 5.7 150 06:55 23.01.2020
344 Clouds 18 1011 88 10000 5.7 160 06:25 23.01.2020
345 Rain 18 1011 93 8000 4.6 150 05:59 23.01.2020
346 Rain 17 1010 100 10000 3.6 160 04:25 23.01.2020
347 Drizzle 17 1010 100 8000 3.6 150 02:50 23.01.2020
348 Rain 17 1010 100 8000 3.6 140 01:51 23.01.2020
349 Rain 17 1010 100 10000 3.1 160 00:41 23.01.2020
350 Rain 17 1010 100 8000 3.1 140 00:20 23.01.2020
351 Rain 17 1010 100 8000 2.1 140 23:45 22.01.2020
352 Rain 17 1011 100 6000 3.1 150 23:27 22.01.2020
353 Rain 17 1011 100 8000 2.6 140 22:43 22.01.2020
354 Rain 17 1011 100 8000 2.6 140 22:43 22.01.2020
355 Rain 17 1011 100 6000 3.6 140 22:24 22.01.2020
356 Rain 18 1012 93 10000 3.1 150 21:58 22.01.2020
357 Rain 18 1012 93 10000 3.1 150 21:36 22.01.2020
358 Rain 18 1012 93 10000 3.1 150 21:36 22.01.2020
359 Rain 18 1012 93 8000 4.1 140 21:18 22.01.2020
360 Rain 18 1012 93 9000 4.6 140 20:41 22.01.2020
361 Rain 18 1012 93 8000 3.6 130 20:23 22.01.2020
362 Rain 18 1012 93 10000 3.6 130 19:58 22.01.2020
363 Rain 18 1012 93 10000 3.6 130 19:58 22.01.2020
364 Rain 18 1012 93 10000 3.6 130 19:40 22.01.2020
365 Rain 18 1012 100 8000 2.6 150 19:20 22.01.2020
366 Clouds 18 1012 93 10000 3.6 130 18:58 22.01.2020
367 Clouds 18 1012 93 10000 3.6 130 18:39 22.01.2020
368 Clouds 19 1012 88 10000 4.1 120 18:20 22.01.2020
369 Clouds 19 1012 93 10000 4.1 100 17:56 22.01.2020
370 Clouds 19 1012 93 10000 4.1 100 17:38 22.01.2020
371 Clouds 19 1012 93 10000 4.1 100 17:19 22.01.2020
372 Rain 19 1011 93 10000 4.6 90 16:44 22.01.2020
373 Rain 19 1011 93 10000 4.1 90 16:24 22.01.2020
374 Rain 20 1011 88 10000 4.1 100 15:59 22.01.2020
375 Rain 20 1011 88 10000 4.1 100 15:41 22.01.2020
376 Rain 20 1011 94 10000 3.6 100 15:22 22.01.2020
377 Rain 20 1010 94 10000 4.6 110 14:58 22.01.2020
378 Rain 20 1010 94 10000 4.6 110 14:37 22.01.2020
379 Rain 19 1011 100 10000 4.1 110 14:18 22.01.2020
380 Rain 19 1011 93 10000 3.6 100 13:55 22.01.2020
381 Rain 19 1011 93 10000 3.6 100 13:36 22.01.2020
382 Rain 19 1011 93 10000 3.6 100 13:36 22.01.2020
383 Rain 19 1012 93 9000 4.1 80 13:18 22.01.2020
384 Rain 19 1012 93 6000 3.1 90 12:55 22.01.2020
385 Rain 19 1012 93 6000 3.1 90 12:37 22.01.2020
386 Drizzle 19 1012 93 10000 3.1 110 12:18 22.01.2020
387 Drizzle 19 1012 93 10000 4.1 110 11:56 22.01.2020
388 Drizzle 19 1012 93 10000 4.1 110 11:37 22.01.2020
389 Rain 19 1012 93 8000 3.6 80 11:18 22.01.2020
390 Rain 19 1013 93 8000 3.1 80 10:43 22.01.2020
391 Rain 19 1013 93 7000 3.6 70 10:20 22.01.2020
392 Rain 19 1013 93 8000 3.6 80 09:43 22.01.2020
393 Rain 20 1013 88 8000 4.1 80 09:25 22.01.2020
394 Rain 20 1013 88 8000 4.1 110 08:57 22.01.2020
395 Rain 20 1013 88 8000 4.1 110 08:57 22.01.2020
396 Rain 20 1013 88 8000 4.1 110 08:39 22.01.2020
397 Clouds 20 1013 82 10000 4.1 130 08:20 22.01.2020
398 Clouds 20 1013 88 10000 4.1 120 07:47 22.01.2020
399 Clouds 19 1013 93 10000 4.6 120 07:29 22.01.2020
400 Drizzle 18 1013 93 7000 4.1 90 06:46 22.01.2020
401 Drizzle 18 1013 93 7000 2.6 140 06:26 22.01.2020
402 Drizzle 18 1013 93 7000 2.1 130 05:26 22.01.2020
403 Rain 17 1012 100 8000 3.1 140 03:30 22.01.2020
404 Clouds 18 1012 93 10000 2.6 140 02:57 22.01.2020
405 Clouds 18 1012 93 10000 2.6 140 01:42 22.01.2020
406 Clouds 18 1012 93 10000 3.1 130 00:44 22.01.2020
407 Clouds 18 1012 93 10000 3.1 120 00:26 22.01.2020
408 Clouds 18 1012 93 10000 2.1 140 23:38 21.01.2020
409 Clouds 18 1012 93 10000 2.6 140 23:20 21.01.2020
410 Clouds 18 1013 100 10000 2.1 140 22:55 21.01.2020
411 Clouds 18 1013 100 10000 2.1 140 22:55 21.01.2020
412 Clouds 18 1013 100 10000 2.1 140 22:55 21.01.2020
413 Clouds 18 1013 100 10000 2.1 140 22:36 21.01.2020
414 Rain 18 1013 93 8000 2.6 160 22:18 21.01.2020
415 Rain 18 1013 93 8000 3.6 160 21:55 21.01.2020
416 Rain 18 1013 93 8000 3.6 160 21:37 21.01.2020
417 Rain 19 1014 93 8000 3.1 140 21:18 21.01.2020
418 Clouds 19 1014 93 10000 3.1 130 20:39 21.01.2020
419 Rain 19 1014 93 8000 3.1 140 20:20 21.01.2020
420 Rain 19 1014 93 8000 4.1 100 19:59 21.01.2020
421 Rain 19 1014 93 8000 4.1 100 19:40 21.01.2020
422 Rain 19 1013 100 8000 4.1 100 19:21 21.01.2020
423 Rain 19 1013 100 8000 4.6 80 18:57 21.01.2020
424 Rain 19 1013 100 8000 4.6 80 18:57 21.01.2020
425 Rain 19 1013 100 8000 4.6 80 18:39 21.01.2020
426 Rain 20 1013 94 8000 2.6 70 18:21 21.01.2020
427 Rain 20 1013 94 8000 1.5 40 17:59 21.01.2020
428 Rain 20 1013 94 8000 1.5 40 17:40 21.01.2020
429 Rain 20 1012 94 8000 1 0 17:18 21.01.2020
430 Rain 20 1012 94 8000 1 0 17:18 21.01.2020
431 Rain 20 1012 94 8000 1 0 16:38 21.01.2020
432 Rain 20 1012 94 6000 1.5 70 16:20 21.01.2020
433 Rain 20 1011 94 4000 2.6 40 15:59 21.01.2020
434 Rain 20 1011 94 4000 2.6 40 15:39 21.01.2020
435 Rain 20 1011 94 6000 2.6 170 15:19 21.01.2020
436 Rain 20 1011 94 6000 2.6 170 15:19 21.01.2020
437 Rain 21 1011 88 7000 4.1 170 14:40 21.01.2020
438 Clouds 22 1011 83 10000 3.1 110 14:22 21.01.2020
439 Clouds 22 1011 83 10000 3.1 110 13:55 21.01.2020
440 Clouds 22 1011 83 10000 3.1 110 13:37 21.01.2020
441 Clouds 23 1011 83 10000 3.1 110 13:18 21.01.2020
442 Rain 21 1011 88 8000 2.6 70 12:42 21.01.2020
443 Rain 20 1011 94 6000 4.1 170 12:24 21.01.2020
444 Rain 21 1011 88 6000 1.5 0 11:56 21.01.2020
445 Rain 20 1012 94 6000 1.5 0 11:38 21.01.2020
446 Rain 20 1012 94 6000 1.5 0 11:19 21.01.2020
447 Rain 21 1012 88 7000 3.6 190 10:43 21.01.2020
448 Rain 21 1012 88 10000 4.1 190 10:23 21.01.2020
449 Rain 22 1012 94 9000 3.6 200 09:56 21.01.2020
450 Rain 22 1012 94 9000 3.6 200 09:38 21.01.2020
451 Rain 21 1013 88 6000 3.1 170 09:19 21.01.2020
452 Rain 21 1013 94 7000 2.1 160 08:41 21.01.2020
453 Rain 20 1013 100 8000 2.1 130 08:22 21.01.2020
454 Drizzle 20 1013 94 7000 2.6 70 07:43 21.01.2020
455 Drizzle 20 1013 94 8000 2.1 70 07:24 21.01.2020
456 Drizzle 20 1014 94 7000 1.5 60 06:57 21.01.2020
457 Drizzle 20 1014 94 7000 1.5 60 06:38 21.01.2020
458 Drizzle 19 1013 100 8000 2.1 20 05:53 21.01.2020
459 Drizzle 19 1013 100 8000 1.5 40 05:32 21.01.2020
460 Drizzle 19 1012 100 7000 2.1 30 04:37 21.01.2020
461 Clouds 19 1011 93 10000 2.1 330 02:27 21.01.2020
462 Clouds 19 1011 93 10000 2.1 330 01:36 21.01.2020
463 Clouds 20 1011 88 10000 1.5 0 00:45 21.01.2020
464 Clouds 20 1011 88 10000 1 340 00:25 21.01.2020
465 Clouds 19 1012 93 10000 1.5 0 23:56 20.01.2020
466 Clouds 19 1012 93 10000 1.5 0 23:36 20.01.2020
467 Clouds 19 1012 93 10000 2.1 350 23:18 20.01.2020
468 Clouds 19 1013 93 10000 1.5 0 22:40 20.01.2020
469 Clouds 20 1013 94 10000 2.1 320 22:21 20.01.2020
470 Clouds 20 1013 94 10000 2.1 330 21:58 20.01.2020
471 Clouds 20 1013 94 10000 2.1 330 21:58 20.01.2020
472 Clouds 20 1013 94 10000 2.1 330 21:58 20.01.2020
473 Clouds 20 1013 94 10000 2.1 330 21:38 20.01.2020
474 Clouds 20 1013 94 10000 1 0 21:20 20.01.2020
475 Clouds 20 1014 94 10000 2.1 30 20:58 20.01.2020
476 Clouds 20 1014 94 10000 2.1 30 20:39 20.01.2020
477 Clouds 20 1013 94 10000 1.5 0 20:20 20.01.2020
478 Clouds 20 1013 94 10000 1.5 0 19:58 20.01.2020
479 Clouds 20 1013 94 10000 1.5 0 19:40 20.01.2020
480 Clouds 20 1013 94 10000 1.5 30 19:19 20.01.2020
481 Clouds 20 1013 94 10000 2.1 30 18:45 20.01.2020
482 Clouds 20 1013 94 10000 2.1 20 18:24 20.01.2020
483 Clouds 20 1012 94 10000 3.1 30 17:59 20.01.2020
484 Clouds 20 1012 94 10000 3.1 30 17:37 20.01.2020
485 Clouds 20 1012 94 10000 2.6 20 17:18 20.01.2020
486 Clouds 21 1012 94 10000 2.1 30 16:44 20.01.2020
487 Clouds 21 1011 94 10000 3.1 40 16:25 20.01.2020
488 Rain 22 1011 88 10000 2.1 20 15:58 20.01.2020
489 Rain 22 1011 88 10000 2.1 20 15:39 20.01.2020
490 Rain 22 1011 83 9000 4.1 350 15:21 20.01.2020
491 Rain 21 1011 100 10000 2.1 70 14:44 20.01.2020
492 Rain 21 1012 94 9000 3.1 80 14:25 20.01.2020
493 Rain 21 1012 94 7000 1 0 13:59 20.01.2020
494 Rain 21 1012 94 7000 1 0 13:40 20.01.2020
495 Rain 20 1012 94 8000 0.5 0 13:22 20.01.2020
496 Rain 20 1012 94 4000 2.1 0 12:48 20.01.2020
497 Rain 20 1012 94 5000 4.6 230 12:29 20.01.2020
498 Rain 26 1012 65 10000 3.1 330 11:59 20.01.2020
499 Rain 26 1012 65 10000 3.1 330 11:40 20.01.2020
500 Rain 25 1012 69 10000 4.6 330 11:22 20.01.2020
501 Clouds 24 1013 73 10000 3.6 350 10:57 20.01.2020
502 Clouds 24 1013 73 10000 3.6 350 10:39 20.01.2020
503 Clouds 25 1013 69 10000 5.1 320 10:19 20.01.2020
504 Clouds 25 1013 69 10000 5.1 320 10:19 20.01.2020
505 Clouds 25 1013 69 10000 5.1 320 10:19 20.01.2020
506 Clouds 25 1014 69 10000 5.1 310 09:41 20.01.2020
507 Clouds 25 1014 69 10000 4.1 310 09:21 20.01.2020
508 Clouds 24 1014 73 10000 3.1 290 08:49 20.01.2020
509 Clouds 24 1014 78 10000 2.1 0 08:30 20.01.2020
510 Clouds 23 1014 78 10000 3.6 320 07:53 20.01.2020
511 Clouds 22 1015 83 10000 3.1 310 07:30 20.01.2020
512 Clouds 22 1015 88 10000 3.6 300 06:59 20.01.2020
513 Clouds 21 1014 94 10000 1.5 320 06:28 20.01.2020
514 Drizzle 20 1014 94 7000 1.5 280 05:44 20.01.2020
515 Drizzle 20 1014 94 7000 1.5 310 05:23 20.01.2020
516 Clouds 20 1014 94 10000 2.1 280 04:48 20.01.2020
517 Clouds 19 1013 93 10000 1 0 02:59 20.01.2020
518 Clouds 19 1013 93 10000 1.5 280 01:57 20.01.2020
519 Clouds 19 1013 93 10000 1.5 280 01:37 20.01.2020
520 Clouds 19 1013 93 10000 3.1 320 00:45 20.01.2020
521 Clouds 20 1014 88 10000 4.1 340 00:25 20.01.2020
522 Clouds 20 1014 88 10000 4.1 340 23:40 19.01.2020
523 Clouds 20 1014 88 10000 3.1 320 23:20 19.01.2020
524 Clouds 20 1015 88 10000 4.1 340 22:57 19.01.2020
525 Clouds 20 1015 88 10000 4.1 340 22:39 19.01.2020
526 Clouds 20 1015 88 10000 4.1 340 22:39 19.01.2020
527 Clouds 20 1015 88 10000 3.1 330 22:20 19.01.2020
528 Clouds 20 1015 88 10000 3.1 330 22:20 19.01.2020
529 Clouds 20 1015 88 10000 2.6 330 21:57 19.01.2020
530 Clouds 20 1015 88 10000 2.6 330 21:38 19.01.2020
531 Clouds 20 1015 88 10000 1.5 320 21:20 19.01.2020
532 Clouds 20 1015 94 10000 2.6 320 20:57 19.01.2020
533 Clouds 20 1015 94 10000 2.6 320 20:39 19.01.2020
534 Rain 20 1015 94 10000 2.1 330 20:21 19.01.2020
535 Rain 20 1015 94 10000 1 0 19:57 19.01.2020
536 Rain 20 1015 94 10000 1 0 19:39 19.01.2020
537 Clouds 20 1015 94 10000 2.1 290 19:20 19.01.2020
538 Clouds 20 1015 94 10000 2.1 280 18:57 19.01.2020
539 Clouds 20 1015 94 10000 2.1 280 18:39 19.01.2020
540 Rain 20 1015 94 10000 3.1 310 18:20 19.01.2020
541 Rain 20 1015 88 10000 2.6 350 17:58 19.01.2020
542 Rain 20 1015 88 10000 2.6 350 17:58 19.01.2020
543 Rain 20 1015 88 10000 2.6 350 17:40 19.01.2020
544 Rain 20 1015 88 10000 2.6 350 17:40 19.01.2020
545 Rain 20 1015 94 10000 4.1 330 17:21 19.01.2020
546 Rain 20 1014 94 8000 4.6 320 16:59 19.01.2020
547 Rain 20 1014 94 8000 4.6 320 16:39 19.01.2020
548 Rain 19 1013 93 8000 7.7 320 16:21 19.01.2020
549 Rain 21 1013 83 7000 9.3 320 15:58 19.01.2020
550 Rain 21 1013 83 7000 9.3 320 15:58 19.01.2020
551 Rain 21 1013 83 7000 9.3 320 15:38 19.01.2020
552 Clouds 23 1012 83 10000 5.1 320 15:20 19.01.2020
553 Thunderstorm 23 1012 83 10000 5.7 310 14:57 19.01.2020
554 Thunderstorm 23 1012 83 10000 5.7 310 14:38 19.01.2020
555 Thunderstorm 22 1012 94 10000 5.7 310 14:18 19.01.2020
556 Thunderstorm 22 1012 94 10000 5.7 310 14:18 19.01.2020
557 Thunderstorm 21 1012 94 10000 5.7 280 13:56 19.01.2020
558 Thunderstorm 21 1012 94 10000 5.7 280 13:37 19.01.2020
559 Rain 25 1012 78 10000 5.1 280 13:19 19.01.2020
560 Rain 23 1012 88 10000 5.7 290 12:54 19.01.2020
561 Rain 23 1012 88 10000 5.7 290 12:36 19.01.2020
562 Rain 28 1012 61 10000 6.2 320 12:18 19.01.2020
563 Clouds 28 1013 61 10000 5.7 300 11:39 19.01.2020
564 Clouds 27 1013 65 10000 4.1 330 11:20 19.01.2020
565 Clouds 27 1014 65 10000 5.1 320 10:55 19.01.2020
566 Clouds 27 1014 65 10000 5.1 320 10:37 19.01.2020
567 Clouds 26 1014 69 10000 4.1 350 10:18 19.01.2020
568 Clouds 26 1014 69 10000 4.1 350 10:18 19.01.2020
569 Clouds 25 1015 73 10000 4.1 330 09:44 19.01.2020
570 Rain 26 1015 74 10000 5.1 310 09:25 19.01.2020
571 Clouds 25 1015 73 10000 3.6 330 08:58 19.01.2020
572 Clouds 25 1015 73 10000 3.6 330 08:39 19.01.2020
573 Clouds 25 1015 73 10000 2.1 0 08:20 19.01.2020
574 Clouds 25 1015 73 10000 2.1 320 07:40 19.01.2020
575 Clouds 24 1015 73 10000 1 0 07:21 19.01.2020
576 Clouds 22 1016 88 10000 2.1 310 06:44 19.01.2020
577 Rain 20 1016 94 10000 2.1 310 04:41 19.01.2020
578 Clouds 19 1015 100 10000 1 60 02:37 19.01.2020
579 Clouds 19 1015 100 10000 2.6 100 02:19 19.01.2020
580 Clouds 20 1015 94 10000 4.1 110 01:24 19.01.2020
581 Clouds 20 1015 94 10000 4.1 110 00:45 19.01.2020
582 Rain 20 1015 94 10000 1.5 150 00:27 19.01.2020
583 Rain 20 1015 100 7000 2.1 100 23:55 18.01.2020
584 Rain 20 1015 100 7000 2.1 100 23:36 18.01.2020
585 Rain 20 1015 100 10000 3.1 270 23:18 18.01.2020
586 Clouds 21 1016 94 10000 0.5 0 22:54 18.01.2020
587 Clouds 21 1016 94 10000 0.5 0 22:54 18.01.2020
588 Clouds 21 1016 94 10000 0.5 0 22:54 18.01.2020
589 Clouds 21 1016 94 10000 0.5 0 22:36 18.01.2020
590 Clouds 21 1016 94 10000 0.5 0 22:36 18.01.2020
591 Clouds 21 1016 94 10000 0.5 0 22:18 18.01.2020
592 Clouds 21 1016 94 10000 0.5 0 21:55 18.01.2020
593 Clouds 21 1016 94 10000 0.5 0 21:36 18.01.2020
594 Clouds 21 1016 94 10000 0.5 30 21:18 18.01.2020
595 Clouds 21 1017 94 10000 0.5 0 20:41 18.01.2020
596 Clouds 21 1017 94 10000 0.5 0 20:19 18.01.2020
597 Clouds 22 1017 88 10000 1.5 330 19:44 18.01.2020
598 Clouds 22 1017 88 10000 1.5 330 19:44 18.01.2020
599 Clouds 22 1016 88 10000 1.5 50 19:25 18.01.2020
600 Clouds 22 1016 88 10000 1.5 50 19:25 18.01.2020
601 Clouds 22 1016 88 10000 1 0 18:56 18.01.2020
602 Clouds 22 1016 88 10000 1 0 18:37 18.01.2020
603 Clouds 22 1016 88 10000 1 0 18:19 18.01.2020
604 Clouds 22 1015 88 10000 0.5 0 17:41 18.01.2020
605 Clouds 22 1015 88 10000 1.5 0 17:21 18.01.2020
606 Clouds 22 1015 88 10000 1.5 320 16:57 18.01.2020
607 Clouds 22 1015 88 10000 1.5 320 16:38 18.01.2020
608 Clouds 22 1014 88 10000 3.6 310 16:20 18.01.2020
609 Clouds 23 1014 83 10000 3.6 290 15:56 18.01.2020
610 Clouds 23 1014 83 10000 3.6 290 15:38 18.01.2020
611 Clouds 23 1013 83 10000 4.6 300 15:20 18.01.2020
612 Clouds 23 1013 83 10000 5.7 290 14:41 18.01.2020
613 Clouds 24 1013 78 10000 4.6 290 14:20 18.01.2020
614 Rain 23 1014 83 10000 4.1 300 13:57 18.01.2020
615 Rain 23 1014 83 10000 4.1 300 13:36 18.01.2020
616 Rain 23 1014 83 10000 4.6 300 13:18 18.01.2020
617 Rain 25 1014 69 10000 3.6 350 12:41 18.01.2020
618 Rain 25 1014 73 10000 4.1 10 12:22 18.01.2020
619 Rain 26 1014 69 10000 3.1 40 11:57 18.01.2020
620 Rain 26 1014 69 10000 3.1 40 11:38 18.01.2020
621 Clouds 28 1014 58 10000 1.5 170 11:19 18.01.2020
622 Clouds 27 1015 61 10000 1.5 0 10:43 18.01.2020
623 Clouds 26 1015 65 10000 2.1 280 10:21 18.01.2020
624 Clouds 26 1016 65 10000 2.1 0 09:54 18.01.2020
625 Clouds 26 1016 65 10000 2.1 0 09:36 18.01.2020
626 Clouds 24 1016 78 10000 2.1 300 08:59 18.01.2020
627 Clouds 24 1016 78 10000 2.1 300 08:41 18.01.2020
628 Clouds 24 1017 73 10000 2.6 290 08:20 18.01.2020
629 Clouds 24 1017 73 10000 1.5 320 07:52 18.01.2020
630 Clouds 24 1017 73 10000 1.5 320 07:34 18.01.2020
631 Clouds 23 1017 78 10000 0.5 0 06:48 18.01.2020
632 Clouds 22 1016 83 10000 2.47 293 06:19 18.01.2020
633 Clouds 22 1016 83 10000 2.47 293 06:19 18.01.2020
634 Clouds 20 1016 100 10000 1 0 05:30 18.01.2020
635 Clouds 19 1016 93 10000 1.5 310 03:46 18.01.2020
636 Clouds 20 1015 94 10000 0.76 99 02:20 18.01.2020
637 Clouds 20 1015 94 10000 0.5 0 01:36 18.01.2020
638 Clouds 20 1016 94 10000 1 0 00:38 18.01.2020
639 Clouds 20 1016 94 10000 0.5 0 00:19 18.01.2020
640 Clouds 20 1016 94 10000 1 0 23:44 17.01.2020
641 Clouds 20 1016 94 10000 1 0 23:20 17.01.2020
642 Clouds 20 1016 94 10000 0.5 0 22:59 17.01.2020
643 Clouds 20 1016 94 10000 0.5 0 22:40 17.01.2020
644 Clouds 20 1017 94 10000 1.5 0 22:19 17.01.2020
645 Clouds 20 1017 94 10000 1.5 0 21:42 17.01.2020
646 Clouds 21 1018 94 10000 1 0 21:24 17.01.2020
647 Clouds 21 1018 88 10000 1 0 20:59 17.01.2020
648 Clouds 21 1018 88 10000 1 0 20:40 17.01.2020
649 Clouds 21 1018 94 10000 2.1 40 20:20 17.01.2020
650 Clouds 21 1017 88 10000 2.1 50 19:57 17.01.2020
651 Clouds 21 1017 88 10000 2.1 50 19:38 17.01.2020
652 Clouds 21 1017 88 10000 3.6 50 19:19 17.01.2020
653 Clouds 21 1017 88 10000 1.5 0 18:56 17.01.2020
654 Clouds 21 1017 88 10000 1.5 0 18:56 17.01.2020
655 Clouds 21 1017 88 10000 1.5 0 18:36 17.01.2020
656 Clouds 21 1016 88 10000 2.1 50 18:18 17.01.2020
657 Rain 21 1016 88 10000 2.1 50 17:39 17.01.2020
658 Clouds 21 1016 88 10000 2.6 20 17:20 17.01.2020
659 Clouds 22 1015 83 10000 2.6 20 16:44 17.01.2020
660 Rain 22 1015 88 10000 1.5 40 16:21 17.01.2020
661 Rain 22 1015 88 10000 1.5 40 16:21 17.01.2020
662 Thunderstorm 22 1015 88 10000 3.1 330 15:58 17.01.2020
663 Thunderstorm 22 1015 88 10000 3.1 330 15:58 17.01.2020
664 Thunderstorm 22 1015 88 10000 3.1 330 15:39 17.01.2020
665 Thunderstorm 21 1015 88 10000 5.1 340 15:20 17.01.2020
666 Rain 21 1014 88 10000 5.1 320 14:43 17.01.2020
667 Rain 22 1014 83 10000 4.6 320 14:24 17.01.2020
668 Rain 23 1014 73 10000 4.1 340 13:43 17.01.2020
669 Clouds 25 1014 69 10000 5.1 360 13:23 17.01.2020
670 Clouds 27 1014 57 10000 2.6 340 12:47 17.01.2020
671 Clouds 28 1015 54 10000 4.1 360 12:23 17.01.2020
672 Clouds 28 1015 54 10000 3.1 330 11:43 17.01.2020
673 Clouds 28 1016 58 10000 2.1 10 11:20 17.01.2020
674 Clouds 28 1016 58 10000 2.6 20 10:57 17.01.2020
675 Clouds 28 1016 58 10000 2.6 20 10:57 17.01.2020
676 Clouds 28 1016 58 10000 2.6 20 10:39 17.01.2020
677 Clouds 27 1016 57 10000 2.1 0 10:20 17.01.2020
678 Clouds 27 1017 61 10000 1.5 0 09:44 17.01.2020
679 Clouds 27 1017 65 10000 2.1 0 09:22 17.01.2020
680 Clouds 26 1017 61 10000 2.1 120 08:58 17.01.2020
681 Clouds 26 1017 61 10000 2.1 120 08:40 17.01.2020
682 Clouds 24 1018 73 10000 1.5 70 08:21 17.01.2020
683 Clouds 24 1018 73 10000 1.5 0 07:48 17.01.2020
684 Clouds 23 1018 78 10000 1.5 180 07:29 17.01.2020
685 Clouds 21 1019 88 10000 2.1 170 06:55 17.01.2020
686 Clouds 21 1019 88 10000 2.1 170 06:35 17.01.2020
687 Clouds 19 1018 93 10000 1.26 159 04:32 17.01.2020
688 Clouds 19 1018 93 10000 0.5 0 03:19 17.01.2020
689 Rain 19 1018 93 10000 1.26 159 02:39 17.01.2020
690 Rain 19 1018 93 10000 1.5 200 01:44 17.01.2020
691 Rain 19 1018 93 10000 1.5 200 01:25 17.01.2020
692 Rain 20 1018 94 10000 2.1 200 00:37 17.01.2020
693 Rain 20 1018 94 10000 2.1 200 00:19 17.01.2020
694 Rain 20 1018 94 10000 1 200 23:41 16.01.2020
695 Rain 20 1018 94 10000 1 200 23:22 16.01.2020
696 Rain 20 1018 88 10000 0.5 0 22:41 16.01.2020
697 Rain 20 1018 88 10000 1 0 22:21 16.01.2020
698 Clouds 20 1018 88 10000 1.18 105 21:57 16.01.2020
699 Clouds 20 1018 88 10000 1.18 105 21:57 16.01.2020
700 Clouds 20 1018 88 10000 1.18 105 21:38 16.01.2020
701 Clouds 20 1019 88 10000 2.6 80 21:19 16.01.2020
702 Clouds 20 1019 88 10000 2.6 80 21:19 16.01.2020
703 Clouds 20 1019 88 10000 3.6 110 20:57 16.01.2020
704 Clouds 20 1019 88 10000 3.6 110 20:38 16.01.2020
705 Clouds 20 1019 88 10000 3.6 100 20:19 16.01.2020
706 Clouds 20 1019 88 10000 4.1 90 19:56 16.01.2020
707 Clouds 20 1019 88 10000 4.1 90 19:37 16.01.2020
708 Rain 20 1019 88 10000 5.1 100 19:19 16.01.2020
709 Clouds 21 1019 88 10000 5.1 80 18:55 16.01.2020
710 Clouds 21 1019 88 10000 5.1 80 18:36 16.01.2020
711 Clouds 21 1018 88 10000 4.6 90 18:18 16.01.2020
712 Clouds 21 1018 88 10000 4.1 100 17:41 16.01.2020
713 Clouds 21 1018 88 10000 3.6 100 17:23 16.01.2020
714 Rain 21 1017 88 10000 4.6 100 16:57 16.01.2020
715 Rain 21 1017 88 10000 4.6 100 16:38 16.01.2020
716 Thunderstorm 21 1017 94 10000 2.1 70 16:19 16.01.2020
717 Rain 21 1017 88 10000 3.1 350 15:44 16.01.2020
718 Rain 25 1016 69 10000 6.7 100 15:22 16.01.2020
719 Rain 27 1015 57 10000 4.6 100 14:57 16.01.2020
720 Rain 27 1015 57 10000 4.6 100 14:38 16.01.2020
721 Clouds 28 1016 54 10000 3.1 110 14:19 16.01.2020
722 Clouds 28 1016 58 10000 4.1 150 13:44 16.01.2020
723 Clouds 27 1017 61 10000 5.1 120 13:25 16.01.2020
724 Clouds 27 1017 61 10000 5.1 130 12:46 16.01.2020
725 Clouds 27 1017 61 10000 5.1 110 12:28 16.01.2020
726 Clouds 26 1017 65 10000 4.6 150 11:58 16.01.2020
727 Clouds 26 1017 65 10000 4.6 150 11:39 16.01.2020
728 Clouds 26 1018 65 10000 3.6 120 11:21 16.01.2020
729 Clouds 26 1018 61 10000 4.6 100 10:40 16.01.2020
730 Clouds 26 1018 61 10000 4.6 100 10:21 16.01.2020
731 Clouds 26 1019 61 10000 4.1 120 09:58 16.01.2020
732 Clouds 26 1019 61 10000 4.1 120 09:40 16.01.2020
733 Clouds 25 1019 65 10000 3.6 130 09:22 16.01.2020
734 Clouds 24 1019 69 10000 4.1 120 08:53 16.01.2020
735 Clouds 24 1019 64 10000 4.1 110 08:35 16.01.2020
736 Clouds 23 1020 73 10000 3.6 170 07:59 16.01.2020
737 Clouds 23 1020 73 10000 3.6 170 07:39 16.01.2020
738 Clouds 23 1020 73 10000 3.6 140 07:21 16.01.2020
739 Clouds 22 1020 78 10000 4.6 100 06:43 16.01.2020
740 Clouds 21 1020 77 10000 5.1 110 06:22 16.01.2020
741 Clouds 21 1019 77 10000 3.6 130 05:46 16.01.2020
742 Clouds 20 1019 82 10000 3.1 130 04:40 16.01.2020
743 Clouds 20 1019 82 10000 3.1 130 04:40 16.01.2020
744 Clouds 20 1019 82 10000 4.6 120 03:28 16.01.2020
745 Clouds 20 1018 82 10000 4.1 120 02:43 16.01.2020
746 Clouds 20 1019 82 10000 3.1 100 01:24 16.01.2020
747 Clouds 20 1019 82 10000 4.6 100 00:25 16.01.2020
748 Clouds 20 1019 82 10000 3.6 100 23:56 15.01.2020
749 Clouds 20 1019 82 10000 3.6 100 23:38 15.01.2020
750 Clouds 20 1019 82 10000 3.6 100 23:18 15.01.2020
751 Clouds 21 1019 83 10000 3.6 80 22:42 15.01.2020
752 Clouds 21 1019 83 10000 3.6 110 22:20 15.01.2020
753 Clouds 21 1020 83 10000 3.1 150 21:59 15.01.2020
754 Clouds 21 1020 83 10000 3.1 150 21:40 15.01.2020
755 Clouds 21 1020 83 10000 3.6 80 21:22 15.01.2020
756 Clouds 21 1020 83 10000 3.6 80 20:58 15.01.2020
757 Clouds 21 1020 83 10000 3.6 80 20:40 15.01.2020
758 Clouds 21 1020 83 10000 5.1 80 20:22 15.01.2020
759 Thunderstorm 21 1021 83 10000 4.6 90 19:57 15.01.2020
760 Thunderstorm 21 1021 83 10000 4.6 90 19:38 15.01.2020
761 Thunderstorm 21 1020 83 10000 4.6 100 19:20 15.01.2020
762 Thunderstorm 21 1020 83 10000 4.6 100 18:57 15.01.2020
763 Thunderstorm 21 1020 83 10000 4.6 100 18:38 15.01.2020
764 Thunderstorm 21 1020 83 10000 4.6 100 18:20 15.01.2020
765 Thunderstorm 21 1020 83 10000 4.6 100 18:20 15.01.2020
766 Thunderstorm 22 1019 78 10000 6.2 100 17:58 15.01.2020
767 Thunderstorm 22 1019 78 10000 6.2 100 17:40 15.01.2020
768 Clouds 22 1019 78 10000 6.2 110 17:21 15.01.2020
769 Clouds 23 1018 73 10000 6.2 110 16:55 15.01.2020
770 Clouds 23 1018 73 10000 6.2 110 16:55 15.01.2020
771 Clouds 24 1018 69 10000 6.2 110 16:36 15.01.2020
772 Clouds 24 1018 69 10000 6.2 110 16:18 15.01.2020
773 Clouds 25 1017 61 10000 5.7 130 15:42 15.01.2020
774 Clouds 26 1017 54 10000 5.7 120 15:20 15.01.2020
775 Clouds 26 1017 54 10000 5.1 140 14:45 15.01.2020
776 Clouds 27 1017 54 10000 5.1 140 14:23 15.01.2020
777 Clouds 28 1017 51 10000 5.7 110 13:58 15.01.2020
778 Clouds 28 1017 51 10000 5.7 110 13:40 15.01.2020
779 Clouds 28 1017 51 10000 5.7 110 13:40 15.01.2020
780 Clouds 28 1018 45 10000 3.6 110 13:22 15.01.2020
781 Clouds 28 1018 48 10000 3.6 120 12:55 15.01.2020
782 Clouds 28 1018 48 10000 3.6 120 12:36 15.01.2020
783 Clouds 28 1018 51 10000 2.6 0 12:18 15.01.2020
784 Clouds 28 1019 48 10000 3.6 90 11:38 15.01.2020
785 Clouds 28 1019 51 10000 3.1 0 11:20 15.01.2020
786 Clouds 28 1019 51 10000 3.1 110 10:47 15.01.2020
787 Clouds 27 1019 51 10000 4.1 100 10:28 15.01.2020
788 Clouds 27 1019 51 10000 4.1 90 09:58 15.01.2020
789 Clouds 27 1019 51 10000 4.1 90 09:39 15.01.2020
790 Clouds 26 1020 54 10000 4.6 100 09:19 15.01.2020
791 Clouds 25 1020 61 10000 3.1 70 08:44 15.01.2020
792 Clouds 25 1020 61 10000 3.6 70 08:24 15.01.2020
793 Clouds 23 1021 69 10000 3.1 80 07:54 15.01.2020
794 Clouds 21 1021 77 10000 3.1 110 07:33 15.01.2020
795 Clouds 20 1020 77 10000 2.6 140 06:49 15.01.2020
796 Clouds 19 1020 82 10000 2.6 150 06:28 15.01.2020
797 Clouds 18 1020 88 10000 3.6 90 04:56 15.01.2020
798 Clouds 17 1019 93 10000 1 0 02:48 15.01.2020
799 Clouds 17 1019 93 10000 1 0 01:48 15.01.2020
800 Clouds 18 1019 88 10000 1 0 01:20 15.01.2020
801 Clouds 18 1019 88 10000 2.1 60 00:37 15.01.2020
802 Clouds 18 1019 88 10000 2.1 70 00:19 15.01.2020
803 Clouds 18 1020 82 10000 3.1 70 23:46 14.01.2020
804 Clouds 18 1020 82 10000 3.1 70 23:24 14.01.2020
805 Clouds 19 1020 82 10000 4.1 110 22:54 14.01.2020
806 Clouds 19 1020 82 10000 4.1 110 22:36 14.01.2020
807 Clouds 20 1020 82 10000 4.6 100 22:18 14.01.2020
808 Clouds 20 1020 82 10000 4.6 100 22:18 14.01.2020
809 Clouds 20 1020 82 10000 5.7 100 21:55 14.01.2020
810 Clouds 20 1020 82 10000 5.7 100 21:36 14.01.2020
811 Clouds 20 1020 88 10000 3.6 90 21:18 14.01.2020
812 Clouds 20 1020 88 10000 3.6 90 21:18 14.01.2020
813 Rain 20 1020 82 10000 4.1 100 20:41 14.01.2020
814 Rain 20 1020 88 10000 3.6 140 20:22 14.01.2020
815 Rain 20 1020 88 10000 3.6 140 19:56 14.01.2020
816 Rain 20 1020 88 10000 3.6 140 19:56 14.01.2020
817 Rain 20 1020 88 10000 3.6 140 19:38 14.01.2020
818 Thunderstorm 21 1020 83 10000 4.1 120 19:19 14.01.2020
819 Thunderstorm 21 1019 77 10000 4.1 120 18:56 14.01.2020
820 Thunderstorm 21 1019 77 10000 4.1 120 18:37 14.01.2020
821 Thunderstorm 21 1019 77 10000 4.1 120 18:37 14.01.2020
822 Thunderstorm 21 1019 77 10000 5.1 120 18:19 14.01.2020
823 Thunderstorm 21 1019 77 10000 5.1 120 18:19 14.01.2020
824 Thunderstorm 21 1019 77 10000 5.7 120 17:39 14.01.2020
825 Thunderstorm 22 1018 73 10000 5.7 130 17:19 14.01.2020
826 Rain 22 1018 73 10000 6.7 100 16:56 14.01.2020
827 Rain 22 1018 73 10000 6.7 100 16:38 14.01.2020
828 Rain 23 1017 69 10000 8.2 110 16:19 14.01.2020
829 Clouds 25 1017 65 10000 6.2 110 15:43 14.01.2020
830 Clouds 26 1016 54 10000 5.1 80 15:19 14.01.2020
831 Clouds 27 1016 51 10000 4.1 70 14:59 14.01.2020
832 Clouds 27 1016 51 10000 4.1 70 14:41 14.01.2020
833 Clouds 27 1016 51 10000 5.1 120 14:19 14.01.2020
834 Clouds 27 1016 51 10000 4.1 90 13:42 14.01.2020
835 Clouds 29 1016 45 10000 3.1 130 13:20 14.01.2020
836 Clouds 28 1017 48 10000 3.1 140 12:56 14.01.2020
837 Clouds 28 1017 48 10000 3.1 140 12:56 14.01.2020
838 Clouds 28 1017 48 10000 3.1 140 12:38 14.01.2020
839 Clouds 28 1017 48 10000 4.1 110 12:20 14.01.2020
840 Clouds 27 1017 51 10000 3.6 100 11:41 14.01.2020
841 Clouds 28 1018 51 10000 3.6 130 11:22 14.01.2020
842 Clouds 27 1018 51 10000 3.6 130 10:56 14.01.2020
843 Clouds 27 1018 51 10000 3.6 130 10:38 14.01.2020
844 Clouds 26 1018 54 10000 3.6 130 10:19 14.01.2020
845 Clouds 26 1018 54 10000 3.6 130 09:55 14.01.2020
846 Clouds 26 1018 54 10000 3.6 130 09:37 14.01.2020
847 Clouds 25 1019 61 10000 4.1 80 09:19 14.01.2020
848 Clouds 25 1019 61 10000 2.1 100 08:41 14.01.2020
849 Clouds 25 1019 61 10000 2.1 100 08:41 14.01.2020
850 Clouds 25 1019 61 10000 2.1 170 08:22 14.01.2020
851 Clouds 24 1019 64 10000 2.1 140 07:51 14.01.2020
852 Clouds 23 1019 69 10000 1.5 0 07:24 14.01.2020
853 Clouds 22 1019 73 10000 3.1 130 06:43 14.01.2020
854 Clouds 20 1019 77 10000 2.1 110 05:58 14.01.2020
855 Clouds 19 1018 82 10000 2.1 100 04:50 14.01.2020
856 Clouds 17 1017 93 10000 2.6 60 03:46 14.01.2020
857 Clouds 18 1017 93 10000 2.6 90 02:33 14.01.2020
858 Clouds 19 1017 88 10000 4.6 110 01:19 14.01.2020
859 Clouds 19 1017 88 10000 2.6 70 00:47 14.01.2020
860 Clouds 19 1017 88 10000 3.6 90 00:21 14.01.2020
861 Clouds 19 1017 88 10000 3.1 140 23:44 13.01.2020
862 Clouds 19 1017 93 10000 3.6 120 23:19 13.01.2020
863 Clouds 19 1017 93 10000 3.1 140 22:56 13.01.2020
864 Clouds 19 1017 93 10000 3.1 140 22:38 13.01.2020
865 Clouds 19 1018 93 10000 4.6 100 22:19 13.01.2020
866 Clouds 20 1018 94 10000 2.1 160 21:55 13.01.2020
867 Clouds 20 1018 94 10000 2.1 160 21:36 13.01.2020
868 Clouds 19 1019 100 10000 0.5 0 21:18 13.01.2020
869 Clouds 20 1019 94 10000 2.1 10 20:42 13.01.2020
870 Clouds 20 1019 94 10000 1.5 0 20:23 13.01.2020
871 Clouds 20 1019 94 10000 1.5 0 20:23 13.01.2020
872 Clouds 20 1019 94 10000 1.5 170 20:00 13.01.2020
873 Clouds 20 1019 94 10000 1.5 170 19:41 13.01.2020
874 Clouds 20 1019 94 10000 2.1 150 19:20 13.01.2020
875 Clouds 19 1018 100 10000 1 0 18:58 13.01.2020
876 Clouds 19 1018 100 10000 1 0 18:38 13.01.2020
877 Thunderstorm 19 1018 93 7000 1.5 0 18:19 13.01.2020
878 Thunderstorm 19 1018 93 7000 1.5 0 18:19 13.01.2020
879 Thunderstorm 19 1018 93 8000 1.5 0 17:57 13.01.2020
880 Thunderstorm 19 1018 93 8000 1.5 0 17:38 13.01.2020
881 Thunderstorm 19 1017 100 6000 4.6 110 17:20 13.01.2020
882 Thunderstorm 19 1017 100 6000 4.6 110 17:20 13.01.2020
883 Thunderstorm 19 1017 93 6000 3.6 120 16:41 13.01.2020
884 Thunderstorm 18 1017 100 6000 2.1 140 16:22 13.01.2020
885 Rain 20 1012 87 0 3.99 116 15:56 13.01.2020
886 Rain 20 1012 87 0 3.99 116 15:38 13.01.2020
887 Rain 20 1012 87 0 3.99 116 15:19 13.01.2020
888 Rain 20 1012 87 0 3.99 116 14:42 13.01.2020
889 Rain 20 1012 87 0 3.99 116 14:23 13.01.2020
890 Rain 23 1011 73 0 4.36 72 13:57 13.01.2020
891 Rain 23 1011 73 0 4.36 72 13:39 13.01.2020
892 Rain 23 1011 70 0 3.64 71 13:20 13.01.2020
893 Rain 29 1016 48 10000 3.6 80 12:43 13.01.2020
894 Rain 29 1016 48 10000 3.6 80 12:23 13.01.2020
895 Rain 29 1016 48 10000 3.6 80 11:59 13.01.2020
896 Rain 29 1016 48 10000 3.6 80 11:39 13.01.2020
897 Rain 28 1016 48 10000 1 120 11:19 13.01.2020
898 Clouds 28 1017 45 10000 1 120 10:57 13.01.2020
899 Clouds 28 1017 45 10000 1 120 10:38 13.01.2020
900 Clouds 28 1017 45 10000 1.5 0 10:20 13.01.2020
901 Clouds 28 1017 45 10000 1.5 0 10:20 13.01.2020
902 Clouds 28 1018 45 10000 2.6 190 09:55 13.01.2020
903 Clouds 28 1018 45 10000 2.6 190 09:37 13.01.2020
904 Clouds 27 1018 51 10000 2.1 130 09:19 13.01.2020
905 Clouds 27 1018 54 10000 2.6 120 08:38 13.01.2020
906 Clouds 26 1019 57 10000 2.1 0 08:19 13.01.2020
907 Clouds 25 1019 61 10000 2.6 0 07:45 13.01.2020
908 Clouds 24 1019 64 10000 2.6 140 07:27 13.01.2020
909 Clouds 24 1019 64 10000 2.6 110 06:39 13.01.2020
910 Clouds 20 1018 82 10000 2.1 60 05:57 13.01.2020
911 Clouds 20 1018 82 10000 2.1 60 05:19 13.01.2020
912 Clouds 18 1017 88 10000 0.77 137 03:44 13.01.2020
913 Clouds 18 1017 88 10000 2.1 90 02:51 13.01.2020
914 Clouds 19 1017 88 10000 2.1 80 02:30 13.01.2020
915 Clouds 19 1017 88 10000 2.1 90 01:33 13.01.2020
916 Clouds 19 1017 88 10000 2.1 90 00:48 13.01.2020
917 Clouds 19 1017 88 10000 2.6 110 00:26 13.01.2020
918 Clouds 19 1018 88 10000 2.1 60 23:59 12.01.2020
919 Clouds 19 1018 88 10000 2.1 60 23:40 12.01.2020
920 Clouds 19 1018 88 10000 2.6 70 23:21 12.01.2020
921 Clouds 19 1018 88 10000 3.1 80 22:56 12.01.2020
922 Clouds 19 1018 88 10000 3.1 80 22:37 12.01.2020
923 Clouds 20 1019 82 10000 4.1 90 22:19 12.01.2020
924 Clouds 20 1019 82 10000 5.1 100 21:42 12.01.2020
925 Clouds 20 1019 82 10000 4.6 110 21:20 12.01.2020
926 Clouds 20 1019 82 10000 4.1 100 20:59 12.01.2020
927 Clouds 20 1019 82 10000 4.1 100 20:59 12.01.2020
928 Clouds 20 1019 82 10000 4.1 100 20:40 12.01.2020
929 Thunderstorm 21 1019 77 10000 4.6 100 20:21 12.01.2020
930 Thunderstorm 21 1020 83 10000 4.6 80 19:57 12.01.2020
931 Thunderstorm 21 1020 83 10000 4.6 80 19:38 12.01.2020
932 Clouds 21 1019 77 10000 4.1 100 19:19 12.01.2020
933 Clouds 21 1019 77 10000 4.1 100 19:19 12.01.2020
934 Thunderstorm 21 1019 77 10000 6.2 110 18:58 12.01.2020
935 Thunderstorm 21 1019 77 10000 6.2 110 18:40 12.01.2020
936 Thunderstorm 22 1018 73 10000 5.7 130 18:21 12.01.2020
937 Thunderstorm 22 1018 68 10000 5.7 100 17:58 12.01.2020
938 Thunderstorm 22 1018 68 10000 5.7 100 17:40 12.01.2020
939 Clouds 23 1018 64 10000 5.1 110 17:19 12.01.2020
940 Clouds 24 1017 57 10000 5.1 120 16:56 12.01.2020
941 Clouds 24 1017 57 10000 5.1 120 16:37 12.01.2020
942 Clouds 24 1017 57 10000 5.1 120 16:37 12.01.2020
943 Clouds 25 1017 53 10000 6.7 110 16:19 12.01.2020
944 Clouds 25 1016 53 10000 5.7 100 15:42 12.01.2020
945 Clouds 26 1016 47 10000 4.6 110 15:24 12.01.2020
946 Clouds 27 1016 42 10000 4.6 100 14:57 12.01.2020
947 Clouds 27 1016 42 10000 4.6 100 14:38 12.01.2020
948 Clouds 28 1015 39 10000 4.1 100 14:19 12.01.2020
949 Clouds 28 1016 42 10000 3.6 120 13:44 12.01.2020
950 Clouds 28 1016 42 10000 4.1 130 13:25 12.01.2020
951 Clouds 28 1016 45 10000 3.1 110 12:58 12.01.2020
952 Clouds 28 1016 45 10000 3.1 110 12:39 12.01.2020
953 Clouds 27 1017 47 10000 3.1 90 12:20 12.01.2020
954 Clouds 28 1018 48 10000 2.1 150 11:58 12.01.2020
955 Clouds 28 1018 48 10000 2.1 150 11:38 12.01.2020
956 Clouds 27 1018 47 10000 3.1 0 11:19 12.01.2020
957 Clouds 27 1019 54 10000 2.6 0 10:41 12.01.2020
958 Clouds 27 1019 54 10000 2.6 0 10:41 12.01.2020
959 Clouds 26 1019 57 10000 2.6 0 10:22 12.01.2020
960 Clouds 26 1019 57 10000 2.6 130 09:57 12.01.2020
961 Clouds 26 1019 57 10000 2.6 130 09:38 12.01.2020
962 Clouds 25 1019 61 10000 3.1 110 09:18 12.01.2020
963 Clouds 24 1019 64 10000 3.6 100 08:44 12.01.2020
964 Clouds 23 1020 64 10000 3.6 90 08:20 12.01.2020
965 Clouds 23 1020 64 10000 4.1 100 07:40 12.01.2020
966 Clouds 22 1019 68 10000 3.1 120 07:22 12.01.2020
967 Clouds 21 1020 73 10000 3.6 120 06:43 12.01.2020
968 Clouds 21 1019 73 10000 3.1 140 06:24 12.01.2020
969 Clouds 19 1019 82 10000 1.5 0 05:24 12.01.2020
970 Clouds 16 1019 93 10000 1 0 03:55 12.01.2020
971 Clouds 16 1018 93 10000 1.37 152 03:22 12.01.2020
972 Clouds 17 1018 88 10000 1.5 90 02:33 12.01.2020
973 Clouds 17 1018 88 10000 2.6 100 01:43 12.01.2020
974 Clouds 17 1018 88 10000 3.6 120 01:22 12.01.2020
975 Clouds 17 1018 88 10000 2.6 150 00:40 12.01.2020
976 Clouds 17 1018 88 10000 2.6 150 00:40 12.01.2020
977 Clouds 17 1018 88 10000 2.6 120 00:20 12.01.2020
978 Clouds 17 1019 93 10000 3.6 110 23:42 11.01.2020
979 Clouds 18 1019 88 10000 1 110 23:19 11.01.2020
980 Clouds 18 1020 88 10000 2.6 120 22:58 11.01.2020
981 Clouds 18 1020 88 10000 2.6 120 22:39 11.01.2020
982 Clouds 18 1020 88 10000 3.1 130 22:20 11.01.2020
983 Clouds 19 1020 82 10000 4.1 120 21:55 11.01.2020
984 Clouds 19 1020 82 10000 4.1 120 21:37 11.01.2020
985 Clouds 19 1020 82 10000 4.1 120 21:18 11.01.2020
986 Clouds 19 1021 82 10000 4.6 130 20:40 11.01.2020
987 Clouds 19 1021 82 10000 5.1 120 20:22 11.01.2020
988 Clouds 20 1021 82 10000 4.1 110 19:58 11.01.2020
989 Clouds 20 1021 82 10000 4.1 110 19:38 11.01.2020
990 Clouds 20 1021 82 10000 4.1 110 19:38 11.01.2020
991 Clouds 20 1021 82 10000 4.6 120 19:20 11.01.2020
992 Clouds 20 1020 82 10000 4.6 110 18:57 11.01.2020
993 Clouds 20 1020 82 10000 4.6 110 18:37 11.01.2020
994 Clouds 21 1020 77 10000 7.2 110 18:19 11.01.2020
995 Clouds 22 1019 68 10000 5.7 110 17:57 11.01.2020
996 Clouds 22 1019 68 10000 5.7 110 17:39 11.01.2020
997 Clouds 23 1018 60 10000 5.7 100 17:19 11.01.2020
998 Clouds 24 1018 53 10000 5.7 110 16:44 11.01.2020
999 Clouds 25 1017 50 10000 5.7 110 16:25 11.01.2020
1000 Clouds 27 1017 39 10000 5.7 120 15:57 11.01.2020
1001 Clouds 27 1017 39 10000 5.7 120 15:39 11.01.2020
1002 Clouds 27 1016 36 10000 5.7 110 15:20 11.01.2020
1003 Clouds 27 1016 36 10000 5.7 110 15:20 11.01.2020
1004 Clouds 28 1016 37 10000 5.7 100 14:49 11.01.2020
1005 Clouds 29 1016 32 10000 4.6 110 14:26 11.01.2020
1006 Clouds 29 1016 30 10000 4.6 110 13:59 11.01.2020
1007 Clouds 29 1016 30 10000 4.6 110 13:38 11.01.2020
1008 Clouds 29 1016 30 10000 4.6 100 13:20 11.01.2020
1009 Clouds 29 1017 30 10000 3.6 100 12:56 11.01.2020
1010 Clouds 29 1017 30 10000 3.6 100 12:37 11.01.2020
1011 Clouds 29 1017 30 10000 3.6 160 12:19 11.01.2020
1012 Clouds 28 1017 37 10000 3.1 0 11:45 11.01.2020
1013 Clouds 28 1017 39 10000 2.1 90 11:24 11.01.2020
1014 Clouds 27 1018 42 10000 2.6 80 10:50 11.01.2020
1015 Clouds 27 1018 42 10000 2.6 180 10:30 11.01.2020
1016 Clouds 26 1018 44 10000 2.6 0 09:44 11.01.2020
1017 Clouds 25 1019 47 10000 3.1 140 09:21 11.01.2020
1018 Clouds 25 1019 47 10000 3.1 140 09:21 11.01.2020
1019 Clouds 25 1019 47 10000 3.1 140 09:21 11.01.2020
1020 Clouds 25 1019 47 10000 3.1 140 09:21 11.01.2020
1021 Clouds 24 1019 50 10000 3.6 140 08:59 11.01.2020
1022 Clouds 24 1019 50 10000 3.6 140 08:40 11.01.2020
1023 Clouds 23 1020 56 10000 3.1 130 08:19 11.01.2020
1024 Clouds 23 1020 53 10000 3.6 150 07:43 11.01.2020
1025 Clouds 22 1020 60 10000 4.1 190 07:24 11.01.2020
1026 Clouds 21 1020 64 10000 3.6 140 06:43 11.01.2020
1027 Clouds 18 1020 77 10000 3.1 160 05:30 11.01.2020
1028 Clouds 17 1020 82 10000 2.1 150 04:42 11.01.2020
1029 Clouds 15 1020 93 10000 2.1 80 04:24 11.01.2020
1030 Clouds 15 1019 100 10000 2.1 80 02:48 11.01.2020
1031 Clouds 16 1018 93 10000 2.6 130 01:47 11.01.2020
1032 Clouds 16 1018 93 10000 2.6 120 01:28 11.01.2020
1033 Clouds 16 1018 93 10000 2.6 100 00:54 11.01.2020
1034 Clouds 17 1019 88 10000 4.1 90 00:29 11.01.2020
1035 Clouds 17 1019 88 10000 4.1 90 23:58 10.01.2020
1036 Clouds 17 1019 88 10000 4.1 90 23:39 10.01.2020
1037 Clouds 17 1019 88 10000 4.1 90 23:39 10.01.2020
1038 Clouds 17 1019 93 10000 4.6 120 23:20 10.01.2020
1039 Clouds 18 1019 88 10000 3.1 120 22:41 10.01.2020
1040 Clouds 18 1019 88 10000 3.1 120 22:22 10.01.2020
1041 Clouds 18 1020 88 10000 3.1 140 21:59 10.01.2020
1042 Clouds 18 1020 88 10000 3.1 140 21:41 10.01.2020
1043 Clouds 19 1020 82 10000 3.1 150 21:20 10.01.2020
1044 Clouds 19 1020 82 10000 5.1 130 20:57 10.01.2020
1045 Clouds 19 1020 82 10000 5.1 130 20:38 10.01.2020
1046 Clouds 19 1020 82 10000 5.1 130 20:38 10.01.2020
1047 Clouds 20 1021 77 10000 5.1 140 20:20 10.01.2020
1048 Clouds 20 1020 82 10000 5.1 140 19:40 10.01.2020
1049 Thunderstorm 21 1020 83 10000 3.6 140 19:21 10.01.2020
1050 Thunderstorm 21 1019 83 10000 5.7 110 18:55 10.01.2020
1051 Thunderstorm 21 1019 83 10000 5.7 110 18:37 10.01.2020
1052 Thunderstorm 21 1019 83 10000 5.7 120 18:18 10.01.2020
1053 Thunderstorm 22 1019 78 10000 6.7 110 17:56 10.01.2020
1054 Thunderstorm 22 1019 78 10000 6.7 110 17:37 10.01.2020
1055 Clouds 22 1018 73 10000 5.7 110 17:19 10.01.2020
1056 Clouds 23 1018 69 10000 6.2 100 16:41 10.01.2020
1057 Clouds 24 1017 64 10000 5.1 90 16:21 10.01.2020
1058 Clouds 27 1017 51 10000 3.1 110 15:56 10.01.2020
1059 Clouds 27 1017 51 10000 3.1 110 15:56 10.01.2020
1060 Clouds 27 1017 51 10000 3.1 110 15:37 10.01.2020
1061 Clouds 27 1017 51 10000 3.1 110 15:37 10.01.2020
1062 Clouds 26 1017 54 10000 2.1 150 15:19 10.01.2020
1063 Clouds 27 1017 54 10000 3.1 120 14:57 10.01.2020
1064 Clouds 27 1017 54 10000 3.1 120 14:39 10.01.2020
1065 Clouds 28 1017 48 10000 2.1 0 14:19 10.01.2020
1066 Clouds 28 1017 42 10000 2.1 100 13:54 10.01.2020
1067 Clouds 28 1017 42 10000 2.1 100 13:36 10.01.2020
1068 Clouds 28 1017 51 10000 3.1 130 13:18 10.01.2020
1069 Clouds 27 1018 54 10000 3.1 110 12:54 10.01.2020
1070 Clouds 27 1018 54 10000 3.1 110 12:36 10.01.2020
1071 Clouds 27 1018 54 10000 3.6 110 12:18 10.01.2020
1072 Clouds 27 1018 54 10000 3.6 120 11:42 10.01.2020
1073 Clouds 27 1018 54 10000 3.6 120 11:42 10.01.2020
1074 Clouds 27 1018 54 10000 3.6 120 11:42 10.01.2020
1075 Clouds 27 1018 54 10000 3.6 120 11:42 10.01.2020
1076 Clouds 27 1019 54 10000 4.1 130 11:21 10.01.2020
1077 Clouds 26 1019 50 10000 3.6 110 10:59 10.01.2020
1078 Clouds 26 1019 50 10000 3.6 110 10:38 10.01.2020
1079 Clouds 27 1019 51 10000 3.6 190 10:19 10.01.2020
1080 Clouds 26 1019 54 10000 3.6 170 09:46 10.01.2020
1081 Clouds 26 1020 54 10000 2.6 100 09:26 10.01.2020
1082 Clouds 25 1020 53 10000 3.6 100 08:57 10.01.2020
1083 Clouds 25 1020 53 10000 3.6 100 08:37 10.01.2020
1084 Clouds 25 1020 61 10000 3.1 170 08:18 10.01.2020
1085 Clouds 24 1020 60 10000 4.1 140 07:41 10.01.2020
1086 Clouds 23 1020 69 10000 4.1 150 07:21 10.01.2020
1087 Clouds 22 1020 73 10000 4.6 140 06:41 10.01.2020
1088 Clouds 20 1020 77 10000 4.1 160 06:23 10.01.2020
1089 Clouds 20 1019 77 10000 4.6 140 05:25 10.01.2020
1090 Clouds 18 1018 88 10000 3.6 130 03:32 10.01.2020
1091 Clouds 18 1018 88 10000 2.1 140 02:53 10.01.2020
1092 Clouds 18 1018 88 10000 2.6 140 02:33 10.01.2020
1093 Clouds 19 1018 82 10000 3.6 140 01:32 10.01.2020
1094 Clouds 19 1018 82 10000 3.1 120 00:51 10.01.2020
1095 Clouds 19 1018 82 10000 3.1 140 00:33 10.01.2020
1096 Clouds 19 1019 82 10000 3.1 130 23:57 09.01.2020
1097 Clouds 19 1019 82 10000 3.1 130 23:57 09.01.2020
1098 Clouds 19 1019 82 10000 3.1 130 23:36 09.01.2020
1099 Clouds 19 1019 82 10000 3.6 140 23:18 09.01.2020
1100 Clouds 19 1019 82 10000 4.6 120 22:56 09.01.2020
1101 Clouds 19 1019 82 10000 4.6 120 22:37 09.01.2020
1102 Clouds 19 1019 82 10000 5.7 120 22:18 09.01.2020
1103 Clouds 20 1019 82 10000 4.1 130 21:55 09.01.2020
1104 Clouds 20 1019 82 10000 4.1 130 21:37 09.01.2020
1105 Clouds 20 1020 82 10000 4.1 130 21:18 09.01.2020
1106 Clouds 20 1019 82 10000 4.6 130 20:54 09.01.2020
1107 Clouds 20 1019 82 10000 4.6 130 20:36 09.01.2020
1108 Clouds 20 1020 82 10000 4.1 140 20:18 09.01.2020
1109 Clouds 20 1020 82 10000 5.7 120 19:39 09.01.2020
1110 Clouds 21 1019 77 10000 7.2 110 19:20 09.01.2020
1111 Thunderstorm 21 1019 83 10000 4.6 110 18:57 09.01.2020
1112 Thunderstorm 21 1019 83 10000 4.6 110 18:39 09.01.2020
1113 Thunderstorm 21 1019 83 10000 5.7 100 18:20 09.01.2020
1114 Clouds 22 1018 73 10000 5.7 100 17:41 09.01.2020
1115 Clouds 22 1018 73 10000 5.7 100 17:41 09.01.2020
1116 Clouds 23 1018 60 10000 4.6 120 17:19 09.01.2020
1117 Clouds 23 1017 64 10000 5.7 100 16:58 09.01.2020
1118 Clouds 23 1017 64 10000 5.7 100 16:39 09.01.2020
1119 Clouds 24 1017 60 10000 4.1 140 16:20 09.01.2020
1120 Clouds 25 1017 53 10000 3.6 150 15:43 09.01.2020
1121 Clouds 25 1017 57 10000 5.1 150 15:22 09.01.2020
1122 Clouds 26 1016 54 10000 3.6 140 14:58 09.01.2020
1123 Clouds 26 1016 54 10000 3.6 140 14:39 09.01.2020
1124 Clouds 27 1016 51 10000 5.1 140 14:19 09.01.2020
1125 Clouds 27 1017 54 10000 4.1 110 13:55 09.01.2020
1126 Clouds 27 1017 54 10000 4.1 110 13:37 09.01.2020
1127 Clouds 26 1017 54 10000 5.7 110 13:18 09.01.2020
1128 Clouds 27 1017 54 10000 4.6 150 12:42 09.01.2020
1129 Clouds 28 1018 51 10000 2.6 100 12:24 09.01.2020
1130 Clouds 27 1018 54 10000 3.6 120 11:59 09.01.2020
1131 Clouds 27 1018 54 10000 3.6 120 11:41 09.01.2020
1132 Clouds 27 1018 51 10000 3.6 100 11:23 09.01.2020
1133 Clouds 26 1019 54 10000 4.1 140 10:57 09.01.2020
1134 Clouds 26 1019 54 10000 4.1 140 10:39 09.01.2020
1135 Clouds 27 1019 54 10000 2.6 0 10:20 09.01.2020
1136 Clouds 26 1019 57 10000 3.1 150 09:41 09.01.2020
1137 Clouds 26 1019 57 10000 3.1 150 09:41 09.01.2020
1138 Clouds 26 1019 57 10000 3.1 150 09:41 09.01.2020
1139 Clouds 25 1019 61 10000 3.6 0 09:23 09.01.2020
1140 Clouds 25 1019 57 10000 2.6 0 08:57 09.01.2020
1141 Clouds 25 1019 57 10000 2.6 0 08:38 09.01.2020
1142 Clouds 24 1019 64 10000 3.1 160 08:19 09.01.2020
1143 Clouds 23 1020 69 10000 3.6 140 07:45 09.01.2020
1144 Clouds 23 1020 69 10000 4.1 170 07:27 09.01.2020
1145 Clouds 22 1020 73 10000 2.1 90 06:39 09.01.2020
1146 Clouds 21 1020 77 10000 2.6 100 06:21 09.01.2020
1147 Clouds 21 1020 77 10000 2.6 120 05:50 09.01.2020
1148 Clouds 18 1020 93 10000 0.5 0 04:46 09.01.2020
1149 Clouds 18 1019 93 10000 1 70 03:55 09.01.2020
1150 Clouds 18 1019 93 10000 2.6 100 03:26 09.01.2020
1151 Clouds 18 1019 93 10000 2.6 100 02:33 09.01.2020
1152 Clouds 18 1019 93 10000 1.5 70 01:41 09.01.2020
1153 Clouds 18 1019 93 10000 1 180 00:44 09.01.2020
1154 Clouds 18 1019 93 10000 1 0 00:23 09.01.2020
1155 Clouds 18 1019 93 10000 1.5 170 23:58 08.01.2020
1156 Clouds 18 1019 93 10000 1.5 180 23:38 08.01.2020
1157 Clouds 18 1019 93 10000 1.5 180 23:19 08.01.2020
1158 Clouds 18 1020 93 10000 1 0 22:40 08.01.2020
1159 Clouds 18 1020 93 10000 1 0 22:40 08.01.2020
1160 Clouds 18 1020 93 10000 1.5 160 22:21 08.01.2020
1161 Clouds 18 1020 93 10000 2.1 150 21:58 08.01.2020
1162 Clouds 18 1020 93 10000 2.1 150 21:39 08.01.2020
1163 Clouds 19 1020 88 10000 2.6 100 21:20 08.01.2020
1164 Clouds 19 1020 88 10000 2.6 100 20:58 08.01.2020
1165 Clouds 19 1020 88 10000 2.6 100 20:40 08.01.2020
1166 Clouds 19 1020 88 10000 2.1 80 20:20 08.01.2020
1167 Clouds 19 1020 88 10000 2.1 80 20:20 08.01.2020
1168 Clouds 19 1020 88 10000 1.5 40 19:57 08.01.2020
1169 Clouds 19 1021 88 10000 2.1 130 19:37 08.01.2020
1170 Clouds 19 1021 88 10000 2.1 130 19:19 08.01.2020
1171 Clouds 19 1020 88 10000 1.5 90 18:56 08.01.2020
1172 Clouds 19 1020 88 10000 1.5 90 18:37 08.01.2020
1173 Clouds 19 1020 88 10000 2.1 40 18:18 08.01.2020
1174 Clouds 19 1019 88 10000 3.1 70 17:48 08.01.2020
1175 Rain 19 1019 88 10000 2.6 50 17:24 08.01.2020
1176 Clouds 19 1019 88 10000 3.6 50 16:59 08.01.2020
1177 Clouds 19 1019 88 10000 3.6 50 16:41 08.01.2020
1178 Clouds 20 1019 88 10000 4.6 80 16:19 08.01.2020
1179 Clouds 20 1018 88 10000 3.1 120 15:59 08.01.2020
1180 Clouds 20 1018 88 10000 3.1 120 15:40 08.01.2020
1181 Thunderstorm 21 1018 83 10000 4.6 110 15:20 08.01.2020
1182 Thunderstorm 21 1018 83 10000 3.6 90 14:56 08.01.2020
1183 Thunderstorm 20 1017 88 10000 4.6 70 14:38 08.01.2020
1184 Thunderstorm 20 1017 88 10000 4.6 70 14:19 08.01.2020
1185 Thunderstorm 17 1019 93 4000 5.7 120 13:39 08.01.2020
1186 Thunderstorm 17 1019 93 4000 5.7 120 13:19 08.01.2020
1187 Thunderstorm 24 1017 69 10000 7.2 70 12:42 08.01.2020
1188 Thunderstorm 26 1017 65 10000 4.6 50 12:19 08.01.2020
1189 Thunderstorm 25 1018 65 10000 5.7 350 11:55 08.01.2020
1190 Thunderstorm 25 1018 65 10000 5.7 350 11:37 08.01.2020
1191 Thunderstorm 25 1018 65 10000 3.1 350 11:18 08.01.2020
1192 Clouds 28 1018 54 10000 2.1 0 10:54 08.01.2020
1193 Clouds 28 1018 51 10000 2.1 0 10:36 08.01.2020
1194 Clouds 28 1018 51 10000 2.1 0 10:18 08.01.2020
1195 Clouds 27 1019 57 10000 3.1 90 09:41 08.01.2020
1196 Clouds 26 1019 61 10000 2.1 0 09:19 08.01.2020
1197 Clouds 25 1020 69 10000 1.5 0 08:56 08.01.2020
1198 Clouds 25 1020 69 10000 1.5 0 08:37 08.01.2020
1199 Clouds 25 1020 69 10000 1.5 0 08:18 08.01.2020
1200 Clouds 23 1020 78 10000 2.1 70 07:47 08.01.2020
1201 Clouds 22 1020 78 10000 1.5 0 07:29 08.01.2020
1202 Clouds 21 1020 88 10000 2.1 160 06:44 08.01.2020
1203 Clouds 21 1019 83 10000 2.6 170 05:59 08.01.2020
1204 Clouds 21 1019 83 10000 2.6 170 05:38 08.01.2020
1205 Clouds 18 1019 100 10000 1 0 04:54 08.01.2020
1206 Clouds 18 1019 93 10000 1 40 03:33 08.01.2020
1207 Clouds 18 1019 93 10000 0.29 176 02:44 08.01.2020
1208 Clouds 18 1019 93 10000 0.65 71 02:19 08.01.2020
1209 Rain 18 1019 93 7000 1.5 270 01:40 08.01.2020
1210 Clouds 18 1019 93 10000 2.6 300 00:54 08.01.2020
1211 Clouds 18 1019 93 10000 2.1 300 00:26 08.01.2020
1212 Rain 18 1020 93 10000 2.1 300 23:47 07.01.2020
1213 Clouds 18 1020 93 10000 1 0 23:22 07.01.2020
1214 Rain 17 1019 100 10000 2.18 67 22:58 07.01.2020
1215 Rain 17 1020 100 10000 1.5 0 22:39 07.01.2020
1216 Rain 17 1020 100 10000 1.5 0 22:19 07.01.2020
1217 Thunderstorm 18 1020 93 10000 3.1 220 21:54 07.01.2020
1218 Thunderstorm 17 1020 100 10000 2.1 230 21:36 07.01.2020
1219 Thunderstorm 17 1020 100 10000 2.1 230 21:36 07.01.2020
1220 Thunderstorm 17 1020 100 10000 2.1 230 21:18 07.01.2020
1221 Thunderstorm 17 1020 100 10000 1 0 20:41 07.01.2020
1222 Thunderstorm 17 1020 100 10000 2.6 350 20:23 07.01.2020
1223 Thunderstorm 17 1021 100 8000 3.1 310 19:59 07.01.2020
1224 Thunderstorm 17 1021 93 8000 3.1 360 19:38 07.01.2020
1225 Thunderstorm 17 1021 93 8000 3.1 360 19:19 07.01.2020
1226 Thunderstorm 17 1021 93 8000 3.1 360 19:19 07.01.2020
1227 Thunderstorm 17 1020 100 7000 3.1 340 18:57 07.01.2020
1228 Thunderstorm 17 1020 100 7000 3.1 340 18:38 07.01.2020
1229 Thunderstorm 17 1020 93 4000 3.1 210 18:18 07.01.2020
1230 Thunderstorm 18 1020 93 2500 8.2 210 17:56 07.01.2020
1231 Thunderstorm 18 1020 93 2500 8.2 210 17:37 07.01.2020
1232 Thunderstorm 19 1019 88 3500 7.2 200 17:18 07.01.2020
1233 Thunderstorm 24 1018 69 10000 2.1 60 16:55 07.01.2020
1234 Thunderstorm 25 1017 65 10000 4.1 50 16:37 07.01.2020
1235 Thunderstorm 25 1017 65 10000 4.1 50 16:18 07.01.2020
1236 Clouds 25 1017 65 10000 3.6 40 15:43 07.01.2020
1237 Clouds 27 1016 51 10000 2.6 70 15:24 07.01.2020
1238 Clouds 28 1017 45 10000 2.1 0 14:58 07.01.2020
1239 Clouds 28 1017 45 10000 2.1 0 14:40 07.01.2020
1240 Clouds 29 1016 45 10000 1.5 0 14:21 07.01.2020
1241 Clouds 27 1017 54 10000 1.5 0 13:46 07.01.2020
1242 Clouds 27 1017 54 10000 1.5 0 13:21 07.01.2020
1243 Clouds 27 1017 54 10000 2.1 360 12:56 07.01.2020
1244 Clouds 27 1017 54 10000 2.1 360 12:38 07.01.2020
1245 Clouds 27 1018 54 10000 1 0 12:19 07.01.2020
1246 Clouds 26 1018 57 10000 2.6 80 11:41 07.01.2020
1247 Clouds 26 1019 57 10000 2.1 70 11:23 07.01.2020
1248 Clouds 26 1019 57 10000 2.1 70 10:57 07.01.2020
1249 Clouds 26 1019 57 10000 2.1 70 10:57 07.01.2020
1250 Clouds 25 1019 61 10000 2.1 70 10:39 07.01.2020
1251 Clouds 25 1019 61 10000 2.1 70 10:20 07.01.2020
1252 Clouds 25 1019 61 10000 2.1 60 09:39 07.01.2020
1253 Clouds 24 1020 64 10000 1 0 09:21 07.01.2020
1254 Clouds 24 1020 64 10000 1.5 0 08:57 07.01.2020
1255 Clouds 23 1020 69 10000 2.6 180 08:37 07.01.2020
1256 Clouds 23 1020 69 10000 2.6 180 08:18 07.01.2020
1257 Clouds 22 1020 73 10000 1 0 07:42 07.01.2020
1258 Clouds 22 1020 73 10000 2.6 120 06:57 07.01.2020
1259 Clouds 22 1020 73 10000 2.6 120 06:35 07.01.2020
1260 Clouds 20 1020 82 10000 2.6 110 05:59 07.01.2020
1261 Clouds 20 1020 82 10000 2.6 110 05:40 07.01.2020
1262 Clouds 19 1018 88 10000 2.1 80 03:45 07.01.2020
1263 Clouds 19 1018 88 10000 3.6 80 02:47 07.01.2020
1264 Clouds 19 1018 88 10000 4.1 90 01:59 07.01.2020
1265 Clouds 20 1018 82 10000 4.1 90 01:36 07.01.2020
1266 Clouds 20 1018 82 10000 3.6 70 00:55 07.01.2020
1267 Clouds 20 1018 82 10000 3.6 70 00:20 07.01.2020
1268 Clouds 20 1018 82 10000 5.1 90 23:56 06.01.2020
1269 Clouds 20 1018 82 10000 5.1 90 23:37 06.01.2020
1270 Clouds 20 1018 82 10000 3.1 60 23:19 06.01.2020
1271 Clouds 20 1019 82 10000 3.6 100 22:43 06.01.2020
1272 Clouds 20 1018 82 10000 3.1 140 22:24 06.01.2020
1273 Clouds 20 1018 82 10000 3.1 140 22:24 06.01.2020
1274 Clouds 20 1018 82 10000 3.1 140 22:24 06.01.2020
1275 Clouds 20 1019 82 10000 3.6 130 21:58 06.01.2020
1276 Clouds 20 1019 82 10000 3.6 130 21:39 06.01.2020
1277 Clouds 20 1019 82 10000 3.6 90 21:20 06.01.2020
1278 Clouds 20 1019 82 10000 3.6 90 21:20 06.01.2020
1279 Thunderstorm 21 1019 77 10000 5.1 130 20:57 06.01.2020
1280 Thunderstorm 21 1019 77 10000 5.1 130 20:38 06.01.2020
1281 Thunderstorm 21 1019 83 10000 4.6 130 20:20 06.01.2020
1282 Thunderstorm 21 1019 83 10000 4.6 140 19:56 06.01.2020
1283 Thunderstorm 21 1019 83 10000 4.6 140 19:38 06.01.2020
1284 Thunderstorm 22 1018 78 10000 5.1 110 19:20 06.01.2020
1285 Thunderstorm 22 1018 78 10000 4.1 120 18:48 06.01.2020
1286 Thunderstorm 22 1018 78 10000 4.1 100 18:22 06.01.2020
1287 Thunderstorm 23 1017 73 10000 4.6 100 17:58 06.01.2020
1288 Thunderstorm 23 1017 73 10000 4.6 100 17:38 06.01.2020
1289 Thunderstorm 23 1017 69 10000 5.1 110 17:18 06.01.2020
1290 Thunderstorm 24 1016 64 10000 5.1 100 16:44 06.01.2020
1291 Thunderstorm 25 1016 61 10000 5.7 100 16:25 06.01.2020
1292 Thunderstorm 25 1016 61 10000 5.7 100 16:25 06.01.2020
1293 Clouds 26 1015 50 10000 5.1 120 15:59 06.01.2020
1294 Clouds 26 1015 50 10000 5.1 120 15:39 06.01.2020
1295 Clouds 27 1015 47 10000 5.1 120 15:18 06.01.2020
1296 Clouds 28 1015 48 10000 6.2 80 14:56 06.01.2020
1297 Clouds 28 1015 48 10000 6.2 80 14:37 06.01.2020
1298 Clouds 29 1015 42 10000 5.1 120 14:18 06.01.2020
1299 Clouds 29 1015 42 10000 5.1 120 14:18 06.01.2020
1300 Clouds 29 1015 42 10000 3.6 170 13:41 06.01.2020
1301 Clouds 29 1015 39 10000 3.1 110 13:22 06.01.2020
1302 Clouds 29 1016 42 10000 3.1 80 12:59 06.01.2020
1303 Clouds 29 1016 42 10000 3.1 80 12:41 06.01.2020
1304 Clouds 29 1016 45 10000 3.1 90 12:20 06.01.2020
1305 Clouds 29 1016 45 10000 3.1 90 12:20 06.01.2020
1306 Clouds 29 1016 42 10000 3.1 120 11:55 06.01.2020
1307 Clouds 29 1016 42 10000 3.1 120 11:37 06.01.2020
1308 Clouds 28 1016 48 10000 3.1 160 11:19 06.01.2020
1309 Clouds 28 1017 51 10000 4.1 150 10:42 06.01.2020
1310 Clouds 28 1017 48 10000 3.6 150 10:21 06.01.2020
1311 Clouds 27 1017 54 10000 3.1 0 09:42 06.01.2020
1312 Clouds 27 1018 51 10000 4.1 160 09:24 06.01.2020
1313 Clouds 27 1018 51 10000 4.1 160 09:24 06.01.2020
1314 Clouds 26 1018 54 10000 3.1 0 08:58 06.01.2020
1315 Clouds 26 1018 54 10000 2.1 0 08:39 06.01.2020
1316 Clouds 26 1018 54 10000 2.1 0 08:21 06.01.2020
1317 Clouds 25 1018 57 10000 2.1 100 07:45 06.01.2020
1318 Clouds 24 1019 60 10000 3.1 140 06:55 06.01.2020
1319 Clouds 22 1018 68 10000 3.1 150 06:35 06.01.2020
1320 Clouds 22 1018 68 10000 2.1 150 05:48 06.01.2020
1321 Clouds 21 1018 73 10000 2.1 110 05:24 06.01.2020
1322 Clouds 18 1018 88 10000 2.1 140 04:24 06.01.2020
1323 Clouds 17 1018 93 10000 2.1 150 03:51 06.01.2020
1324 Clouds 17 1017 93 10000 1 0 02:28 06.01.2020
1325 Clouds 18 1017 88 10000 2.1 120 01:53 06.01.2020
1326 Clouds 18 1017 88 10000 3.6 100 01:30 06.01.2020
1327 Clouds 18 1017 93 10000 2.1 170 00:46 06.01.2020
1328 Clouds 19 1017 88 10000 1.5 0 00:28 06.01.2020
1329 Clouds 19 1017 88 10000 2.6 130 23:57 05.01.2020
1330 Clouds 19 1017 88 10000 2.6 130 23:57 05.01.2020
1331 Clouds 19 1017 88 10000 2.6 130 23:57 05.01.2020
1332 Clouds 19 1017 88 10000 2.6 130 23:38 05.01.2020
1333 Clouds 20 1018 82 10000 2.15 119 23:20 05.01.2020
1334 Clouds 19 1018 88 10000 2.15 119 22:40 05.01.2020
1335 Clouds 19 1018 88 10000 2.1 150 22:21 05.01.2020
1336 Clouds 19 1018 88 10000 2.6 150 21:58 05.01.2020
1337 Clouds 19 1018 88 10000 2.6 150 21:40 05.01.2020
1338 Clouds 19 1018 88 10000 2.1 160 21:20 05.01.2020
1339 Clouds 20 1018 82 10000 4.1 150 20:56 05.01.2020
1340 Clouds 20 1018 82 10000 4.1 150 20:38 05.01.2020
1341 Clouds 20 1018 82 10000 3.1 130 20:19 05.01.2020
1342 Clouds 20 1018 82 10000 3.6 130 19:58 05.01.2020
1343 Clouds 20 1018 82 10000 3.6 130 19:38 05.01.2020
1344 Clouds 20 1018 88 10000 4.6 110 19:20 05.01.2020
1345 Thunderstorm 21 1018 83 10000 2.6 140 18:55 05.01.2020
1346 Thunderstorm 21 1018 83 10000 2.6 140 18:37 05.01.2020
1347 Thunderstorm 21 1018 83 10000 2.6 140 18:37 05.01.2020
1348 Thunderstorm 21 1017 83 10000 3.6 140 18:19 05.01.2020
1349 Thunderstorm 21 1017 77 10000 3.1 140 17:57 05.01.2020
1350 Thunderstorm 21 1017 77 10000 3.1 140 17:38 05.01.2020
1351 Thunderstorm 22 1017 73 10000 4.6 150 17:19 05.01.2020
1352 Clouds 23 1016 73 10000 4.6 140 16:56 05.01.2020
1353 Clouds 23 1016 73 10000 4.6 140 16:37 05.01.2020
1354 Clouds 23 1015 73 10000 4.6 150 16:19 05.01.2020
1355 Clouds 24 1015 64 10000 5.7 140 15:37 05.01.2020
1356 Clouds 25 1014 57 10000 3.1 150 15:19 05.01.2020
1357 Clouds 26 1014 54 10000 2.6 130 14:55 05.01.2020
1358 Clouds 26 1014 54 10000 2.6 130 14:37 05.01.2020
1359 Clouds 28 1014 45 10000 3.1 120 14:18 05.01.2020
1360 Clouds 27 1014 51 10000 3.6 80 13:54 05.01.2020
1361 Clouds 27 1014 47 10000 2.6 140 13:36 05.01.2020
1362 Clouds 27 1014 47 10000 2.6 140 13:18 05.01.2020
1363 Clouds 29 1015 45 10000 3.1 160 12:55 05.01.2020
1364 Clouds 29 1015 45 10000 3.1 160 12:36 05.01.2020
1365 Clouds 28 1015 45 10000 3.1 120 12:36 05.01.2020
1366 Clouds 28 1015 45 10000 3.1 120 12:18 05.01.2020
1367 Clouds 28 1015 48 10000 3.1 150 11:41 05.01.2020
1368 Clouds 28 1015 48 10000 3.1 150 11:40 05.01.2020
1369 Clouds 28 1015 48 10000 3.1 150 11:40 05.01.2020
1370 Clouds 28 1015 48 10000 3.1 150 11:40 05.01.2020
1371 Clouds 28 1015 48 10000 3.1 150 11:40 05.01.2020
1372 Clouds 27 1016 51 10000 3.1 120 11:19 05.01.2020
1373 Clouds 27 1016 51 10000 3.1 120 11:19 05.01.2020
1374 Clouds 27 1016 51 10000 3.1 100 10:56 05.01.2020
1375 Clouds 27 1016 54 10000 3.1 0 10:36 05.01.2020
1376 Clouds 27 1016 54 10000 3.1 0 10:18 05.01.2020
1377 Clouds 25 1017 57 10000 3.1 0 09:41 05.01.2020
1378 Clouds 24 1017 60 10000 4.1 150 09:21 05.01.2020
1379 Clouds 24 1017 60 10000 3.1 150 08:48 05.01.2020
1380 Clouds 24 1017 64 10000 3.6 120 08:29 05.01.2020
1381 Clouds 23 1017 69 10000 3.6 170 07:55 05.01.2020
1382 Clouds 23 1017 69 10000 4.1 180 07:36 05.01.2020
1383 Clouds 23 1018 73 10000 3.6 170 06:59 05.01.2020
1384 Clouds 21 1017 77 10000 2.6 170 05:58 05.01.2020
1385 Clouds 20 1017 77 10000 2.6 170 05:30 05.01.2020
1386 Clouds 19 1017 88 10000 1.5 150 04:43 05.01.2020
1387 Clouds 17 1017 93 10000 2.1 150 03:47 05.01.2020
1388 Clouds 17 1016 93 10000 2.1 150 02:45 05.01.2020
1389 Clouds 18 1016 93 10000 2.1 90 02:20 05.01.2020
1390 Clouds 18 1015 93 10000 2.6 100 01:40 05.01.2020
1391 Clouds 18 1016 93 10000 1.5 0 01:18 05.01.2020
1392 Clouds 18 1016 93 10000 1.5 160 00:41 05.01.2020
1393 Clouds 18 1016 93 10000 1.5 160 00:22 05.01.2020
1394 Clouds 18 1016 93 10000 2.1 110 23:59 04.01.2020
1395 Clouds 18 1016 93 10000 2.1 110 23:39 04.01.2020
1396 Clouds 18 1016 93 10000 1 0 23:19 04.01.2020
1397 Clouds 18 1017 93 10000 1 0 22:39 04.01.2020
1398 Clouds 18 1017 93 10000 1 0 22:21 04.01.2020
1399 Clouds 18 1018 93 10000 1 0 21:57 04.01.2020
1400 Clouds 18 1018 93 10000 1 0 21:38 04.01.2020
1401 Clouds 18 1019 93 10000 2.1 170 21:19 04.01.2020
1402 Clouds 19 1019 88 10000 2.1 160 20:57 04.01.2020
1403 Clouds 19 1019 88 10000 4.1 130 20:38 04.01.2020
1404 Clouds 19 1019 88 10000 4.1 130 20:19 04.01.2020
1405 Clouds 19 1019 93 10000 4.1 100 19:42 04.01.2020
1406 Clouds 20 1019 88 10000 3.1 130 19:23 04.01.2020
1407 Clouds 19 1019 88 10000 3.1 90 18:58 04.01.2020
1408 Clouds 19 1019 88 10000 3.1 90 18:39 04.01.2020
1409 Clouds 20 1018 88 10000 4.1 100 18:20 04.01.2020
1410 Clouds 20 1018 82 10000 4.1 120 17:58 04.01.2020
1411 Clouds 20 1018 82 10000 4.1 120 17:40 04.01.2020
1412 Clouds 20 1018 88 10000 2.6 80 17:22 04.01.2020
1413 Clouds 20 1018 88 10000 2.6 130 16:42 04.01.2020
1414 Clouds 20 1017 88 10000 2.1 110 16:24 04.01.2020
1415 Clouds 20 1017 88 10000 2.1 110 16:24 04.01.2020
1416 Clouds 20 1017 88 10000 1 0 15:58 04.01.2020
1417 Clouds 20 1017 88 10000 1 0 15:39 04.01.2020
1418 Clouds 20 1016 88 10000 2.6 90 15:19 04.01.2020
1419 Thunderstorm 19 1016 93 10000 1 0 14:57 04.01.2020
1420 Thunderstorm 19 1016 93 10000 1 0 14:39 04.01.2020
1421 Thunderstorm 19 1017 93 6000 2.1 220 14:19 04.01.2020
1422 Thunderstorm 19 1016 93 10000 5.1 220 13:55 04.01.2020
1423 Thunderstorm 19 1016 93 10000 5.1 220 13:37 04.01.2020
1424 Thunderstorm 19 1016 93 10000 5.1 220 13:37 04.01.2020
1425 Thunderstorm 21 1016 77 10000 7.7 210 13:18 04.01.2020
1426 Thunderstorm 21 1016 77 10000 7.7 210 13:18 04.01.2020
1427 Thunderstorm 24 1015 57 10000 5.7 160 12:42 04.01.2020
1428 Rain 28 1015 48 10000 7.2 170 12:20 04.01.2020
1429 Rain 28 1015 48 10000 7.2 170 12:20 04.01.2020
1430 Clouds 29 1015 48 10000 2.1 0 11:59 04.01.2020
1431 Clouds 29 1015 48 10000 2.1 0 11:40 04.01.2020
1432 Clouds 29 1016 48 10000 1.5 70 11:19 04.01.2020
1433 Clouds 28 1016 48 10000 1.5 0 10:55 04.01.2020
1434 Clouds 28 1016 48 10000 1.5 0 10:55 04.01.2020
1435 Clouds 28 1016 48 10000 2.1 0 10:36 04.01.2020
1436 Clouds 28 1016 48 10000 2.1 0 10:18 04.01.2020
1437 Clouds 27 1017 57 10000 2.6 230 09:41 04.01.2020
1438 Clouds 27 1017 61 10000 2.1 0 09:22 04.01.2020
1439 Clouds 25 1017 65 10000 2.6 220 08:42 04.01.2020
1440 Clouds 25 1018 65 10000 2.1 230 08:21 04.01.2020
1441 Clouds 24 1018 69 10000 1.5 0 07:44 04.01.2020
1442 Clouds 23 1018 73 10000 1 0 07:21 04.01.2020
1443 Clouds 19 1019 93 10000 0.5 0 06:33 04.01.2020
1444 Clouds 18 1019 93 10000 0.5 0 05:39 04.01.2020
1445 Clouds 17 1018 100 10000 1.5 30 04:44 04.01.2020
1446 Clouds 17 1018 100 10000 0.5 0 04:26 04.01.2020
1447 Clouds 17 1018 93 10000 1 0 03:19 04.01.2020
1448 Clouds 17 1017 93 10000 2.6 320 02:23 04.01.2020
1449 Clouds 17 1018 100 10000 2.1 240 01:56 04.01.2020
1450 Clouds 17 1018 100 10000 2.1 240 01:32 04.01.2020
1451 Clouds 17 1017 100 10000 1 0 00:46 04.01.2020
1452 Clouds 18 1017 93 10000 1 0 00:27 04.01.2020
1453 Rain 17 1018 100 10000 2.6 50 23:48 03.01.2020
1454 Rain 17 1018 100 10000 2.6 50 23:26 03.01.2020
1455 Rain 17 1019 93 10000 2.1 280 22:54 03.01.2020
1456 Rain 17 1019 100 10000 2.6 260 22:36 03.01.2020
1457 Rain 17 1019 100 10000 2.6 260 22:18 03.01.2020
1458 Rain 17 1019 100 10000 2.6 260 22:18 03.01.2020
1459 Rain 17 1020 100 6000 2.6 290 21:54 03.01.2020
1460 Rain 17 1020 100 6000 3.1 270 21:36 03.01.2020
1461 Rain 17 1020 100 6000 3.1 270 21:18 03.01.2020
1462 Rain 17 1021 100 6000 3.6 280 20:43 03.01.2020
1463 Rain 17 1021 100 6000 3.1 300 20:19 03.01.2020
1464 Rain 17 1020 100 6000 4.6 320 19:58 03.01.2020
1465 Rain 17 1020 100 6000 4.6 320 19:39 03.01.2020
1466 Rain 17 1020 100 4000 4.6 300 19:21 03.01.2020
1467 Rain 18 1020 93 4000 6.7 210 18:44 03.01.2020
1468 Rain 19 1020 93 8000 1.5 320 18:26 03.01.2020
1469 Rain 19 1020 93 7000 2.1 310 17:57 03.01.2020
1470 Rain 19 1020 93 7000 2.1 310 17:38 03.01.2020
1471 Rain 19 1019 93 6000 4.6 330 17:19 03.01.2020
1472 Rain 20 1019 88 9000 4.1 320 16:43 03.01.2020
1473 Clouds 20 1019 94 10000 2.6 320 16:24 03.01.2020
1474 Rain 20 1018 88 4500 5.7 310 15:58 03.01.2020
1475 Rain 20 1018 88 4500 5.7 310 15:39 03.01.2020
1476 Clouds 21 1018 83 10000 3.6 330 15:18 03.01.2020
1477 Rain 21 1017 83 10000 5.1 320 14:39 03.01.2020
1478 Rain 21 1017 83 10000 5.1 320 14:19 03.01.2020
1479 Rain 20 1017 88 8000 5.7 340 13:44 03.01.2020
1480 Rain 20 1017 94 8000 5.1 340 13:24 03.01.2020
1481 Rain 21 1017 88 6000 3.6 350 13:00 03.01.2020
1482 Rain 21 1017 88 6000 3.6 350 12:39 03.01.2020
1483 Rain 20 1018 94 6000 5.7 10 12:21 03.01.2020
1484 Rain 20 1018 94 6000 5.7 10 11:47 03.01.2020
1485 Drizzle 23 1018 83 10000 6.2 10 11:23 03.01.2020
1486 Drizzle 23 1018 83 10000 6.2 10 10:47 03.01.2020
1487 Drizzle 23 1018 83 10000 6.2 10 10:27 03.01.2020
1488 Rain 25 1018 69 10000 2.6 20 09:58 03.01.2020
1489 Rain 25 1018 69 10000 2.6 20 09:40 03.01.2020
1490 Clouds 24 1019 73 10000 3.1 20 09:22 03.01.2020
1491 Clouds 24 1019 73 10000 3.6 330 08:57 03.01.2020
1492 Clouds 24 1019 73 10000 3.6 330 08:38 03.01.2020
1493 Rain 23 1020 73 10000 4.1 340 08:19 03.01.2020
1494 Clouds 23 1020 73 10000 4.1 320 07:40 03.01.2020
1495 Clouds 23 1019 78 10000 2.1 340 07:18 03.01.2020
1496 Clouds 21 1020 83 10000 3.1 330 06:49 03.01.2020
1497 Drizzle 20 1019 94 8000 2.6 340 06:30 03.01.2020
1498 Clouds 20 1019 94 9000 1 0 05:39 03.01.2020
1499 Clouds 18 1018 100 10000 0.5 240 04:22 03.01.2020
1500 Clouds 18 1017 93 10000 1.5 350 02:56 03.01.2020
1501 Clouds 18 1017 100 10000 2.1 10 02:28 03.01.2020
1502 Clouds 18 1017 93 10000 2.1 360 01:42 03.01.2020
1503 Clouds 18 1017 93 10000 2.1 360 01:42 03.01.2020
1504 Clouds 18 1017 100 10000 1 40 00:49 03.01.2020
1505 Clouds 18 1017 100 10000 1 40 00:29 03.01.2020
1506 Clouds 18 1017 100 10000 1 310 23:55 02.01.2020
1507 Clouds 18 1017 100 10000 2.06 264 23:37 02.01.2020
1508 Clouds 18 1017 100 10000 2.12 341 23:18 02.01.2020
1509 Rain 18 1017 100 10000 1.5 200 22:44 02.01.2020
1510 Rain 18 1018 100 10000 2.12 341 22:21 02.01.2020
1511 Rain 18 1018 100 10000 2.12 341 22:21 02.01.2020
1512 Rain 18 1018 100 10000 0.5 0 21:58 02.01.2020
1513 Rain 18 1018 100 10000 0.5 0 21:39 02.01.2020
1514 Rain 19 1018 93 10000 2.1 330 21:21 02.01.2020
1515 Rain 19 1019 93 10000 2.1 350 20:57 02.01.2020
1516 Rain 19 1019 93 10000 2.1 350 20:39 02.01.2020
1517 Rain 19 1019 93 8000 3.6 320 20:20 02.01.2020
1518 Rain 19 1019 100 6000 2.6 340 19:55 02.01.2020
1519 Rain 20 1019 94 10000 2.6 320 19:36 02.01.2020
1520 Rain 20 1019 94 10000 2.6 320 19:18 02.01.2020
1521 Rain 20 1018 94 10000 1.5 300 18:54 02.01.2020
1522 Rain 20 1018 94 10000 1 0 18:36 02.01.2020
1523 Rain 20 1018 94 10000 1 0 18:18 02.01.2020
1524 Clouds 20 1018 94 10000 2.6 330 17:55 02.01.2020
1525 Rain 20 1018 94 10000 2.6 340 17:36 02.01.2020
1526 Rain 20 1018 94 10000 2.6 340 17:18 02.01.2020
1527 Rain 20 1018 88 10000 4.1 320 16:42 02.01.2020
1528 Rain 20 1018 88 10000 4.1 320 16:42 02.01.2020
1529 Rain 20 1018 88 10000 4.1 320 16:42 02.01.2020
1530 Rain 20 1017 94 10000 3.1 350 16:22 02.01.2020
1531 Thunderstorm 20 1016 94 10000 3.6 350 15:59 02.01.2020
1532 Thunderstorm 20 1016 94 10000 3.6 350 15:41 02.01.2020
1533 Thunderstorm 20 1016 94 10000 2.6 310 15:23 02.01.2020
1534 Thunderstorm 21 1015 88 10000 3.1 340 14:57 02.01.2020
1535 Thunderstorm 21 1015 88 10000 5.1 350 14:37 02.01.2020
1536 Thunderstorm 21 1015 88 10000 5.1 350 14:18 02.01.2020
1537 Thunderstorm 23 1015 83 10000 2.6 20 13:51 02.01.2020
1538 Rain 22 1015 88 10000 3.6 330 13:32 02.01.2020
1539 Rain 24 1015 73 10000 4.1 300 12:47 02.01.2020
1540 Rain 26 1015 61 10000 4.1 40 12:28 02.01.2020
1541 Clouds 23 1016 78 0 3.1 10 11:59 02.01.2020
1542 Clouds 23 1016 78 0 3.1 10 11:41 02.01.2020
1543 Clouds 23 1016 78 0 3.1 10 11:20 02.01.2020
1544 Clouds 23 1017 73 10000 4.6 10 10:45 02.01.2020
1545 Clouds 24 1017 73 10000 5.1 40 10:26 02.01.2020
1546 Clouds 23 1017 78 10000 3.1 350 09:55 02.01.2020
1547 Clouds 23 1017 78 10000 3.1 10 09:34 02.01.2020
1548 Clouds 23 1017 73 10000 3.6 50 08:50 02.01.2020
1549 Clouds 22 1017 78 10000 3.6 30 08:28 02.01.2020
1550 Clouds 22 1017 78 10000 3.1 60 07:54 02.01.2020
1551 Clouds 22 1017 78 10000 3.1 60 07:31 02.01.2020
1552 Clouds 22 1017 78 10000 3.6 50 06:55 02.01.2020
1553 Clouds 22 1017 78 10000 3.6 50 06:55 02.01.2020
1554 Clouds 22 1017 83 10000 3.6 90 06:36 02.01.2020
1555 Clouds 19 1017 93 10000 2.1 150 05:36 02.01.2020
1556 Clouds 19 1016 93 10000 2.1 170 04:33 02.01.2020
1557 Clouds 18 1016 100 10000 2.1 200 02:55 02.01.2020
1558 Clouds 18 1015 100 10000 1.5 180 02:20 02.01.2020
1559 Clouds 18 1015 100 10000 2.1 140 01:46 02.01.2020
1560 Rain 18 1015 100 8000 1.5 170 00:59 02.01.2020
1561 Rain 19 1016 93 8000 1.5 0 00:34 02.01.2020
1562 Rain 19 1016 93 7000 3.6 120 23:56 01.01.2020
1563 Rain 19 1016 93 7000 5.7 100 23:37 01.01.2020
1564 Rain 19 1016 93 7000 5.7 100 23:18 01.01.2020
1565 Rain 19 1016 93 7000 5.1 110 22:38 01.01.2020
1566 Rain 19 1016 93 7000 5.1 100 22:19 01.01.2020
1567 Clouds 19 1017 93 10000 4.1 40 21:56 01.01.2020
1568 Clouds 19 1017 93 10000 4.1 40 21:37 01.01.2020
1569 Clouds 20 1017 88 10000 3.6 50 21:19 01.01.2020
1570 Clouds 20 1017 88 10000 3.1 40 20:55 01.01.2020
1571 Clouds 20 1017 88 10000 3.1 40 20:37 01.01.2020
1572 Thunderstorm 20 1017 94 10000 2.6 30 20:18 01.01.2020
1573 Thunderstorm 20 1017 94 10000 2.6 40 19:55 01.01.2020
1574 Thunderstorm 20 1017 94 10000 2.6 40 19:36 01.01.2020
1575 Thunderstorm 20 1016 94 10000 1.5 0 19:18 01.01.2020
1576 Thunderstorm 20 1016 94 10000 2.26 67 18:55 01.01.2020
1577 Thunderstorm 20 1016 94 10000 1 0 18:36 01.01.2020
1578 Thunderstorm 20 1016 94 10000 1 0 18:18 01.01.2020
1579 Thunderstorm 21 1016 94 10000 1.5 310 17:55 01.01.2020
1580 Thunderstorm 21 1016 94 10000 1 0 17:36 01.01.2020
1581 Thunderstorm 21 1016 94 10000 1 0 17:18 01.01.2020
1582 Thunderstorm 21 1015 94 10000 0.5 0 16:39 01.01.2020
1583 Thunderstorm 21 1015 88 10000 1.5 0 16:20 01.01.2020
1584 Clouds 21 1014 88 10000 1.5 0 15:57 01.01.2020
1585 Rain 22 1010 88 0 1.95 67 15:39 01.01.2020
1586 Rain 22 1010 88 0 1.95 67 15:20 01.01.2020
1587 Thunderstorm 20 1014 94 10000 1.5 270 14:56 01.01.2020
1588 Thunderstorm 20 1014 94 10000 1.5 270 14:38 01.01.2020
1589 Thunderstorm 20 1014 94 10000 1.5 270 14:20 01.01.2020
1590 Thunderstorm 20 1014 94 10000 1.5 270 13:55 01.01.2020
1591 Thunderstorm 20 1014 94 10000 1.5 270 13:37 01.01.2020
1592 Thunderstorm 19 1014 100 6000 2.6 0 13:18 01.01.2020
1593 Thunderstorm 19 1014 100 3500 8.7 30 12:55 01.01.2020
1594 Thunderstorm 20 1013 94 2500 9.3 360 12:36 01.01.2020
1595 Thunderstorm 20 1013 94 2500 9.3 360 12:18 01.01.2020
1596 Thunderstorm 29 1013 54 10000 3.1 0 11:42 01.01.2020
1597 Clouds 30 1013 55 10000 2.6 280 11:21 01.01.2020
1598 Clouds 29 1014 54 10000 2.1 0 10:57 01.01.2020
1599 Clouds 29 1014 54 10000 2.1 0 10:38 01.01.2020
1600 Clouds 26 1015 65 10000 2.1 0 10:19 01.01.2020
1601 Clouds 26 1015 65 10000 2.1 0 09:42 01.01.2020
1602 Clouds 27 1015 65 10000 2.1 220 09:22 01.01.2020
1603 Clouds 26 1015 69 10000 1.5 0 08:57 01.01.2020
1604 Clouds 26 1015 69 10000 1.5 0 08:38 01.01.2020
1605 Clouds 25 1016 69 10000 1.5 190 08:20 01.01.2020
1606 Clouds 25 1016 69 10000 1.5 160 07:58 01.01.2020
1607 Clouds 25 1016 69 10000 1.5 160 07:40 01.01.2020
1608 Clouds 24 1016 69 10000 1.5 0 07:19 01.01.2020
1609 Clouds 22 1016 73 10000 1 0 06:36 01.01.2020
1610 Clouds 21 1016 77 10000 1.5 20 05:51 01.01.2020
1611 Clouds 18 1016 93 10000 0.5 0 04:28 01.01.2020
1612 Clouds 17 1016 100 10000 0.5 0 03:39 01.01.2020
1613 Clouds 17 1015 100 10000 0.62 352 03:21 01.01.2020
1614 Clouds 17 1015 100 10000 0.62 352 02:42 01.01.2020
1615 Clouds 17 1015 100 10000 0.62 352 02:23 01.01.2020
1616 Clouds 17 1015 100 10000 1 0 01:42 01.01.2020
1617 Clouds 17 1015 100 10000 1 0 01:23 01.01.2020
1618 Rain 17 1016 100 10000 1.5 0 00:45 01.01.2020
1619 Rain 17 1016 100 10000 1.5 0 00:26 01.01.2020
1620 Rain 17 1016 100 9000 2.6 280 23:56 31.12.2019
1621 Rain 17 1016 100 9000 2.6 280 23:37 31.12.2019
1622 Rain 18 1016 93 9000 0.5 0 23:18 31.12.2019
1623 Rain 18 1016 88 10000 2.6 40 22:55 31.12.2019
1624 Rain 17 1017 88 10000 6.2 20 22:36 31.12.2019
1625 Rain 17 1017 88 10000 6.2 20 22:18 31.12.2019
1626 Thunderstorm 18 1017 88 8000 6.2 30 21:43 31.12.2019
1627 Thunderstorm 19 1018 93 10000 4.6 30 21:25 31.12.2019
1628 Thunderstorm 19 1017 93 10000 3.6 50 20:57 31.12.2019
1629 Thunderstorm 19 1017 93 10000 3.6 50 20:38 31.12.2019
1630 Thunderstorm 19 1017 93 10000 3.6 50 20:38 31.12.2019
1631 Thunderstorm 19 1017 100 8000 2.1 60 20:20 31.12.2019
1632 Thunderstorm 19 1017 100 6000 5.1 130 19:55 31.12.2019
1633 Thunderstorm 19 1017 100 4500 1.5 0 19:37 31.12.2019
1634 Thunderstorm 19 1017 100 4500 1.5 0 19:18 31.12.2019
1635 Thunderstorm 20 1016 94 3500 2.1 190 18:55 31.12.2019
1636 Thunderstorm 20 1016 94 2500 3.6 280 18:37 31.12.2019
1637 Thunderstorm 20 1016 94 2500 3.6 280 18:19 31.12.2019
1638 Rain 22 1015 78 10000 3.1 150 17:55 31.12.2019
1639 Clouds 25 1014 65 10000 3.1 110 17:36 31.12.2019
1640 Clouds 25 1014 65 10000 3.1 110 17:36 31.12.2019
1641 Clouds 25 1014 65 10000 3.1 110 17:18 31.12.2019
1642 Clouds 25 1014 69 10000 2.6 120 16:55 31.12.2019
1643 Clouds 26 1014 61 10000 1.5 180 16:36 31.12.2019
1644 Clouds 26 1014 61 10000 1.5 180 16:18 31.12.2019
1645 Clouds 27 1013 61 10000 1.5 200 15:55 31.12.2019
1646 Clouds 27 1013 61 10000 1.5 200 15:37 31.12.2019
1647 Clouds 26 1013 61 10000 1.5 0 15:18 31.12.2019
1648 Clouds 27 1013 57 10000 1.5 0 14:55 31.12.2019
1649 Clouds 27 1013 57 10000 1.5 0 14:36 31.12.2019
1650 Clouds 27 1013 57 10000 1.5 0 14:18 31.12.2019
1651 Rain 24 1013 69 10000 2.1 170 13:54 31.12.2019
1652 Rain 25 1014 65 10000 5.7 190 13:36 31.12.2019
1653 Rain 25 1014 65 10000 5.7 190 13:18 31.12.2019
1654 Rain 28 1014 48 10000 3.6 240 12:40 31.12.2019
1655 Rain 28 1014 48 10000 3.6 240 12:40 31.12.2019
1656 Clouds 30 1014 48 10000 4.1 260 12:21 31.12.2019
1657 Clouds 29 1014 45 10000 3.1 330 11:58 31.12.2019
1658 Clouds 29 1014 45 10000 3.1 330 11:40 31.12.2019
1659 Clouds 28 1015 48 10000 3.1 320 11:21 31.12.2019
1660 Clouds 27 1015 57 10000 2.6 270 10:58 31.12.2019
1661 Clouds 27 1015 57 10000 2.6 270 10:39 31.12.2019
1662 Clouds 28 1015 54 10000 3.1 0 10:20 31.12.2019
1663 Clouds 27 1016 61 10000 4.1 290 09:59 31.12.2019
1664 Clouds 27 1016 61 10000 4.1 290 09:40 31.12.2019
1665 Clouds 25 1016 69 10000 3.1 240 09:22 31.12.2019
1666 Clouds 25 1016 65 10000 3.6 220 08:58 31.12.2019
1667 Clouds 25 1016 65 10000 3.6 220 08:39 31.12.2019
1668 Clouds 24 1016 69 10000 2.6 240 08:20 31.12.2019
1669 Clouds 25 1016 65 10000 2.1 0 07:43 31.12.2019
1670 Clouds 23 1016 73 10000 1.5 0 07:22 31.12.2019
1671 Clouds 23 1017 73 10000 1.5 0 06:50 31.12.2019
1672 Clouds 21 1017 83 10000 2.6 290 05:58 31.12.2019
1673 Clouds 19 1017 93 10000 1.5 290 04:30 31.12.2019
1674 Clouds 18 1017 93 10000 1 20 03:59 31.12.2019
1675 Clouds 18 1015 93 10000 2.1 80 02:56 31.12.2019
1676 Clouds 18 1016 93 10000 2.1 90 02:19 31.12.2019
1677 Clouds 19 1015 88 10000 1.5 0 01:48 31.12.2019
1678 Clouds 19 1016 88 10000 2.6 90 01:27 31.12.2019
1679 Clouds 19 1016 88 10000 1.5 70 00:46 31.12.2019
1680 Clouds 19 1016 93 10000 2.1 70 00:22 31.12.2019
1681 Clouds 19 1016 93 10000 2.6 100 23:57 30.12.2019
1682 Clouds 19 1016 88 10000 2.6 130 23:38 30.12.2019
1683 Clouds 19 1016 88 10000 2.6 130 23:20 30.12.2019
1684 Clouds 19 1017 93 10000 1.5 100 22:58 30.12.2019
1685 Clouds 19 1017 93 10000 1.5 100 22:39 30.12.2019
1686 Clouds 19 1017 93 10000 2.6 110 22:20 30.12.2019
1687 Clouds 20 1017 88 10000 2.1 120 21:57 30.12.2019
1688 Clouds 20 1017 88 10000 2.1 120 21:38 30.12.2019
1689 Clouds 20 1017 94 10000 1.5 80 21:19 30.12.2019
1690 Clouds 19 1018 100 10000 1.5 100 20:56 30.12.2019
1691 Clouds 19 1018 100 10000 1.5 100 20:56 30.12.2019
1692 Clouds 19 1018 100 10000 1.5 100 20:38 30.12.2019
1693 Thunderstorm 19 1018 100 10000 1 0 20:20 30.12.2019
1694 Thunderstorm 19 1017 100 10000 1.5 0 19:57 30.12.2019
1695 Thunderstorm 19 1017 100 10000 1.5 0 19:37 30.12.2019
1696 Thunderstorm 19 1017 93 10000 2.1 330 19:19 30.12.2019
1697 Thunderstorm 19 1017 93 10000 2.1 330 19:19 30.12.2019
1698 Thunderstorm 19 1017 100 6000 2.6 340 18:56 30.12.2019
1699 Thunderstorm 19 1017 100 6000 2.6 340 18:38 30.12.2019
1700 Thunderstorm 20 1017 94 2500 2.6 330 18:20 30.12.2019
1701 Thunderstorm 22 1017 83 4500 3.6 280 17:55 30.12.2019
1702 Thunderstorm 25 1015 61 10000 2.6 190 17:36 30.12.2019
1703 Thunderstorm 25 1015 61 10000 2.6 190 17:18 30.12.2019
1704 Thunderstorm 26 1015 57 10000 4.6 110 16:55 30.12.2019
1705 Thunderstorm 26 1015 57 10000 4.6 110 16:55 30.12.2019
1706 Clouds 26 1014 50 10000 1 0 16:36 30.12.2019
1707 Clouds 26 1014 50 10000 1 0 16:18 30.12.2019
1708 Clouds 27 1014 47 10000 2.1 280 15:54 30.12.2019
1709 Clouds 28 1014 48 10000 2.1 270 15:36 30.12.2019
1710 Clouds 28 1014 48 10000 2.1 270 15:18 30.12.2019
1711 Clouds 28 1014 45 10000 2.6 260 14:42 30.12.2019
1712 Clouds 28 1014 45 10000 2.6 260 14:42 30.12.2019
1713 Clouds 30 1014 42 10000 2.1 0 14:19 30.12.2019
1714 Clouds 30 1014 40 10000 1 0 13:55 30.12.2019
1715 Clouds 30 1014 40 10000 1 0 13:37 30.12.2019
1716 Clouds 29 1014 42 10000 2.1 100 13:18 30.12.2019
1717 Clouds 29 1014 45 10000 2.1 350 12:42 30.12.2019
1718 Clouds 29 1015 45 10000 2.1 0 12:20 30.12.2019
1719 Clouds 28 1015 45 10000 1.5 0 11:58 30.12.2019
1720 Clouds 28 1015 45 10000 1.5 0 11:40 30.12.2019
1721 Clouds 28 1016 48 10000 2.1 0 11:19 30.12.2019
1722 Clouds 28 1016 48 10000 1.5 0 10:44 30.12.2019
1723 Clouds 26 1017 57 10000 2.1 280 10:21 30.12.2019
1724 Clouds 26 1017 57 10000 2.1 0 09:58 30.12.2019
1725 Clouds 26 1017 57 10000 2.1 0 09:39 30.12.2019
1726 Clouds 26 1017 61 10000 3.1 180 09:19 30.12.2019
1727 Clouds 25 1017 61 10000 2.1 210 08:50 30.12.2019
1728 Clouds 25 1017 61 10000 2.1 210 08:50 30.12.2019
1729 Clouds 24 1017 64 10000 2.1 50 08:23 30.12.2019
1730 Clouds 25 1017 61 10000 1.5 0 07:55 30.12.2019
1731 Clouds 25 1017 65 10000 2.1 160 07:34 30.12.2019
1732 Clouds 24 1018 69 10000 1.5 0 06:52 30.12.2019
1733 Clouds 19 1017 88 10000 1.5 0 04:56 30.12.2019
1734 Clouds 18 1017 93 10000 1.5 0 03:53 30.12.2019
1735 Clouds 18 1016 93 10000 1.5 140 02:50 30.12.2019
1736 Clouds 19 1016 88 10000 2.1 170 02:32 30.12.2019
1737 Clouds 19 1016 93 10000 1 0 01:50 30.12.2019
1738 Clouds 19 1016 100 10000 0.5 0 01:20 30.12.2019
1739 Clouds 19 1016 100 10000 1.5 0 00:43 30.12.2019
1740 Rain 19 1016 100 8000 2.1 140 23:59 29.12.2019
1741 Rain 19 1016 100 8000 2.1 140 23:39 29.12.2019
1742 Rain 19 1017 100 8000 2.1 330 23:21 29.12.2019
1743 Rain 19 1017 93 10000 3.1 310 22:42 29.12.2019
1744 Rain 19 1018 93 10000 1.5 0 22:22 29.12.2019
1745 Rain 19 1018 93 10000 2.6 50 21:58 29.12.2019
1746 Rain 19 1018 93 10000 2.6 50 21:40 29.12.2019
1747 Rain 19 1018 93 10000 1 50 21:20 29.12.2019
1748 Thunderstorm 19 1018 93 7000 2.1 350 20:57 29.12.2019
1749 Thunderstorm 19 1018 93 7000 2.1 350 20:38 29.12.2019
1750 Thunderstorm 18 1018 93 6000 2.6 250 20:20 29.12.2019
1751 Thunderstorm 21 1018 83 4000 6.7 210 19:58 29.12.2019
1752 Thunderstorm 22 1017 78 10000 3.1 150 19:39 29.12.2019
1753 Thunderstorm 22 1017 78 10000 3.1 150 19:20 29.12.2019
1754 Thunderstorm 22 1017 78 10000 3.6 160 18:55 29.12.2019
1755 Thunderstorm 23 1016 78 10000 4.6 120 18:37 29.12.2019
1756 Thunderstorm 23 1016 78 10000 4.6 120 18:19 29.12.2019
1757 Thunderstorm 23 1016 78 10000 4.6 120 18:19 29.12.2019
1758 Thunderstorm 23 1016 78 10000 5.7 120 17:56 29.12.2019
1759 Thunderstorm 23 1016 78 10000 5.7 120 17:38 29.12.2019
1760 Thunderstorm 23 1016 78 10000 5.7 120 17:38 29.12.2019
1761 Thunderstorm 24 1015 73 10000 6.7 110 17:19 29.12.2019
1762 Clouds 25 1015 65 10000 6.2 100 16:56 29.12.2019
1763 Clouds 26 1014 57 10000 5.7 100 16:36 29.12.2019
1764 Clouds 26 1014 57 10000 5.7 100 16:36 29.12.2019
1765 Clouds 26 1014 57 10000 5.7 100 16:18 29.12.2019
1766 Clouds 27 1014 51 10000 3.6 100 15:56 29.12.2019
1767 Clouds 27 1014 51 10000 3.6 100 15:38 29.12.2019
1768 Clouds 27 1013 51 10000 4.6 80 15:19 29.12.2019
1769 Clouds 29 1013 45 10000 5.7 110 14:55 29.12.2019
1770 Clouds 29 1013 45 10000 5.7 110 14:37 29.12.2019
1771 Clouds 29 1013 45 10000 5.7 110 14:37 29.12.2019
1772 Clouds 30 1013 33 10000 3.1 120 14:18 29.12.2019
1773 Clouds 30 1013 33 10000 3.1 120 14:18 29.12.2019
1774 Clouds 32 1013 27 10000 2.1 190 13:55 29.12.2019
1775 Clouds 32 1013 27 10000 2.1 190 13:37 29.12.2019
1776 Clouds 32 1013 27 10000 2.1 190 13:18 29.12.2019
1777 Clouds 31 1014 33 10000 2.1 0 12:42 29.12.2019
1778 Clouds 31 1014 35 10000 2.1 70 12:24 29.12.2019
1779 Clouds 30 1015 40 10000 2.1 0 11:55 29.12.2019
1780 Clouds 30 1015 40 10000 2.1 0 11:37 29.12.2019
1781 Clouds 29 1015 42 10000 2.6 0 11:19 29.12.2019
1782 Clouds 29 1016 45 10000 2.6 0 10:41 29.12.2019
1783 Clouds 28 1016 45 10000 2.1 0 10:21 29.12.2019
1784 Clouds 27 1016 54 10000 2.6 60 09:54 29.12.2019
1785 Clouds 27 1017 54 10000 1.5 0 09:36 29.12.2019
1786 Clouds 27 1017 54 10000 1.5 0 09:18 29.12.2019
1787 Clouds 25 1017 57 10000 2.1 130 08:46 29.12.2019
1788 Clouds 26 1017 61 10000 2.1 170 08:24 29.12.2019
1789 Clouds 26 1017 61 10000 2.1 180 07:54 29.12.2019
1790 Clouds 25 1017 61 10000 1.5 0 07:28 29.12.2019
1791 Clouds 24 1017 64 10000 0.5 0 06:53 29.12.2019
1792 Clouds 22 1017 78 10000 2.1 90 06:23 29.12.2019
1793 Clouds 21 1017 83 10000 1.5 0 05:50 29.12.2019
1794 Clouds 19 1017 93 10000 1 0 04:35 29.12.2019
1795 Clouds 18 1017 93 10000 0.21 131 03:40 29.12.2019
1796 Clouds 18 1016 93 10000 1 70 03:19 29.12.2019
1797 Clouds 19 1016 88 10000 2.1 50 02:19 29.12.2019
1798 Clouds 19 1016 88 10000 1.5 60 01:31 29.12.2019
1799 Clouds 19 1016 88 10000 1.5 60 01:31 29.12.2019
1800 Clouds 19 1016 93 10000 1.14 127 00:51 29.12.2019
1801 Clouds 19 1016 93 10000 0.5 0 00:27 29.12.2019
1802 Clouds 19 1016 93 10000 1 0 23:57 28.12.2019
1803 Clouds 19 1016 93 10000 1 0 23:39 28.12.2019
1804 Clouds 19 1016 93 10000 1.5 40 23:18 28.12.2019
1805 Clouds 20 1016 88 10000 2.1 70 22:38 28.12.2019
1806 Clouds 20 1016 88 10000 2.1 70 22:38 28.12.2019
1807 Clouds 20 1017 88 10000 3.1 70 22:19 28.12.2019
1808 Clouds 20 1017 88 10000 4.1 50 21:57 28.12.2019
1809 Clouds 20 1017 88 10000 4.1 50 21:38 28.12.2019
1810 Clouds 20 1017 88 10000 4.1 50 21:38 28.12.2019
1811 Clouds 21 1018 77 10000 3.6 50 21:20 28.12.2019
1812 Clouds 21 1018 77 10000 3.6 70 20:55 28.12.2019
1813 Clouds 21 1018 77 10000 3.6 70 20:55 28.12.2019
1814 Clouds 21 1017 77 10000 2.6 80 20:36 28.12.2019
1815 Clouds 21 1017 77 10000 2.6 80 20:18 28.12.2019
1816 Clouds 21 1017 77 10000 5.7 80 19:54 28.12.2019
1817 Clouds 21 1017 83 10000 3.1 90 19:36 28.12.2019
1818 Clouds 21 1017 83 10000 3.1 90 19:18 28.12.2019
1819 Clouds 21 1017 83 10000 2.1 120 18:42 28.12.2019
1820 Clouds 22 1016 78 10000 5.1 100 18:20 28.12.2019
1821 Clouds 22 1016 78 10000 3.6 110 17:59 28.12.2019
1822 Clouds 22 1015 78 10000 6.7 100 17:40 28.12.2019
1823 Clouds 22 1015 78 10000 6.7 100 17:21 28.12.2019
1824 Clouds 23 1015 73 10000 7.2 110 16:51 28.12.2019
1825 Clouds 24 1014 69 10000 7.7 100 16:27 28.12.2019
1826 Clouds 25 1014 65 10000 7.7 120 15:58 28.12.2019
1827 Clouds 25 1014 65 10000 7.7 120 15:39 28.12.2019
1828 Clouds 26 1014 57 10000 8.7 100 15:21 28.12.2019
1829 Clouds 26 1014 57 10000 8.7 100 15:21 28.12.2019
1830 Clouds 26 1014 57 10000 8.7 100 15:21 28.12.2019
1831 Clouds 28 1014 54 10000 8.2 120 14:47 28.12.2019
1832 Clouds 29 1014 51 10000 6.2 100 14:25 28.12.2019
1833 Clouds 30 1013 42 10000 4.6 130 13:58 28.12.2019
1834 Clouds 30 1013 42 10000 4.6 130 13:39 28.12.2019
1835 Clouds 30 1014 45 10000 4.6 90 13:20 28.12.2019
1836 Clouds 30 1014 42 10000 4.6 140 12:55 28.12.2019
1837 Clouds 30 1014 42 10000 4.1 130 12:36 28.12.2019
1838 Clouds 30 1014 42 10000 4.1 130 12:18 28.12.2019
1839 Clouds 30 1015 45 10000 4.1 110 11:39 28.12.2019
1840 Clouds 30 1015 45 10000 4.1 110 11:21 28.12.2019
1841 Clouds 29 1016 48 10000 4.1 140 10:47 28.12.2019
1842 Clouds 29 1016 48 10000 4.6 120 10:23 28.12.2019
1843 Clouds 29 1016 48 10000 5.7 110 09:59 28.12.2019
1844 Clouds 29 1016 48 10000 5.7 110 09:41 28.12.2019
1845 Clouds 28 1017 51 10000 4.6 120 09:23 28.12.2019
1846 Clouds 27 1017 57 10000 4.6 150 08:45 28.12.2019
1847 Clouds 26 1017 61 10000 4.1 150 08:27 28.12.2019
1848 Clouds 26 1017 57 10000 4.6 150 07:59 28.12.2019
1849 Clouds 26 1018 61 10000 3.6 160 07:39 28.12.2019
1850 Clouds 24 1018 64 10000 3.1 130 06:50 28.12.2019
1851 Clouds 20 1018 77 10000 2.6 110 05:31 28.12.2019
1852 Clouds 16 1018 93 10000 1 250 03:47 28.12.2019
1853 Clouds 16 1017 100 10000 1.5 0 02:49 28.12.2019
1854 Clouds 17 1017 93 10000 1.5 250 02:19 28.12.2019
1855 Clouds 17 1017 93 10000 1.5 250 01:50 28.12.2019
1856 Clouds 17 1017 93 10000 1 0 01:20 28.12.2019
1857 Clouds 17 1017 88 10000 1.5 0 00:41 28.12.2019
1858 Clouds 17 1017 93 10000 1 0 00:23 28.12.2019
1859 Clouds 17 1017 93 10000 1.5 70 23:45 27.12.2019
1860 Clouds 17 1017 93 10000 3.1 110 23:20 27.12.2019
1861 Clouds 18 1017 88 10000 3.6 130 22:58 27.12.2019
1862 Clouds 18 1017 88 10000 3.6 130 22:39 27.12.2019
1863 Clouds 18 1018 88 10000 2.6 150 22:21 27.12.2019
1864 Clouds 18 1018 93 10000 2.6 140 21:59 27.12.2019
1865 Clouds 18 1018 93 10000 2.6 140 21:40 27.12.2019
1866 Clouds 19 1018 88 10000 2.1 130 21:22 27.12.2019
1867 Clouds 19 1019 88 10000 2.6 140 20:42 27.12.2019
1868 Clouds 19 1018 88 10000 4.1 140 20:23 27.12.2019
1869 Clouds 20 1018 82 10000 3.6 130 19:55 27.12.2019
1870 Clouds 20 1018 82 10000 3.6 140 19:36 27.12.2019
1871 Clouds 20 1018 82 10000 3.6 140 19:18 27.12.2019
1872 Clouds 20 1018 82 10000 3.6 140 19:18 27.12.2019
1873 Clouds 20 1018 82 10000 3.6 140 19:18 27.12.2019
1874 Thunderstorm 21 1018 77 10000 4.1 150 18:41 27.12.2019
1875 Thunderstorm 21 1018 77 10000 5.1 120 18:23 27.12.2019
1876 Clouds 22 1018 73 10000 5.1 120 17:59 27.12.2019
1877 Clouds 22 1018 73 10000 5.1 120 17:41 27.12.2019
1878 Clouds 22 1017 73 10000 5.7 130 17:19 27.12.2019
1879 Clouds 23 1017 64 10000 5.7 140 16:59 27.12.2019
1880 Clouds 23 1017 64 10000 5.7 140 16:39 27.12.2019
1881 Clouds 24 1016 64 10000 6.7 130 16:20 27.12.2019
1882 Clouds 25 1016 61 10000 6.2 140 15:45 27.12.2019
1883 Clouds 26 1016 57 10000 7.2 120 15:23 27.12.2019
1884 Clouds 27 1016 54 10000 6.7 120 14:58 27.12.2019
1885 Clouds 27 1016 54 10000 6.7 120 14:40 27.12.2019
1886 Clouds 27 1016 51 10000 6.7 150 14:21 27.12.2019
1887 Clouds 28 1016 51 10000 5.7 110 13:57 27.12.2019
1888 Clouds 28 1016 51 10000 5.7 110 13:39 27.12.2019
1889 Clouds 27 1016 44 10000 5.7 130 13:21 27.12.2019
1890 Clouds 28 1017 48 10000 5.7 130 12:44 27.12.2019
1891 Clouds 28 1017 48 10000 5.7 170 12:24 27.12.2019
1892 Clouds 27 1017 51 10000 5.7 140 11:46 27.12.2019
1893 Clouds 27 1017 51 10000 6.2 150 11:28 27.12.2019
1894 Clouds 25 1018 61 10000 5.7 140 10:59 27.12.2019
1895 Clouds 25 1018 61 10000 5.7 140 10:41 27.12.2019
1896 Clouds 25 1018 61 10000 6.2 130 10:22 27.12.2019
1897 Clouds 25 1018 61 10000 6.2 140 09:49 27.12.2019
1898 Clouds 27 1018 51 10000 5.7 120 09:22 27.12.2019
1899 Clouds 24 1019 60 10000 5.7 140 08:59 27.12.2019
1900 Clouds 24 1019 60 10000 5.7 140 08:38 27.12.2019
1901 Clouds 24 1019 64 10000 6.7 140 07:57 27.12.2019
1902 Clouds 24 1019 64 10000 6.7 140 07:38 27.12.2019
1903 Clouds 23 1019 69 10000 5.1 160 06:39 27.12.2019
1904 Clouds 22 1019 73 10000 5.7 140 06:18 27.12.2019
1905 Clouds 18 1019 93 10000 2.6 180 04:20 27.12.2019
1906 Clouds 18 1018 88 10000 1.5 140 02:25 27.12.2019
1907 Clouds 18 1018 93 10000 2.1 170 01:42 27.12.2019
1908 Clouds 18 1018 88 10000 2.1 110 01:20 27.12.2019
1909 Clouds 17 1018 93 10000 2.1 140 00:46 27.12.2019
1910 Clouds 17 1018 93 10000 1.5 150 00:25 27.12.2019
1911 Clouds 18 1018 88 10000 1.5 0 23:42 26.12.2019
1912 Clouds 18 1018 88 10000 2.1 180 23:24 26.12.2019
1913 Clouds 18 1019 88 10000 2.6 150 22:58 26.12.2019
1914 Clouds 18 1019 88 10000 2.6 150 22:37 26.12.2019
1915 Clouds 18 1019 88 10000 3.1 150 22:18 26.12.2019
1916 Clouds 19 1019 82 10000 3.6 140 21:39 26.12.2019
1917 Clouds 19 1019 88 10000 3.1 140 21:21 26.12.2019
1918 Clouds 19 1020 88 10000 2.6 140 20:47 26.12.2019
1919 Clouds 19 1020 88 10000 3.6 140 20:24 26.12.2019
1920 Clouds 19 1020 88 10000 1.5 150 19:59 26.12.2019
1921 Clouds 19 1020 88 10000 2.6 110 19:40 26.12.2019
1922 Clouds 19 1020 88 10000 2.6 110 19:22 26.12.2019
1923 Clouds 20 1020 82 10000 5.7 110 18:59 26.12.2019
1924 Clouds 20 1020 82 10000 5.1 100 18:40 26.12.2019
1925 Clouds 20 1020 82 10000 5.1 100 18:20 26.12.2019
1926 Clouds 20 1019 82 10000 5.1 80 17:58 26.12.2019
1927 Clouds 20 1019 82 10000 5.1 80 17:40 26.12.2019
1928 Clouds 20 1019 82 10000 5.1 80 17:19 26.12.2019
1929 Clouds 22 1019 73 10000 5.7 100 16:46 26.12.2019
1930 Clouds 23 1018 64 10000 7.2 110 16:26 26.12.2019
1931 Clouds 23 1018 60 10000 6.2 120 15:56 26.12.2019
1932 Clouds 23 1018 60 10000 6.2 120 15:38 26.12.2019
1933 Clouds 23 1018 60 10000 6.2 120 15:18 26.12.2019
1934 Clouds 23 1018 60 10000 6.2 120 15:18 26.12.2019
1935 Clouds 23 1018 60 10000 6.7 110 14:41 26.12.2019
1936 Clouds 24 1017 60 10000 7.7 110 14:23 26.12.2019
1937 Clouds 25 1017 57 10000 7.7 110 13:45 26.12.2019
1938 Clouds 24 1017 60 10000 4.6 140 13:24 26.12.2019
1939 Clouds 24 1018 57 10000 7.2 120 12:59 26.12.2019
1940 Clouds 24 1018 57 10000 7.2 120 12:40 26.12.2019
1941 Clouds 24 1018 57 10000 7.2 120 12:21 26.12.2019
1942 Clouds 25 1018 50 10000 7.2 120 11:58 26.12.2019
1943 Clouds 25 1018 50 10000 7.2 120 11:58 26.12.2019
1944 Clouds 25 1018 50 10000 7.2 120 11:40 26.12.2019
1945 Clouds 26 1018 50 10000 6.7 120 11:20 26.12.2019
1946 Clouds 27 1018 47 10000 7.7 120 10:49 26.12.2019
1947 Clouds 26 1019 50 10000 7.7 140 10:24 26.12.2019
1948 Clouds 26 1019 54 10000 6.7 140 09:54 26.12.2019
1949 Clouds 25 1020 57 10000 7.2 130 09:33 26.12.2019
1950 Clouds 24 1020 57 10000 7.2 130 08:58 26.12.2019
1951 Clouds 24 1020 57 10000 7.2 130 08:38 26.12.2019
1952 Clouds 24 1020 57 10000 7.2 120 08:20 26.12.2019
1953 Clouds 24 1020 57 10000 7.2 120 08:20 26.12.2019
1954 Clouds 23 1020 60 10000 6.2 140 07:31 26.12.2019
1955 Clouds 22 1020 64 10000 5.7 140 06:57 26.12.2019
1956 Clouds 21 1020 68 10000 5.1 140 06:34 26.12.2019
1957 Clouds 21 1020 73 10000 5.7 120 05:57 26.12.2019
1958 Clouds 21 1020 73 10000 5.7 120 05:38 26.12.2019
1959 Rain 18 1020 93 10000 4.1 110 04:32 26.12.2019
1960 Clouds 18 1019 93 10000 2.6 150 03:20 26.12.2019
1961 Drizzle 18 1019 93 7000 3.1 140 02:40 26.12.2019
1962 Clouds 18 1019 88 10000 3.6 150 02:20 26.12.2019
1963 Clouds 18 1019 88 10000 4.1 160 01:42 26.12.2019
1964 Clouds 18 1019 88 10000 4.1 140 01:24 26.12.2019
1965 Clouds 18 1019 82 10000 2.1 160 00:42 26.12.2019
1966 -273 0 0 0 0 0 00:22 26.12.2019
1967 Clouds 17 1019 88 10000 2.1 170 23:42 25.12.2019
1968 Clouds 18 1021 82 10000 2.6 150 23:21 25.12.2019
1969 Clouds 18 1021 82 10000 2.6 150 22:59 25.12.2019
1970 Clouds 18 1021 82 10000 2.6 150 22:40 25.12.2019
1971 Clouds 18 1021 82 10000 3.1 140 22:22 25.12.2019
1972 Clouds 18 1021 82 10000 3.1 140 22:22 25.12.2019
1973 Clouds 19 1021 82 10000 3.6 140 21:59 25.12.2019
1974 Clouds 19 1021 82 10000 3.6 140 21:40 25.12.2019
1975 Clouds 19 1021 82 10000 3.6 140 21:22 25.12.2019
1976 Clouds 19 1021 82 10000 4.6 140 20:57 25.12.2019
1977 Clouds 19 1021 82 10000 4.6 140 20:39 25.12.2019
1978 Clouds 19 1021 82 10000 4.6 150 20:18 25.12.2019
1979 Clouds 19 1021 82 10000 4.6 150 20:18 25.12.2019
1980 Clouds 19 1021 82 10000 4.6 150 20:18 25.12.2019
1981 Clouds 20 1021 82 10000 3.6 140 19:43 25.12.2019
1982 Clouds 20 1021 82 10000 3.6 140 19:43 25.12.2019
1983 Clouds 19 1020 82 10000 3.6 160 19:25 25.12.2019
1984 Clouds 19 1020 82 10000 4.6 160 18:59 25.12.2019
1985 Clouds 19 1020 82 10000 4.6 160 18:38 25.12.2019
1986 Clouds 19 1020 82 10000 4.6 160 18:38 25.12.2019
1987 Clouds 20 1021 77 10000 4.1 170 18:19 25.12.2019
1988 Clouds 20 1020 77 10000 4.1 150 17:42 25.12.2019
1989 Clouds 20 1020 77 10000 4.1 150 17:20 25.12.2019
1990 Clouds 21 1020 73 10000 4.1 150 16:59 25.12.2019
1991 Clouds 21 1020 73 10000 4.1 150 16:38 25.12.2019
1992 Clouds 21 1019 73 10000 5.1 140 16:19 25.12.2019
1993 Clouds 22 1019 68 10000 6.2 130 15:57 25.12.2019
1994 Clouds 23 1019 69 10000 4.6 140 15:39 25.12.2019
1995 Clouds 23 1019 69 10000 4.6 140 15:20 25.12.2019
1996 Clouds 23 1019 69 10000 5.7 160 14:57 25.12.2019
1997 Clouds 23 1019 69 10000 5.7 160 14:39 25.12.2019
1998 Clouds 24 1019 64 10000 5.7 150 14:20 25.12.2019
1999 Clouds 23 1019 73 10000 5.1 140 13:45 25.12.2019
2000 Rain 22 1019 73 10000 6.7 120 13:21 25.12.2019
2001 Rain 24 1019 64 10000 6.7 120 12:58 25.12.2019
2002 Rain 24 1019 64 10000 6.7 120 12:38 25.12.2019
2003 Rain 24 1019 60 10000 7.2 120 12:20 25.12.2019
2004 Clouds 25 1019 57 10000 8.7 110 11:43 25.12.2019
2005 Clouds 27 1019 47 10000 5.7 130 11:23 25.12.2019
2006 Clouds 25 1019 50 10000 7.7 140 10:59 25.12.2019
2007 Clouds 25 1019 50 10000 7.7 140 10:37 25.12.2019
2008 Clouds 25 1019 50 10000 7.7 140 10:37 25.12.2019
2009 Clouds 25 1020 44 10000 7.7 130 10:19 25.12.2019
2010 Clouds 26 1020 47 10000 7.7 120 09:45 25.12.2019
2011 Clouds 25 1020 47 10000 7.7 140 09:27 25.12.2019
2012 Clouds 24 1020 47 10000 7.7 150 08:47 25.12.2019
2013 Clouds 22 1021 64 10000 7.2 140 08:28 25.12.2019
2014 Clouds 22 1021 64 10000 7.2 130 07:49 25.12.2019
2015 Clouds 21 1021 68 10000 5.7 140 07:31 25.12.2019
2016 Clouds 21 1021 64 10000 6.2 140 06:49 25.12.2019
2017 Clouds 20 1021 68 10000 5.7 140 06:22 25.12.2019
2018 Clouds 19 1021 68 10000 5.7 140 05:18 25.12.2019
2019 Clouds 18 1020 77 10000 4.1 150 04:38 25.12.2019
2020 Clouds 17 1020 82 10000 3.1 150 04:18 25.12.2019
2021 Clouds 16 1020 87 10000 3.6 160 03:40 25.12.2019
2022 Clouds 17 1019 88 10000 4.1 170 02:39 25.12.2019
2023 Clouds 17 1019 88 10000 5.1 140 01:59 25.12.2019
2024 Clouds 18 1019 88 10000 6.2 150 01:25 25.12.2019
2025 Clouds 17 1019 93 10000 4.6 160 00:50 25.12.2019
2026 Clouds 18 1019 88 10000 4.6 160 00:29 25.12.2019
2027 Clouds 18 1019 88 10000 3.6 160 23:55 24.12.2019
2028 Clouds 18 1019 88 10000 3.6 160 23:37 24.12.2019
2029 Clouds 18 1020 88 10000 3.1 160 23:19 24.12.2019
2030 Clouds 17 1020 93 10000 2.1 170 22:39 24.12.2019
2031 Clouds 18 1021 88 10000 2.6 150 22:20 24.12.2019
2032 Clouds 18 1021 88 10000 4.1 170 21:42 24.12.2019
2033 Clouds 18 1022 88 10000 4.6 170 21:22 24.12.2019
2034 Clouds 18 1022 88 10000 4.6 170 21:22 24.12.2019
2035 Clouds 19 1022 82 10000 4.1 180 20:45 24.12.2019
2036 Clouds 19 1022 82 10000 3.1 170 20:24 24.12.2019
2037 Clouds 18 1022 82 10000 4.1 120 19:57 24.12.2019
2038 Clouds 18 1022 82 10000 4.1 120 19:39 24.12.2019
2039 Clouds 19 1021 77 10000 4.1 130 19:19 24.12.2019
2040 Clouds 19 1021 77 10000 4.1 130 18:42 24.12.2019
2041 Clouds 19 1021 82 10000 4.1 100 18:23 24.12.2019
2042 Clouds 20 1020 82 10000 3.6 140 17:50 24.12.2019
2043 Clouds 20 1020 77 10000 4.1 150 17:24 24.12.2019
2044 Clouds 21 1019 77 10000 4.1 150 16:59 24.12.2019
2045 Clouds 21 1019 77 10000 4.1 150 16:41 24.12.2019
2046 Clouds 21 1019 77 10000 6.7 110 16:23 24.12.2019
2047 Clouds 21 1019 77 10000 6.7 110 16:23 24.12.2019
2048 Clouds 21 1019 77 10000 6.7 110 16:22 24.12.2019
2049 Clouds 22 1019 73 10000 5.1 120 15:58 24.12.2019
2050 Clouds 22 1019 68 10000 4.6 100 15:39 24.12.2019
2051 Clouds 22 1019 68 10000 4.6 100 15:20 24.12.2019
2052 Clouds 23 1019 64 10000 6.2 100 14:59 24.12.2019
2053 Clouds 23 1019 64 10000 6.2 100 14:59 24.12.2019
2054 Clouds 23 1019 64 10000 6.2 100 14:41 24.12.2019
2055 Clouds 23 1019 64 10000 6.2 100 14:22 24.12.2019
2056 Clouds 23 1019 64 10000 6.7 100 13:57 24.12.2019
2057 Clouds 23 1019 64 10000 6.7 100 13:39 24.12.2019
2058 Clouds 24 1019 64 10000 6.2 90 13:21 24.12.2019
2059 Clouds 22 1019 78 10000 6.7 100 12:58 24.12.2019
2060 Clouds 22 1019 78 10000 6.7 100 12:38 24.12.2019
2061 Clouds 23 1019 73 10000 6.7 120 12:19 24.12.2019
2062 Clouds 25 1019 65 10000 6.2 110 11:58 24.12.2019
2063 Clouds 25 1019 65 10000 6.2 110 11:38 24.12.2019
2064 Clouds 25 1019 65 10000 6.2 110 11:38 24.12.2019
2065 Clouds 25 1020 65 10000 4.1 130 11:20 24.12.2019
2066 Clouds 25 1019 61 10000 4.6 110 10:57 24.12.2019
2067 Clouds 25 1019 61 10000 4.6 110 10:38 24.12.2019
2068 Clouds 25 1020 65 10000 4.6 110 10:20 24.12.2019
2069 Clouds 24 1020 69 10000 5.7 120 09:58 24.12.2019
2070 Clouds 24 1020 69 10000 5.7 120 09:40 24.12.2019
2071 Clouds 24 1020 69 10000 5.1 130 09:21 24.12.2019
2072 Clouds 23 1021 69 10000 5.7 130 08:47 24.12.2019
2073 Clouds 24 1021 64 10000 5.1 160 08:25 24.12.2019
2074 Clouds 23 1021 64 10000 5.7 150 07:59 24.12.2019
2075 Clouds 23 1021 64 10000 5.7 150 07:39 24.12.2019
2076 Clouds 23 1021 64 10000 5.7 150 07:21 24.12.2019
2077 Clouds 23 1021 64 10000 5.7 150 07:21 24.12.2019
2078 Clouds 23 1021 60 10000 5.7 150 06:40 24.12.2019
2079 Clouds 22 1020 64 10000 4.6 140 06:19 24.12.2019
2080 Clouds 21 1021 68 10000 4.6 170 05:53 24.12.2019
2081 Clouds 19 1020 72 10000 2.1 160 05:19 24.12.2019
2082 Clouds 19 1020 72 10000 2.1 160 05:19 24.12.2019
2083 Clouds 16 1020 87 10000 1.5 160 04:21 24.12.2019
2084 Clouds 15 1019 93 10000 0.5 0 03:46 24.12.2019
2085 Clouds 15 1019 93 10000 2.1 190 02:29 24.12.2019
2086 Clouds 16 1019 87 10000 2.1 130 01:54 24.12.2019
2087 Clouds 16 1019 87 10000 2.1 160 01:26 24.12.2019
2088 Clouds 16 1019 87 10000 3.1 140 00:58 24.12.2019
2089 Clouds 16 1019 87 10000 3.1 140 00:39 24.12.2019
2090 Clouds 17 1019 82 10000 3.1 140 00:19 24.12.2019
2091 Clouds 17 1020 82 10000 3.6 130 23:42 23.12.2019
2092 Clouds 17 1020 82 10000 2.6 140 23:24 23.12.2019
2093 Clouds 17 1020 82 10000 3.6 150 22:57 23.12.2019
2094 Clouds 17 1020 82 10000 3.6 150 22:38 23.12.2019
2095 Clouds 18 1021 82 10000 5.1 130 22:20 23.12.2019
2096 Clouds 18 1021 82 10000 5.1 140 21:56 23.12.2019
2097 Clouds 18 1021 82 10000 5.1 140 21:37 23.12.2019
2098 Clouds 18 1021 88 10000 4.1 150 21:19 23.12.2019
2099 Clouds 18 1021 88 10000 4.1 150 21:19 23.12.2019
2100 Clouds 19 1021 82 10000 3.6 150 20:58 23.12.2019
2101 Clouds 19 1021 82 10000 3.6 150 20:40 23.12.2019
2102 Clouds 19 1021 82 10000 3.6 140 20:19 23.12.2019
2103 Clouds 19 1021 82 10000 3.6 140 20:19 23.12.2019
2104 Clouds 19 1021 82 10000 3.6 140 20:19 23.12.2019
2105 Clouds 19 1021 82 10000 4.1 130 19:57 23.12.2019
2106 Clouds 19 1021 82 10000 4.1 130 19:38 23.12.2019
2107 Clouds 19 1021 82 10000 4.6 120 19:20 23.12.2019
2108 Clouds 20 1021 77 10000 5.1 120 18:58 23.12.2019
2109 Clouds 20 1021 77 10000 5.1 120 18:39 23.12.2019
2110 Clouds 20 1021 77 10000 5.1 120 18:20 23.12.2019
2111 Clouds 21 1020 73 10000 6.2 110 17:58 23.12.2019
2112 Clouds 21 1020 73 10000 6.2 110 17:39 23.12.2019
2113 Clouds 22 1020 64 10000 5.1 120 17:19 23.12.2019
2114 Clouds 22 1020 64 10000 6.7 110 16:55 23.12.2019
2115 Clouds 23 1019 56 10000 6.7 110 16:37 23.12.2019
2116 Clouds 23 1019 56 10000 6.7 110 16:18 23.12.2019
2117 Clouds 23 1019 56 10000 6.7 110 16:18 23.12.2019
2118 Clouds 25 1019 47 10000 4.6 130 15:55 23.12.2019
2119 Clouds 25 1019 47 10000 5.7 120 15:36 23.12.2019
2120 Clouds 25 1019 47 10000 5.7 120 15:18 23.12.2019
2121 Clouds 26 1019 44 10000 6.2 120 14:45 23.12.2019
2122 Clouds 26 1019 44 10000 6.2 120 14:26 23.12.2019
2123 Clouds 26 1019 44 10000 6.2 120 14:26 23.12.2019
2124 Clouds 27 1019 42 10000 5.7 120 13:59 23.12.2019
2125 Clouds 27 1019 42 10000 5.1 140 13:41 23.12.2019
2126 Clouds 27 1019 42 10000 5.1 140 13:22 23.12.2019
2127 Clouds 27 1019 42 10000 5.7 130 12:58 23.12.2019
2128 Clouds 27 1019 42 10000 5.7 130 12:58 23.12.2019
2129 Clouds 27 1019 42 10000 5.7 130 12:39 23.12.2019
2130 Clouds 26 1019 44 10000 6.2 120 12:21 23.12.2019
2131 Clouds 26 1020 41 10000 4.6 150 11:55 23.12.2019
2132 Clouds 26 1020 44 10000 5.7 150 11:37 23.12.2019
2133 Clouds 26 1020 44 10000 5.7 150 11:18 23.12.2019
2134 Clouds 26 1020 44 10000 5.7 140 10:54 23.12.2019
2135 Clouds 26 1021 47 10000 5.7 130 10:36 23.12.2019
2136 Clouds 26 1021 47 10000 5.7 130 10:18 23.12.2019
2137 Clouds 26 1021 47 10000 5.7 130 10:18 23.12.2019
2138 Clouds 25 1021 53 10000 6.7 120 09:40 23.12.2019
2139 Clouds 24 1021 57 10000 5.7 150 09:22 23.12.2019
2140 Clouds 24 1021 60 10000 6.7 170 08:58 23.12.2019
2141 Clouds 24 1021 60 10000 6.7 170 08:40 23.12.2019
2142 Clouds 24 1021 60 10000 5.7 130 08:22 23.12.2019
2143 Clouds 22 1021 64 10000 6.2 150 07:48 23.12.2019
2144 Clouds 23 1021 60 10000 6.2 120 07:21 23.12.2019
2145 Clouds 21 1021 68 10000 4.6 140 06:57 23.12.2019
2146 Clouds 20 1021 72 10000 6.2 150 06:26 23.12.2019
2147 Clouds 19 1021 77 10000 4.6 140 05:56 23.12.2019
2148 Clouds 18 1021 82 10000 3.1 150 05:29 23.12.2019
2149 Clouds 17 1021 88 10000 3.1 130 04:31 23.12.2019
2150 Clouds 17 1020 88 10000 2.1 150 03:24 23.12.2019
2151 Clouds 16 1020 93 10000 1.5 130 02:41 23.12.2019
2152 Clouds 16 1020 87 10000 3.6 120 02:19 23.12.2019
2153 Clouds 17 1020 88 10000 2.6 140 01:42 23.12.2019
2154 Clouds 16 1020 87 10000 2.6 120 01:23 23.12.2019
2155 Clouds 17 1021 82 10000 2.6 140 00:43 23.12.2019
2156 Clouds 17 1021 82 10000 2.6 140 00:22 23.12.2019
2157 Clouds 17 1021 88 10000 3.6 140 23:39 22.12.2019
2158 Clouds 17 1022 88 10000 3.6 160 23:21 22.12.2019
2159 Clouds 18 1022 82 10000 4.1 160 22:58 22.12.2019
2160 Clouds 18 1022 82 10000 4.1 160 22:58 22.12.2019
2161 Clouds 18 1022 82 10000 4.1 160 22:40 22.12.2019
2162 Clouds 18 1022 82 10000 3.6 160 22:19 22.12.2019
2163 Clouds 18 1022 82 10000 4.1 140 21:57 22.12.2019
2164 Clouds 18 1022 82 10000 4.1 140 21:39 22.12.2019
2165 Clouds 19 1022 82 10000 3.1 140 21:21 22.12.2019
2166 Clouds 19 1022 88 10000 2.6 150 20:57 22.12.2019
2167 Clouds 19 1022 88 10000 2.6 150 20:38 22.12.2019
2168 Clouds 19 1022 88 10000 3.6 150 20:18 22.12.2019
2169 Clouds 19 1022 88 10000 2.6 160 19:55 22.12.2019
2170 Clouds 19 1022 88 10000 2.6 160 19:55 22.12.2019
2171 Clouds 19 1022 88 10000 2.6 160 19:37 22.12.2019
2172 Clouds 19 1022 82 10000 3.6 130 19:18 22.12.2019
2173 Clouds 19 1022 82 10000 4.1 130 18:40 22.12.2019
2174 Clouds 19 1022 88 10000 6.2 110 18:22 22.12.2019
2175 Clouds 20 1022 82 10000 4.6 140 17:55 22.12.2019
2176 Clouds 20 1022 82 10000 4.6 140 17:37 22.12.2019
2177 Clouds 20 1022 77 10000 5.7 120 17:18 22.12.2019
2178 Clouds 21 1021 73 10000 6.2 130 16:56 22.12.2019
2179 Clouds 21 1021 73 10000 6.2 130 16:37 22.12.2019
2180 Clouds 22 1021 73 10000 4.6 130 16:19 22.12.2019
2181 Clouds 24 1021 64 10000 5.7 120 15:55 22.12.2019
2182 Clouds 23 1021 69 10000 5.7 100 15:36 22.12.2019
2183 Clouds 23 1021 69 10000 5.7 100 15:18 22.12.2019
2184 Clouds 24 1020 60 10000 5.7 120 14:39 22.12.2019
2185 Clouds 26 1020 57 10000 4.6 130 14:20 22.12.2019
2186 Clouds 24 1020 64 10000 5.1 120 13:57 22.12.2019
2187 Clouds 24 1020 64 10000 5.1 120 13:57 22.12.2019
2188 Clouds 24 1020 64 10000 5.1 120 13:38 22.12.2019
2189 Clouds 25 1020 61 10000 6.7 120 13:20 22.12.2019
2190 Rain 25 1021 57 10000 5.1 130 12:57 22.12.2019
2191 Rain 25 1021 57 10000 5.1 130 12:39 22.12.2019
2192 Clouds 26 1021 54 10000 4.6 150 12:20 22.12.2019
2193 Clouds 25 1021 57 10000 4.1 120 11:59 22.12.2019
2194 Clouds 25 1021 57 10000 4.1 120 11:39 22.12.2019
2195 Clouds 26 1021 54 10000 4.6 120 11:20 22.12.2019
2196 Clouds 26 1022 54 10000 4.6 140 10:58 22.12.2019
2197 Clouds 26 1022 54 10000 4.6 140 10:40 22.12.2019
2198 Clouds 26 1022 54 10000 4.6 140 10:40 22.12.2019
2199 Clouds 26 1022 50 10000 5.1 140 10:20 22.12.2019
2200 Clouds 25 1022 53 10000 4.1 130 09:58 22.12.2019
2201 Clouds 25 1022 53 10000 4.1 130 09:40 22.12.2019
2202 Clouds 25 1023 53 10000 5.1 140 09:21 22.12.2019
2203 Clouds 24 1023 57 10000 5.1 120 08:45 22.12.2019
2204 Clouds 24 1023 57 10000 5.1 140 08:23 22.12.2019
2205 Clouds 23 1023 64 10000 4.6 150 07:50 22.12.2019
2206 Clouds 22 1023 68 10000 5.1 130 07:22 22.12.2019
2207 Clouds 21 1023 73 10000 5.1 140 06:57 22.12.2019
2208 Clouds 21 1023 68 10000 4.6 130 06:27 22.12.2019
2209 Clouds 20 1023 77 10000 4.1 150 05:43 22.12.2019
2210 Clouds 19 1023 82 10000 2.6 150 05:21 22.12.2019
2211 Clouds 18 1022 88 10000 2.6 160 04:27 22.12.2019
2212 Clouds 18 1021 88 10000 3.1 180 03:24 22.12.2019
2213 Clouds 17 1021 93 10000 2.6 190 02:34 22.12.2019
2214 Clouds 17 1021 93 10000 1.5 0 01:33 22.12.2019
2215 Clouds 18 1020 88 10000 2.1 170 00:58 22.12.2019
2216 Clouds 18 1020 88 10000 2.1 170 00:39 22.12.2019
2217 Clouds 18 1021 88 10000 3.1 170 00:20 22.12.2019
2218 Clouds 18 1021 88 10000 2.6 160 23:42 21.12.2019
2219 Clouds 18 1021 88 10000 2.1 140 23:24 21.12.2019
2220 Clouds 18 1021 88 10000 3.1 150 22:57 21.12.2019
2221 Clouds 18 1021 88 10000 3.1 150 22:39 21.12.2019
2222 Clouds 18 1022 88 10000 3.6 110 22:18 21.12.2019
2223 Clouds 19 1022 82 10000 3.6 140 21:56 21.12.2019
2224 Clouds 19 1022 82 10000 3.6 140 21:36 21.12.2019
2225 Clouds 19 1022 82 10000 3.6 140 21:18 21.12.2019
2226 Clouds 19 1022 82 10000 2.6 150 20:57 21.12.2019
2227 Clouds 19 1022 82 10000 2.6 150 20:37 21.12.2019
2228 Clouds 19 1022 82 10000 2.6 140 20:19 21.12.2019
2229 Clouds 19 1022 77 10000 3.1 140 19:55 21.12.2019
2230 Clouds 19 1022 77 10000 4.1 150 19:36 21.12.2019
2231 Clouds 19 1022 77 10000 4.1 150 19:18 21.12.2019
2232 Clouds 20 1022 77 10000 5.1 120 18:41 21.12.2019
2233 Clouds 20 1022 77 10000 3.6 130 18:23 21.12.2019
2234 Clouds 20 1022 77 10000 4.6 140 17:56 21.12.2019
2235 Clouds 20 1022 77 10000 4.6 140 17:38 21.12.2019
2236 Clouds 21 1021 77 10000 5.1 130 17:20 21.12.2019
2237 Clouds 21 1021 77 10000 5.7 110 16:57 21.12.2019
2238 Clouds 22 1020 73 10000 4.6 120 16:38 21.12.2019
2239 Clouds 22 1020 73 10000 4.6 120 16:18 21.12.2019
2240 Rain 22 1020 68 10000 6.7 130 15:55 21.12.2019
2241 Clouds 22 1020 73 10000 3.6 150 15:37 21.12.2019
2242 Clouds 22 1020 73 10000 3.6 150 15:18 21.12.2019
2243 Clouds 22 1020 73 10000 3.6 150 15:18 21.12.2019
2244 Clouds 23 1019 69 10000 5.7 140 14:41 21.12.2019
2245 Clouds 23 1019 73 10000 4.1 140 14:23 21.12.2019
2246 Rain 25 1019 61 10000 6.2 150 13:58 21.12.2019
2247 Rain 25 1019 61 10000 6.2 150 13:58 21.12.2019
2248 Rain 25 1019 61 10000 6.2 150 13:39 21.12.2019
2249 Rain 23 1019 73 10000 7.2 110 13:19 21.12.2019
2250 Rain 23 1019 73 10000 7.2 110 13:19 21.12.2019
2251 Clouds 27 1019 51 10000 4.6 150 12:56 21.12.2019
2252 Clouds 27 1019 51 10000 4.6 150 12:38 21.12.2019
2253 Clouds 25 1019 57 10000 4.6 150 12:20 21.12.2019
2254 Clouds 26 1019 54 10000 6.2 130 11:46 21.12.2019
2255 Clouds 26 1019 54 10000 5.1 110 11:27 21.12.2019
2256 Clouds 26 1019 54 10000 4.6 160 10:59 21.12.2019
2257 Clouds 26 1019 54 10000 4.6 160 10:40 21.12.2019
2258 Clouds 24 1020 60 10000 6.2 120 10:21 21.12.2019
2259 Clouds 24 1020 64 10000 6.7 140 09:57 21.12.2019
2260 Clouds 24 1020 64 10000 6.7 140 09:39 21.12.2019
2261 Clouds 23 1020 69 10000 4.6 140 09:19 21.12.2019
2262 Clouds 24 1020 60 10000 5.7 130 08:47 21.12.2019
2263 Clouds 23 1020 69 10000 4.1 170 08:27 21.12.2019
2264 Clouds 23 1021 69 10000 4.6 140 07:47 21.12.2019
2265 Clouds 22 1021 64 10000 5.1 150 07:23 21.12.2019
2266 Clouds 21 1021 73 10000 3.1 170 06:49 21.12.2019
2267 Clouds 20 1021 77 10000 3.6 120 06:31 21.12.2019
2268 Clouds 18 1021 82 10000 2.1 130 05:59 21.12.2019
2269 Clouds 18 1020 82 10000 2.1 170 04:59 21.12.2019
2270 Clouds 17 1020 88 10000 2.1 140 04:33 21.12.2019
2271 Clouds 16 1019 93 10000 2.1 130 03:56 21.12.2019
2272 Clouds 16 1019 93 10000 3.1 130 02:23 21.12.2019
2273 Clouds 16 1019 93 10000 2.1 140 01:42 21.12.2019
2274 Clouds 17 1019 88 10000 3.1 120 01:23 21.12.2019
2275 Clouds 17 1019 88 10000 3.6 130 00:39 21.12.2019
2276 Clouds 17 1019 88 10000 2.6 130 00:20 21.12.2019
2277 Clouds 18 1019 82 10000 3.6 140 23:38 20.12.2019
2278 Clouds 18 1020 82 10000 3.1 140 23:20 20.12.2019
2279 Clouds 18 1020 88 10000 3.6 150 22:57 20.12.2019
2280 Clouds 18 1020 88 10000 3.6 150 22:36 20.12.2019
2281 Clouds 18 1020 88 10000 3.6 150 22:18 20.12.2019
2282 Clouds 19 1021 82 10000 3.1 140 21:41 20.12.2019
2283 Clouds 19 1021 82 10000 3.6 130 21:21 20.12.2019
2284 Clouds 19 1021 82 10000 3.6 140 20:57 20.12.2019
2285 Clouds 19 1021 82 10000 3.6 140 20:38 20.12.2019
2286 Clouds 19 1021 82 10000 4.6 120 20:18 20.12.2019
2287 Clouds 20 1021 82 10000 5.7 120 19:42 20.12.2019
2288 Clouds 20 1021 82 10000 4.6 120 19:21 20.12.2019
2289 Clouds 20 1020 82 10000 5.1 120 18:58 20.12.2019
2290 Clouds 20 1020 82 10000 5.1 120 18:39 20.12.2019
2291 Clouds 21 1020 77 10000 5.7 110 18:21 20.12.2019
2292 Clouds 21 1020 73 10000 5.1 110 17:56 20.12.2019
2293 Clouds 21 1020 73 10000 5.1 110 17:37 20.12.2019
2294 Clouds 22 1019 68 10000 6.7 120 17:18 20.12.2019
2295 Clouds 23 1019 60 10000 6.2 120 16:41 20.12.2019
2296 Clouds 23 1019 60 10000 6.2 120 16:41 20.12.2019
2297 Clouds 24 1019 57 10000 7.2 110 16:21 20.12.2019
2298 Clouds 26 1018 47 10000 7.2 110 15:57 20.12.2019
2299 Clouds 26 1018 47 10000 7.2 110 15:39 20.12.2019
2300 Clouds 26 1018 50 10000 5.7 130 15:20 20.12.2019
2301 Clouds 28 1018 42 10000 4.6 150 14:59 20.12.2019
2302 Clouds 28 1018 42 10000 4.6 150 14:59 20.12.2019
2303 Clouds 28 1018 42 10000 4.6 150 14:40 20.12.2019
2304 Clouds 27 1018 39 10000 5.1 150 14:22 20.12.2019
2305 Clouds 28 1017 39 10000 5.7 120 13:56 20.12.2019
2306 Clouds 28 1017 39 10000 5.7 120 13:56 20.12.2019
2307 Clouds 28 1017 39 10000 5.7 120 13:36 20.12.2019
2308 Clouds 28 1018 42 10000 7.7 110 13:18 20.12.2019
2309 Clouds 28 1018 39 10000 5.1 160 12:42 20.12.2019
2310 Clouds 28 1018 42 10000 4.1 140 12:20 20.12.2019
2311 Clouds 28 1019 42 10000 5.1 140 11:59 20.12.2019
2312 Clouds 28 1019 42 10000 5.1 140 11:40 20.12.2019
2313 Clouds 27 1019 44 10000 5.1 150 11:21 20.12.2019
2314 Clouds 27 1019 42 10000 5.7 160 10:59 20.12.2019
2315 Clouds 27 1019 42 10000 5.7 160 10:41 20.12.2019
2316 Clouds 27 1019 44 10000 4.6 140 10:21 20.12.2019
2317 Clouds 26 1020 44 10000 5.7 140 09:56 20.12.2019
2318 Clouds 26 1020 44 10000 5.7 140 09:38 20.12.2019
2319 Clouds 26 1020 44 10000 5.7 140 09:19 20.12.2019
2320 Clouds 25 1020 50 10000 4.6 140 08:43 20.12.2019
2321 Clouds 25 1020 50 10000 5.7 120 08:25 20.12.2019
2322 Clouds 24 1021 53 10000 6.7 180 07:59 20.12.2019
2323 Clouds 24 1021 53 10000 6.7 180 07:41 20.12.2019
2324 Clouds 22 1021 60 10000 5.7 160 07:19 20.12.2019
2325 Clouds 22 1021 60 10000 6.2 150 06:52 20.12.2019
2326 Clouds 21 1021 64 10000 4.6 150 06:32 20.12.2019
2327 Clouds 21 1021 64 10000 4.1 140 05:53 20.12.2019
2328 Clouds 21 1021 64 10000 4.1 140 05:35 20.12.2019
2329 Clouds 18 1020 77 10000 3.6 140 04:33 20.12.2019
2330 Clouds 18 1019 77 10000 4.6 150 03:30 20.12.2019
2331 Clouds 18 1019 77 10000 4.6 150 03:30 20.12.2019
2332 Clouds 18 1019 88 10000 2.6 130 02:43 20.12.2019
2333 Clouds 18 1019 88 10000 3.1 100 01:49 20.12.2019
2334 Clouds 18 1019 88 10000 3.1 100 01:49 20.12.2019
2335 Clouds 18 1018 88 10000 4.1 110 01:30 20.12.2019
2336 Clouds 18 1019 88 10000 4.1 120 00:43 20.12.2019
2337 Clouds 19 1019 82 10000 4.1 100 00:23 20.12.2019
2338 Clouds 19 1019 82 10000 3.6 120 23:44 19.12.2019
2339 Clouds 19 1019 88 10000 4.6 110 23:25 19.12.2019
2340 Clouds 19 1019 88 10000 4.6 100 22:59 19.12.2019
2341 Clouds 19 1019 88 10000 4.6 100 22:59 19.12.2019
2342 Clouds 19 1019 88 10000 4.6 100 22:36 19.12.2019
2343 Clouds 20 1019 82 10000 3.6 120 22:18 19.12.2019
2344 Clouds 20 1020 82 10000 3.6 120 21:55 19.12.2019
2345 Clouds 20 1020 82 10000 3.6 120 21:37 19.12.2019
2346 Clouds 20 1020 82 10000 3.6 120 21:18 19.12.2019
2347 Clouds 20 1020 82 10000 3.1 110 20:55 19.12.2019
2348 Clouds 20 1020 82 10000 3.1 110 20:36 19.12.2019
2349 Thunderstorm 20 1020 82 10000 3.6 110 20:18 19.12.2019
2350 Thunderstorm 20 1020 82 10000 4.1 110 19:54 19.12.2019
2351 Thunderstorm 20 1020 82 10000 4.1 110 19:54 19.12.2019
2352 Thunderstorm 20 1020 82 10000 4.1 110 19:36 19.12.2019
2353 Thunderstorm 21 1019 83 10000 4.6 130 19:18 19.12.2019
2354 Thunderstorm 21 1020 77 10000 4.1 130 18:41 19.12.2019
2355 Thunderstorm 22 1019 73 10000 5.1 120 18:21 19.12.2019
2356 Thunderstorm 22 1019 73 10000 5.7 100 17:57 19.12.2019
2357 Thunderstorm 22 1019 73 10000 5.7 100 17:38 19.12.2019
2358 Thunderstorm 22 1019 73 10000 5.7 100 17:38 19.12.2019
2359 Thunderstorm 23 1018 69 10000 5.1 110 17:19 19.12.2019
2360 Clouds 23 1018 69 10000 4.6 120 16:57 19.12.2019
2361 Clouds 23 1018 69 10000 4.6 120 16:38 19.12.2019
2362 Clouds 24 1018 60 10000 5.1 100 16:20 19.12.2019
2363 Clouds 24 1018 60 10000 5.1 100 16:20 19.12.2019
2364 Clouds 27 1017 54 10000 5.7 120 15:58 19.12.2019
2365 Clouds 27 1017 54 10000 5.7 120 15:39 19.12.2019
2366 Clouds 27 1017 54 10000 5.7 120 15:19 19.12.2019
2367 Clouds 27 1017 57 10000 5.7 110 14:57 19.12.2019
2368 Clouds 27 1017 57 10000 5.7 110 14:39 19.12.2019
2369 Clouds 28 1017 48 10000 4.1 120 14:18 19.12.2019
2370 Clouds 28 1017 48 10000 2.6 120 13:39 19.12.2019
2371 Clouds 28 1017 48 10000 4.1 90 13:20 19.12.2019
2372 Clouds 28 1017 51 10000 4.1 90 12:59 19.12.2019
2373 Clouds 28 1017 51 10000 4.1 90 12:40 19.12.2019
2374 Clouds 28 1018 48 10000 2.6 0 12:19 19.12.2019
2375 Clouds 28 1018 48 10000 2.6 0 12:19 19.12.2019
2376 Clouds 28 1018 48 10000 2.6 0 12:19 19.12.2019
2377 Clouds 28 1018 48 10000 2.6 0 12:19 19.12.2019
2378 Clouds 28 1018 51 10000 4.1 110 11:59 19.12.2019
2379 Clouds 28 1018 51 10000 4.1 110 11:41 19.12.2019
2380 Clouds 27 1019 54 10000 5.1 110 11:20 19.12.2019
2381 Clouds 27 1019 54 10000 5.1 110 11:20 19.12.2019
2382 Clouds 27 1019 54 10000 5.1 110 11:20 19.12.2019
2383 Clouds 27 1019 54 10000 5.1 120 10:59 19.12.2019
2384 Clouds 27 1019 54 10000 5.1 120 10:38 19.12.2019
2385 Clouds 27 1019 54 10000 5.1 110 10:20 19.12.2019
2386 Clouds 27 1019 54 10000 5.1 110 10:20 19.12.2019
2387 Clouds 27 1019 51 10000 4.6 110 09:56 19.12.2019
2388 Clouds 27 1020 51 10000 5.1 120 09:37 19.12.2019
2389 Clouds 27 1020 51 10000 5.1 120 09:19 19.12.2019
2390 Clouds 26 1020 61 10000 3.6 140 08:55 19.12.2019
2391 Clouds 26 1020 61 10000 3.6 140 08:37 19.12.2019
2392 Clouds 25 1020 65 10000 3.6 160 08:18 19.12.2019
2393 Clouds 25 1020 57 10000 3.6 130 07:42 19.12.2019
2394 Clouds 25 1020 57 10000 3.6 130 07:42 19.12.2019
2395 Clouds 24 1020 60 10000 2.6 150 07:23 19.12.2019
2396 Clouds 23 1021 60 10000 2.6 140 06:58 19.12.2019
2397 Clouds 23 1021 60 10000 2.6 140 06:39 19.12.2019
2398 Clouds 22 1021 64 10000 3.1 130 06:21 19.12.2019
2399 Clouds 21 1020 68 10000 2.6 140 05:42 19.12.2019
2400 Clouds 19 1020 77 10000 2.6 130 05:19 19.12.2019
2401 Clouds 16 1019 93 10000 1.5 0 03:51 19.12.2019
2402 Clouds 16 1019 93 10000 0.5 0 02:28 19.12.2019
2403 Clouds 16 1019 93 10000 2.1 120 01:24 19.12.2019
2404 Clouds 17 1019 88 10000 2.6 130 00:57 19.12.2019
2405 Clouds 17 1019 88 10000 2.6 130 00:38 19.12.2019
2406 Clouds 17 1019 93 10000 2.1 170 00:19 19.12.2019
2407 Clouds 17 1019 93 10000 2.1 170 00:19 19.12.2019
2408 Clouds 17 1019 93 10000 2.1 150 23:44 18.12.2019
2409 Clouds 17 1019 93 10000 3.6 110 23:19 18.12.2019
2410 Clouds 18 1019 88 10000 3.6 110 22:56 18.12.2019
2411 Clouds 18 1019 88 10000 3.6 110 22:38 18.12.2019
2412 Clouds 18 1020 88 10000 3.6 110 22:20 18.12.2019
2413 Clouds 19 1020 82 10000 4.1 90 21:58 18.12.2019
2414 Clouds 19 1020 82 10000 4.1 90 21:58 18.12.2019
2415 Clouds 19 1020 82 10000 4.1 90 21:39 18.12.2019
2416 Clouds 19 1021 88 10000 4.1 100 21:20 18.12.2019
2417 Clouds 20 1021 82 10000 3.1 110 20:56 18.12.2019
2418 Clouds 20 1021 82 10000 3.1 110 20:38 18.12.2019
2419 Clouds 20 1021 82 10000 3.1 130 20:19 18.12.2019
2420 Thunderstorm 20 1021 82 10000 2.6 140 19:56 18.12.2019
2421 Thunderstorm 20 1021 82 10000 2.6 140 19:37 18.12.2019
2422 Thunderstorm 20 1020 77 10000 3.1 150 19:18 18.12.2019
2423 Thunderstorm 20 1020 77 10000 3.1 150 19:18 18.12.2019
2424 Thunderstorm 21 1020 73 10000 2.6 130 18:45 18.12.2019
2425 Thunderstorm 21 1020 73 10000 4.1 110 18:25 18.12.2019
2426 Thunderstorm 21 1019 73 10000 3.6 130 17:57 18.12.2019
2427 Thunderstorm 21 1019 73 10000 3.6 130 17:39 18.12.2019
2428 Thunderstorm 21 1019 73 10000 3.6 130 17:39 18.12.2019
2429 Thunderstorm 22 1019 73 10000 3.1 150 17:20 18.12.2019
2430 Thunderstorm 22 1018 73 10000 4.6 130 16:58 18.12.2019
2431 Clouds 23 1018 69 10000 6.2 110 16:39 18.12.2019
2432 Clouds 23 1018 69 10000 6.2 110 16:20 18.12.2019
2433 Clouds 23 1017 69 10000 6.2 110 15:56 18.12.2019
2434 Clouds 25 1017 65 10000 5.1 110 15:37 18.12.2019
2435 Clouds 25 1017 65 10000 5.1 110 15:19 18.12.2019
2436 Clouds 26 1017 61 10000 4.6 110 14:42 18.12.2019
2437 Clouds 26 1017 57 10000 4.6 120 14:22 18.12.2019
2438 Clouds 26 1016 57 10000 4.1 130 13:57 18.12.2019
2439 Clouds 28 1016 54 10000 3.6 110 13:39 18.12.2019
2440 Clouds 28 1016 54 10000 3.6 110 13:39 18.12.2019
2441 Clouds 28 1016 54 10000 3.6 110 13:20 18.12.2019
2442 Clouds 27 1017 57 10000 4.6 100 12:59 18.12.2019
2443 Clouds 27 1017 57 10000 3.6 120 12:38 18.12.2019
2444 Clouds 27 1017 57 10000 3.6 120 12:38 18.12.2019
2445 Clouds 27 1017 57 10000 3.6 120 12:20 18.12.2019
2446 Clouds 27 1017 54 10000 3.6 140 11:56 18.12.2019
2447 Clouds 27 1018 57 10000 4.6 170 11:38 18.12.2019
2448 Clouds 27 1018 57 10000 4.6 170 11:19 18.12.2019
2449 Clouds 25 1019 69 10000 1 120 10:55 18.12.2019
2450 Clouds 25 1019 69 10000 1 120 10:37 18.12.2019
2451 Clouds 25 1019 69 10000 1 120 10:19 18.12.2019
2452 Clouds 24 1019 69 10000 1 120 09:50 18.12.2019
2453 Clouds 24 1019 69 10000 1 120 09:50 18.12.2019
2454 Clouds 24 1019 69 10000 2.1 120 09:18 18.12.2019
2455 Clouds 24 1020 69 10000 4.1 150 08:41 18.12.2019
2456 Clouds 24 1020 69 10000 4.1 150 08:22 18.12.2019
2457 Clouds 23 1020 73 10000 4.6 130 07:45 18.12.2019
2458 Clouds 21 1020 77 10000 4.6 140 07:24 18.12.2019
2459 Clouds 20 1020 82 10000 4.1 150 06:57 18.12.2019
2460 Clouds 21 1019 77 10000 5.7 140 06:28 18.12.2019
2461 Clouds 19 1019 82 10000 5.7 160 05:57 18.12.2019
2462 Clouds 19 1019 88 10000 3.6 150 04:59 18.12.2019
2463 Clouds 19 1018 93 10000 3.1 140 02:55 18.12.2019
2464 Rain 19 1018 93 8000 3.6 100 02:37 18.12.2019
2465 Rain 19 1018 93 8000 3.6 100 02:18 18.12.2019
2466 Rain 19 1018 93 10000 4.1 110 01:41 18.12.2019
2467 Clouds 19 1018 93 10000 2.1 160 01:22 18.12.2019
2468 Clouds 19 1018 93 10000 2.1 160 01:22 18.12.2019
2469 Clouds 19 1018 93 10000 2.1 140 00:41 18.12.2019
2470 Clouds 19 1018 93 10000 2.1 140 00:23 18.12.2019
2471 Clouds 19 1018 93 10000 2.1 140 00:23 18.12.2019
2472 Clouds 20 1018 88 10000 1.5 0 23:56 17.12.2019
2473 Clouds 20 1018 88 10000 1.5 0 23:38 17.12.2019
2474 Clouds 20 1018 88 10000 1.5 0 23:18 17.12.2019
2475 Rain 20 1018 88 8000 3.1 80 22:55 17.12.2019
2476 Rain 20 1018 88 10000 4.1 100 22:37 17.12.2019
2477 Rain 20 1018 88 10000 4.1 100 22:18 17.12.2019
2478 Clouds 20 1019 88 10000 3.6 90 21:55 17.12.2019
2479 Clouds 20 1019 88 10000 2.6 80 21:37 17.12.2019
2480 Clouds 20 1019 88 10000 2.6 80 21:18 17.12.2019
2481 Clouds 20 1019 88 10000 3.6 80 20:55 17.12.2019
2482 Thunderstorm 20 1019 88 10000 3.6 110 20:37 17.12.2019
2483 Thunderstorm 20 1019 88 10000 3.6 110 20:18 17.12.2019
2484 Thunderstorm 20 1019 88 10000 3.6 120 19:41 17.12.2019
2485 Thunderstorm 21 1018 83 10000 4.1 100 19:20 17.12.2019
2486 Thunderstorm 21 1018 83 10000 4.1 120 18:58 17.12.2019
2487 Thunderstorm 21 1018 83 10000 4.1 120 18:40 17.12.2019
2488 Thunderstorm 21 1018 83 10000 3.6 90 18:21 17.12.2019
2489 Thunderstorm 21 1018 83 10000 4.1 90 17:58 17.12.2019
2490 Thunderstorm 21 1018 83 10000 5.1 80 17:39 17.12.2019
2491 Thunderstorm 21 1018 83 10000 5.1 80 17:19 17.12.2019
2492 Clouds 21 1017 83 10000 5.1 100 16:56 17.12.2019
2493 Thunderstorm 22 1017 78 10000 5.1 120 16:37 17.12.2019
2494 Thunderstorm 22 1017 78 10000 5.1 120 16:18 17.12.2019
2495 Clouds 22 1016 78 10000 6.2 120 15:55 17.12.2019
2496 Clouds 23 1015 69 10000 4.6 140 15:36 17.12.2019
2497 Clouds 23 1015 69 10000 4.6 140 15:18 17.12.2019
2498 Clouds 23 1015 78 10000 6.2 110 14:54 17.12.2019
2499 Rain 22 1015 83 10000 9.3 110 14:36 17.12.2019
2500 Rain 22 1015 83 10000 9.3 110 14:36 17.12.2019
2501 Rain 22 1015 83 10000 9.3 110 14:18 17.12.2019
2502 Rain 25 1014 69 10000 9.3 110 13:54 17.12.2019
2503 Clouds 28 1014 54 10000 4.6 120 13:36 17.12.2019
2504 Clouds 28 1014 54 10000 4.6 120 13:18 17.12.2019
2505 Clouds 29 1014 48 10000 4.6 120 12:40 17.12.2019
2506 Clouds 29 1015 54 10000 4.6 90 12:19 17.12.2019
2507 Clouds 28 1015 54 10000 4.6 90 11:59 17.12.2019
2508 Clouds 28 1015 54 10000 4.1 120 11:37 17.12.2019
2509 Clouds 28 1015 54 10000 4.1 120 11:19 17.12.2019
2510 Clouds 28 1016 54 10000 4.1 110 10:58 17.12.2019
2511 Clouds 28 1016 54 10000 4.1 110 10:40 17.12.2019
2512 Clouds 28 1016 54 10000 4.6 120 10:21 17.12.2019
2513 Clouds 27 1016 61 10000 4.1 130 09:58 17.12.2019
2514 Clouds 27 1016 61 10000 4.1 130 09:40 17.12.2019
2515 Clouds 26 1016 61 10000 4.6 100 09:19 17.12.2019
2516 Clouds 25 1017 65 10000 5.1 110 08:55 17.12.2019
2517 Clouds 25 1017 65 10000 3.1 130 08:36 17.12.2019
2518 Clouds 25 1017 65 10000 3.1 130 08:18 17.12.2019
2519 Clouds 24 1017 64 10000 3.1 120 07:42 17.12.2019
2520 Clouds 22 1017 78 10000 3.6 140 07:23 17.12.2019
2521 Clouds 22 1017 78 10000 4.1 140 06:53 17.12.2019
2522 Clouds 22 1017 78 10000 5.1 170 06:32 17.12.2019
2523 Clouds 22 1017 78 10000 4.6 150 05:52 17.12.2019
2524 Clouds 22 1016 78 10000 4.6 180 05:32 17.12.2019
2525 Clouds 20 1016 88 10000 2.1 160 04:19 17.12.2019
2526 Clouds 19 1015 93 10000 2.6 180 02:27 17.12.2019
2527 Clouds 19 1015 93 10000 2.1 190 01:34 17.12.2019
2528 Clouds 19 1015 93 10000 2.1 200 00:49 17.12.2019
2529 Clouds 19 1015 93 10000 1.5 30 00:22 17.12.2019
2530 Clouds 19 1015 100 10000 0.5 0 23:59 16.12.2019
2531 Clouds 19 1015 100 10000 0.5 0 23:40 16.12.2019
2532 Clouds 19 1015 93 10000 1.5 0 23:18 16.12.2019
2533 Clouds 19 1016 93 10000 1.5 180 22:55 16.12.2019
2534 Clouds 18 1016 100 10000 0.5 0 22:36 16.12.2019
2535 Clouds 18 1016 100 10000 0.5 0 22:18 16.12.2019
2536 Clouds 19 1016 93 10000 2.6 70 21:54 16.12.2019
2537 Clouds 19 1016 93 10000 2.1 80 21:36 16.12.2019
2538 Clouds 19 1016 93 10000 2.1 80 21:36 16.12.2019
2539 Clouds 19 1016 93 10000 2.1 80 21:18 16.12.2019
2540 Clouds 19 1016 93 10000 2.6 50 20:55 16.12.2019
2541 Clouds 19 1017 93 10000 2.1 90 20:37 16.12.2019
2542 Clouds 19 1017 93 10000 2.1 90 20:18 16.12.2019
2543 Clouds 19 1017 93 10000 2.1 90 20:18 16.12.2019
2544 Clouds 19 1017 93 10000 1 0 19:54 16.12.2019
2545 Thunderstorm 19 1016 93 10000 1.5 20 19:36 16.12.2019
2546 Thunderstorm 19 1016 93 10000 1.5 20 19:18 16.12.2019
2547 Thunderstorm 19 1016 93 10000 1.5 20 19:18 16.12.2019
2548 Thunderstorm 18 1016 100 8000 1.5 300 18:42 16.12.2019
2549 Thunderstorm 19 1016 93 8000 2.6 320 18:20 16.12.2019
2550 Thunderstorm 19 1016 93 10000 1.5 0 17:59 16.12.2019
2551 Thunderstorm 18 1016 93 10000 3.1 280 17:41 16.12.2019
2552 Thunderstorm 18 1016 93 10000 3.1 280 17:22 16.12.2019
2553 Thunderstorm 18 1015 93 10000 5.1 110 16:58 16.12.2019
2554 Thunderstorm 18 1015 93 10000 5.1 110 16:39 16.12.2019
2555 Thunderstorm 18 1015 93 10000 5.1 110 16:39 16.12.2019
2556 Thunderstorm 18 1015 93 10000 4.6 90 16:20 16.12.2019
2557 Thunderstorm 20 1015 77 7000 4.6 140 15:59 16.12.2019
2558 Thunderstorm 24 1015 64 10000 8.2 110 15:39 16.12.2019
2559 Thunderstorm 24 1015 64 10000 8.2 110 15:21 16.12.2019
2560 Thunderstorm 26 1014 57 10000 6.7 330 14:58 16.12.2019
2561 Thunderstorm 27 1013 57 10000 6.7 320 14:38 16.12.2019
2562 Thunderstorm 27 1013 57 10000 6.7 320 14:20 16.12.2019
2563 Thunderstorm 26 1013 57 10000 6.2 320 13:58 16.12.2019
2564 Thunderstorm 26 1013 57 10000 6.2 320 13:38 16.12.2019
2565 Thunderstorm 26 1013 61 10000 8.2 320 13:20 16.12.2019
2566 Thunderstorm 27 1013 57 10000 6.2 330 12:58 16.12.2019
2567 Thunderstorm 27 1013 57 10000 6.2 330 12:39 16.12.2019
2568 Thunderstorm 27 1013 57 10000 5.1 340 12:19 16.12.2019
2569 Thunderstorm 28 1014 58 10000 4.6 300 11:59 16.12.2019
2570 Thunderstorm 28 1014 58 10000 4.6 300 11:40 16.12.2019
2571 Thunderstorm 27 1014 54 10000 3.6 270 11:20 16.12.2019
2572 Clouds 27 1015 57 10000 4.6 290 10:58 16.12.2019
2573 Clouds 27 1015 57 10000 4.6 290 10:39 16.12.2019
2574 Clouds 27 1015 57 10000 4.6 290 10:39 16.12.2019
2575 Clouds 27 1015 57 10000 4.6 290 10:19 16.12.2019
2576 Clouds 26 1015 61 10000 4.1 250 09:45 16.12.2019
2577 Clouds 26 1016 61 10000 4.1 240 09:27 16.12.2019
2578 Clouds 25 1016 65 10000 3.6 260 08:55 16.12.2019
2579 Clouds 24 1016 73 10000 3.1 250 08:37 16.12.2019
2580 Clouds 24 1016 73 10000 3.1 250 08:18 16.12.2019
2581 Clouds 24 1017 73 10000 3.1 220 07:42 16.12.2019
2582 Clouds 23 1017 78 10000 3.6 220 07:21 16.12.2019
2583 Clouds 21 1017 88 10000 2.1 270 06:45 16.12.2019
2584 Clouds 21 1016 88 10000 3.6 290 06:22 16.12.2019
2585 Clouds 21 1016 88 10000 4.6 300 05:49 16.12.2019
2586 Clouds 20 1016 94 10000 3.1 290 05:30 16.12.2019
2587 Clouds 18 1015 100 10000 0.1 137 04:21 16.12.2019
2588 Clouds 18 1015 100 10000 1 0 01:59 16.12.2019
2589 Clouds 18 1015 100 10000 1 0 01:40 16.12.2019
2590 Clouds 18 1015 100 10000 1 0 01:40 16.12.2019
2591 Clouds 19 1015 93 10000 2.1 320 00:42 16.12.2019
2592 Clouds 19 1015 93 10000 1.5 0 00:23 16.12.2019
2593 Clouds 19 1015 93 10000 1.5 360 23:58 15.12.2019
2594 Clouds 19 1016 93 10000 1 0 23:38 15.12.2019
2595 Clouds 19 1016 93 10000 1 0 23:19 15.12.2019
2596 Clouds 19 1016 93 10000 0.06 341 22:55 15.12.2019
2597 Clouds 19 1016 93 10000 0.5 0 22:37 15.12.2019
2598 Clouds 19 1016 93 10000 0.5 0 22:18 15.12.2019
2599 Clouds 19 1017 93 10000 1 0 21:55 15.12.2019
2600 Clouds 19 1017 93 10000 0.06 341 21:37 15.12.2019
2601 Clouds 19 1017 93 10000 0.06 341 21:18 15.12.2019
2602 Clouds 19 1016 93 10000 3.6 300 20:54 15.12.2019
2603 Clouds 19 1016 93 10000 1.5 0 20:36 15.12.2019
2604 Clouds 19 1016 93 10000 1.5 0 20:36 15.12.2019
2605 Clouds 19 1016 93 10000 1.5 0 20:18 15.12.2019
2606 Clouds 19 1017 93 10000 2.1 350 19:54 15.12.2019
2607 Clouds 19 1017 93 10000 2.1 70 19:36 15.12.2019
2608 Clouds 19 1017 93 10000 2.1 70 19:18 15.12.2019
2609 Rain 19 1018 93 10000 1.5 80 18:54 15.12.2019
2610 Rain 19 1017 93 10000 1.5 0 18:36 15.12.2019
2611 Rain 19 1017 93 10000 1.5 0 18:18 15.12.2019
2612 Thunderstorm 19 1017 93 10000 3.1 330 17:55 15.12.2019
2613 Thunderstorm 20 1017 88 10000 5.1 290 17:36 15.12.2019
2614 Thunderstorm 20 1017 88 10000 5.1 290 17:18 15.12.2019
2615 Thunderstorm 20 1016 88 10000 7.2 290 16:42 15.12.2019
2616 Thunderstorm 21 1016 83 10000 9.3 290 16:22 15.12.2019
2617 Thunderstorm 24 1015 69 10000 3.6 310 15:57 15.12.2019
2618 Clouds 24 1014 69 10000 4.1 330 15:39 15.12.2019
2619 Clouds 24 1014 69 10000 4.1 330 15:19 15.12.2019
2620 Clouds 23 1014 78 10000 4.6 300 14:56 15.12.2019
2621 Clouds 23 1014 78 10000 4.6 300 14:37 15.12.2019
2622 Clouds 22 1014 83 10000 5.7 310 14:19 15.12.2019
2623 Rain 22 1014 83 8000 8.7 300 13:58 15.12.2019
2624 Rain 22 1014 83 8000 8.7 300 13:38 15.12.2019
2625 Clouds 29 1014 54 10000 5.7 270 13:19 15.12.2019
2626 Clouds 28 1015 54 10000 5.1 320 12:57 15.12.2019
2627 Clouds 28 1015 54 10000 5.1 320 12:39 15.12.2019
2628 Clouds 28 1015 54 10000 7.2 310 12:20 15.12.2019
2629 Clouds 28 1015 54 10000 7.2 310 12:20 15.12.2019
2630 Rain 28 1016 58 10000 7.7 320 11:56 15.12.2019
2631 Clouds 28 1016 58 10000 3.6 280 11:37 15.12.2019
2632 Clouds 28 1016 58 10000 3.6 280 11:18 15.12.2019
2633 Clouds 28 1016 54 10000 5.1 300 10:55 15.12.2019
2634 Clouds 27 1017 61 10000 4.6 280 10:37 15.12.2019
2635 Clouds 27 1017 61 10000 4.6 280 10:18 15.12.2019
2636 Clouds 26 1017 65 10000 3.1 260 09:41 15.12.2019
2637 Clouds 26 1018 65 10000 4.1 310 09:20 15.12.2019
2638 Clouds 26 1018 65 10000 4.6 320 08:58 15.12.2019
2639 Clouds 25 1018 69 10000 4.1 300 08:39 15.12.2019
2640 Clouds 25 1018 69 10000 4.1 300 08:21 15.12.2019
2641 Clouds 24 1018 73 10000 3.6 290 07:56 15.12.2019
2642 Clouds 24 1019 73 10000 3.6 320 07:34 15.12.2019
2643 Clouds 23 1019 78 10000 2.6 310 06:52 15.12.2019
2644 Clouds 21 1019 88 10000 3.1 310 06:20 15.12.2019
2645 Clouds 20 1018 94 10000 1.5 290 05:26 15.12.2019
2646 Clouds 20 1018 94 10000 3.1 290 04:47 15.12.2019
2647 Clouds 19 1018 100 10000 2.6 320 03:31 15.12.2019
2648 Clouds 19 1017 100 10000 1.5 0 02:34 15.12.2019
2649 Rain 19 1017 93 8000 3.26 344 01:47 15.12.2019
2650 Thunderstorm 19 1017 100 8000 3.26 344 01:28 15.12.2019
2651 Thunderstorm 19 1018 100 8000 2.9 344 00:58 15.12.2019
2652 Thunderstorm 19 1018 100 8000 2.9 344 00:40 15.12.2019
2653 Thunderstorm 19 1018 100 8000 1 0 00:21 15.12.2019
2654 Thunderstorm 19 1018 100 8000 2.1 330 23:40 14.12.2019
2655 Thunderstorm 19 1019 100 8000 3.6 310 23:21 14.12.2019
2656 Thunderstorm 19 1019 93 4000 3.1 320 22:58 14.12.2019
2657 Thunderstorm 19 1019 93 4000 3.6 320 22:40 14.12.2019
2658 Thunderstorm 19 1019 93 4000 3.6 320 22:21 14.12.2019
2659 Thunderstorm 19 1020 100 4000 3.6 330 21:56 14.12.2019
2660 Thunderstorm 19 1020 100 4000 3.6 330 21:56 14.12.2019
2661 Thunderstorm 19 1020 100 4000 3.6 330 21:37 14.12.2019
2662 Thunderstorm 20 1020 94 10000 2.1 60 21:18 14.12.2019
2663 Thunderstorm 20 1020 94 10000 1.5 0 20:56 14.12.2019
2664 Thunderstorm 20 1020 94 10000 2.1 80 20:37 14.12.2019
2665 Thunderstorm 20 1020 94 10000 2.1 80 20:19 14.12.2019
2666 Thunderstorm 20 1020 94 10000 2.1 80 20:19 14.12.2019
2667 Thunderstorm 20 1019 88 10000 2.1 80 19:54 14.12.2019
2668 Thunderstorm 19 1019 93 10000 1.5 320 19:36 14.12.2019
2669 Thunderstorm 19 1019 93 10000 1.5 320 19:18 14.12.2019
2670 Thunderstorm 19 1019 100 8000 3.6 330 18:55 14.12.2019
2671 Thunderstorm 20 1019 94 2500 8.2 310 18:36 14.12.2019
2672 Thunderstorm 20 1019 94 2500 8.2 310 18:18 14.12.2019
2673 Thunderstorm 22 1018 83 10000 3.1 80 17:42 14.12.2019
2674 Thunderstorm 22 1018 83 10000 2.1 80 17:22 14.12.2019
2675 Thunderstorm 22 1017 83 10000 2.1 40 16:42 14.12.2019
2676 Thunderstorm 23 1017 73 10000 3.6 50 16:20 14.12.2019
2677 Thunderstorm 23 1016 78 10000 3.6 50 15:58 14.12.2019
2678 Thunderstorm 22 1016 83 10000 4.6 60 15:39 14.12.2019
2679 Thunderstorm 22 1016 83 10000 4.6 60 15:20 14.12.2019
2680 Thunderstorm 22 1016 83 10000 4.1 50 14:57 14.12.2019
2681 Thunderstorm 22 1016 88 10000 3.6 40 14:38 14.12.2019
2682 Thunderstorm 22 1016 88 10000 3.6 40 14:19 14.12.2019
2683 Thunderstorm 21 1016 88 10000 3.1 90 13:45 14.12.2019
2684 Thunderstorm 21 1017 88 9000 3.6 300 13:20 14.12.2019
2685 Thunderstorm 24 1017 69 10000 6.2 340 12:58 14.12.2019
2686 Thunderstorm 24 1017 69 10000 6.2 340 12:40 14.12.2019
2687 Thunderstorm 24 1017 69 10000 6.2 340 12:40 14.12.2019
2688 Thunderstorm 28 1017 54 10000 2.6 60 12:20 14.12.2019
2689 Rain 25 1017 65 10000 3.6 210 11:58 14.12.2019
2690 Rain 25 1017 65 10000 3.6 210 11:58 14.12.2019
2691 Rain 25 1017 65 10000 3.6 210 11:39 14.12.2019
2692 Rain 24 1018 64 10000 1.5 0 11:19 14.12.2019
2693 Rain 24 1018 64 10000 1.5 0 11:19 14.12.2019
2694 Rain 24 1018 73 10000 9.3 350 10:57 14.12.2019
2695 Rain 24 1018 73 10000 9.3 350 10:39 14.12.2019
2696 Clouds 29 1018 45 10000 2.6 0 10:20 14.12.2019
2697 Clouds 29 1018 45 10000 3.1 150 09:55 14.12.2019
2698 Clouds 28 1019 48 10000 2.1 0 09:36 14.12.2019
2699 Clouds 28 1019 48 10000 2.1 0 09:18 14.12.2019
2700 Clouds 28 1019 48 10000 2.6 190 08:41 14.12.2019
2701 Clouds 27 1019 54 10000 3.1 190 08:19 14.12.2019
2702 Clouds 27 1019 57 10000 3.1 190 07:41 14.12.2019
2703 Clouds 27 1019 57 10000 2.1 190 07:22 14.12.2019
2704 Clouds 25 1019 69 10000 2.6 190 06:55 14.12.2019
2705 Clouds 22 1019 78 10000 1.5 220 06:36 14.12.2019
2706 Clouds 21 1019 83 10000 2.6 230 05:52 14.12.2019
2707 Clouds 18 1018 100 10000 2.1 280 04:29 14.12.2019
2708 Clouds 18 1018 93 10000 2.1 280 02:24 14.12.2019
2709 Clouds 18 1018 93 10000 1 0 01:44 14.12.2019
2710 Clouds 19 1018 93 10000 1.5 20 01:22 14.12.2019
2711 Clouds 19 1019 93 10000 1.5 50 00:43 14.12.2019
2712 Clouds 19 1019 93 10000 0.82 289 00:24 14.12.2019
2713 Clouds 19 1019 93 10000 0.82 289 23:42 13.12.2019
2714 Clouds 19 1020 93 10000 1.5 20 23:20 13.12.2019
2715 Clouds 19 1020 93 10000 1.5 20 22:59 13.12.2019
2716 Clouds 19 1020 93 10000 1.5 20 22:40 13.12.2019
2717 Clouds 19 1020 93 10000 1.5 20 22:18 13.12.2019
2718 Clouds 20 1020 82 10000 2.1 50 21:46 13.12.2019
2719 Clouds 20 1020 82 10000 2.6 100 21:22 13.12.2019
2720 Clouds 20 1020 82 10000 2.1 150 20:59 13.12.2019
2721 Clouds 20 1020 82 10000 2.1 150 20:40 13.12.2019
2722 Clouds 20 1020 82 10000 2.1 150 20:40 13.12.2019
2723 Clouds 20 1020 88 10000 1.5 150 20:21 13.12.2019
2724 Clouds 20 1020 82 10000 2.1 160 19:57 13.12.2019
2725 Clouds 20 1020 82 10000 2.1 160 19:39 13.12.2019
2726 Clouds 20 1020 82 10000 2.1 110 19:20 13.12.2019
2727 Clouds 20 1020 88 10000 2.6 70 18:55 13.12.2019
2728 Clouds 20 1020 88 10000 1 0 18:36 13.12.2019
2729 Clouds 20 1020 88 10000 1 0 18:18 13.12.2019
2730 Clouds 21 1019 88 10000 2.6 110 17:40 13.12.2019
2731 Clouds 21 1019 83 10000 2.1 160 17:19 13.12.2019
2732 Clouds 21 1019 83 10000 2.1 160 17:19 13.12.2019
2733 Clouds 21 1019 88 10000 1 0 16:58 13.12.2019
2734 Clouds 21 1019 88 10000 1 0 16:39 13.12.2019
2735 Clouds 21 1018 88 10000 3.1 220 16:20 13.12.2019
2736 Thunderstorm 21 1018 83 10000 4.6 260 15:43 13.12.2019
2737 Thunderstorm 22 1017 78 10000 6.7 280 15:22 13.12.2019
2738 Clouds 23 1016 78 10000 7.7 290 14:57 13.12.2019
2739 Clouds 23 1016 78 10000 7.7 290 14:39 13.12.2019
2740 Clouds 24 1016 69 10000 6.7 300 14:19 13.12.2019
2741 Clouds 25 1016 61 10000 4.1 20 13:44 13.12.2019
2742 Thunderstorm 25 1016 65 10000 5.1 30 13:26 13.12.2019
2743 Thunderstorm 24 1016 73 10000 4.1 60 12:59 13.12.2019
2744 Thunderstorm 24 1016 73 10000 4.1 60 12:40 13.12.2019
2745 Thunderstorm 23 1016 83 10000 3.1 60 12:19 13.12.2019
2746 Thunderstorm 23 1016 83 10000 3.1 60 12:19 13.12.2019
2747 Thunderstorm 22 1017 83 10000 2.6 110 11:45 13.12.2019
2748 Thunderstorm 23 1017 73 10000 5.1 30 11:26 13.12.2019
2749 Thunderstorm 26 1017 61 10000 7.2 20 10:57 13.12.2019
2750 Thunderstorm 26 1017 61 10000 7.2 20 10:39 13.12.2019
2751 Thunderstorm 29 1017 48 10000 3.1 240 10:21 13.12.2019
2752 Rain 29 1017 54 10000 2.1 0 09:42 13.12.2019
2753 Clouds 28 1018 54 10000 2.6 310 09:21 13.12.2019
2754 Clouds 27 1019 61 10000 3.1 210 08:55 13.12.2019
2755 Clouds 27 1019 61 10000 3.1 210 08:55 13.12.2019
2756 Clouds 27 1019 61 10000 3.1 210 08:36 13.12.2019
2757 Clouds 26 1019 65 10000 1.5 0 08:18 13.12.2019
2758 Clouds 26 1019 61 10000 3.1 210 07:42 13.12.2019
2759 Clouds 25 1019 69 10000 1.5 0 07:19 13.12.2019
2760 Clouds 24 1019 69 10000 1.5 0 06:39 13.12.2019
2761 Clouds 23 1019 78 10000 2.1 0 06:20 13.12.2019
2762 Clouds 22 1018 83 10000 1.5 0 05:37 13.12.2019
2763 Clouds 21 1018 88 10000 1.5 0 05:19 13.12.2019
2764 Clouds 18 1017 100 10000 1.47 115 03:55 13.12.2019
2765 Clouds 18 1017 100 10000 1 320 02:35 13.12.2019
2766 Clouds 19 1017 93 10000 0.44 273 01:54 13.12.2019
2767 Clouds 19 1017 93 10000 2.17 296 01:27 13.12.2019
2768 Clouds 19 1017 93 10000 2.1 310 00:47 13.12.2019
2769 Clouds 19 1018 93 10000 1 0 00:26 13.12.2019
2770 Clouds 19 1018 100 10000 0.5 0 23:42 12.12.2019
2771 Clouds 19 1018 93 10000 1 0 23:24 12.12.2019
2772 Clouds 20 1018 88 10000 2.1 130 22:56 12.12.2019
2773 Clouds 20 1018 88 10000 2.1 130 22:38 12.12.2019
2774 Clouds 20 1018 88 10000 2.1 130 22:38 12.12.2019
2775 Clouds 20 1018 94 10000 2.6 120 22:19 12.12.2019
2776 Clouds 20 1019 88 10000 3.1 120 21:55 12.12.2019
2777 Clouds 20 1019 88 10000 3.1 120 21:37 12.12.2019
2778 Clouds 20 1019 94 10000 2.1 110 21:19 12.12.2019
2779 Clouds 20 1019 88 10000 1.5 120 20:58 12.12.2019
2780 Clouds 20 1019 88 10000 1.5 120 20:39 12.12.2019
2781 Clouds 20 1019 94 10000 1.5 0 20:21 12.12.2019
2782 Clouds 20 1019 88 10000 1 0 19:55 12.12.2019
2783 Clouds 20 1019 94 10000 1.5 180 19:37 12.12.2019
2784 Clouds 20 1019 94 10000 1.5 180 19:18 12.12.2019
2785 Thunderstorm 20 1018 94 7000 2.6 170 18:55 12.12.2019
2786 Thunderstorm 20 1018 94 7000 2.6 170 18:37 12.12.2019
2787 Thunderstorm 20 1018 94 7000 2.6 130 18:18 12.12.2019
2788 Thunderstorm 20 1018 94 6000 3.6 110 17:55 12.12.2019
2789 Thunderstorm 20 1018 94 6000 3.6 110 17:37 12.12.2019
2790 Thunderstorm 21 1018 88 10000 6.7 110 17:19 12.12.2019
2791 Thunderstorm 24 1017 69 8000 3.6 280 16:54 12.12.2019
2792 Thunderstorm 24 1017 69 8000 3.6 280 16:36 12.12.2019
2793 Thunderstorm 23 1016 78 8000 2.1 240 16:18 12.12.2019
2794 Thunderstorm 22 1015 78 7000 6.7 220 15:42 12.12.2019
2795 Thunderstorm 23 1015 69 8000 5.7 250 15:19 12.12.2019
2796 Thunderstorm 25 1015 57 6000 5.7 250 14:57 12.12.2019
2797 Thunderstorm 25 1015 57 6000 5.7 250 14:36 12.12.2019
2798 Clouds 28 1014 51 10000 5.1 240 14:18 12.12.2019
2799 Clouds 30 1014 42 10000 7.7 290 13:54 12.12.2019
2800 Clouds 30 1014 42 10000 7.7 290 13:36 12.12.2019
2801 Clouds 30 1015 42 10000 6.7 310 13:18 12.12.2019
2802 Clouds 30 1015 42 10000 6.7 310 13:18 12.12.2019
2803 Clouds 30 1015 42 10000 6.7 300 12:42 12.12.2019
2804 Clouds 30 1015 42 10000 6.7 300 12:22 12.12.2019
2805 Clouds 30 1016 42 10000 5.1 280 11:59 12.12.2019
2806 Clouds 30 1016 42 10000 5.1 280 11:40 12.12.2019
2807 Clouds 30 1016 42 10000 4.1 300 11:21 12.12.2019
2808 Clouds 29 1017 45 10000 5.7 300 10:58 12.12.2019
2809 Clouds 29 1017 45 10000 5.7 300 10:40 12.12.2019
2810 Clouds 29 1017 45 10000 5.7 310 10:22 12.12.2019
2811 Clouds 29 1017 48 10000 3.1 300 09:56 12.12.2019
2812 Clouds 29 1017 48 10000 3.1 300 09:38 12.12.2019
2813 Clouds 28 1017 51 10000 3.6 300 09:19 12.12.2019
2814 Clouds 28 1018 54 10000 3.1 280 08:47 12.12.2019
2815 Clouds 27 1018 57 10000 2.6 270 08:28 12.12.2019
2816 Clouds 26 1018 61 10000 3.6 260 07:54 12.12.2019
2817 Clouds 26 1018 61 10000 3.6 260 07:36 12.12.2019
2818 Clouds 25 1018 69 10000 4.6 270 07:18 12.12.2019
2819 Clouds 24 1018 73 10000 4.6 250 06:41 12.12.2019
2820 Clouds 24 1019 78 10000 4.1 280 06:21 12.12.2019
2821 Clouds 22 1019 83 10000 4.6 290 05:26 12.12.2019
2822 Clouds 20 1018 94 10000 2.6 300 04:31 12.12.2019
2823 Clouds 19 1017 93 10000 2.1 320 02:41 12.12.2019
2824 Clouds 19 1017 93 10000 1.5 300 02:23 12.12.2019
2825 Clouds 19 1017 93 10000 1.5 310 01:54 12.12.2019
2826 Clouds 19 1017 93 10000 1.5 310 01:35 12.12.2019
2827 Clouds 19 1017 100 10000 1 0 00:48 12.12.2019
2828 Clouds 19 1017 100 10000 1.32 302 00:21 12.12.2019
2829 Clouds 19 1017 100 10000 0.5 0 23:54 11.12.2019
2830 Clouds 19 1017 100 10000 0.5 0 23:36 11.12.2019
2831 Clouds 19 1018 100 10000 1 0 23:18 11.12.2019
2832 Clouds 20 1018 94 10000 1 0 22:55 11.12.2019
2833 Clouds 20 1018 94 10000 1 0 22:36 11.12.2019
2834 Clouds 20 1018 94 10000 1 0 22:36 11.12.2019
2835 Clouds 20 1018 94 10000 0.5 0 22:18 11.12.2019
2836 Clouds 20 1019 88 10000 1 0 21:39 11.12.2019
2837 Clouds 20 1019 88 10000 1.5 0 21:20 11.12.2019
2838 Clouds 20 1018 94 10000 3.6 340 20:58 11.12.2019
2839 Clouds 20 1018 94 10000 3.6 340 20:39 11.12.2019
2840 Clouds 20 1018 94 10000 3.1 20 20:19 11.12.2019
2841 Rain 21 1019 88 10000 2.6 90 19:59 11.12.2019
2842 Rain 21 1019 88 10000 2.6 90 19:40 11.12.2019
2843 Thunderstorm 21 1019 88 10000 2.6 230 19:21 11.12.2019
2844 Thunderstorm 21 1018 88 10000 2.6 60 18:57 11.12.2019
2845 Thunderstorm 21 1018 88 10000 2.6 60 18:38 11.12.2019
2846 Thunderstorm 20 1018 94 10000 4.1 90 18:18 11.12.2019
2847 Thunderstorm 21 1018 88 10000 3.1 70 17:55 11.12.2019
2848 Thunderstorm 21 1018 88 10000 3.1 70 17:36 11.12.2019
2849 Thunderstorm 21 1018 88 10000 4.1 80 17:18 11.12.2019
2850 Thunderstorm 22 1017 83 10000 3.1 60 16:55 11.12.2019
2851 Thunderstorm 22 1017 83 10000 3.1 60 16:55 11.12.2019
2852 Thunderstorm 22 1017 83 10000 3.1 60 16:36 11.12.2019
2853 Thunderstorm 23 1017 78 10000 1.5 0 16:18 11.12.2019
2854 Thunderstorm 23 1016 73 10000 4.1 80 15:41 11.12.2019
2855 Thunderstorm 23 1016 73 10000 4.1 80 15:41 11.12.2019
2856 Clouds 24 1016 73 10000 2.6 80 15:23 11.12.2019
2857 Clouds 24 1016 73 10000 2.6 80 15:23 11.12.2019
2858 Clouds 24 1016 73 10000 3.6 80 14:57 11.12.2019
2859 Clouds 24 1016 73 10000 3.6 80 14:57 11.12.2019
2860 Clouds 24 1016 73 10000 3.6 80 14:39 11.12.2019
2861 Rain 25 1016 69 10000 5.1 90 14:20 11.12.2019
2862 Clouds 28 1015 51 10000 3.1 210 13:58 11.12.2019
2863 Clouds 28 1015 51 10000 3.1 210 13:39 11.12.2019
2864 Clouds 29 1015 51 10000 2.1 0 13:20 11.12.2019
2865 Clouds 28 1015 58 10000 4.6 100 12:57 11.12.2019
2866 Clouds 28 1015 58 10000 4.6 100 12:38 11.12.2019
2867 Rain 29 1016 48 10000 3.1 320 12:19 11.12.2019
2868 Clouds 29 1016 48 10000 1.5 0 11:57 11.12.2019
2869 Clouds 29 1016 48 10000 1.5 0 11:38 11.12.2019
2870 Clouds 29 1016 48 10000 1.5 0 11:38 11.12.2019
2871 Clouds 28 1017 54 10000 3.1 0 11:18 11.12.2019
2872 Clouds 28 1017 54 10000 3.1 0 11:18 11.12.2019
2873 Clouds 28 1017 54 10000 2.1 290 10:45 11.12.2019
2874 Clouds 29 1017 51 10000 2.1 0 10:27 11.12.2019
2875 Clouds 27 1018 57 10000 1.5 0 09:59 11.12.2019
2876 Clouds 27 1018 57 10000 1.5 0 09:40 11.12.2019
2877 Clouds 27 1018 61 10000 1 0 09:21 11.12.2019
2878 Clouds 28 1019 58 10000 1 0 08:57 11.12.2019
2879 Clouds 28 1019 58 10000 1 0 08:38 11.12.2019
2880 Clouds 26 1019 61 10000 1.5 0 08:19 11.12.2019
2881 Clouds 25 1019 69 10000 1 0 07:47 11.12.2019
2882 Clouds 24 1019 73 10000 1 0 07:29 11.12.2019
2883 Clouds 25 1019 65 10000 1.5 0 06:59 11.12.2019
2884 Clouds 25 1019 65 10000 1.5 0 06:40 11.12.2019
2885 Clouds 24 1019 73 10000 1.5 0 06:21 11.12.2019
2886 Clouds 22 1019 83 10000 1.5 0 05:41 11.12.2019
2887 Clouds 21 1019 88 10000 1.5 0 05:18 11.12.2019
2888 Clouds 20 1018 94 10000 1 0 03:50 11.12.2019
2889 Clouds 20 1017 94 10000 1 0 02:49 11.12.2019
2890 Clouds 20 1017 94 10000 1 0 01:23 11.12.2019
2891 Clouds 20 1017 94 10000 1.5 50 00:46 11.12.2019
2892 Clouds 20 1017 94 10000 0.5 0 00:21 11.12.2019
2893 Clouds 21 1018 88 10000 1.5 0 23:47 10.12.2019
2894 Clouds 21 1018 88 10000 2.1 50 23:28 10.12.2019
2895 Clouds 21 1018 88 10000 2.1 50 22:57 10.12.2019
2896 Clouds 21 1018 88 10000 2.1 50 22:39 10.12.2019
2897 Clouds 22 1018 83 10000 2.1 350 22:21 10.12.2019
2898 Clouds 22 1018 83 10000 1.5 350 21:55 10.12.2019
2899 Clouds 22 1018 83 10000 1.5 350 21:55 10.12.2019
2900 Clouds 22 1018 83 10000 1.5 350 21:37 10.12.2019
2901 Clouds 21 1018 88 10000 1 20 21:19 10.12.2019
2902 Clouds 22 1018 83 10000 1.5 20 20:57 10.12.2019
2903 Clouds 22 1018 83 10000 1.5 20 20:37 10.12.2019
2904 Clouds 22 1018 83 10000 1.5 20 20:37 10.12.2019
2905 Clouds 22 1019 83 10000 1.5 360 20:19 10.12.2019
2906 Clouds 22 1019 83 10000 1.5 360 20:19 10.12.2019
2907 Clouds 22 1019 83 10000 2.1 70 19:54 10.12.2019
2908 Clouds 22 1019 83 10000 2.1 70 19:36 10.12.2019
2909 Thunderstorm 22 1018 83 10000 1.5 0 19:18 10.12.2019
2910 Thunderstorm 22 1018 88 10000 1.5 60 18:40 10.12.2019
2911 Thunderstorm 23 1017 78 10000 2.1 20 18:20 10.12.2019
2912 Thunderstorm 23 1017 78 10000 2.1 10 17:57 10.12.2019
2913 Thunderstorm 23 1017 78 10000 2.1 10 17:39 10.12.2019
2914 Thunderstorm 23 1017 78 10000 3.6 360 17:20 10.12.2019
2915 Thunderstorm 24 1017 73 10000 3.6 350 16:43 10.12.2019
2916 Clouds 25 1016 69 10000 2.6 20 16:21 10.12.2019
2917 Clouds 25 1016 69 10000 2.6 20 16:21 10.12.2019
2918 Clouds 25 1016 69 10000 3.1 20 15:59 10.12.2019
2919 Clouds 25 1016 69 10000 3.1 20 15:37 10.12.2019
2920 Clouds 27 1016 61 10000 4.1 30 15:18 10.12.2019
2921 Clouds 27 1015 61 10000 1.5 0 14:55 10.12.2019
2922 Clouds 27 1015 61 10000 1.5 0 14:37 10.12.2019
2923 Clouds 25 1016 69 10000 2.6 270 14:19 10.12.2019
2924 Rain 26 1016 61 10000 1.5 0 13:56 10.12.2019
2925 Rain 26 1016 61 10000 1.5 0 13:56 10.12.2019
2926 Rain 26 1016 61 10000 1.5 0 13:38 10.12.2019
2927 Rain 27 1016 57 10000 2.6 50 13:18 10.12.2019
2928 Clouds 27 1017 54 10000 2.1 0 12:40 10.12.2019
2929 Clouds 26 1017 61 10000 2.6 350 12:22 10.12.2019
2930 Clouds 29 1017 54 10000 1.5 0 11:44 10.12.2019
2931 Clouds 27 1017 57 10000 3.1 340 11:25 10.12.2019
2932 Clouds 27 1018 61 10000 3.1 320 10:57 10.12.2019
2933 Clouds 27 1018 61 10000 3.1 320 10:38 10.12.2019
2934 Clouds 27 1018 61 10000 3.1 320 10:38 10.12.2019
2935 Clouds 25 1018 65 10000 4.1 340 10:20 10.12.2019
2936 Clouds 25 1018 65 10000 4.1 340 09:56 10.12.2019
2937 Clouds 25 1018 65 10000 4.1 340 09:56 10.12.2019
2938 Clouds 25 1018 65 10000 4.1 340 09:38 10.12.2019
2939 Clouds 26 1018 61 10000 2.1 0 09:19 10.12.2019
2940 Clouds 26 1019 61 10000 2.1 100 08:54 10.12.2019
2941 Clouds 25 1019 65 10000 3.1 80 08:36 10.12.2019
2942 Clouds 25 1019 65 10000 3.1 80 08:36 10.12.2019
2943 Clouds 25 1019 65 10000 3.1 80 08:18 10.12.2019
2944 Clouds 25 1019 65 10000 3.1 80 08:18 10.12.2019
2945 Clouds 24 1019 64 10000 2.6 70 07:43 10.12.2019
2946 Clouds 23 1019 73 10000 1.5 0 07:24 10.12.2019
2947 Clouds 22 1019 73 10000 2.6 310 06:46 10.12.2019
2948 Clouds 22 1019 73 10000 3.1 310 06:19 10.12.2019
2949 Clouds 20 1019 82 10000 3.1 310 05:54 10.12.2019
2950 Clouds 20 1018 88 10000 0.43 328 04:55 10.12.2019
2951 Clouds 19 1017 93 10000 1 0 03:38 10.12.2019
2952 Clouds 20 1017 88 10000 1.5 360 02:46 10.12.2019
2953 Clouds 20 1016 88 10000 2.1 360 01:45 10.12.2019
2954 Clouds 20 1016 94 10000 3.1 350 01:21 10.12.2019
2955 Clouds 19 1016 93 10000 1.5 60 00:42 10.12.2019
2956 Clouds 19 1016 93 10000 2.6 40 00:21 10.12.2019
2957 Clouds 19 1016 93 10000 2.1 40 23:41 09.12.2019
2958 Clouds 19 1016 93 10000 1.5 50 23:23 09.12.2019
2959 Clouds 19 1016 93 10000 2.1 60 22:58 09.12.2019
2960 Clouds 19 1016 93 10000 2.1 60 22:40 09.12.2019
2961 Clouds 19 1017 93 10000 2.1 100 22:20 09.12.2019
2962 Clouds 19 1017 93 10000 2.1 120 21:57 09.12.2019
2963 Clouds 19 1017 93 10000 2.1 120 21:38 09.12.2019
2964 Clouds 19 1018 93 10000 2.1 170 21:19 09.12.2019
2965 Clouds 19 1018 93 10000 1.5 0 20:56 09.12.2019
2966 Clouds 19 1018 93 10000 1.5 0 20:38 09.12.2019
2967 Clouds 19 1018 100 10000 1.5 200 20:20 09.12.2019
2968 Thunderstorm 19 1019 100 10000 1 0 19:55 09.12.2019
2969 Thunderstorm 19 1019 100 10000 1 0 19:55 09.12.2019
2970 Thunderstorm 19 1019 100 10000 1 0 19:37 09.12.2019
2971 Thunderstorm 19 1019 100 7000 1 0 19:19 09.12.2019
2972 Thunderstorm 19 1018 93 10000 1.5 0 18:56 09.12.2019
2973 Thunderstorm 19 1018 93 10000 1.5 0 18:37 09.12.2019
2974 Thunderstorm 19 1018 93 10000 1.5 190 18:19 09.12.2019
2975 Thunderstorm 19 1018 93 10000 2.6 150 17:57 09.12.2019
2976 Thunderstorm 19 1018 93 10000 2.6 150 17:38 09.12.2019
2977 Thunderstorm 19 1017 100 10000 1.5 0 17:20 09.12.2019
2978 Thunderstorm 19 1017 100 10000 1.5 0 16:56 09.12.2019
2979 Thunderstorm 19 1017 100 10000 1.5 0 16:37 09.12.2019
2980 Thunderstorm 19 1017 93 4500 5.1 340 16:18 09.12.2019
2981 Thunderstorm 21 1015 88 8000 3.6 260 15:55 09.12.2019
2982 Thunderstorm 21 1015 88 8000 3.6 260 15:37 09.12.2019
2983 Thunderstorm 21 1015 88 8000 3.6 260 15:37 09.12.2019
2984 Thunderstorm 21 1015 88 10000 3.1 210 15:19 09.12.2019
2985 Thunderstorm 21 1015 88 10000 2.6 200 14:42 09.12.2019
2986 Thunderstorm 25 1014 65 10000 3.1 290 14:19 09.12.2019
2987 Clouds 26 1014 65 10000 3.6 310 13:58 09.12.2019
2988 Clouds 26 1014 65 10000 3.6 310 13:38 09.12.2019
2989 Clouds 26 1013 65 10000 5.7 310 13:19 09.12.2019
2990 Clouds 26 1013 61 10000 7.2 300 12:57 09.12.2019
2991 Clouds 26 1013 61 10000 7.2 300 12:38 09.12.2019
2992 Clouds 29 1013 39 10000 2.6 20 12:20 09.12.2019
2993 Clouds 30 1014 45 10000 3.6 50 11:58 09.12.2019
2994 Clouds 30 1014 45 10000 3.6 50 11:39 09.12.2019
2995 Clouds 30 1014 42 10000 3.1 50 11:21 09.12.2019
2996 Clouds 30 1015 45 10000 2.1 0 10:54 09.12.2019
2997 Clouds 29 1015 48 10000 2.1 0 10:36 09.12.2019
2998 Clouds 29 1015 48 10000 2.1 0 10:18 09.12.2019
2999 Clouds 29 1015 51 10000 2.6 50 09:41 09.12.2019
3000 Clouds 29 1015 51 10000 2.6 50 09:41 09.12.2019
3001 Clouds 27 1016 57 10000 2.6 40 09:21 09.12.2019
3002 Clouds 26 1016 57 10000 1 0 08:44 09.12.2019
3003 Clouds 25 1016 65 10000 1.5 90 08:26 09.12.2019
3004 Clouds 26 1016 65 10000 0.5 0 07:59 09.12.2019
3005 Clouds 26 1016 65 10000 0.5 0 07:41 09.12.2019
3006 Clouds 25 1016 69 10000 1.5 0 07:23 09.12.2019
3007 Clouds 23 1016 78 10000 1 0 06:47 09.12.2019
3008 Clouds 20 1016 94 10000 0.5 0 06:24 09.12.2019
3009 Clouds 19 1016 100 6000 0.5 0 05:27 09.12.2019
3010 Clouds 19 1016 93 6000 1 0 04:46 09.12.2019
3011 Clouds 18 1014 93 10000 0.5 0 03:20 09.12.2019
3012 Clouds 18 1014 93 10000 0.5 0 02:24 09.12.2019
3013 Clouds 18 1014 93 10000 1.5 80 01:42 09.12.2019
3014 Clouds 18 1014 93 10000 1.5 80 01:42 09.12.2019
3015 Clouds 18 1014 100 10000 1 0 00:46 09.12.2019
3016 Clouds 18 1014 100 10000 0.5 305 00:26 09.12.2019
3017 Clouds 18 1014 100 10000 1.5 0 23:41 08.12.2019
3018 Clouds 19 1014 93 10000 2.1 20 23:23 08.12.2019
3019 Clouds 19 1015 93 10000 2.76 22 22:57 08.12.2019
3020 Clouds 19 1015 93 10000 2.76 22 22:57 08.12.2019
3021 Clouds 19 1015 93 10000 2.76 22 22:38 08.12.2019
3022 Clouds 19 1015 93 10000 0.5 0 22:19 08.12.2019
3023 Clouds 19 1015 93 10000 1 0 21:58 08.12.2019
3024 Clouds 19 1015 93 10000 1 0 21:58 08.12.2019
3025 Clouds 19 1015 93 10000 1 0 21:40 08.12.2019
3026 Clouds 19 1016 93 10000 2.6 220 21:19 08.12.2019
3027 Clouds 19 1017 93 10000 2.1 220 20:57 08.12.2019
3028 Clouds 19 1017 93 10000 2.1 220 20:38 08.12.2019
3029 Clouds 19 1017 93 10000 2.1 220 20:38 08.12.2019
3030 Clouds 19 1017 93 10000 1 0 20:20 08.12.2019
3031 Rain 19 1017 93 7000 1.5 200 19:57 08.12.2019
3032 Rain 19 1017 93 7000 1.5 200 19:39 08.12.2019
3033 Rain 19 1017 93 7000 2.6 180 19:21 08.12.2019
3034 Thunderstorm 19 1017 93 6000 4.6 180 18:55 08.12.2019
3035 Thunderstorm 19 1017 100 6000 4.1 170 18:37 08.12.2019
3036 Thunderstorm 19 1017 93 6000 4.6 180 18:37 08.12.2019
3037 Thunderstorm 19 1017 100 6000 4.1 170 18:18 08.12.2019
3038 Thunderstorm 20 1016 88 4500 2.6 200 17:56 08.12.2019
3039 Thunderstorm 20 1016 88 4500 2.6 200 17:56 08.12.2019
3040 Thunderstorm 20 1016 88 4500 2.6 200 17:38 08.12.2019
3041 Thunderstorm 22 1015 78 8000 2.6 0 17:19 08.12.2019
3042 Thunderstorm 24 1014 64 7000 6.7 60 16:55 08.12.2019
3043 Thunderstorm 24 1014 64 7000 6.7 60 16:37 08.12.2019
3044 Rain 25 1013 61 8000 8.7 30 16:19 08.12.2019
3045 Rain 27 1012 47 8000 6.2 20 15:38 08.12.2019
3046 Clouds 27 1012 51 10000 3.6 340 15:19 08.12.2019
3047 Clouds 26 1012 57 10000 1.5 0 14:59 08.12.2019
3048 Clouds 26 1012 57 10000 1.5 0 14:39 08.12.2019
3049 Clouds 29 1012 42 10000 3.6 30 14:21 08.12.2019
3050 Clouds 29 1012 39 10000 3.1 10 13:57 08.12.2019
3051 Clouds 29 1012 39 10000 3.1 10 13:57 08.12.2019
3052 Clouds 29 1012 39 10000 3.1 10 13:38 08.12.2019
3053 Clouds 29 1012 42 10000 5.1 20 13:19 08.12.2019
3054 Clouds 30 1012 42 10000 5.1 360 12:54 08.12.2019
3055 Clouds 30 1012 42 10000 5.1 360 12:54 08.12.2019
3056 Clouds 30 1012 37 10000 3.6 20 12:36 08.12.2019
3057 Clouds 30 1012 37 10000 3.6 20 12:18 08.12.2019
3058 Clouds 30 1012 37 10000 3.6 20 12:18 08.12.2019
3059 Clouds 30 1013 40 10000 2.1 0 11:38 08.12.2019
3060 Clouds 30 1013 40 10000 2.1 0 11:38 08.12.2019
3061 Clouds 30 1014 40 10000 2.1 30 11:20 08.12.2019
3062 Clouds 29 1014 42 10000 2.6 90 10:58 08.12.2019
3063 Clouds 29 1014 42 10000 2.6 90 10:38 08.12.2019
3064 Clouds 29 1014 42 10000 2.1 0 10:20 08.12.2019
3065 Clouds 28 1015 48 10000 2.1 320 09:57 08.12.2019
3066 Clouds 28 1015 48 10000 2.1 320 09:37 08.12.2019
3067 Clouds 29 1015 45 10000 2.1 0 09:19 08.12.2019
3068 Clouds 29 1015 45 10000 2.6 0 08:57 08.12.2019
3069 Clouds 29 1015 45 10000 2.6 0 08:37 08.12.2019
3070 Clouds 29 1015 45 10000 2.6 0 08:37 08.12.2019
3071 Clouds 29 1015 45 10000 2.6 0 08:37 08.12.2019
3072 Clouds 28 1016 48 10000 3.1 210 08:18 08.12.2019
3073 Clouds 28 1016 51 10000 2.6 180 07:42 08.12.2019
3074 Clouds 27 1016 54 10000 3.1 210 07:19 08.12.2019
3075 Clouds 25 1016 65 10000 2.1 0 06:50 08.12.2019
3076 Clouds 25 1016 65 10000 1.5 0 06:22 08.12.2019
3077 Clouds 24 1016 69 10000 1 0 05:43 08.12.2019
3078 Clouds 20 1016 88 10000 1.5 0 04:59 08.12.2019
3079 Clouds 18 1015 93 10000 1.5 0 03:49 08.12.2019
3080 Clouds 17 1015 93 10000 2.1 310 03:21 08.12.2019
3081 Clouds 18 1015 93 10000 2.1 300 02:38 08.12.2019
3082 Clouds 18 1014 93 10000 1.08 151 01:54 08.12.2019
3083 Clouds 19 1015 88 10000 1.5 0 00:59 08.12.2019
3084 Clouds 19 1015 88 10000 1.5 0 00:39 08.12.2019
3085 Clouds 20 1015 88 10000 1 0 00:19 08.12.2019
3086 Clouds 20 1015 88 10000 1 0 23:40 07.12.2019
3087 Clouds 20 1016 88 10000 0.5 240 23:20 07.12.2019
3088 Clouds 20 1016 82 10000 1 0 22:56 07.12.2019
3089 Clouds 20 1016 82 10000 1 0 22:38 07.12.2019
3090 Clouds 20 1016 82 10000 2.1 290 22:20 07.12.2019
3091 Clouds 21 1016 83 10000 0.5 0 21:56 07.12.2019
3092 Clouds 21 1016 83 10000 0.5 0 21:56 07.12.2019
3093 Clouds 21 1016 83 10000 0.5 0 21:38 07.12.2019
3094 Clouds 21 1017 83 10000 1.5 350 21:19 07.12.2019
3095 Clouds 22 1017 78 10000 1.5 300 20:55 07.12.2019
3096 Clouds 22 1017 78 10000 1.5 300 20:36 07.12.2019
3097 Clouds 22 1017 78 10000 1 330 20:18 07.12.2019
3098 Clouds 22 1017 78 10000 2.1 200 19:55 07.12.2019
3099 Clouds 22 1017 78 10000 2.1 200 19:36 07.12.2019
3100 Clouds 23 1017 69 10000 1 0 19:18 07.12.2019
3101 Thunderstorm 22 1016 73 10000 1 0 18:44 07.12.2019
3102 Thunderstorm 22 1016 73 10000 1.5 310 18:19 07.12.2019
3103 Thunderstorm 22 1016 73 10000 1.5 290 17:57 07.12.2019
3104 Thunderstorm 22 1016 73 10000 1.5 290 17:39 07.12.2019
3105 Clouds 23 1015 69 10000 2.6 300 17:20 07.12.2019
3106 Clouds 23 1015 64 10000 2.1 280 16:56 07.12.2019
3107 Clouds 23 1015 64 10000 2.1 280 16:56 07.12.2019
3108 Clouds 23 1015 64 10000 2.1 280 16:37 07.12.2019
3109 Clouds 24 1015 57 10000 5.1 300 16:19 07.12.2019
3110 Clouds 25 1015 53 10000 3.6 340 15:42 07.12.2019
3111 Clouds 25 1014 53 10000 4.6 300 15:23 07.12.2019
3112 Clouds 25 1014 53 10000 4.6 300 15:23 07.12.2019
3113 Clouds 25 1014 53 10000 6.2 290 14:57 07.12.2019
3114 Clouds 25 1014 53 10000 6.2 290 14:39 07.12.2019
3115 Clouds 26 1014 50 10000 7.7 320 14:18 07.12.2019
3116 Clouds 26 1013 50 10000 7.7 310 13:41 07.12.2019
3117 Rain 26 1013 54 10000 5.7 300 13:21 07.12.2019
3118 Rain 26 1013 54 10000 5.7 300 13:21 07.12.2019
3119 Clouds 28 1013 42 10000 5.7 300 12:58 07.12.2019
3120 Clouds 28 1013 42 10000 5.7 300 12:40 07.12.2019
3121 Clouds 28 1013 42 10000 4.1 250 12:22 07.12.2019
3122 Clouds 29 1013 39 10000 5.1 230 11:57 07.12.2019
3123 Clouds 29 1013 39 10000 5.1 230 11:38 07.12.2019
3124 Clouds 31 1014 33 10000 5.7 300 11:20 07.12.2019
3125 Clouds 29 1014 37 10000 4.1 320 10:38 07.12.2019
3126 Clouds 30 1015 35 10000 4.1 0 10:19 07.12.2019
3127 Clouds 30 1015 35 10000 4.1 0 10:19 07.12.2019
3128 Clouds 30 1015 35 10000 4.1 0 10:19 07.12.2019
3129 Clouds 29 1015 39 10000 2.1 250 09:41 07.12.2019
3130 Clouds 29 1015 39 10000 3.1 250 09:22 07.12.2019
3131 Clouds 28 1016 48 10000 4.6 300 08:47 07.12.2019
3132 Clouds 28 1016 48 10000 4.1 300 08:27 07.12.2019
3133 Clouds 26 1016 57 10000 3.6 310 07:59 07.12.2019
3134 Clouds 26 1016 57 10000 3.6 310 07:59 07.12.2019
3135 Clouds 26 1016 57 10000 3.6 310 07:39 07.12.2019
3136 Clouds 25 1017 57 10000 2.1 320 07:21 07.12.2019
3137 Clouds 25 1017 57 10000 2.1 320 07:21 07.12.2019
3138 Clouds 24 1017 64 10000 2.1 0 06:45 07.12.2019
3139 Clouds 22 1017 73 10000 2.6 290 06:24 07.12.2019
3140 Clouds 20 1017 77 10000 1 0 05:19 07.12.2019
3141 Clouds 16 1016 93 10000 1.5 40 03:54 07.12.2019
3142 Clouds 16 1016 93 10000 1.5 70 02:56 07.12.2019
3143 Clouds 17 1016 88 10000 1 30 02:21 07.12.2019
3144 Clouds 17 1016 88 10000 1 60 01:31 07.12.2019
3145 Clouds 17 1016 88 10000 1.5 0 00:52 07.12.2019
3146 Clouds 17 1016 88 10000 2.6 110 00:19 07.12.2019
3147 Clouds 18 1016 82 10000 2.6 90 23:47 06.12.2019
3148 Clouds 18 1016 82 10000 2.6 90 23:47 06.12.2019
3149 Clouds 18 1017 82 10000 3.6 100 23:24 06.12.2019
3150 Clouds 18 1017 82 10000 3.6 100 22:58 06.12.2019
3151 Clouds 19 1018 77 10000 4.1 70 22:37 06.12.2019
3152 Clouds 19 1018 77 10000 4.1 70 22:18 06.12.2019
3153 Clouds 20 1018 77 10000 5.1 100 21:56 06.12.2019
3154 Clouds 20 1018 77 10000 5.1 100 21:37 06.12.2019
3155 Clouds 20 1019 77 10000 4.1 100 21:19 06.12.2019
3156 Clouds 20 1019 77 10000 6.2 110 20:42 06.12.2019
3157 Clouds 20 1019 77 10000 4.6 100 20:21 06.12.2019
3158 Clouds 21 1019 77 10000 5.7 100 19:54 06.12.2019
3159 Clouds 21 1019 77 10000 5.7 100 19:36 06.12.2019
3160 Clouds 21 1018 77 10000 4.6 90 19:18 06.12.2019
3161 Clouds 21 1018 77 10000 6.2 90 18:44 06.12.2019
3162 -273 0 0 0 0 0 18:23 06.12.2019
3163 Clouds 22 1018 73 10000 6.7 110 17:58 06.12.2019
3164 Clouds 22 1018 73 10000 6.7 110 17:40 06.12.2019
3165 Clouds 22 1018 73 10000 6.7 110 17:40 06.12.2019
3166 Clouds 24 1017 60 10000 6.2 120 17:22 06.12.2019
3167 Clouds 24 1017 57 10000 7.7 110 16:58 06.12.2019
3168 Clouds 24 1017 57 10000 7.7 110 16:39 06.12.2019
3169 Clouds 26 1016 50 10000 7.2 110 16:21 06.12.2019
3170 Clouds 27 1015 34 10000 5.7 110 15:41 06.12.2019
3171 Clouds 28 1015 30 10000 6.2 100 15:23 06.12.2019
3172 Clouds 29 1015 28 10000 5.7 80 14:59 06.12.2019
3173 Clouds 29 1015 28 10000 5.7 80 14:40 06.12.2019
3174 Clouds 30 1014 27 10000 3.1 40 14:20 06.12.2019
3175 Clouds 31 1014 27 10000 3.6 70 13:55 06.12.2019
3176 Clouds 31 1014 27 10000 3.6 70 13:37 06.12.2019
3177 Clouds 31 1015 25 10000 2.1 0 13:19 06.12.2019
3178 Clouds 31 1015 23 10000 3.6 20 12:39 06.12.2019
3179 Clouds 31 1015 23 10000 3.6 140 12:21 06.12.2019
3180 Clouds 31 1016 23 10000 2.1 0 11:43 06.12.2019
3181 Clouds 30 1016 25 10000 2.1 60 11:23 06.12.2019
3182 Clouds 30 1017 27 10000 2.6 70 10:58 06.12.2019
3183 Clouds 30 1017 27 10000 2.6 70 10:40 06.12.2019
3184 Clouds 29 1017 28 10000 2.1 0 10:20 06.12.2019
3185 Clouds 28 1018 32 10000 2.1 0 09:56 06.12.2019
3186 Clouds 28 1018 32 10000 2.1 0 09:37 06.12.2019
3187 Clouds 27 1018 36 10000 3.1 90 09:19 06.12.2019
3188 Clouds 27 1018 36 10000 3.1 90 09:19 06.12.2019
3189 Clouds 27 1018 39 10000 2.6 140 08:43 06.12.2019
3190 Clouds 26 1019 44 10000 3.1 110 08:25 06.12.2019
3191 Clouds 25 1019 50 10000 2.6 110 07:43 06.12.2019
3192 Clouds 23 1019 53 10000 3.1 100 07:23 06.12.2019
3193 Clouds 23 1019 53 10000 3.1 100 07:23 06.12.2019
3194 Clouds 23 1019 53 10000 3.1 100 07:23 06.12.2019
3195 Clouds 23 1020 56 10000 3.1 120 06:53 06.12.2019
3196 Clouds 21 1020 68 10000 3.1 110 06:25 06.12.2019
3197 Clouds 21 1020 64 10000 2.6 160 05:51 06.12.2019
3198 Clouds 16 1019 87 10000 2.6 90 03:50 06.12.2019
3199 Clouds 16 1019 87 10000 2.1 70 01:46 06.12.2019
3200 Clouds 17 1019 88 10000 2.6 70 00:56 06.12.2019
3201 Clouds 17 1018 88 10000 3.1 90 00:24 06.12.2019
3202 Clouds 17 1019 88 10000 3.6 110 23:52 05.12.2019
3203 Clouds 18 1019 82 10000 3.6 130 23:21 05.12.2019
3204 Clouds 18 1019 82 10000 3.6 130 22:59 05.12.2019
3205 Clouds 18 1019 82 10000 3.6 130 22:39 05.12.2019
3206 Clouds 18 1019 82 10000 3.6 130 22:39 05.12.2019
3207 Clouds 18 1019 82 10000 5.1 110 22:20 05.12.2019
3208 Clouds 19 1020 77 10000 5.7 110 21:58 05.12.2019
3209 Clouds 19 1020 77 10000 5.7 110 21:40 05.12.2019
3210 Clouds 19 1020 82 10000 5.1 120 21:22 05.12.2019
3211 Clouds 19 1020 82 10000 5.1 100 20:58 05.12.2019
3212 Clouds 19 1020 82 10000 5.1 100 20:38 05.12.2019
3213 Clouds 20 1020 82 10000 4.6 100 20:19 05.12.2019
3214 Clouds 20 1020 82 10000 4.6 100 19:43 05.12.2019
3215 Clouds 20 1020 82 10000 4.6 110 19:25 05.12.2019
3216 Clouds 21 1019 73 10000 5.1 100 18:59 05.12.2019
3217 Clouds 21 1019 73 10000 5.1 100 18:39 05.12.2019
3218 Clouds 22 1019 64 10000 5.7 100 18:20 05.12.2019
3219 Clouds 23 1019 56 10000 5.7 100 17:56 05.12.2019
3220 Clouds 23 1019 56 10000 5.7 100 17:37 05.12.2019
3221 Clouds 23 1019 56 10000 5.7 100 17:18 05.12.2019
3222 Clouds 25 1017 50 10000 6.7 100 16:40 05.12.2019
3223 Clouds 26 1017 41 10000 6.7 110 16:22 05.12.2019
3224 Clouds 23 1012 52 0 3.39 90 15:59 05.12.2019
3225 Clouds 23 1012 52 0 3.39 90 15:40 05.12.2019
3226 Clouds 23 1012 52 0 3.39 90 15:21 05.12.2019
3227 Clouds 30 1016 33 10000 4.1 140 14:57 05.12.2019
3228 Clouds 30 1016 33 10000 4.1 140 14:38 05.12.2019
3229 Clouds 30 1016 33 10000 4.1 140 14:20 05.12.2019
3230 Clouds 30 1016 33 10000 5.1 100 13:58 05.12.2019
3231 Clouds 30 1016 33 10000 5.1 100 13:40 05.12.2019
3232 Clouds 30 1016 33 10000 4.6 130 13:21 05.12.2019
3233 Clouds 30 1017 28 10000 5.1 140 12:59 05.12.2019
3234 Clouds 30 1017 28 10000 5.1 140 12:40 05.12.2019
3235 Clouds 31 1017 25 10000 4.1 170 12:21 05.12.2019
3236 Clouds 30 1017 27 10000 5.7 120 11:41 05.12.2019
3237 Clouds 30 1017 25 10000 5.7 150 11:22 05.12.2019
3238 Clouds 30 1018 27 10000 4.6 120 10:59 05.12.2019
3239 Clouds 30 1018 27 10000 4.6 120 10:41 05.12.2019
3240 Clouds 30 1018 25 10000 5.1 120 10:19 05.12.2019
3241 Clouds 30 1018 25 10000 5.1 120 10:19 05.12.2019
3242 Clouds 29 1018 26 10000 5.1 140 09:57 05.12.2019
3243 Clouds 29 1019 28 10000 4.6 130 09:39 05.12.2019
3244 Clouds 29 1019 28 10000 4.6 130 09:20 05.12.2019
3245 Clouds 29 1019 28 10000 4.6 130 09:20 05.12.2019
3246 Clouds 28 1019 30 10000 4.6 130 08:56 05.12.2019
3247 Clouds 28 1019 26 10000 6.7 110 08:37 05.12.2019
3248 Clouds 28 1019 26 10000 6.7 110 08:19 05.12.2019
3249 Clouds 27 1019 34 10000 5.1 180 07:41 05.12.2019
3250 Clouds 26 1019 36 10000 4.6 140 07:22 05.12.2019
3251 Clouds 25 1019 44 10000 4.6 160 06:48 05.12.2019
3252 Clouds 24 1019 64 10000 2.1 0 06:24 05.12.2019
3253 Clouds 22 1019 68 8000 1 0 05:54 05.12.2019
3254 Clouds 20 1019 77 10000 1.5 170 05:24 05.12.2019
3255 Clouds 18 1019 88 10000 1.5 0 04:40 05.12.2019
3256 Clouds 16 1018 93 10000 1.5 80 03:39 05.12.2019
3257 Clouds 16 1018 93 10000 1 80 02:42 05.12.2019
3258 Clouds 16 1017 93 10000 1 80 02:22 05.12.2019
3259 Clouds 16 1017 93 10000 0.5 0 01:51 05.12.2019
3260 Clouds 16 1017 93 10000 0.36 7 01:23 05.12.2019
3261 Clouds 17 1017 88 10000 1 60 00:44 05.12.2019
3262 Clouds 17 1018 88 10000 1 40 00:20 05.12.2019
3263 Clouds 17 1018 88 10000 0.5 0 23:47 04.12.2019
3264 Clouds 17 1018 88 10000 1 0 23:22 04.12.2019
3265 Clouds 18 1018 82 10000 2.1 60 22:59 04.12.2019
3266 Clouds 18 1018 82 10000 2.1 60 22:38 04.12.2019
3267 Clouds 19 1019 77 10000 1 70 22:20 04.12.2019
3268 Clouds 19 1019 77 10000 1 0 21:57 04.12.2019
3269 Clouds 19 1019 77 10000 1 0 21:38 04.12.2019
3270 Clouds 20 1019 72 10000 1.5 40 21:19 04.12.2019
3271 Clouds 20 1019 72 10000 2.1 50 20:56 04.12.2019
3272 Clouds 20 1019 72 10000 2.1 50 20:38 04.12.2019
3273 Clouds 21 1019 68 10000 3.6 100 20:38 04.12.2019
3274 Clouds 21 1019 68 10000 3.6 100 20:20 04.12.2019
3275 Clouds 20 1019 72 10000 2.6 90 19:54 04.12.2019
3276 Clouds 21 1019 64 10000 2.1 30 19:36 04.12.2019
3277 Clouds 21 1019 64 10000 2.1 30 19:18 04.12.2019
3278 Clouds 22 1019 64 10000 2.1 60 18:41 04.12.2019
3279 Clouds 23 1019 56 10000 3.1 90 18:22 04.12.2019
3280 Clouds 24 1018 50 10000 4.1 120 17:58 04.12.2019
3281 Clouds 24 1018 50 10000 4.1 120 17:39 04.12.2019
3282 Clouds 24 1018 47 10000 2.6 150 17:19 04.12.2019
3283 Clouds 25 1017 44 10000 2.1 180 16:54 04.12.2019
3284 Clouds 26 1017 39 10000 4.6 110 16:36 04.12.2019
3285 Clouds 26 1017 39 10000 4.6 110 16:18 04.12.2019
3286 Clouds 28 1016 30 10000 3.6 130 15:42 04.12.2019
3287 Clouds 30 1016 22 10000 3.6 120 15:21 04.12.2019
3288 Clouds 30 1016 17 10000 2.6 120 15:00 04.12.2019
3289 Clouds 30 1016 17 10000 2.6 120 14:41 04.12.2019
3290 Clouds 30 1016 25 10000 3.1 100 14:21 04.12.2019
3291 Clouds 30 1016 25 10000 3.1 90 13:56 04.12.2019
3292 Clouds 30 1016 27 10000 3.6 130 13:37 04.12.2019
3293 Clouds 30 1016 27 10000 3.6 130 13:18 04.12.2019
3294 Clouds 31 1017 25 10000 2.6 0 12:42 04.12.2019
3295 Clouds 30 1017 30 10000 2.6 180 12:23 04.12.2019
3296 Clouds 29 1017 35 10000 2.6 0 11:45 04.12.2019
3297 Clouds 29 1018 37 10000 3.1 180 11:26 04.12.2019
3298 Clouds 28 1018 42 10000 3.6 0 10:59 04.12.2019
3299 Clouds 28 1018 42 10000 3.6 0 10:40 04.12.2019
3300 Clouds 28 1018 42 10000 3.1 0 10:22 04.12.2019
3301 Clouds 27 1019 44 10000 2.1 0 09:44 04.12.2019
3302 Clouds 26 1019 47 10000 1.5 0 09:24 04.12.2019
3303 Clouds 25 1020 53 10000 2.6 0 08:56 04.12.2019
3304 Clouds 25 1020 53 10000 2.6 0 08:38 04.12.2019
3305 Clouds 25 1020 53 10000 2.1 0 08:19 04.12.2019
3306 Clouds 24 1020 53 10000 2.6 100 07:42 04.12.2019
3307 Clouds 23 1020 56 10000 2.1 0 07:22 04.12.2019
3308 Clouds 21 1021 60 10000 3.1 110 06:33 04.12.2019
3309 Clouds 20 1020 68 10000 2.6 80 05:47 04.12.2019
3310 Clouds 18 1020 77 10000 3.1 80 04:39 04.12.2019
3311 Clouds 15 1019 93 10000 2.1 90 03:53 04.12.2019
3312 Clouds 16 1018 87 10000 3.1 130 02:19 04.12.2019
3313 Clouds 16 1018 87 10000 2.1 60 00:50 04.12.2019
3314 Clouds 16 1018 87 10000 2.6 130 00:22 04.12.2019
3315 Clouds 16 1018 87 10000 2.6 130 23:56 03.12.2019
3316 Clouds 17 1019 82 10000 2.6 90 23:37 03.12.2019
3317 Clouds 17 1019 82 10000 2.6 90 23:18 03.12.2019
3318 Clouds 17 1019 82 10000 3.1 90 22:39 03.12.2019
3319 Clouds 17 1019 82 10000 3.6 100 22:18 03.12.2019
3320 Clouds 17 1020 82 10000 3.1 100 21:57 03.12.2019
3321 Clouds 18 1020 82 10000 5.7 110 21:37 03.12.2019
3322 Clouds 18 1020 82 10000 5.7 110 21:18 03.12.2019
3323 Clouds 18 1020 82 10000 5.7 110 20:54 03.12.2019
3324 Clouds 19 1020 82 10000 4.6 110 20:36 03.12.2019
3325 Clouds 19 1020 82 10000 4.6 110 20:18 03.12.2019
3326 Clouds 19 1020 82 10000 4.6 120 19:54 03.12.2019
3327 Clouds 19 1020 82 10000 4.6 120 19:54 03.12.2019
3328 Clouds 20 1020 77 10000 4.6 110 19:36 03.12.2019
3329 Clouds 20 1020 77 10000 4.6 110 19:18 03.12.2019
3330 Clouds 20 1020 82 10000 5.7 120 18:55 03.12.2019
3331 Clouds 21 1019 77 10000 5.7 110 18:36 03.12.2019
3332 Clouds 21 1019 77 10000 5.7 110 18:18 03.12.2019
3333 Clouds 22 1018 68 10000 6.7 110 17:40 03.12.2019
3334 Clouds 23 1018 60 10000 6.7 110 17:19 03.12.2019
3335 Clouds 24 1018 57 10000 6.2 110 16:59 03.12.2019
3336 Clouds 24 1018 57 10000 6.2 110 16:39 03.12.2019
3337 Clouds 25 1017 50 10000 7.2 110 16:21 03.12.2019
3338 Clouds 27 1017 42 10000 5.7 90 15:58 03.12.2019
3339 Clouds 27 1017 42 10000 5.7 90 15:38 03.12.2019
3340 Clouds 28 1017 39 10000 5.7 90 15:19 03.12.2019
3341 Clouds 29 1017 35 10000 4.1 160 14:44 03.12.2019
3342 Clouds 29 1017 35 10000 4.1 160 14:21 03.12.2019
3343 Clouds 29 1017 37 10000 4.1 170 13:59 03.12.2019
3344 Clouds 29 1017 37 10000 4.1 170 13:38 03.12.2019
3345 Clouds 29 1017 39 10000 3.6 0 13:19 03.12.2019
3346 Clouds 29 1017 37 10000 3.1 0 12:57 03.12.2019
3347 Clouds 29 1017 39 10000 2.6 150 12:37 03.12.2019
3348 Clouds 29 1017 39 10000 2.6 150 12:18 03.12.2019
3349 Clouds 29 1017 37 10000 3.1 70 11:55 03.12.2019
3350 Clouds 28 1018 42 10000 2.6 130 11:37 03.12.2019
3351 Clouds 28 1018 42 10000 2.6 130 11:18 03.12.2019
3352 Clouds 28 1018 39 10000 2.6 0 10:43 03.12.2019
3353 Clouds 27 1018 44 10000 2.6 150 10:21 03.12.2019
3354 Clouds 27 1019 44 10000 2.6 0 09:58 03.12.2019
3355 Clouds 26 1019 54 10000 2.1 0 09:40 03.12.2019
3356 Clouds 26 1019 54 10000 2.1 0 09:21 03.12.2019
3357 Clouds 25 1019 53 10000 2.6 0 08:54 03.12.2019
3358 Clouds 24 1020 57 10000 2.6 0 08:36 03.12.2019
3359 Clouds 24 1020 57 10000 2.6 0 08:18 03.12.2019
3360 Clouds 24 1020 60 10000 3.6 180 07:49 03.12.2019
3361 Clouds 23 1020 60 10000 3.1 0 07:23 03.12.2019
3362 Clouds 21 1020 68 10000 3.1 110 06:23 03.12.2019
3363 Clouds 20 1020 68 10000 3.1 130 05:58 03.12.2019
3364 Clouds 18 1020 77 10000 2.1 120 04:49 03.12.2019
3365 Clouds 15 1020 93 10000 0.5 0 03:39 03.12.2019
3366 Clouds 15 1019 87 10000 2.1 160 03:19 03.12.2019
3367 Clouds 15 1019 87 10000 2.1 160 03:19 03.12.2019
3368 Clouds 15 1019 93 10000 2.6 140 02:47 03.12.2019
3369 Clouds 16 1019 87 10000 3.1 110 02:26 03.12.2019
3370 Clouds 16 1019 87 10000 2.6 140 01:42 03.12.2019
3371 Clouds 16 1019 87 10000 2.6 140 01:23 03.12.2019
3372 Clouds 16 1019 87 10000 2.6 150 00:54 03.12.2019
3373 Clouds 16 1019 87 10000 2.6 140 00:36 03.12.2019
3374 Clouds 16 1019 87 10000 2.6 140 00:18 03.12.2019
3375 Clouds 17 1019 88 10000 4.1 100 23:41 02.12.2019
3376 Clouds 17 1019 88 10000 4.1 100 23:19 02.12.2019
3377 Clouds 17 1019 88 10000 4.1 100 23:19 02.12.2019
3378 Clouds 17 1020 88 10000 4.1 90 22:41 02.12.2019
3379 Clouds 17 1020 88 10000 3.6 100 22:22 02.12.2019
3380 Clouds 17 1020 88 10000 3.6 100 21:58 02.12.2019
3381 Clouds 17 1020 88 10000 2.6 80 21:37 02.12.2019
3382 Clouds 17 1020 88 10000 2.6 80 21:37 02.12.2019
3383 Clouds 17 1020 88 10000 2.6 80 21:18 02.12.2019
3384 Clouds 17 1021 88 10000 2.1 70 20:56 02.12.2019
3385 Clouds 17 1021 88 10000 2.1 70 20:38 02.12.2019
3386 Clouds 18 1021 82 10000 3.1 100 20:19 02.12.2019
3387 Clouds 18 1021 82 10000 3.1 100 20:19 02.12.2019
3388 Clouds 18 1021 82 10000 3.1 80 19:42 02.12.2019
3389 Clouds 19 1020 77 10000 3.6 80 19:22 02.12.2019
3390 Clouds 19 1020 77 10000 4.1 70 18:59 02.12.2019
3391 Clouds 19 1020 77 10000 4.1 70 18:39 02.12.2019
3392 Clouds 20 1020 72 10000 3.6 80 18:19 02.12.2019
3393 Clouds 20 1020 72 10000 3.6 80 17:57 02.12.2019
3394 Clouds 20 1020 72 10000 3.6 80 17:39 02.12.2019
3395 Clouds 21 1019 68 10000 4.6 80 17:19 02.12.2019
3396 Clouds 22 1019 64 10000 5.1 90 16:40 02.12.2019
3397 Clouds 23 1019 56 10000 6.2 110 16:19 02.12.2019
3398 Clouds 23 1019 56 10000 6.2 110 16:19 02.12.2019
3399 Clouds 24 1018 53 10000 5.7 120 15:58 02.12.2019
3400 Clouds 24 1018 53 10000 5.7 120 15:39 02.12.2019
3401 Clouds 26 1018 50 10000 5.7 100 15:21 02.12.2019
3402 -273 0 0 0 0 0 14:59 02.12.2019
3403 Clouds 26 1018 47 10000 4.1 120 14:37 02.12.2019
3404 Clouds 27 1018 44 10000 3.1 150 14:19 02.12.2019
3405 Clouds 26 1018 50 10000 4.1 110 13:56 02.12.2019
3406 Clouds 26 1018 50 10000 4.1 110 13:38 02.12.2019
3407 Clouds 26 1018 47 10000 4.1 150 13:19 02.12.2019
3408 Clouds 26 1019 47 10000 4.6 100 12:42 02.12.2019
3409 Clouds 26 1019 47 10000 4.6 170 12:21 02.12.2019
3410 Clouds 27 1019 47 10000 4.1 170 11:58 02.12.2019
3411 Clouds 26 1019 47 10000 5.1 110 11:38 02.12.2019
3412 Clouds 26 1019 47 10000 5.1 110 11:19 02.12.2019
3413 Clouds 26 1019 50 10000 4.6 150 10:57 02.12.2019
3414 Clouds 26 1019 50 10000 4.6 150 10:39 02.12.2019
3415 Clouds 25 1020 50 10000 4.1 150 10:21 02.12.2019
3416 Clouds 24 1020 50 10000 4.6 140 09:56 02.12.2019
3417 Clouds 24 1020 50 10000 4.6 140 09:38 02.12.2019
3418 Clouds 26 1020 47 10000 5.1 170 09:18 02.12.2019
3419 Clouds 23 1021 53 10000 5.1 130 08:42 02.12.2019
3420 Clouds 24 1021 50 10000 5.1 120 08:23 02.12.2019
3421 Clouds 23 1022 53 10000 4.6 110 07:59 02.12.2019
3422 Clouds 23 1022 53 10000 3.6 140 07:38 02.12.2019
3423 Clouds 23 1022 53 10000 3.6 140 07:19 02.12.2019
3424 Clouds 20 1022 60 10000 4.6 160 06:40 02.12.2019
3425 Clouds 20 1022 64 10000 5.1 140 05:45 02.12.2019
3426 Clouds 19 1022 68 10000 5.1 120 05:18 02.12.2019
3427 Clouds 16 1020 87 10000 4.6 110 03:19 02.12.2019
3428 Clouds 16 1020 87 10000 5.1 120 02:47 02.12.2019
3429 Clouds 17 1020 88 10000 3.6 100 01:46 02.12.2019
3430 Clouds 17 1020 88 10000 3.6 110 01:19 02.12.2019
3431 Clouds 17 1020 88 10000 2.6 80 00:34 02.12.2019
3432 Clouds 17 1020 88 10000 2.6 80 23:59 01.12.2019
3433 Clouds 17 1020 88 10000 2.6 80 23:41 01.12.2019
3434 Clouds 17 1020 82 10000 3.6 90 23:21 01.12.2019
3435 Clouds 17 1021 88 10000 4.1 90 22:56 01.12.2019
3436 Clouds 17 1021 88 10000 4.1 90 22:38 01.12.2019
3437 Clouds 17 1021 88 10000 3.6 90 22:18 01.12.2019
3438 Clouds 18 1022 82 10000 4.6 100 21:56 01.12.2019
3439 Clouds 18 1022 82 10000 4.6 100 21:38 01.12.2019
3440 Clouds 18 1022 82 10000 5.1 100 21:19 01.12.2019
3441 Clouds 18 1022 82 10000 5.1 100 20:56 01.12.2019
3442 Clouds 18 1022 82 10000 5.7 100 20:37 01.12.2019
3443 Clouds 18 1022 82 10000 5.7 100 20:37 01.12.2019
3444 Clouds 18 1022 82 10000 5.7 100 20:19 01.12.2019
3445 Clouds 18 1022 88 10000 4.1 120 19:55 01.12.2019
3446 Clouds 18 1022 88 10000 5.1 110 19:37 01.12.2019
3447 Clouds 18 1022 88 10000 5.1 110 19:19 01.12.2019
3448 Clouds 19 1022 77 10000 5.1 90 18:55 01.12.2019
3449 Clouds 19 1022 77 10000 4.1 100 18:37 01.12.2019
3450 Clouds 19 1022 77 10000 4.1 100 18:18 01.12.2019
3451 Clouds 19 1022 77 10000 4.1 100 18:18 01.12.2019
3452 Clouds 19 1022 77 10000 4.1 100 18:18 01.12.2019
3453 Clouds 20 1021 77 10000 5.7 100 17:56 01.12.2019
3454 Clouds 20 1021 77 10000 5.7 100 17:38 01.12.2019
3455 Clouds 20 1021 77 10000 6.2 90 17:19 01.12.2019
3456 Clouds 21 1020 73 10000 6.2 90 16:43 01.12.2019
3457 Clouds 23 1020 53 10000 5.7 100 16:24 01.12.2019
3458 Clouds 24 1019 50 10000 6.2 110 15:53 01.12.2019
3459 Clouds 25 1019 44 10000 5.1 110 15:33 01.12.2019
3460 Clouds 25 1019 41 10000 4.6 120 14:59 01.12.2019
3461 Clouds 25 1019 41 10000 4.6 120 14:38 01.12.2019
3462 Clouds 26 1019 44 10000 6.2 120 14:19 01.12.2019
3463 Clouds 26 1019 34 10000 3.6 110 13:40 01.12.2019
3464 Clouds 26 1019 34 10000 3.6 110 13:40 01.12.2019
3465 Clouds 28 1019 34 10000 5.1 120 13:21 01.12.2019
3466 Clouds 28 1019 37 10000 4.1 130 12:47 01.12.2019
3467 Clouds 28 1019 34 10000 4.6 150 12:19 01.12.2019
3468 Clouds 27 1020 42 10000 4.1 140 11:44 01.12.2019
3469 Clouds 27 1020 42 10000 3.6 110 11:24 01.12.2019
3470 Clouds 27 1020 44 10000 3.1 120 10:55 01.12.2019
3471 Clouds 27 1020 44 10000 3.1 120 10:55 01.12.2019
3472 Clouds 26 1021 47 10000 3.6 160 10:37 01.12.2019
3473 Clouds 26 1021 47 10000 3.6 160 10:18 01.12.2019
3474 Clouds 26 1021 44 10000 5.1 110 09:40 01.12.2019
3475 Clouds 26 1021 44 10000 5.1 110 09:40 01.12.2019
3476 Clouds 25 1021 53 10000 3.6 150 09:21 01.12.2019
3477 Clouds 24 1022 53 10000 4.1 170 08:49 01.12.2019
3478 Clouds 24 1022 53 10000 3.1 130 08:22 01.12.2019
3479 Clouds 23 1022 56 10000 3.1 150 07:52 01.12.2019
3480 Clouds 22 1022 60 10000 4.1 150 07:32 01.12.2019
3481 Clouds 21 1023 64 10000 4.1 160 06:58 01.12.2019
3482 Clouds 20 1023 68 10000 3.1 170 06:36 01.12.2019
3483 Clouds 17 1023 82 10000 3.6 160 05:50 01.12.2019
3484 Clouds 17 1022 82 10000 4.1 150 04:53 01.12.2019
3485 Clouds 16 1022 87 10000 2.6 160 03:39 01.12.2019
3486 Clouds 16 1021 87 10000 3.1 160 02:38 01.12.2019
3487 Clouds 16 1021 87 10000 2.1 170 02:19 01.12.2019
3488 Clouds 16 1021 87 10000 3.1 130 01:52 01.12.2019
3489 Clouds 16 1021 87 10000 2.6 130 01:26 01.12.2019
3490 Clouds 16 1021 87 10000 1.5 150 00:43 01.12.2019
3491 Clouds 17 1021 82 10000 2.6 140 00:24 01.12.2019
3492 Clouds 17 1022 88 10000 2.6 130 23:44 30.11.2019
3493 Clouds 17 1022 88 10000 2.6 140 23:24 30.11.2019
3494 Clouds 17 1022 88 10000 2.6 140 23:24 30.11.2019
3495 Clouds 18 1022 82 10000 3.1 130 22:57 30.11.2019
3496 Clouds 18 1022 82 10000 5.7 110 22:38 30.11.2019
3497 Clouds 18 1022 82 10000 5.7 110 22:19 30.11.2019
3498 Clouds 18 1022 82 10000 5.7 110 22:19 30.11.2019
3499 Clouds 18 1023 82 10000 5.1 110 21:43 30.11.2019
3500 Clouds 18 1023 82 10000 3.1 110 21:24 30.11.2019
3501 Clouds 19 1023 82 10000 3.6 130 20:56 30.11.2019
3502 Clouds 19 1023 82 10000 3.6 130 20:38 30.11.2019
3503 Clouds 19 1023 82 10000 5.7 120 20:19 30.11.2019
3504 Clouds 19 1023 82 10000 6.2 110 19:55 30.11.2019
3505 Clouds 19 1023 82 10000 6.2 110 19:55 30.11.2019
3506 Clouds 20 1023 77 10000 4.6 110 19:37 30.11.2019
3507 Clouds 20 1023 77 10000 4.6 110 19:19 30.11.2019
3508 Clouds 20 1022 77 10000 4.6 130 18:56 30.11.2019
3509 Clouds 20 1022 77 10000 4.6 130 18:37 30.11.2019
3510 Clouds 20 1022 77 10000 5.7 110 18:19 30.11.2019
3511 Clouds 21 1022 73 10000 6.2 120 17:57 30.11.2019
3512 Clouds 21 1022 73 10000 6.2 120 17:38 30.11.2019
3513 Clouds 21 1022 73 10000 6.2 120 17:19 30.11.2019
3514 Clouds 22 1021 64 10000 6.7 110 16:56 30.11.2019
3515 Clouds 22 1021 64 10000 6.7 110 16:56 30.11.2019
3516 Clouds 22 1021 64 10000 6.7 110 16:37 30.11.2019
3517 Clouds 23 1021 60 10000 8.2 100 16:18 30.11.2019
3518 Clouds 24 1021 57 10000 7.7 110 15:42 30.11.2019
3519 Clouds 24 1021 57 10000 7.7 110 15:42 30.11.2019
3520 Clouds 25 1020 50 10000 6.2 120 15:19 30.11.2019
3521 Clouds 25 1020 53 10000 5.7 120 14:57 30.11.2019
3522 Clouds 26 1020 47 10000 6.7 110 14:38 30.11.2019
3523 Clouds 26 1020 47 10000 6.7 110 14:19 30.11.2019
3524 Clouds 26 1020 47 10000 6.7 110 14:19 30.11.2019
3525 Clouds 27 1020 44 10000 6.7 110 13:57 30.11.2019
3526 Clouds 27 1020 42 10000 5.7 130 13:37 30.11.2019
3527 Clouds 27 1020 42 10000 5.7 130 13:37 30.11.2019
3528 Clouds 27 1020 42 10000 5.7 130 13:19 30.11.2019
3529 Clouds 27 1020 44 10000 5.7 150 12:45 30.11.2019
3530 Clouds 28 1020 45 10000 5.1 110 12:27 30.11.2019
3531 Clouds 28 1021 45 10000 5.1 120 11:45 30.11.2019
3532 Clouds 27 1021 44 10000 5.1 140 11:20 30.11.2019
3533 Clouds 27 1021 47 10000 6.7 100 10:58 30.11.2019
3534 Clouds 27 1021 47 10000 6.7 100 10:39 30.11.2019
3535 Clouds 27 1021 44 10000 6.2 110 10:20 30.11.2019
3536 Clouds 26 1022 47 10000 5.1 130 09:47 30.11.2019
3537 Clouds 26 1022 47 10000 6.2 130 09:29 30.11.2019
3538 Clouds 25 1022 47 10000 6.2 140 08:45 30.11.2019
3539 Clouds 25 1022 47 10000 6.2 120 08:24 30.11.2019
3540 Clouds 24 1022 53 10000 5.7 130 07:59 30.11.2019
3541 Clouds 24 1022 53 10000 5.7 130 07:41 30.11.2019
3542 Clouds 24 1022 50 10000 6.7 120 07:22 30.11.2019
3543 Clouds 21 1022 68 10000 4.1 140 06:30 30.11.2019
3544 Clouds 21 1022 73 10000 6.2 120 05:58 30.11.2019
3545 Clouds 17 1022 82 10000 2.1 140 03:54 30.11.2019
3546 Clouds 17 1021 82 10000 3.1 150 03:18 30.11.2019
3547 Clouds 16 1021 87 10000 2.1 180 02:25 30.11.2019
3548 Clouds 17 1021 82 10000 2.1 160 01:47 30.11.2019
3549 Clouds 17 1021 88 10000 2.6 130 01:24 30.11.2019
3550 Clouds 17 1021 88 10000 2.6 140 00:38 30.11.2019
3551 Clouds 17 1021 88 10000 4.6 110 00:20 30.11.2019
3552 Clouds 18 1021 82 10000 2.6 140 23:44 29.11.2019
3553 Clouds 18 1022 88 10000 3.6 140 23:23 29.11.2019
3554 Clouds 19 1022 82 10000 3.6 140 22:47 29.11.2019
3555 Clouds 19 1022 82 10000 3.6 140 22:26 29.11.2019
3556 Clouds 19 1022 82 10000 4.1 140 21:47 29.11.2019
3557 Clouds 19 1022 82 10000 4.1 140 21:26 29.11.2019
3558 Clouds 19 1022 82 10000 3.6 150 20:59 29.11.2019
3559 Clouds 19 1022 82 10000 3.6 150 20:40 29.11.2019
3560 Clouds 20 1022 82 10000 3.1 150 20:21 29.11.2019
3561 Clouds 20 1022 82 10000 5.1 120 19:58 29.11.2019
3562 Clouds 20 1022 82 10000 5.1 120 19:40 29.11.2019
3563 Clouds 20 1021 82 10000 6.7 110 19:21 29.11.2019
3564 Thunderstorm 21 1021 77 10000 6.2 120 18:58 29.11.2019
3565 Thunderstorm 21 1021 77 10000 6.2 120 18:40 29.11.2019
3566 Thunderstorm 21 1021 77 10000 7.2 110 18:21 29.11.2019
3567 Thunderstorm 22 1021 78 10000 6.7 100 17:45 29.11.2019
3568 Thunderstorm 23 1020 69 10000 6.7 100 17:27 29.11.2019
3569 Clouds 24 1020 64 10000 6.2 100 16:59 29.11.2019
3570 Clouds 24 1020 64 10000 6.2 100 16:59 29.11.2019
3571 Clouds 24 1020 64 10000 6.2 100 16:41 29.11.2019
3572 Clouds 25 1019 50 10000 5.7 110 16:19 29.11.2019
3573 Clouds 25 1019 50 10000 5.7 110 16:19 29.11.2019
3574 Clouds 26 1019 50 10000 6.2 110 15:42 29.11.2019
3575 Clouds 27 1019 47 10000 6.7 110 15:24 29.11.2019
3576 Clouds 28 1018 42 10000 7.2 110 14:58 29.11.2019
3577 Clouds 28 1018 42 10000 7.2 110 14:39 29.11.2019
3578 Clouds 28 1018 42 10000 5.1 140 14:21 29.11.2019
3579 Clouds 28 1019 45 10000 3.6 150 13:55 29.11.2019
3580 Clouds 28 1019 45 10000 3.6 150 13:37 29.11.2019
3581 Clouds 28 1019 45 10000 3.6 150 13:18 29.11.2019
3582 Clouds 29 1019 39 10000 6.7 120 12:40 29.11.2019
3583 Clouds 29 1019 42 10000 4.6 150 12:22 29.11.2019
3584 Clouds 29 1019 39 10000 5.1 120 11:55 29.11.2019
3585 Clouds 28 1019 45 10000 5.7 140 11:36 29.11.2019
3586 Clouds 28 1019 45 10000 5.7 140 11:18 29.11.2019
3587 Clouds 28 1019 42 10000 6.2 120 10:56 29.11.2019
3588 Clouds 28 1019 42 10000 5.7 140 10:37 29.11.2019
3589 Clouds 28 1019 42 10000 5.7 140 10:19 29.11.2019
3590 Clouds 27 1020 42 10000 5.7 150 09:55 29.11.2019
3591 Clouds 27 1020 42 10000 5.7 150 09:37 29.11.2019
3592 Clouds 27 1020 42 10000 5.7 150 09:18 29.11.2019
3593 Clouds 27 1020 42 10000 5.7 130 08:39 29.11.2019
3594 Clouds 26 1020 47 10000 6.2 90 08:21 29.11.2019
3595 Clouds 25 1020 53 10000 4.6 140 07:58 29.11.2019
3596 Clouds 24 1020 57 10000 4.1 120 07:39 29.11.2019
3597 Clouds 24 1020 57 10000 4.1 120 07:21 29.11.2019
3598 Clouds 23 1021 64 10000 4.1 120 06:42 29.11.2019
3599 Clouds 20 1021 77 10000 3.6 140 05:48 29.11.2019
3600 Clouds 20 1021 77 10000 3.6 140 05:24 29.11.2019
3601 Clouds 18 1020 88 10000 2.1 70 04:31 29.11.2019
3602 Clouds 17 1019 93 10000 1.5 50 03:22 29.11.2019
3603 Clouds 17 1019 93 10000 2.6 50 02:30 29.11.2019
3604 Clouds 18 1019 93 10000 2.1 80 01:51 29.11.2019
3605 Clouds 18 1019 93 10000 2.1 80 01:26 29.11.2019
3606 Clouds 19 1019 88 10000 2.1 80 00:42 29.11.2019
3607 Clouds 19 1019 88 10000 2.1 80 00:21 29.11.2019
3608 Clouds 19 1019 93 10000 2.6 90 23:55 28.11.2019
3609 Clouds 19 1019 93 10000 2.1 120 23:36 28.11.2019
3610 Clouds 19 1019 93 10000 2.1 120 23:18 28.11.2019
3611 Clouds 19 1019 88 10000 1.5 60 22:38 28.11.2019
3612 Clouds 19 1020 93 10000 1 0 22:20 28.11.2019
3613 Clouds 20 1020 88 10000 2.1 80 21:58 28.11.2019
3614 Clouds 20 1020 88 10000 2.1 80 21:40 28.11.2019
3615 Thunderstorm 20 1020 88 10000 4.1 90 21:19 28.11.2019
3616 Thunderstorm 21 1020 83 10000 3.1 100 20:56 28.11.2019
3617 Thunderstorm 21 1020 83 10000 3.1 100 20:38 28.11.2019
3618 Thunderstorm 21 1020 77 10000 3.1 130 20:18 28.11.2019
3619 Clouds 22 1020 73 10000 3.6 130 19:42 28.11.2019
3620 Thunderstorm 22 1019 73 10000 1.5 70 19:23 28.11.2019
3621 Thunderstorm 22 1019 73 10000 2.1 70 18:59 28.11.2019
3622 Thunderstorm 22 1019 73 10000 2.1 70 18:40 28.11.2019
3623 Thunderstorm 22 1019 73 10000 4.1 100 18:19 28.11.2019
3624 Thunderstorm 23 1019 69 10000 5.7 110 18:00 28.11.2019
3625 Thunderstorm 23 1019 69 10000 5.7 110 17:41 28.11.2019
3626 Thunderstorm 24 1018 64 10000 5.7 110 17:23 28.11.2019
3627 Clouds 24 1018 64 10000 4.6 90 16:58 28.11.2019
3628 Clouds 25 1017 57 10000 5.7 80 16:38 28.11.2019
3629 Clouds 25 1017 57 10000 5.7 80 16:19 28.11.2019
3630 Clouds 25 1017 57 10000 5.7 80 16:19 28.11.2019
3631 Clouds 26 1017 50 10000 5.7 80 15:43 28.11.2019
3632 Clouds 28 1017 45 10000 6.2 90 15:21 28.11.2019
3633 Clouds 27 1017 42 10000 3.6 100 14:59 28.11.2019
3634 Clouds 27 1017 42 10000 3.6 100 14:41 28.11.2019
3635 Clouds 29 1017 39 10000 2.1 120 14:22 28.11.2019
3636 Clouds 30 1017 37 10000 3.1 130 13:58 28.11.2019
3637 Clouds 30 1017 37 10000 3.1 130 13:58 28.11.2019
3638 Clouds 30 1017 37 10000 3.1 130 13:40 28.11.2019
3639 Clouds 30 1017 37 10000 3.1 120 13:21 28.11.2019
3640 Clouds 29 1017 42 10000 2.6 90 12:45 28.11.2019
3641 Clouds 29 1017 42 10000 2.1 110 12:27 28.11.2019
3642 Clouds 29 1018 39 10000 2.6 0 11:58 28.11.2019
3643 Clouds 29 1018 39 10000 2.6 0 11:40 28.11.2019
3644 Clouds 29 1018 39 10000 2.1 0 11:20 28.11.2019
3645 Clouds 29 1018 39 10000 2.1 0 11:20 28.11.2019
3646 Clouds 29 1018 39 10000 2.6 200 10:55 28.11.2019
3647 Clouds 28 1019 45 10000 2.6 0 10:37 28.11.2019
3648 Clouds 28 1019 45 10000 2.6 0 10:18 28.11.2019
3649 Clouds 28 1019 48 10000 2.6 180 09:40 28.11.2019
3650 Clouds 27 1019 47 10000 2.1 0 09:21 28.11.2019
3651 Clouds 27 1020 51 10000 3.1 140 08:55 28.11.2019
3652 Clouds 25 1020 57 10000 2.6 130 08:36 28.11.2019
3653 Clouds 25 1020 57 10000 2.6 130 08:18 28.11.2019
3654 Clouds 24 1020 64 10000 1.5 0 07:41 28.11.2019
3655 Clouds 23 1020 69 10000 3.6 180 07:23 28.11.2019
3656 Clouds 24 1020 60 10000 3.1 0 06:43 28.11.2019
3657 Clouds 23 1020 64 10000 2.6 170 06:22 28.11.2019
3658 Clouds 22 1020 68 10000 2.1 180 05:44 28.11.2019
3659 Clouds 20 1020 77 10000 2.6 170 04:57 28.11.2019
3660 Clouds 17 1019 93 10000 1.5 70 02:36 28.11.2019
3661 Clouds 18 1019 88 10000 2.1 90 01:28 28.11.2019
3662 Clouds 18 1019 88 10000 3.1 130 00:43 28.11.2019
3663 Clouds 18 1019 93 10000 3.1 110 00:20 28.11.2019
3664 Clouds 19 1019 88 10000 3.1 90 23:40 27.11.2019
3665 Clouds 19 1019 88 10000 2.6 100 23:22 27.11.2019
3666 Clouds 19 1019 88 10000 3.6 100 22:58 27.11.2019
3667 Clouds 19 1020 88 10000 3.1 100 22:38 27.11.2019
3668 Clouds 19 1020 88 10000 3.1 100 22:19 27.11.2019
3669 Clouds 19 1020 88 10000 2.1 100 21:56 27.11.2019
3670 Clouds 20 1020 82 10000 3.6 90 21:37 27.11.2019
3671 Clouds 20 1020 82 10000 3.6 90 21:19 27.11.2019
3672 Clouds 20 1020 82 10000 3.6 90 21:19 27.11.2019
3673 Clouds 20 1020 82 10000 2.6 80 20:57 27.11.2019
3674 Clouds 20 1020 82 10000 3.6 80 20:38 27.11.2019
3675 Clouds 20 1020 82 10000 3.6 80 20:19 27.11.2019
3676 Clouds 21 1020 77 10000 4.6 80 19:56 27.11.2019
3677 Clouds 21 1020 77 10000 4.6 80 19:38 27.11.2019
3678 Clouds 21 1020 77 10000 4.6 80 19:19 27.11.2019
3679 Clouds 21 1019 77 10000 5.7 80 18:58 27.11.2019
3680 Clouds 21 1019 83 10000 4.1 70 18:36 27.11.2019
3681 Clouds 21 1019 83 10000 4.1 70 18:36 27.11.2019
3682 Clouds 21 1019 83 10000 4.1 70 18:18 27.11.2019
3683 Clouds 21 1019 83 10000 5.1 80 17:55 27.11.2019
3684 Thunderstorm 21 1018 83 10000 5.1 90 17:37 27.11.2019
3685 Thunderstorm 21 1018 83 10000 5.1 90 17:18 27.11.2019
3686 Thunderstorm 22 1018 78 10000 6.2 80 16:55 27.11.2019
3687 Thunderstorm 22 1018 78 10000 6.2 80 16:55 27.11.2019
3688 Clouds 22 1017 78 10000 6.7 90 16:36 27.11.2019
3689 Clouds 22 1017 78 10000 6.7 90 16:18 27.11.2019
3690 Clouds 24 1017 69 10000 8.2 80 15:55 27.11.2019
3691 Clouds 26 1016 57 10000 6.7 110 15:37 27.11.2019
3692 Clouds 26 1016 57 10000 6.7 110 15:19 27.11.2019
3693 Clouds 28 1016 48 10000 4.6 120 14:55 27.11.2019
3694 Clouds 28 1016 48 10000 4.6 120 14:36 27.11.2019
3695 Clouds 28 1016 48 10000 4.6 120 14:18 27.11.2019
3696 Clouds 27 1016 54 10000 4.6 150 13:55 27.11.2019
3697 Clouds 29 1016 45 10000 4.1 110 13:36 27.11.2019
3698 Clouds 29 1016 45 10000 4.1 110 13:18 27.11.2019
3699 Clouds 29 1017 48 10000 4.1 160 12:40 27.11.2019
3700 Clouds 29 1017 48 10000 4.1 160 12:20 27.11.2019
3701 Clouds 29 1017 45 10000 4.6 150 11:54 27.11.2019
3702 Clouds 29 1017 45 10000 4.1 110 11:36 27.11.2019
3703 Clouds 29 1017 45 10000 4.1 110 11:18 27.11.2019
3704 Clouds 27 1018 54 10000 4.6 110 10:42 27.11.2019
3705 Clouds 27 1018 54 10000 4.6 110 10:24 27.11.2019
3706 Clouds 26 1019 57 10000 5.1 110 09:49 27.11.2019
3707 Clouds 26 1019 57 10000 5.1 110 09:26 27.11.2019
3708 Clouds 25 1019 61 10000 5.1 110 08:59 27.11.2019
3709 Clouds 25 1019 61 10000 5.1 110 08:41 27.11.2019
3710 Clouds 24 1019 64 10000 3.6 160 08:22 27.11.2019
3711 Clouds 24 1019 64 10000 3.6 160 08:22 27.11.2019
3712 Clouds 23 1019 69 10000 3.1 150 07:47 27.11.2019
3713 Clouds 23 1020 69 10000 3.6 160 07:28 27.11.2019
3714 Clouds 23 1020 69 10000 4.6 180 06:53 27.11.2019
3715 Clouds 22 1019 78 10000 3.6 180 06:35 27.11.2019
3716 Clouds 21 1019 77 10000 3.6 170 05:45 27.11.2019
3717 Clouds 21 1019 77 10000 3.6 170 05:45 27.11.2019
3718 Clouds 20 1019 82 10000 4.6 170 05:19 27.11.2019
3719 Clouds 20 1019 82 10000 2.6 160 04:47 27.11.2019
3720 Clouds 19 1018 93 10000 1.5 150 04:29 27.11.2019
3721 Clouds 19 1018 93 10000 2.1 160 03:39 27.11.2019
3722 Clouds 19 1018 93 10000 2.1 140 03:19 27.11.2019
3723 Clouds 19 1018 93 10000 1.5 170 02:20 27.11.2019
3724 Clouds 20 1018 88 10000 2.1 140 00:47 27.11.2019
3725 Clouds 20 1018 88 10000 2.1 140 00:29 27.11.2019
3726 Clouds 19 1018 93 10000 1.5 0 23:54 26.11.2019
3727 Clouds 19 1018 93 10000 1.5 0 23:54 26.11.2019
3728 Clouds 20 1018 88 10000 1 0 23:36 26.11.2019
3729 Clouds 20 1018 88 10000 1 0 23:18 26.11.2019
3730 Clouds 20 1018 88 10000 1 0 23:18 26.11.2019
3731 Clouds 20 1018 88 10000 1.5 30 22:39 26.11.2019
3732 Clouds 20 1019 94 10000 1.5 60 22:19 26.11.2019
3733 Clouds 20 1019 94 10000 2.1 20 21:59 26.11.2019
3734 Clouds 20 1019 94 10000 2.1 20 21:38 26.11.2019
3735 Clouds 20 1019 94 10000 1 0 21:19 26.11.2019
3736 Clouds 20 1019 94 10000 1.5 60 20:55 26.11.2019
3737 Clouds 20 1019 94 10000 1.5 60 20:55 26.11.2019
3738 Clouds 20 1019 94 10000 1 70 20:37 26.11.2019
3739 Clouds 20 1019 94 10000 1 70 20:19 26.11.2019
3740 Clouds 20 1019 88 10000 1 70 19:55 26.11.2019
3741 Clouds 20 1019 88 10000 1 70 19:55 26.11.2019
3742 Clouds 20 1019 88 10000 1 70 19:55 26.11.2019
3743 Clouds 20 1019 88 10000 2.1 60 19:37 26.11.2019
3744 Clouds 20 1019 88 10000 2.1 60 19:18 26.11.2019
3745 Clouds 20 1019 88 10000 1 40 18:56 26.11.2019
3746 Clouds 20 1019 88 10000 1 10 18:38 26.11.2019
3747 Clouds 20 1019 88 10000 1 10 18:20 26.11.2019
3748 Clouds 20 1019 88 10000 2.22 77 17:55 26.11.2019
3749 Clouds 20 1018 88 10000 1 0 17:37 26.11.2019
3750 Clouds 20 1018 88 10000 1 0 17:18 26.11.2019
3751 Clouds 20 1018 88 10000 2.91 87 16:55 26.11.2019
3752 Clouds 20 1018 82 10000 1.5 280 16:37 26.11.2019
3753 Clouds 20 1018 82 10000 1.5 280 16:18 26.11.2019
3754 Thunderstorm 20 1017 88 10000 1.5 290 15:56 26.11.2019
3755 Thunderstorm 20 1017 88 10000 1.5 290 15:56 26.11.2019
3756 Thunderstorm 20 1017 88 10000 2.1 240 15:37 26.11.2019
3757 Thunderstorm 20 1017 88 10000 2.1 240 15:18 26.11.2019
3758 Thunderstorm 21 1017 83 10000 2.6 250 14:43 26.11.2019
3759 Thunderstorm 21 1017 77 10000 0.5 0 14:24 26.11.2019
3760 Thunderstorm 22 1017 73 10000 1 0 13:43 26.11.2019
3761 Thunderstorm 22 1016 78 10000 1 0 13:24 26.11.2019
3762 Thunderstorm 23 1017 69 8000 3.1 200 12:57 26.11.2019
3763 Thunderstorm 24 1017 64 8000 5.7 190 12:36 26.11.2019
3764 Thunderstorm 24 1017 64 8000 5.7 190 12:18 26.11.2019
3765 Thunderstorm 26 1017 61 10000 2.6 60 11:55 26.11.2019
3766 Thunderstorm 24 1017 78 10000 3.1 60 11:36 26.11.2019
3767 Thunderstorm 24 1017 78 10000 3.1 60 11:36 26.11.2019
3768 Thunderstorm 24 1017 78 10000 3.1 60 11:18 26.11.2019
3769 Thunderstorm 24 1017 78 10000 3.1 60 11:18 26.11.2019
3770 Rain 25 1018 78 10000 5.7 70 10:54 26.11.2019
3771 Rain 26 1018 57 10000 2.1 50 10:36 26.11.2019
3772 Rain 26 1018 57 10000 2.1 50 10:18 26.11.2019
3773 Clouds 26 1018 57 10000 2.1 0 09:42 26.11.2019
3774 Clouds 26 1019 57 10000 1.5 0 09:23 26.11.2019
3775 Clouds 26 1019 57 10000 1.5 0 09:23 26.11.2019
3776 Clouds 27 1019 57 10000 1.5 0 08:46 26.11.2019
3777 Clouds 25 1019 65 10000 2.6 0 08:27 26.11.2019
3778 Clouds 24 1019 64 10000 2.1 70 07:57 26.11.2019
3779 Clouds 23 1019 73 10000 2.6 60 07:36 26.11.2019
3780 Clouds 23 1019 73 10000 2.6 60 07:18 26.11.2019
3781 Clouds 22 1019 73 10000 2.6 60 06:41 26.11.2019
3782 Clouds 20 1019 82 10000 2.1 90 05:58 26.11.2019
3783 Clouds 19 1019 88 10000 2.1 150 04:57 26.11.2019
3784 Clouds 18 1018 93 10000 1 0 02:53 26.11.2019
3785 Clouds 18 1017 93 10000 2.1 110 01:35 26.11.2019
3786 Clouds 18 1017 93 10000 2.6 80 00:53 26.11.2019
3787 -273 0 0 0 0 0 00:33 26.11.2019
3788 Clouds 18 1018 93 10000 2.1 120 23:56 25.11.2019
3789 Clouds 18 1018 93 10000 2.1 80 23:37 25.11.2019
3790 Clouds 18 1018 93 10000 2.1 80 23:18 25.11.2019
3791 Clouds 18 1019 93 10000 2.6 110 22:39 25.11.2019
3792 Clouds 18 1019 93 10000 2.6 110 22:19 25.11.2019
3793 Clouds 18 1019 93 10000 3.6 80 21:59 25.11.2019
3794 Clouds 18 1019 93 10000 3.6 80 21:40 25.11.2019
3795 Clouds 18 1019 93 10000 3.1 90 21:21 25.11.2019
3796 Clouds 18 1020 93 10000 2.6 120 20:57 25.11.2019
3797 Clouds 18 1020 93 10000 2.6 130 20:39 25.11.2019
3798 Clouds 18 1020 93 10000 2.6 130 20:20 25.11.2019
3799 Clouds 19 1020 88 10000 5.1 110 19:56 25.11.2019
3800 Thunderstorm 19 1020 88 8000 4.1 120 19:38 25.11.2019
3801 Thunderstorm 19 1020 88 8000 4.1 120 19:19 25.11.2019
3802 Thunderstorm 19 1020 88 8000 5.1 110 18:57 25.11.2019
3803 Thunderstorm 19 1020 88 8000 5.1 110 18:39 25.11.2019
3804 Thunderstorm 19 1019 82 10000 4.6 110 18:21 25.11.2019
3805 Thunderstorm 20 1019 82 10000 4.1 90 17:58 25.11.2019
3806 Thunderstorm 20 1019 82 10000 5.1 100 17:39 25.11.2019
3807 Thunderstorm 20 1019 82 10000 5.1 100 17:20 25.11.2019
3808 Thunderstorm 20 1018 82 10000 4.1 140 16:57 25.11.2019
3809 Thunderstorm 20 1018 82 10000 4.1 140 16:39 25.11.2019
3810 Thunderstorm 20 1018 77 10000 4.6 110 16:20 25.11.2019
3811 Thunderstorm 21 1018 77 10000 6.2 110 15:55 25.11.2019
3812 Clouds 21 1017 77 10000 7.2 110 15:36 25.11.2019
3813 Clouds 21 1017 77 10000 7.2 110 15:18 25.11.2019
3814 Clouds 23 1017 69 10000 6.7 110 14:42 25.11.2019
3815 Clouds 24 1017 64 10000 5.7 90 14:22 25.11.2019
3816 Clouds 25 1017 61 10000 6.2 100 13:55 25.11.2019
3817 Clouds 25 1017 61 10000 5.7 110 13:36 25.11.2019
3818 Clouds 25 1017 61 10000 5.7 110 13:18 25.11.2019
3819 Clouds 25 1017 61 10000 5.7 110 13:18 25.11.2019
3820 Clouds 25 1017 61 10000 5.7 100 12:54 25.11.2019
3821 Clouds 26 1017 57 10000 5.1 100 12:36 25.11.2019
3822 Clouds 26 1017 57 10000 5.1 100 12:18 25.11.2019
3823 Clouds 25 1018 61 10000 5.7 90 11:40 25.11.2019
3824 Clouds 25 1018 61 10000 5.7 90 11:20 25.11.2019
3825 Clouds 24 1018 64 10000 4.6 100 10:46 25.11.2019
3826 Clouds 24 1019 69 10000 3.6 120 10:28 25.11.2019
3827 Clouds 24 1019 64 10000 3.6 140 09:59 25.11.2019
3828 Clouds 24 1019 64 10000 3.6 140 09:41 25.11.2019
3829 Clouds 24 1019 64 10000 3.6 140 09:41 25.11.2019
3830 Clouds 24 1019 64 10000 4.1 110 09:23 25.11.2019
3831 Clouds 24 1019 64 10000 4.1 130 08:41 25.11.2019
3832 Clouds 24 1019 64 10000 4.1 130 08:22 25.11.2019
3833 Clouds 23 1020 64 10000 5.1 110 07:45 25.11.2019
3834 Clouds 24 1020 64 10000 5.1 130 07:25 25.11.2019
3835 Clouds 24 1020 64 10000 5.1 130 07:25 25.11.2019
3836 Clouds 22 1020 68 10000 5.1 120 06:51 25.11.2019
3837 Clouds 20 1020 72 10000 3.6 130 06:22 25.11.2019
3838 Clouds 20 1020 72 10000 4.1 140 05:50 25.11.2019
3839 Clouds 19 1019 77 10000 4.6 140 05:29 25.11.2019
3840 Clouds 17 1018 88 10000 2.6 120 03:49 25.11.2019
3841 Clouds 18 1018 82 10000 3.1 130 02:32 25.11.2019
3842 Clouds 18 1018 82 10000 3.1 150 01:42 25.11.2019
3843 Clouds 18 1018 82 10000 2.6 140 01:23 25.11.2019
3844 Clouds 18 1018 82 10000 3.6 120 00:37 25.11.2019
3845 Clouds 18 1018 82 10000 3.6 120 00:18 25.11.2019
3846 Clouds 18 1019 82 10000 3.1 120 23:43 24.11.2019
3847 Clouds 18 1019 88 10000 3.1 130 23:20 24.11.2019
3848 Clouds 19 1019 82 10000 2.6 130 22:56 24.11.2019
3849 Clouds 19 1019 82 10000 2.6 130 22:56 24.11.2019
3850 Clouds 19 1020 82 10000 3.1 140 22:37 24.11.2019
3851 Clouds 19 1020 82 10000 3.1 140 22:19 24.11.2019
3852 Clouds 19 1020 82 10000 3.1 150 21:54 24.11.2019
3853 Clouds 19 1020 82 10000 3.6 150 21:36 24.11.2019
3854 Clouds 19 1020 82 10000 3.6 150 21:18 24.11.2019
3855 Clouds 19 1021 82 10000 2.6 150 20:54 24.11.2019
3856 Clouds 19 1021 82 10000 3.6 150 20:36 24.11.2019
3857 Clouds 19 1021 82 10000 3.6 150 20:18 24.11.2019
3858 Clouds 19 1021 82 10000 2.6 150 19:54 24.11.2019
3859 Clouds 20 1021 77 10000 3.1 160 19:36 24.11.2019
3860 Clouds 20 1021 77 10000 3.1 160 19:18 24.11.2019
3861 Clouds 20 1020 77 10000 3.1 150 18:54 24.11.2019
3862 Thunderstorm 20 1020 77 10000 3.6 120 18:36 24.11.2019
3863 Thunderstorm 20 1019 77 10000 5.1 120 18:18 24.11.2019
3864 Thunderstorm 20 1019 77 10000 5.1 120 17:42 24.11.2019
3865 Thunderstorm 20 1019 77 10000 6.2 120 17:23 24.11.2019
3866 Clouds 21 1019 73 10000 5.7 130 16:59 24.11.2019
3867 Clouds 21 1019 73 10000 5.7 130 16:41 24.11.2019
3868 Clouds 21 1018 73 10000 6.7 120 16:23 24.11.2019
3869 Clouds 22 1018 68 10000 5.7 120 15:57 24.11.2019
3870 Clouds 22 1018 68 10000 5.7 120 15:39 24.11.2019
3871 Clouds 22 1017 68 10000 5.1 140 15:21 24.11.2019
3872 Clouds 23 1017 69 10000 6.2 130 14:40 24.11.2019
3873 Clouds 23 1017 69 10000 6.2 130 14:20 24.11.2019
3874 Clouds 23 1017 69 10000 6.2 130 14:20 24.11.2019
3875 Clouds 25 1017 61 10000 7.7 130 13:59 24.11.2019
3876 Clouds 26 1017 61 10000 7.2 140 13:38 24.11.2019
3877 Clouds 26 1017 61 10000 7.2 140 13:20 24.11.2019
3878 Clouds 26 1017 57 10000 6.7 140 12:56 24.11.2019
3879 Clouds 25 1017 65 10000 7.2 140 12:38 24.11.2019
3880 Clouds 25 1017 65 10000 7.2 140 12:38 24.11.2019
3881 Clouds 25 1017 65 10000 7.2 140 12:18 24.11.2019
3882 Clouds 27 1017 57 10000 6.2 140 11:54 24.11.2019
3883 Clouds 28 1018 51 10000 4.6 160 11:36 24.11.2019
3884 Clouds 28 1018 51 10000 4.6 160 11:18 24.11.2019
3885 Clouds 26 1018 57 10000 3.6 130 10:42 24.11.2019
3886 Clouds 26 1019 54 10000 2.6 0 10:24 24.11.2019
3887 Clouds 27 1019 51 10000 3.6 120 09:40 24.11.2019
3888 Clouds 26 1019 57 10000 3.1 150 09:20 24.11.2019
3889 Clouds 26 1020 57 10000 3.1 130 08:59 24.11.2019
3890 Clouds 26 1020 57 10000 3.1 130 08:40 24.11.2019
3891 Clouds 26 1020 61 10000 3.6 170 08:21 24.11.2019
3892 Clouds 25 1020 61 10000 3.1 140 07:52 24.11.2019
3893 Clouds 23 1021 69 10000 4.1 160 07:25 24.11.2019
3894 Clouds 23 1020 69 10000 5.1 170 06:55 24.11.2019
3895 Clouds 22 1020 78 10000 2.1 180 05:40 24.11.2019
3896 Clouds 19 1020 93 10000 2.6 210 04:42 24.11.2019
3897 Clouds 18 1018 93 10000 1.5 0 02:43 24.11.2019
3898 Clouds 18 1018 93 10000 2.1 170 01:56 24.11.2019
3899 Clouds 19 1018 88 10000 1.5 150 01:34 24.11.2019
3900 Clouds 19 1018 88 10000 1.5 0 00:53 24.11.2019
3901 Clouds 19 1018 88 10000 2.1 180 00:25 24.11.2019
3902 Clouds 19 1018 88 10000 1 0 23:57 23.11.2019
3903 Clouds 19 1018 88 10000 1 0 23:39 23.11.2019
3904 Clouds 19 1018 88 10000 2.1 140 23:20 23.11.2019
3905 Clouds 19 1018 88 10000 2.1 140 23:20 23.11.2019
3906 Clouds 19 1019 93 10000 2.1 140 22:57 23.11.2019
3907 Clouds 19 1019 93 10000 1 0 22:37 23.11.2019
3908 Clouds 19 1019 93 10000 1 0 22:19 23.11.2019
3909 -273 0 0 0 0 0 21:55 23.11.2019
3910 Rain 19 1020 93 8000 2.1 140 21:36 23.11.2019
3911 Rain 19 1020 93 8000 2.1 140 21:18 23.11.2019
3912 Rain 19 1020 93 8000 1.5 140 20:38 23.11.2019
3913 Rain 19 1020 93 8000 2.1 110 20:20 23.11.2019
3914 Rain 19 1020 93 8000 2.1 110 20:20 23.11.2019
3915 Rain 19 1020 93 8000 3.1 110 19:57 23.11.2019
3916 Rain 19 1020 93 8000 3.1 110 19:38 23.11.2019
3917 Rain 19 1019 93 8000 2.6 140 19:19 23.11.2019
3918 Thunderstorm 19 1019 93 8000 4.1 100 18:55 23.11.2019
3919 Thunderstorm 19 1019 93 8000 3.6 120 18:36 23.11.2019
3920 Thunderstorm 19 1019 93 8000 3.6 120 18:18 23.11.2019
3921 Thunderstorm 19 1019 93 5000 5.1 80 17:42 23.11.2019
3922 Thunderstorm 19 1019 93 4000 2.6 280 17:21 23.11.2019
3923 Thunderstorm 19 1017 93 8000 3.6 100 16:57 23.11.2019
3924 Thunderstorm 19 1017 93 8000 3.6 100 16:38 23.11.2019
3925 Thunderstorm 19 1017 93 8000 7.2 90 16:20 23.11.2019
3926 Thunderstorm 19 1017 93 8000 7.2 90 16:20 23.11.2019
3927 Thunderstorm 20 1018 88 4500 5.7 170 15:58 23.11.2019
3928 Thunderstorm 20 1018 88 4500 5.7 170 15:39 23.11.2019
3929 Thunderstorm 23 1016 73 10000 7.7 70 15:19 23.11.2019
3930 Thunderstorm 25 1015 65 10000 8.7 100 14:56 23.11.2019
3931 Thunderstorm 25 1015 65 10000 8.7 100 14:56 23.11.2019
3932 Clouds 28 1015 54 10000 5.7 80 14:37 23.11.2019
3933 Clouds 28 1015 54 10000 5.7 80 14:18 23.11.2019
3934 Clouds 30 1014 42 10000 3.6 250 13:42 23.11.2019
3935 Clouds 30 1014 40 10000 4.1 250 13:20 23.11.2019
3936 Rain 28 1015 51 10000 2.1 280 12:58 23.11.2019
3937 Rain 28 1015 51 10000 2.1 280 12:39 23.11.2019
3938 Rain 28 1015 51 10000 2.1 280 12:21 23.11.2019
3939 Clouds 29 1016 48 10000 3.6 270 11:42 23.11.2019
3940 Clouds 29 1016 48 10000 3.6 270 11:20 23.11.2019
3941 Clouds 28 1017 48 10000 2.1 0 10:45 23.11.2019
3942 Clouds 28 1017 48 10000 3.1 230 10:21 23.11.2019
3943 Clouds 28 1018 51 10000 2.1 0 09:42 23.11.2019
3944 Clouds 27 1018 54 10000 2.1 230 09:20 23.11.2019
3945 Clouds 27 1018 57 10000 2.6 230 08:43 23.11.2019
3946 Clouds 26 1019 57 10000 4.1 220 08:20 23.11.2019
3947 Clouds 26 1019 57 10000 2.1 250 07:54 23.11.2019
3948 Clouds 26 1019 57 10000 1.5 0 07:35 23.11.2019
3949 Clouds 24 1019 64 10000 2.6 260 06:46 23.11.2019
3950 Clouds 23 1019 73 10000 2.1 220 06:21 23.11.2019
3951 Clouds 22 1019 78 10000 2.1 0 05:50 23.11.2019
3952 Clouds 21 1019 83 10000 2.1 290 05:29 23.11.2019
3953 Clouds 20 1019 88 10000 2.6 300 04:48 23.11.2019
3954 Clouds 19 1018 93 10000 1.5 300 04:27 23.11.2019
3955 Clouds 18 1017 93 10000 2.1 300 02:45 23.11.2019
3956 Clouds 18 1017 93 10000 2.6 310 01:42 23.11.2019
3957 Clouds 18 1017 93 10000 2.6 310 01:21 23.11.2019
3958 Clouds 19 1017 93 10000 1.5 310 00:39 23.11.2019
3959 Clouds 19 1017 93 10000 1.5 310 00:18 23.11.2019
3960 Clouds 19 1018 93 10000 1 20 23:39 22.11.2019
3961 Clouds 19 1018 93 10000 1 20 23:20 22.11.2019
3962 Clouds 20 1018 88 10000 1.5 0 22:57 22.11.2019
3963 Clouds 20 1018 88 10000 1.5 0 22:38 22.11.2019
3964 Clouds 20 1018 88 10000 1.5 0 22:20 22.11.2019
3965 Clouds 20 1018 88 10000 2.1 80 21:58 22.11.2019
3966 Clouds 20 1018 88 10000 2.1 80 21:39 22.11.2019
3967 Clouds 20 1018 88 10000 2.1 80 21:19 22.11.2019
3968 Clouds 21 1019 77 10000 2.6 70 20:43 22.11.2019
3969 Clouds 21 1019 77 10000 3.1 80 20:22 22.11.2019
3970 Clouds 22 1019 78 10000 2.6 70 19:55 22.11.2019
3971 Thunderstorm 22 1019 78 10000 4.1 70 19:37 22.11.2019
3972 Thunderstorm 22 1019 78 10000 4.1 70 19:18 22.11.2019
3973 Thunderstorm 23 1018 69 10000 2.1 350 18:39 22.11.2019
3974 Clouds 23 1018 64 10000 1.5 280 18:21 22.11.2019
3975 Thunderstorm 24 1017 60 10000 3.6 280 17:56 22.11.2019
3976 Thunderstorm 24 1017 60 10000 3.6 280 17:56 22.11.2019
3977 Thunderstorm 24 1017 60 10000 3.6 280 17:38 22.11.2019
3978 Thunderstorm 24 1017 60 10000 3.1 280 17:20 22.11.2019
3979 Thunderstorm 25 1016 57 10000 3.1 260 16:41 22.11.2019
3980 Thunderstorm 26 1016 54 10000 4.1 260 16:23 22.11.2019
3981 Thunderstorm 27 1015 51 10000 4.6 260 15:44 22.11.2019
3982 Thunderstorm 27 1015 51 10000 4.6 310 15:24 22.11.2019
3983 Thunderstorm 29 1015 45 10000 5.7 270 14:56 22.11.2019
3984 Clouds 27 1014 57 10000 6.2 290 14:37 22.11.2019
3985 Clouds 27 1014 57 10000 6.2 290 14:19 22.11.2019
3986 Clouds 27 1014 57 10000 7.7 300 13:56 22.11.2019
3987 Clouds 27 1014 54 10000 7.7 300 13:36 22.11.2019
3988 Clouds 27 1014 54 10000 7.7 300 13:18 22.11.2019
3989 Clouds 29 1014 48 10000 7.7 300 12:41 22.11.2019
3990 Clouds 29 1015 54 10000 7.7 310 12:20 22.11.2019
3991 Clouds 28 1015 58 10000 9.3 300 11:59 22.11.2019
3992 Clouds 28 1015 58 10000 9.3 300 11:39 22.11.2019
3993 Clouds 27 1016 57 10000 7.7 290 11:20 22.11.2019
3994 Clouds 29 1016 51 10000 6.7 290 10:59 22.11.2019
3995 Clouds 29 1016 51 10000 6.7 290 10:39 22.11.2019
3996 Clouds 29 1016 48 10000 6.7 300 10:21 22.11.2019
3997 Clouds 28 1017 54 10000 6.2 320 09:55 22.11.2019
3998 Clouds 28 1017 51 10000 6.2 300 09:37 22.11.2019
3999 Clouds 28 1017 51 10000 6.2 300 09:18 22.11.2019
4000 Clouds 26 1017 61 10000 4.1 260 08:44 22.11.2019
4001 Clouds 27 1017 57 10000 5.7 310 08:25 22.11.2019
4002 Clouds 26 1017 65 10000 4.6 310 07:45 22.11.2019
4003 Clouds 24 1018 69 10000 3.1 310 07:23 22.11.2019
4004 Clouds 24 1018 69 10000 3.1 310 06:49 22.11.2019
4005 Clouds 23 1018 73 10000 3.1 310 06:30 22.11.2019
4006 Clouds 22 1018 83 10000 2.6 340 05:49 22.11.2019
4007 Clouds 20 1017 94 10000 2.1 310 04:49 22.11.2019
4008 Clouds 18 1016 100 10000 2.1 310 02:53 22.11.2019
4009 Clouds 19 1016 93 10000 0.77 354 02:30 22.11.2019
4010 Clouds 18 1016 93 10000 1.5 310 01:45 22.11.2019
4011 Clouds 19 1016 93 10000 0.73 71 01:20 22.11.2019
4012 Clouds 19 1016 93 10000 1.5 310 00:50 22.11.2019
4013 Clouds 19 1016 93 10000 2.1 310 00:23 22.11.2019
4014 Clouds 20 1017 88 10000 1 350 23:49 21.11.2019
4015 Clouds 19 1017 100 10000 0.73 71 23:30 21.11.2019
4016 Clouds 19 1018 93 10000 1.5 0 22:59 21.11.2019
4017 Clouds 19 1018 93 10000 1.5 0 22:39 21.11.2019
4018 Clouds 19 1018 93 10000 1.5 0 22:39 21.11.2019
4019 Clouds 19 1018 93 10000 1.13 277 22:21 21.11.2019
4020 Clouds 20 1018 88 10000 1 0 21:56 21.11.2019
4021 Clouds 20 1018 88 10000 1.13 277 21:37 21.11.2019
4022 Clouds 20 1018 88 10000 1.13 277 21:19 21.11.2019
4023 Clouds 20 1019 88 10000 1.13 277 20:58 21.11.2019
4024 Clouds 20 1019 88 10000 1.13 277 20:38 21.11.2019
4025 Clouds 20 1019 88 10000 1.47 342 20:19 21.11.2019
4026 Clouds 21 1019 83 10000 1.5 0 19:59 21.11.2019
4027 Clouds 21 1019 83 10000 1.5 0 19:59 21.11.2019
4028 Clouds 21 1019 83 10000 1.5 0 19:40 21.11.2019
4029 Rain 21 1018 88 10000 2.1 290 19:21 21.11.2019
4030 Clouds 21 1018 94 10000 1 0 18:56 21.11.2019
4031 Clouds 21 1018 88 10000 1 0 18:37 21.11.2019
4032 Clouds 21 1018 88 10000 1 0 18:19 21.11.2019
4033 Clouds 21 1018 94 10000 1.47 342 17:57 21.11.2019
4034 Clouds 21 1018 94 10000 1.47 342 17:38 21.11.2019
4035 Clouds 22 1018 78 10000 1 0 17:19 21.11.2019
4036 Clouds 22 1017 83 10000 1 0 16:41 21.11.2019
4037 Clouds 22 1017 78 10000 1 0 16:21 21.11.2019
4038 Clouds 23 1017 78 10000 3.1 290 15:57 21.11.2019
4039 Clouds 23 1017 78 10000 3.1 290 15:38 21.11.2019
4040 Clouds 23 1016 73 10000 1.5 0 15:19 21.11.2019
4041 Clouds 24 1016 73 10000 1 0 14:55 21.11.2019
4042 Clouds 21 1016 83 10000 1.5 0 14:36 21.11.2019
4043 Clouds 21 1016 83 10000 1.5 0 14:18 21.11.2019
4044 Thunderstorm 20 1016 88 10000 3.1 70 13:39 21.11.2019
4045 Thunderstorm 19 1016 93 7000 3.1 330 13:19 21.11.2019
4046 Thunderstorm 18 1016 93 3500 8.2 290 12:56 21.11.2019
4047 Thunderstorm 22 1016 73 4000 9.8 330 12:37 21.11.2019
4048 Thunderstorm 22 1016 73 4000 9.8 330 12:19 21.11.2019
4049 Clouds 30 1016 40 10000 3.6 40 11:41 21.11.2019
4050 Clouds 31 1016 40 10000 3.6 90 11:21 21.11.2019
4051 Clouds 28 1017 51 10000 2.6 80 10:59 21.11.2019
4052 Clouds 28 1017 51 10000 2.6 80 10:41 21.11.2019
4053 Clouds 29 1017 48 10000 3.6 50 10:20 21.11.2019
4054 Clouds 29 1018 48 10000 3.1 60 09:56 21.11.2019
4055 Clouds 29 1018 48 10000 2.1 0 09:37 21.11.2019
4056 Clouds 29 1018 48 10000 2.1 0 09:19 21.11.2019
4057 Clouds 28 1018 51 10000 1.5 0 08:41 21.11.2019
4058 Clouds 27 1019 57 10000 1.5 120 08:20 21.11.2019
4059 Clouds 27 1019 54 10000 1.5 60 07:40 21.11.2019
4060 Clouds 26 1019 61 10000 1 0 07:18 21.11.2019
4061 Clouds 23 1020 78 10000 1 0 06:57 21.11.2019
4062 Clouds 23 1020 78 10000 1 0 06:33 21.11.2019
4063 Clouds 21 1020 88 10000 1 0 05:32 21.11.2019
4064 Clouds 19 1019 93 10000 0.38 145 03:32 21.11.2019
4065 Clouds 19 1018 93 10000 1.5 40 02:40 21.11.2019
4066 Clouds 18 1018 100 10000 1.5 90 01:54 21.11.2019
4067 Clouds 18 1018 100 10000 0.14 65 01:36 21.11.2019
4068 Clouds 19 1018 93 10000 1.5 350 00:54 21.11.2019
4069 Clouds 18 1018 100 10000 1.5 290 00:21 21.11.2019
4070 Clouds 19 1018 93 10000 0.14 65 23:55 20.11.2019
4071 Clouds 19 1018 93 10000 1.5 70 23:37 20.11.2019
4072 Clouds 19 1018 93 10000 1.5 70 23:19 20.11.2019
4073 Clouds 19 1018 93 10000 1.5 60 22:55 20.11.2019
4074 Clouds 19 1018 93 10000 2.1 80 22:36 20.11.2019
4075 Clouds 19 1018 93 10000 2.1 80 22:18 20.11.2019
4076 Clouds 19 1018 93 10000 2.1 80 22:18 20.11.2019
4077 Clouds 19 1019 93 10000 1 0 21:54 20.11.2019
4078 Clouds 19 1019 93 10000 3.6 310 21:36 20.11.2019
4079 Clouds 19 1019 93 10000 3.6 310 21:18 20.11.2019
4080 Clouds 19 1020 93 10000 2.1 320 20:54 20.11.2019
4081 Thunderstorm 19 1020 93 10000 2.6 220 20:36 20.11.2019
4082 Thunderstorm 19 1020 93 10000 2.6 220 20:18 20.11.2019
4083 Thunderstorm 20 1020 88 8000 4.1 240 19:37 20.11.2019
4084 Thunderstorm 20 1020 88 8000 4.1 240 19:37 20.11.2019
4085 Thunderstorm 20 1020 88 8000 4.1 240 19:19 20.11.2019
4086 Thunderstorm 20 1020 88 8000 4.1 240 19:19 20.11.2019
4087 Thunderstorm 21 1020 73 10000 3.1 280 18:59 20.11.2019
4088 Thunderstorm 21 1020 73 10000 3.1 280 18:40 20.11.2019
4089 Thunderstorm 21 1020 73 10000 3.1 280 18:22 20.11.2019
4090 Thunderstorm 22 1019 73 10000 4.1 270 17:59 20.11.2019
4091 Thunderstorm 22 1019 73 10000 4.1 270 17:39 20.11.2019
4092 Thunderstorm 22 1019 73 10000 3.6 270 17:21 20.11.2019
4093 Thunderstorm 23 1018 69 10000 4.6 300 16:57 20.11.2019
4094 Thunderstorm 23 1018 69 10000 4.6 300 16:39 20.11.2019
4095 Thunderstorm 24 1017 60 10000 4.1 190 16:19 20.11.2019
4096 Thunderstorm 24 1017 60 10000 4.1 190 16:19 20.11.2019
4097 Thunderstorm 25 1017 61 10000 4.6 190 15:57 20.11.2019
4098 Thunderstorm 25 1017 61 10000 4.6 190 15:38 20.11.2019
4099 Clouds 27 1016 44 10000 1.5 80 15:19 20.11.2019
4100 Clouds 28 1016 42 10000 2.1 60 14:41 20.11.2019
4101 Clouds 28 1016 45 10000 2.1 60 14:22 20.11.2019
4102 Clouds 28 1016 45 10000 2.1 60 14:22 20.11.2019
4103 Clouds 28 1016 45 10000 2.1 60 14:22 20.11.2019
4104 Clouds 27 1016 44 10000 2.1 40 13:59 20.11.2019
4105 Clouds 27 1016 44 10000 2.1 40 13:39 20.11.2019
4106 Clouds 28 1016 45 10000 2.6 30 13:20 20.11.2019
4107 Clouds 28 1017 42 10000 2.6 40 12:58 20.11.2019
4108 Clouds 29 1017 42 10000 2.6 40 12:37 20.11.2019
4109 Clouds 29 1017 42 10000 2.6 40 12:19 20.11.2019
4110 Clouds 29 1017 39 10000 2.6 20 11:45 20.11.2019
4111 Clouds 29 1017 42 10000 5.1 50 11:23 20.11.2019
4112 Clouds 30 1018 40 10000 2.1 0 10:57 20.11.2019
4113 Clouds 29 1018 45 10000 2.6 0 10:39 20.11.2019
4114 Clouds 29 1018 45 10000 2.6 0 10:20 20.11.2019
4115 Clouds 29 1018 45 10000 2.6 0 10:20 20.11.2019
4116 Clouds 29 1019 42 10000 2.1 0 09:56 20.11.2019
4117 Clouds 29 1019 42 10000 2.6 90 09:37 20.11.2019
4118 Clouds 29 1019 42 10000 2.6 90 09:19 20.11.2019
4119 Clouds 28 1019 45 10000 3.6 60 08:41 20.11.2019
4120 Clouds 27 1020 47 10000 3.1 90 08:23 20.11.2019
4121 Clouds 27 1020 54 10000 2.1 0 07:48 20.11.2019
4122 Clouds 26 1020 57 10000 1.5 0 07:30 20.11.2019
4123 Clouds 25 1021 61 10000 2.1 70 06:51 20.11.2019
4124 Clouds 23 1020 73 10000 1 0 06:22 20.11.2019
4125 Clouds 21 1021 83 10000 1 0 05:52 20.11.2019
4126 Clouds 19 1020 93 10000 0.51 307 03:55 20.11.2019
4127 Clouds 19 1019 93 10000 2.6 90 02:22 20.11.2019
4128 Clouds 19 1019 93 10000 2.6 70 01:34 20.11.2019
4129 Thunderstorm 20 1019 88 10000 2.1 50 00:43 20.11.2019
4130 Thunderstorm 20 1019 88 10000 2.6 80 00:18 20.11.2019
4131 Thunderstorm 20 1019 88 10000 2.6 100 23:39 19.11.2019
4132 Thunderstorm 20 1019 94 10000 2.6 90 23:20 19.11.2019
4133 Clouds 20 1019 88 10000 2.6 80 22:42 19.11.2019
4134 Clouds 21 1020 88 10000 3.6 80 22:19 19.11.2019
4135 Thunderstorm 21 1020 88 10000 1.5 70 21:58 19.11.2019
4136 Thunderstorm 21 1020 88 10000 1.5 70 21:38 19.11.2019
4137 Thunderstorm 21 1020 88 10000 2.1 70 21:20 19.11.2019
4138 Thunderstorm 21 1021 88 10000 2.1 60 20:58 19.11.2019
4139 Thunderstorm 21 1021 88 10000 2.1 60 20:39 19.11.2019
4140 Thunderstorm 22 1021 83 10000 3.1 90 20:21 19.11.2019
4141 Thunderstorm 22 1021 83 10000 3.6 100 19:59 19.11.2019
4142 Thunderstorm 22 1021 83 10000 3.6 100 19:41 19.11.2019
4143 Thunderstorm 22 1021 83 10000 2.6 140 19:19 19.11.2019
4144 Thunderstorm 23 1021 78 10000 3.6 100 18:57 19.11.2019
4145 Thunderstorm 23 1021 78 10000 3.6 100 18:38 19.11.2019
4146 Thunderstorm 23 1020 78 10000 4.1 110 18:18 19.11.2019
4147 Thunderstorm 23 1020 73 10000 4.1 100 17:56 19.11.2019
4148 Thunderstorm 23 1020 69 10000 2.6 120 17:37 19.11.2019
4149 Thunderstorm 23 1020 69 10000 2.6 120 17:19 19.11.2019
4150 Thunderstorm 24 1019 64 10000 3.1 140 16:56 19.11.2019
4151 Clouds 24 1018 69 10000 4.6 100 16:37 19.11.2019
4152 Clouds 24 1018 69 10000 4.6 100 16:18 19.11.2019
4153 Clouds 25 1018 65 10000 4.6 100 15:42 19.11.2019
4154 Clouds 26 1018 57 10000 6.7 100 15:23 19.11.2019
4155 Clouds 26 1018 61 10000 6.7 110 14:57 19.11.2019
4156 Clouds 26 1018 61 10000 6.7 110 14:39 19.11.2019
4157 Clouds 29 1017 48 10000 6.7 100 14:20 19.11.2019
4158 Clouds 28 1017 45 10000 3.1 80 13:41 19.11.2019
4159 Clouds 28 1017 45 10000 3.1 70 13:20 19.11.2019
4160 Clouds 28 1017 45 10000 3.1 70 13:20 19.11.2019
4161 Clouds 28 1017 45 10000 3.1 70 13:20 19.11.2019
4162 Clouds 28 1018 45 10000 2.6 110 12:42 19.11.2019
4163 Clouds 29 1018 45 10000 3.6 90 12:23 19.11.2019
4164 Clouds 30 1019 42 10000 4.6 90 11:59 19.11.2019
4165 Clouds 30 1019 42 10000 4.6 90 11:39 19.11.2019
4166 Clouds 30 1019 45 10000 4.1 100 11:20 19.11.2019
4167 Clouds 29 1019 48 10000 3.6 70 10:58 19.11.2019
4168 Clouds 29 1019 48 10000 3.6 70 10:40 19.11.2019
4169 Clouds 30 1020 45 10000 4.1 100 10:20 19.11.2019
4170 Clouds 29 1020 48 10000 4.1 130 09:42 19.11.2019
4171 Clouds 29 1021 45 10000 3.6 100 09:19 19.11.2019
4172 Clouds 29 1021 45 10000 3.6 100 09:19 19.11.2019
4173 Clouds 28 1021 51 10000 3.1 120 08:56 19.11.2019
4174 Clouds 28 1021 51 10000 3.1 120 08:37 19.11.2019
4175 Clouds 28 1021 51 10000 3.1 120 08:37 19.11.2019
4176 Clouds 27 1021 54 10000 4.1 100 08:19 19.11.2019
4177 Clouds 26 1022 57 10000 3.1 0 07:42 19.11.2019
4178 Clouds 26 1022 61 10000 2.6 120 07:22 19.11.2019
4179 Clouds 25 1022 61 10000 2.1 110 06:52 19.11.2019
4180 Clouds 24 1022 64 10000 2.6 110 06:33 19.11.2019
4181 Clouds 23 1022 69 10000 3.1 150 05:44 19.11.2019
4182 Clouds 19 1021 88 10000 1 0 04:26 19.11.2019
4183 Clouds 17 1021 100 10000 1.5 70 03:35 19.11.2019
4184 Clouds 18 1021 93 10000 1.5 70 02:57 19.11.2019
4185 Clouds 18 1020 93 10000 2.1 100 02:32 19.11.2019
4186 Clouds 18 1020 93 10000 1 0 01:43 19.11.2019
4187 Clouds 18 1019 100 10000 1.5 60 00:22 19.11.2019
4188 Clouds 18 1020 93 10000 1 0 23:57 18.11.2019
4189 Clouds 18 1020 93 10000 1.5 160 23:37 18.11.2019
4190 Clouds 18 1020 93 10000 1.5 160 23:18 18.11.2019
4191 Clouds 18 1020 93 10000 1 180 22:44 18.11.2019
4192 Clouds 19 1020 88 10000 1 0 22:23 18.11.2019
4193 Clouds 19 1021 88 10000 2.1 40 21:56 18.11.2019
4194 Clouds 19 1021 88 10000 0.5 0 21:37 18.11.2019
4195 Clouds 19 1021 88 10000 0.5 0 21:19 18.11.2019
4196 Clouds 19 1021 88 10000 2.1 20 20:56 18.11.2019
4197 Thunderstorm 19 1022 93 10000 1.5 0 20:38 18.11.2019
4198 Thunderstorm 19 1022 93 10000 1.5 0 20:18 18.11.2019
4199 Thunderstorm 19 1022 93 10000 1.5 0 20:18 18.11.2019
4200 Thunderstorm 19 1021 88 10000 3.6 100 19:54 18.11.2019
4201 Thunderstorm 19 1021 88 10000 3.6 100 19:36 18.11.2019
4202 Thunderstorm 19 1021 88 10000 3.6 100 19:18 18.11.2019
4203 Thunderstorm 20 1021 82 10000 1.5 0 18:54 18.11.2019
4204 Thunderstorm 20 1021 82 10000 1.5 0 18:36 18.11.2019
4205 Thunderstorm 20 1021 82 10000 1.5 0 18:18 18.11.2019
4206 Thunderstorm 20 1021 82 10000 1 0 17:38 18.11.2019
4207 Thunderstorm 20 1021 82 10000 2.6 160 17:19 18.11.2019
4208 Thunderstorm 20 1021 82 10000 2.6 160 17:19 18.11.2019
4209 Thunderstorm 19 1020 88 8000 5.7 110 16:43 18.11.2019
4210 Thunderstorm 20 1020 88 6000 7.2 90 16:25 18.11.2019
4211 Thunderstorm 20 1020 88 6000 7.2 90 16:25 18.11.2019
4212 -273 0 0 0 0 0 15:59 18.11.2019
4213 Clouds 28 1018 48 10000 4.6 30 15:41 18.11.2019
4214 -273 0 0 0 0 0 15:41 18.11.2019
4215 Clouds 28 1018 48 10000 4.6 30 15:22 18.11.2019
4216 Clouds 30 1017 40 10000 3.1 220 14:59 18.11.2019
4217 Clouds 30 1017 40 10000 3.1 220 14:41 18.11.2019
4218 Clouds 31 1017 38 10000 4.1 230 14:22 18.11.2019
4219 Clouds 31 1017 38 10000 3.1 250 13:45 18.11.2019
4220 Clouds 30 1017 40 10000 4.6 230 13:27 18.11.2019
4221 Clouds 30 1017 40 10000 4.6 230 13:27 18.11.2019
4222 Clouds 31 1017 38 10000 4.1 290 12:57 18.11.2019
4223 Clouds 30 1018 40 10000 3.1 280 12:37 18.11.2019
4224 Clouds 30 1018 40 10000 3.1 280 12:18 18.11.2019
4225 Clouds 29 1019 42 10000 3.6 290 11:43 18.11.2019
4226 Clouds 22 1019 78 10000 3.1 220 11:25 18.11.2019
4227 Clouds 29 1019 39 10000 3.6 0 10:46 18.11.2019
4228 Clouds 29 1020 42 10000 4.1 300 10:27 18.11.2019
4229 Clouds 28 1021 48 10000 3.6 290 09:59 18.11.2019
4230 Clouds 28 1021 48 10000 3.6 290 09:39 18.11.2019
4231 Clouds 28 1021 48 10000 3.6 290 09:39 18.11.2019
4232 Clouds 28 1021 48 10000 3.6 290 09:21 18.11.2019
4233 Clouds 27 1021 51 10000 3.6 310 08:58 18.11.2019
4234 Clouds 26 1021 57 10000 3.1 290 08:40 18.11.2019
4235 Clouds 26 1021 57 10000 3.1 290 08:19 18.11.2019
4236 Clouds 25 1021 61 10000 3.6 270 07:45 18.11.2019
4237 Clouds 23 1021 73 10000 2.6 270 07:26 18.11.2019
4238 Clouds 23 1021 73 10000 3.1 0 06:49 18.11.2019
4239 Clouds 22 1021 78 10000 3.1 290 06:28 18.11.2019
4240 Clouds 21 1021 83 10000 2.6 300 05:45 18.11.2019
4241 Clouds 19 1020 88 10000 2.1 340 04:28 18.11.2019
4242 Clouds 19 1018 93 10000 3.1 330 01:47 18.11.2019
4243 Clouds 19 1018 88 10000 3.1 280 01:25 18.11.2019
4244 Clouds 19 1017 93 10000 2.1 280 00:20 18.11.2019
4245 Clouds 20 1018 94 10000 3.1 310 23:41 17.11.2019
4246 Clouds 20 1018 88 10000 3.1 330 23:22 17.11.2019
4247 Clouds 19 1018 93 10000 1.5 320 22:57 17.11.2019
4248 Clouds 19 1018 93 10000 1.5 320 22:57 17.11.2019
4249 Clouds 19 1018 93 10000 1.5 260 22:39 17.11.2019
4250 Clouds 19 1018 93 10000 1.5 260 22:21 17.11.2019
4251 Clouds 20 1018 88 10000 2.1 310 21:57 17.11.2019
4252 Clouds 20 1018 88 10000 2.1 310 21:38 17.11.2019
4253 Clouds 19 1018 93 10000 2.1 280 21:18 17.11.2019
4254 Clouds 20 1019 94 10000 2.1 330 20:55 17.11.2019
4255 Thunderstorm 20 1018 88 7000 2.6 300 20:36 17.11.2019
4256 Thunderstorm 20 1018 88 7000 2.6 300 20:18 17.11.2019
4257 Clouds 20 1018 88 10000 2.6 290 19:55 17.11.2019
4258 Thunderstorm 21 1018 83 10000 1.5 310 19:36 17.11.2019
4259 Thunderstorm 21 1018 83 10000 1.5 310 19:18 17.11.2019
4260 Thunderstorm 21 1018 77 10000 1.5 320 18:54 17.11.2019
4261 Thunderstorm 22 1017 73 10000 2.6 270 18:36 17.11.2019
4262 Thunderstorm 22 1017 73 10000 2.6 270 18:18 17.11.2019
4263 Thunderstorm 23 1017 69 10000 1.5 280 17:56 17.11.2019
4264 Thunderstorm 23 1017 69 10000 1.5 280 17:38 17.11.2019
4265 Clouds 23 1017 64 10000 2.1 280 17:18 17.11.2019
4266 Clouds 23 1016 64 10000 2.1 300 16:42 17.11.2019
4267 Clouds 24 1016 60 10000 2.6 320 16:22 17.11.2019
4268 Clouds 25 1016 53 10000 5.1 320 15:59 17.11.2019
4269 Clouds 25 1016 53 10000 5.1 320 15:41 17.11.2019
4270 Clouds 26 1015 50 10000 5.7 320 15:19 17.11.2019
4271 Clouds 22 1011 64 0 3.96 302 14:57 17.11.2019
4272 Clouds 27 1015 44 10000 6.2 320 14:39 17.11.2019
4273 Clouds 27 1015 44 10000 6.2 320 14:20 17.11.2019
4274 Clouds 27 1015 47 10000 6.7 320 13:59 17.11.2019
4275 Clouds 27 1015 47 10000 6.7 320 13:40 17.11.2019
4276 Clouds 27 1015 51 10000 8.2 300 13:19 17.11.2019
4277 Clouds 28 1015 45 10000 7.7 310 12:45 17.11.2019
4278 Clouds 27 1015 44 10000 7.7 320 12:23 17.11.2019
4279 Clouds 27 1015 47 10000 6.7 320 11:58 17.11.2019
4280 Clouds 27 1015 47 10000 6.7 320 11:40 17.11.2019
4281 Clouds 27 1015 47 10000 6.7 320 11:40 17.11.2019
4282 Clouds 27 1015 47 10000 6.2 330 11:20 17.11.2019
4283 Clouds 27 1016 47 10000 7.2 330 10:45 17.11.2019
4284 Clouds 26 1016 47 10000 8.2 320 10:24 17.11.2019
4285 Clouds 26 1017 50 10000 7.7 320 09:58 17.11.2019
4286 Clouds 26 1017 50 10000 7.7 320 09:40 17.11.2019
4287 Clouds 26 1017 54 10000 6.7 330 09:22 17.11.2019
4288 Clouds 26 1017 50 10000 7.7 340 08:42 17.11.2019
4289 Clouds 25 1017 57 10000 7.2 330 08:23 17.11.2019
4290 Clouds 25 1017 57 10000 6.2 330 07:56 17.11.2019
4291 Clouds 24 1017 64 10000 6.7 330 07:38 17.11.2019
4292 Clouds 24 1017 64 10000 6.7 330 07:19 17.11.2019
4293 Clouds 24 1017 64 10000 6.2 320 06:47 17.11.2019
4294 Clouds 22 1017 73 10000 60.7 320 06:27 17.11.2019
4295 Clouds 20 1017 82 10000 2.6 350 04:48 17.11.2019
4296 Clouds 19 1015 93 10000 2.33 323 03:58 17.11.2019
4297 Clouds 19 1016 88 10000 3.6 310 03:33 17.11.2019
4298 Clouds 19 1015 88 10000 2.6 310 02:40 17.11.2019
4299 Clouds 18 1015 93 10000 1 0 01:45 17.11.2019
4300 Clouds 19 1015 88 10000 2.1 320 00:56 17.11.2019
4301 Clouds 19 1015 88 10000 1.5 340 00:23 17.11.2019
4302 Clouds 18 1016 93 10000 0.5 0 23:54 16.11.2019
4303 Clouds 19 1016 88 10000 2.59 288 23:20 16.11.2019
4304 Clouds 19 1016 82 10000 1.5 0 22:59 16.11.2019
4305 Clouds 19 1016 82 10000 1.5 0 22:41 16.11.2019
4306 Clouds 19 1016 82 10000 2.6 240 22:20 16.11.2019
4307 Thunderstorm 20 1016 77 10000 3.1 270 21:56 16.11.2019
4308 Thunderstorm 20 1016 77 10000 3.1 270 21:38 16.11.2019
4309 Thunderstorm 21 1016 77 10000 4.6 330 21:19 16.11.2019
4310 Thunderstorm 22 1016 78 10000 5.7 330 20:55 16.11.2019
4311 Clouds 22 1016 73 10000 4.1 350 20:37 16.11.2019
4312 Clouds 22 1016 73 10000 4.1 350 20:18 16.11.2019
4313 Thunderstorm 22 1016 73 10000 2.6 330 19:40 16.11.2019
4314 Thunderstorm 22 1016 68 10000 2.1 330 19:21 16.11.2019
4315 Thunderstorm 23 1016 64 10000 3.1 360 18:47 16.11.2019
4316 Thunderstorm 23 1015 64 10000 3.1 360 18:29 16.11.2019
4317 Thunderstorm 23 1015 64 10000 3.6 360 17:57 16.11.2019
4318 Thunderstorm 23 1015 64 10000 3.6 360 17:39 16.11.2019
4319 Thunderstorm 23 1015 64 10000 3.1 20 17:19 16.11.2019
4320 Thunderstorm 24 1014 60 10000 3.1 360 16:48 16.11.2019
4321 Clouds 24 1014 57 10000 4.1 330 16:30 16.11.2019
4322 Clouds 24 1014 57 10000 4.1 330 16:30 16.11.2019
4323 Clouds 25 1014 53 10000 5.1 330 15:59 16.11.2019
4324 Clouds 25 1014 53 10000 5.1 330 15:41 16.11.2019
4325 Clouds 27 1013 47 10000 6.7 320 15:21 16.11.2019
4326 Clouds 28 1013 42 10000 6.7 320 14:58 16.11.2019
4327 Clouds 28 1013 42 10000 6.7 320 14:39 16.11.2019
4328 Clouds 28 1013 42 10000 6.7 330 14:21 16.11.2019
4329 Clouds 28 1012 45 10000 6.2 340 13:55 16.11.2019
4330 Clouds 28 1013 48 10000 5.1 340 13:37 16.11.2019
4331 Clouds 28 1013 48 10000 5.1 340 13:18 16.11.2019
4332 Clouds 29 1013 42 10000 6.7 320 12:43 16.11.2019
4333 Clouds 27 1014 47 10000 6.2 330 12:23 16.11.2019
4334 Clouds 27 1014 57 10000 4.6 10 11:57 16.11.2019
4335 Clouds 27 1014 54 10000 2.6 340 11:38 16.11.2019
4336 Clouds 27 1014 54 10000 2.6 340 11:38 16.11.2019
4337 Clouds 27 1014 54 10000 2.6 340 11:20 16.11.2019
4338 Clouds 27 1015 54 10000 1.5 0 10:44 16.11.2019
4339 Clouds 27 1015 57 10000 2.6 270 10:25 16.11.2019
4340 Clouds 25 1016 65 10000 2.6 290 09:59 16.11.2019
4341 Clouds 25 1016 65 10000 2.6 290 09:59 16.11.2019
4342 Clouds 25 1016 65 10000 2.6 290 09:40 16.11.2019
4343 Clouds 25 1016 61 10000 5.7 290 09:20 16.11.2019
4344 Clouds 26 1016 57 10000 3.1 300 08:41 16.11.2019
4345 Clouds 26 1016 57 10000 3.1 300 08:41 16.11.2019
4346 Clouds 24 1016 64 10000 3.1 330 08:21 16.11.2019
4347 Clouds 24 1016 64 10000 2.1 10 07:46 16.11.2019
4348 Clouds 23 1016 69 10000 3.1 350 07:22 16.11.2019
4349 Clouds 22 1016 73 10000 2.1 10 06:59 16.11.2019
4350 Clouds 22 1016 73 10000 2.1 10 06:59 16.11.2019
4351 Clouds 22 1016 73 10000 2.1 10 06:59 16.11.2019
4352 Clouds 22 1016 73 10000 2.1 10 06:41 16.11.2019
4353 Clouds 21 1016 77 10000 4.1 50 06:20 16.11.2019
4354 Clouds 19 1016 88 10000 1.5 0 04:34 16.11.2019
4355 Clouds 18 1016 93 10000 2.1 350 03:26 16.11.2019
4356 Clouds 19 1016 93 10000 1.5 10 02:36 16.11.2019
4357 Clouds 18 1016 93 10000 1.5 0 01:38 16.11.2019
4358 Clouds 18 1016 93 10000 1.5 0 00:51 16.11.2019
4359 Clouds 18 1016 93 10000 1.5 0 00:30 16.11.2019
4360 Clouds 18 1016 93 10000 0.5 0 23:56 15.11.2019
4361 Clouds 18 1016 93 10000 0.5 0 23:38 15.11.2019
4362 Rain 18 1017 93 10000 1 0 23:20 15.11.2019
4363 Rain 18 1017 93 10000 2.6 60 22:40 15.11.2019
4364 Rain 19 1018 88 10000 2.6 30 22:20 15.11.2019
4365 Rain 19 1018 88 10000 2.6 30 22:20 15.11.2019
4366 Clouds 19 1018 88 10000 2.6 90 21:57 15.11.2019
4367 Clouds 19 1018 88 10000 2.6 90 21:38 15.11.2019
4368 Thunderstorm 19 1018 88 10000 4.1 70 21:20 15.11.2019
4369 Thunderstorm 19 1018 88 10000 1.5 110 20:56 15.11.2019
4370 Thunderstorm 19 1018 88 10000 1.5 110 20:38 15.11.2019
4371 Thunderstorm 19 1018 93 10000 2.1 80 20:19 15.11.2019
4372 Thunderstorm 19 1018 88 10000 4.6 50 19:57 15.11.2019
4373 Thunderstorm 19 1018 88 10000 4.6 50 19:38 15.11.2019
4374 Thunderstorm 19 1018 88 10000 3.1 40 19:19 15.11.2019
4375 Thunderstorm 19 1018 88 6000 3.1 20 18:43 15.11.2019
4376 Thunderstorm 20 1017 82 10000 4.6 60 18:24 15.11.2019
4377 Thunderstorm 21 1017 77 10000 5.1 60 17:58 15.11.2019
4378 Thunderstorm 21 1016 83 10000 3.1 60 17:39 15.11.2019
4379 Thunderstorm 21 1016 83 10000 3.1 60 17:21 15.11.2019
4380 Thunderstorm 22 1015 73 10000 4.1 100 16:54 15.11.2019
4381 Thunderstorm 22 1015 73 10000 4.1 100 16:36 15.11.2019
4382 Thunderstorm 22 1015 73 10000 4.1 100 16:18 15.11.2019
4383 Thunderstorm 23 1015 69 10000 4.1 70 15:38 15.11.2019
4384 Thunderstorm 23 1015 69 10000 4.1 70 15:19 15.11.2019
4385 Thunderstorm 24 1014 64 10000 5.1 50 14:56 15.11.2019
4386 Thunderstorm 24 1014 64 10000 5.1 50 14:38 15.11.2019
4387 Thunderstorm 24 1014 60 10000 6.2 40 14:19 15.11.2019
4388 Thunderstorm 25 1014 57 10000 5.1 50 13:56 15.11.2019
4389 Thunderstorm 25 1014 57 10000 5.1 50 13:38 15.11.2019
4390 Clouds 25 1014 61 10000 4.6 60 13:20 15.11.2019
4391 Thunderstorm 24 1015 64 10000 5.7 60 12:56 15.11.2019
4392 Thunderstorm 26 1015 61 10000 5.7 60 12:37 15.11.2019
4393 Thunderstorm 26 1015 61 10000 5.7 60 12:18 15.11.2019
4394 Thunderstorm 26 1015 61 10000 7.2 50 11:55 15.11.2019
4395 Thunderstorm 28 1015 45 10000 1 0 11:37 15.11.2019
4396 Thunderstorm 28 1015 45 10000 1 0 11:18 15.11.2019
4397 Clouds 28 1016 51 10000 2.6 0 10:39 15.11.2019
4398 Clouds 28 1017 51 10000 3.1 150 10:21 15.11.2019
4399 Clouds 27 1018 54 10000 3.6 190 09:42 15.11.2019
4400 Clouds 27 1018 54 10000 3.6 190 09:21 15.11.2019
4401 Clouds 27 1018 51 10000 1.5 0 08:58 15.11.2019
4402 Clouds 27 1018 51 10000 1.5 0 08:40 15.11.2019
4403 Clouds 26 1018 57 10000 1.5 0 08:21 15.11.2019
4404 Clouds 25 1018 61 10000 2.1 320 07:44 15.11.2019
4405 Clouds 23 1018 73 10000 1.5 290 07:25 15.11.2019
4406 Clouds 21 1018 83 9000 2.1 10 06:36 15.11.2019
4407 Clouds 19 1018 93 7000 1.5 0 05:57 15.11.2019
4408 Clouds 19 1018 93 7000 1.5 0 05:38 15.11.2019
4409 Clouds 18 1018 93 7000 1.5 0 04:54 15.11.2019
4410 Clouds 16 1017 100 7000 0.83 153 03:43 15.11.2019
4411 Clouds 17 1017 93 10000 0.5 0 02:34 15.11.2019
4412 Clouds 17 1017 100 10000 1 50 01:55 15.11.2019
4413 Clouds 17 1017 100 10000 1.5 70 01:32 15.11.2019
4414 Clouds 17 1017 100 10000 0.48 66 00:40 15.11.2019
4415 Clouds 17 1017 100 10000 0.48 66 00:21 15.11.2019
4416 Clouds 17 1017 100 10000 1 340 23:46 14.11.2019
4417 Clouds 18 1017 93 10000 1.5 330 23:26 14.11.2019
4418 Clouds 18 1018 93 10000 0.5 0 22:42 14.11.2019
4419 Clouds 18 1018 93 10000 1.69 16 22:23 14.11.2019
4420 Clouds 18 1018 93 10000 1.69 16 22:23 14.11.2019
4421 Clouds 18 1018 93 10000 1 210 21:58 14.11.2019
4422 Clouds 18 1018 93 10000 1 210 21:40 14.11.2019
4423 Clouds 18 1018 93 10000 1 210 21:40 14.11.2019
4424 Clouds 18 1018 93 10000 1 210 21:40 14.11.2019
4425 Clouds 18 1018 100 10000 1 0 21:22 14.11.2019
4426 Clouds 18 1018 93 10000 1 0 20:55 14.11.2019
4427 Clouds 19 1019 93 10000 2.1 170 20:37 14.11.2019
4428 Clouds 19 1019 93 10000 2.1 170 20:18 14.11.2019
4429 Clouds 19 1019 93 10000 2.1 170 20:18 14.11.2019
4430 Thunderstorm 19 1018 93 10000 1 0 19:54 14.11.2019
4431 Thunderstorm 19 1018 93 10000 1.5 0 19:36 14.11.2019
4432 Thunderstorm 19 1018 93 10000 1.5 0 19:18 14.11.2019
4433 Thunderstorm 19 1018 93 10000 1.5 0 19:18 14.11.2019
4434 Thunderstorm 19 1018 88 10000 2.6 40 18:42 14.11.2019
4435 Thunderstorm 19 1018 88 10000 2.6 40 18:22 14.11.2019
4436 Thunderstorm 20 1018 88 9000 3.36 80 17:57 14.11.2019
4437 Thunderstorm 20 1017 88 9000 3.36 80 17:37 14.11.2019
4438 Thunderstorm 20 1017 88 9000 1.35 42 17:19 14.11.2019
4439 Thunderstorm 20 1017 88 8000 1.35 42 16:57 14.11.2019
4440 Thunderstorm 20 1017 88 6000 1 80 16:37 14.11.2019
4441 Thunderstorm 20 1017 88 6000 1 80 16:19 14.11.2019
4442 Rain 22 1012 70 0 1.35 42 15:57 14.11.2019
4443 Thunderstorm 24 1016 64 10000 4.1 80 15:38 14.11.2019
4444 Thunderstorm 24 1016 64 10000 4.1 80 15:19 14.11.2019
4445 Thunderstorm 24 1016 64 10000 4.1 80 15:19 14.11.2019
4446 Thunderstorm 26 1015 57 10000 3.1 70 14:46 14.11.2019
4447 Thunderstorm 29 1015 48 10000 5.1 60 14:23 14.11.2019
4448 Thunderstorm 30 1015 37 10000 1.5 0 13:58 14.11.2019
4449 Clouds 27 1015 47 10000 3.1 340 13:39 14.11.2019
4450 Clouds 27 1015 47 10000 3.1 340 13:20 14.11.2019
4451 Clouds 27 1015 51 10000 3.6 20 12:56 14.11.2019
4452 Thunderstorm 31 1016 33 10000 4.1 270 12:37 14.11.2019
4453 Thunderstorm 31 1016 33 10000 4.1 270 12:19 14.11.2019
4454 Clouds 31 1016 38 10000 3.1 0 11:39 14.11.2019
4455 Clouds 27 1017 51 10000 1.5 0 11:20 14.11.2019
4456 Clouds 27 1017 51 10000 1.5 0 11:20 14.11.2019
4457 Clouds 28 1018 51 10000 0.5 0 10:59 14.11.2019
4458 Clouds 28 1018 51 10000 0.5 0 10:40 14.11.2019
4459 Clouds 28 1018 51 10000 2.6 60 10:20 14.11.2019
4460 Clouds 29 1018 48 10000 2.6 200 09:56 14.11.2019
4461 Clouds 29 1018 48 10000 2.6 200 09:38 14.11.2019
4462 Clouds 28 1019 51 10000 2.1 340 09:19 14.11.2019
4463 Clouds 27 1019 54 10000 1.5 0 08:47 14.11.2019
4464 Clouds 26 1019 57 10000 2.1 50 08:25 14.11.2019
4465 Clouds 25 1019 61 10000 2.1 0 07:57 14.11.2019
4466 Clouds 25 1019 65 10000 2.1 50 07:37 14.11.2019
4467 Clouds 25 1019 65 10000 2.1 50 07:19 14.11.2019
4468 Clouds 24 1020 69 10000 2.6 50 06:42 14.11.2019
4469 Clouds 23 1020 64 10000 1 0 06:18 14.11.2019
4470 Clouds 20 1019 82 10000 1 0 04:42 14.11.2019
4471 Clouds 18 1019 93 9000 0.57 129 04:22 14.11.2019
4472 Clouds 17 1018 100 10000 1 50 02:47 14.11.2019
4473 Clouds 18 1018 93 10000 0.56 104 01:51 14.11.2019
4474 Clouds 18 1019 93 10000 0.56 104 01:32 14.11.2019
4475 Clouds 18 1018 93 10000 1 0 00:49 14.11.2019
4476 Clouds 18 1019 93 10000 0.76 91 00:29 14.11.2019
4477 Clouds 17 1019 100 10000 0.76 91 23:41 13.11.2019
4478 Clouds 18 1019 93 10000 1 220 23:22 13.11.2019
4479 Clouds 18 1019 93 10000 0.32 299 22:57 13.11.2019
4480 Clouds 18 1019 93 10000 0.32 299 22:39 13.11.2019
4481 Clouds 18 1020 93 10000 0.32 299 22:21 13.11.2019
4482 Clouds 18 1020 93 10000 17.5 0 21:56 13.11.2019
4483 Clouds 18 1021 88 10000 2.1 210 21:37 13.11.2019
4484 Clouds 18 1021 88 10000 2.1 210 21:19 13.11.2019
4485 Clouds 18 1021 88 10000 1.5 170 20:56 13.11.2019
4486 Clouds 18 1021 93 10000 2.1 160 20:37 13.11.2019
4487 Clouds 18 1021 93 10000 2.1 160 20:19 13.11.2019
4488 Clouds 18 1021 93 10000 2.1 160 19:56 13.11.2019
4489 Clouds 18 1021 93 10000 3.1 150 19:37 13.11.2019
4490 Clouds 18 1021 93 10000 3.1 150 19:18 13.11.2019
4491 Thunderstorm 18 1020 93 10000 1 0 18:54 13.11.2019
4492 Thunderstorm 18 1020 93 10000 1 0 18:36 13.11.2019
4493 Thunderstorm 18 1020 93 10000 1 0 18:18 13.11.2019
4494 Thunderstorm 18 1020 93 10000 1 0 18:18 13.11.2019
4495 Thunderstorm 18 1019 93 8000 3.1 130 17:40 13.11.2019
4496 Thunderstorm 18 1019 93 8000 3.1 130 17:22 13.11.2019
4497 -273 0 0 0 0 0 16:59 13.11.2019
4498 Thunderstorm 18 1019 93 7000 3.6 140 16:40 13.11.2019
4499 Thunderstorm 18 1019 93 7000 3.6 140 16:40 13.11.2019
4500 Thunderstorm 18 1019 93 7000 3.6 140 16:40 13.11.2019
4501 Thunderstorm 18 1019 93 7000 3.6 140 16:40 13.11.2019
4502 Thunderstorm 18 1019 93 7000 3.6 150 16:21 13.11.2019
4503 Thunderstorm 18 1018 88 10000 1 0 15:58 13.11.2019
4504 Thunderstorm 18 1018 88 10000 1 0 15:40 13.11.2019
4505 Thunderstorm 17 1018 93 6000 3.1 290 15:22 13.11.2019
4506 Thunderstorm 19 1018 77 6000 10.8 340 14:57 13.11.2019
4507 Thunderstorm 24 1017 57 8000 102.9 10 14:37 13.11.2019
4508 Thunderstorm 24 1017 57 8000 102.9 10 14:19 13.11.2019
4509 Thunderstorm 28 1016 51 10000 4.1 130 13:37 13.11.2019
4510 Thunderstorm 28 1016 51 10000 4.1 130 13:19 13.11.2019
4511 Thunderstorm 28 1016 51 10000 3.6 140 12:57 13.11.2019
4512 Thunderstorm 28 1016 51 10000 3.6 140 12:38 13.11.2019
4513 Thunderstorm 28 1016 51 10000 3.6 140 12:38 13.11.2019
4514 Clouds 27 1017 54 10000 2.6 130 12:19 13.11.2019
4515 Clouds 28 1017 51 10000 2.1 0 11:41 13.11.2019
4516 Clouds 28 1018 51 10000 2.1 0 11:21 13.11.2019
4517 Clouds 28 1019 51 10000 2.1 0 10:59 13.11.2019
4518 Clouds 28 1019 51 10000 2.1 0 10:41 13.11.2019
4519 Clouds 28 1019 51 10000 2.1 0 10:20 13.11.2019
4520 Clouds 27 1019 54 10000 2.6 0 09:57 13.11.2019
4521 Clouds 27 1019 54 10000 2.6 0 09:38 13.11.2019
4522 Clouds 27 1019 54 10000 2.6 0 09:38 13.11.2019
4523 Clouds 26 1019 57 10000 3.1 100 09:20 13.11.2019
4524 Clouds 25 1019 61 10000 2.1 0 08:39 13.11.2019
4525 Clouds 24 1020 64 10000 2.6 0 08:20 13.11.2019
4526 Clouds 23 1020 64 10000 2.6 40 07:42 13.11.2019
4527 Clouds 23 1020 73 10000 2.6 0 07:21 13.11.2019
4528 Clouds 20 1020 82 10000 2.6 80 06:46 13.11.2019
4529 Clouds 21 1020 77 8000 2.6 120 06:19 13.11.2019
4530 Clouds 21 1020 77 8000 2.6 120 06:19 13.11.2019
4531 Clouds 20 1020 82 7000 2.6 100 05:54 13.11.2019
4532 Clouds 20 1019 82 7000 2.6 90 05:34 13.11.2019
4533 Clouds 19 1019 88 7000 1.5 0 04:44 13.11.2019
4534 Clouds 18 1018 93 10000 3.6 100 02:19 13.11.2019
4535 Clouds 18 1018 88 10000 4.1 120 01:44 13.11.2019
4536 Clouds 18 1018 93 10000 2.6 100 00:45 13.11.2019
4537 Clouds 18 1018 93 10000 1 0 00:26 13.11.2019
4538 Clouds 18 1018 93 10000 1.5 0 23:42 12.11.2019
4539 Clouds 18 1017 93 10000 1 0 23:21 12.11.2019
4540 Clouds 18 1017 93 10000 1 190 22:55 12.11.2019
4541 Clouds 18 1018 93 10000 1.5 0 22:37 12.11.2019
4542 Clouds 18 1018 93 10000 1.5 0 22:18 12.11.2019
4543 Clouds 18 1018 93 10000 1.5 70 21:43 12.11.2019
4544 Rain 18 1019 100 8000 3.1 70 21:24 12.11.2019
4545 Rain 19 1020 88 8000 1 0 20:57 12.11.2019
4546 Thunderstorm 19 1020 93 10000 1 0 20:37 12.11.2019
4547 Thunderstorm 19 1020 93 10000 1 0 20:19 12.11.2019
4548 Thunderstorm 19 1020 93 10000 2.6 140 19:57 12.11.2019
4549 Thunderstorm 19 1020 93 10000 2.6 140 19:39 12.11.2019
4550 Thunderstorm 19 1020 88 10000 2.1 150 19:19 12.11.2019
4551 Thunderstorm 19 1020 88 10000 2.1 150 19:19 12.11.2019
4552 Thunderstorm 19 1019 88 10000 2.6 160 18:58 12.11.2019
4553 Thunderstorm 19 1019 88 10000 2.6 160 18:39 12.11.2019
4554 Thunderstorm 19 1019 88 10000 5.1 150 18:21 12.11.2019
4555 Thunderstorm 19 1019 88 10000 5.1 150 18:21 12.11.2019
4556 Thunderstorm 19 1018 88 10000 6.2 180 17:57 12.11.2019
4557 Thunderstorm 19 1018 88 10000 6.2 180 17:39 12.11.2019
4558 Thunderstorm 20 1018 82 10000 7.7 220 17:21 12.11.2019
4559 Thunderstorm 22 1017 73 10000 10.3 210 16:56 12.11.2019
4560 Thunderstorm 22 1017 73 10000 10.3 210 16:38 12.11.2019
4561 Clouds 27 1015 42 10000 2.6 20 16:20 12.11.2019
4562 Clouds 28 1015 37 10000 2.6 50 15:41 12.11.2019
4563 Clouds 29 1014 37 10000 3.6 70 15:21 12.11.2019
4564 Clouds 30 1014 33 10000 2.1 80 14:56 12.11.2019
4565 Clouds 30 1015 33 10000 3.1 40 14:37 12.11.2019
4566 Clouds 30 1015 33 10000 3.1 40 14:18 12.11.2019
4567 Clouds 30 1014 33 10000 2.6 50 13:55 12.11.2019
4568 Clouds 30 1015 35 10000 3.1 60 13:36 12.11.2019
4569 Clouds 30 1015 35 10000 3.1 60 13:18 12.11.2019
4570 Clouds 30 1015 35 10000 3.1 60 13:18 12.11.2019
4571 Clouds 30 1015 37 10000 2.1 0 12:42 12.11.2019
4572 Clouds 30 1016 35 10000 2.1 0 12:19 12.11.2019
4573 Clouds 29 1016 42 10000 1.5 0 11:57 12.11.2019
4574 Clouds 29 1016 42 10000 1.5 0 11:39 12.11.2019
4575 Clouds 30 1016 37 10000 1.5 0 11:21 12.11.2019
4576 Clouds 29 1017 37 10000 2.6 120 10:55 12.11.2019
4577 Clouds 29 1017 37 10000 2.1 50 10:36 12.11.2019
4578 Clouds 29 1017 37 10000 2.1 50 10:18 12.11.2019
4579 Clouds 28 1018 37 10000 1.5 0 09:40 12.11.2019
4580 Clouds 28 1018 37 10000 1.5 0 09:20 12.11.2019
4581 Clouds 27 1018 36 10000 2.1 90 08:50 12.11.2019
4582 Clouds 26 1018 44 10000 1.5 0 08:29 12.11.2019
4583 Clouds 25 1018 50 10000 1.5 0 07:43 12.11.2019
4584 Clouds 24 1018 53 10000 2.1 0 07:25 12.11.2019
4585 Clouds 23 1018 53 10000 2.1 0 06:54 12.11.2019
4586 Clouds 22 1018 64 10000 2.1 140 06:29 12.11.2019
4587 Clouds 21 1018 73 8000 1.5 0 05:57 12.11.2019
4588 Clouds 18 1017 88 8000 1 0 04:59 12.11.2019
4589 Clouds 18 1017 88 8000 1 0 04:39 12.11.2019
4590 Clouds 16 1016 100 10000 1 360 02:48 12.11.2019
4591 Clouds 17 1016 93 10000 1 106 01:38 12.11.2019
4592 Clouds 17 1016 93 10000 0.5 0 01:18 12.11.2019
4593 Clouds 17 1016 93 10000 0.5 0 00:40 12.11.2019
4594 Clouds 17 1016 93 10000 0.5 0 00:18 12.11.2019
4595 Clouds 18 1017 88 10000 2.6 170 23:41 11.11.2019
4596 Clouds 18 1017 88 10000 2.6 170 23:20 11.11.2019
4597 Clouds 18 1017 93 10000 2.1 120 22:39 11.11.2019
4598 Clouds 19 1017 88 10000 4.1 70 22:20 11.11.2019
4599 Clouds 19 1018 88 10000 1.5 70 21:59 11.11.2019
4600 Clouds 19 1018 88 10000 1.5 70 21:39 11.11.2019
4601 Clouds 19 1018 88 10000 0.89 106 21:21 11.11.2019
4602 Clouds 19 1019 88 10000 1 0 20:59 11.11.2019
4603 Clouds 19 1019 88 10000 1 0 20:40 11.11.2019
4604 Clouds 19 1019 93 10000 2.6 210 20:20 11.11.2019
4605 Rain 19 1019 88 10000 3.1 150 19:56 11.11.2019
4606 Rain 19 1019 93 10000 3.6 110 19:37 11.11.2019
4607 Rain 19 1019 93 10000 3.6 110 19:18 11.11.2019
4608 Thunderstorm 19 1019 93 10000 3.6 100 18:41 11.11.2019
4609 Thunderstorm 18 1019 93 10000 3.1 190 18:21 11.11.2019
4610 Thunderstorm 18 1019 93 7000 3.6 110 17:46 11.11.2019
4611 Thunderstorm 18 1019 93 6000 3.6 120 17:28 11.11.2019
4612 Thunderstorm 20 1018 82 7000 5.1 200 16:59 11.11.2019
4613 Thunderstorm 20 1018 82 7000 5.1 200 16:39 11.11.2019
4614 Thunderstorm 21 1016 77 7000 6.7 170 16:20 11.11.2019
4615 Thunderstorm 19 1016 82 6000 9.8 140 15:42 11.11.2019
4616 Thunderstorm 23 1015 60 10000 7.2 210 15:20 11.11.2019
4617 Thunderstorm 28 1014 42 10000 4.1 50 14:57 11.11.2019
4618 Thunderstorm 28 1014 42 10000 4.1 50 14:39 11.11.2019
4619 Clouds 30 1014 37 10000 5.1 50 14:21 11.11.2019
4620 Clouds 31 1014 29 10000 2.1 0 13:57 11.11.2019
4621 Clouds 30 1015 30 10000 2.1 0 13:37 11.11.2019
4622 Clouds 30 1015 30 10000 2.1 0 13:37 11.11.2019
4623 Clouds 30 1015 30 10000 2.1 0 13:19 11.11.2019
4624 Clouds 30 1015 30 10000 2.6 60 12:55 11.11.2019
4625 Clouds 30 1016 37 10000 3.1 60 12:37 11.11.2019
4626 Clouds 30 1016 37 10000 3.1 60 12:19 11.11.2019
4627 Clouds 29 1016 37 10000 3.1 60 11:41 11.11.2019
4628 Clouds 29 1017 42 10000 2.6 10 11:21 11.11.2019
4629 Clouds 29 1017 42 10000 2.6 0 10:44 11.11.2019
4630 Clouds 28 1018 42 10000 2.1 0 10:20 11.11.2019
4631 Clouds 28 1018 42 10000 2.1 0 10:20 11.11.2019
4632 Clouds 28 1018 39 10000 1.5 180 09:59 11.11.2019
4633 Clouds 27 1018 47 10000 1.5 0 09:41 11.11.2019
4634 Clouds 27 1018 47 10000 1.5 0 09:20 11.11.2019
4635 Clouds 26 1019 47 10000 2.6 220 08:43 11.11.2019
4636 Clouds 26 1019 47 10000 2.1 180 08:23 11.11.2019
4637 Clouds 24 1019 64 10000 2.6 210 07:57 11.11.2019
4638 Clouds 24 1019 64 10000 2.6 210 07:57 11.11.2019
4639 Clouds 24 1019 64 10000 2.6 210 07:38 11.11.2019
4640 Clouds 23 1020 69 10000 2.1 200 07:19 11.11.2019
4641 Clouds 22 1020 68 10000 1.5 210 06:56 11.11.2019
4642 Clouds 20 1020 82 10000 1.5 210 06:37 11.11.2019
4643 Clouds 20 1020 82 10000 1.5 210 06:19 11.11.2019
4644 Clouds 20 1019 82 10000 2.1 200 05:43 11.11.2019
4645 Clouds 16 1018 100 10000 1.5 10 03:27 11.11.2019
4646 Clouds 17 1018 93 10000 1.5 0 02:30 11.11.2019
4647 Clouds 17 1017 93 10000 0.53 56 01:58 11.11.2019
4648 Clouds 17 1017 93 10000 0.53 56 01:36 11.11.2019
4649 Clouds 17 1018 93 10000 1 0 00:53 11.11.2019
4650 Clouds 17 1018 93 10000 1 0 00:33 11.11.2019
4651 Rain 18 1018 93 10000 2.6 70 23:57 10.11.2019
4652 Thunderstorm 17 1018 100 10000 3.1 80 23:37 10.11.2019
4653 Thunderstorm 17 1018 100 10000 3.1 80 23:19 10.11.2019
4654 Thunderstorm 18 1019 93 8000 3.1 50 22:55 10.11.2019
4655 Thunderstorm 17 1020 100 10000 1 0 22:36 10.11.2019
4656 Thunderstorm 17 1020 100 10000 1 0 22:18 10.11.2019
4657 Thunderstorm 17 1020 93 9000 3.1 200 21:54 10.11.2019
4658 Thunderstorm 17 1020 93 8000 1 0 21:36 10.11.2019
4659 Thunderstorm 17 1020 93 8000 1 0 21:18 10.11.2019
4660 Thunderstorm 17 1020 93 9000 2.6 60 20:39 10.11.2019
4661 Thunderstorm 17 1021 93 8000 3.1 50 20:21 10.11.2019
4662 Thunderstorm 18 1020 88 10000 3.1 70 19:55 10.11.2019
4663 Thunderstorm 18 1020 88 10000 3.1 70 19:37 10.11.2019
4664 Thunderstorm 18 1020 88 10000 4.6 60 19:18 10.11.2019
4665 Thunderstorm 18 1020 88 10000 4.6 60 19:18 10.11.2019
4666 Thunderstorm 18 1020 93 10000 6.2 100 18:56 10.11.2019
4667 Thunderstorm 18 1020 93 10000 6.2 100 18:56 10.11.2019
4668 Thunderstorm 18 1020 93 10000 6.2 100 18:38 10.11.2019
4669 Thunderstorm 18 1020 88 4500 3.6 0 18:19 10.11.2019
4670 Thunderstorm 23 1019 69 10000 5.7 170 17:55 10.11.2019
4671 Thunderstorm 23 1019 69 10000 5.1 120 17:37 10.11.2019
4672 Thunderstorm 23 1019 69 10000 5.1 120 17:19 10.11.2019
4673 Clouds 24 1018 60 10000 6.7 90 16:44 10.11.2019
4674 Clouds 25 1017 53 10000 6.7 90 16:26 10.11.2019
4675 Clouds 26 1017 47 10000 6.7 90 15:57 10.11.2019
4676 Clouds 26 1017 47 10000 6.7 90 15:38 10.11.2019
4677 Clouds 26 1016 47 10000 6.7 90 15:19 10.11.2019
4678 Clouds 28 1016 39 10000 5.7 100 14:59 10.11.2019
4679 Clouds 28 1016 39 10000 5.7 100 14:39 10.11.2019
4680 Clouds 28 1016 39 10000 4.6 100 14:21 10.11.2019
4681 Clouds 29 1015 35 10000 3.6 130 13:56 10.11.2019
4682 Clouds 29 1015 35 10000 3.6 130 13:38 10.11.2019
4683 Clouds 30 1016 33 10000 2.6 30 13:19 10.11.2019
4684 Clouds 29 1016 35 10000 3.6 70 12:41 10.11.2019
4685 Clouds 31 1017 33 10000 3.6 80 12:20 10.11.2019
4686 Clouds 31 1017 27 10000 2.6 0 11:57 10.11.2019
4687 Clouds 31 1017 27 10000 2.6 0 11:38 10.11.2019
4688 Clouds 30 1017 30 10000 2.6 0 11:20 10.11.2019
4689 Clouds 30 1018 30 10000 3.6 160 10:42 10.11.2019
4690 Clouds 29 1018 32 10000 2.6 0 10:22 10.11.2019
4691 Clouds 29 1019 35 10000 2.1 0 09:59 10.11.2019
4692 Clouds 29 1019 35 10000 2.1 0 09:40 10.11.2019
4693 Clouds 28 1019 37 10000 3.6 160 09:21 10.11.2019
4694 Clouds 27 1019 42 10000 3.1 160 08:40 10.11.2019
4695 Clouds 26 1020 44 10000 4.1 120 08:21 10.11.2019
4696 Clouds 25 1020 50 8000 2.1 0 07:53 10.11.2019
4697 Clouds 24 1020 57 8000 3.1 160 07:34 10.11.2019
4698 Clouds 23 1021 60 8000 2.6 130 06:59 10.11.2019
4699 Clouds 22 1021 64 8000 2.6 160 06:21 10.11.2019
4700 Clouds 18 1020 88 8000 3.6 80 03:38 10.11.2019
4701 Clouds 18 1019 88 10000 2.1 60 02:30 10.11.2019
4702 Clouds 19 1019 82 10000 1.5 50 01:37 10.11.2019
4703 Clouds 19 1019 82 10000 1.5 50 01:18 10.11.2019
4704 Clouds 20 1019 82 10000 2.1 100 00:23 10.11.2019
4705 Clouds 20 1019 82 10000 2.1 100 00:23 10.11.2019
4706 Clouds 20 1020 77 10000 2.6 70 23:40 09.11.2019
4707 Clouds 20 1020 82 10000 2.6 80 23:19 09.11.2019
4708 Clouds 20 1020 82 10000 2.6 80 22:42 09.11.2019
4709 Clouds 20 1021 77 10000 2.6 70 22:22 09.11.2019
4710 Clouds 20 1021 77 10000 2.6 70 21:58 09.11.2019
4711 Clouds 20 1021 77 10000 2.6 70 21:39 09.11.2019
4712 Clouds 21 1021 73 10000 2.1 50 21:20 09.11.2019
4713 Clouds 21 1021 73 10000 2.6 90 20:56 09.11.2019
4714 Clouds 21 1021 73 10000 2.6 120 20:37 09.11.2019
4715 Clouds 21 1021 73 10000 2.6 120 20:18 09.11.2019
4716 Clouds 22 1021 64 10000 3.1 120 19:41 09.11.2019
4717 Clouds 22 1021 68 10000 3.1 110 19:22 09.11.2019
4718 Clouds 23 1021 60 10000 2.6 120 18:58 09.11.2019
4719 Clouds 23 1021 60 10000 3.6 90 18:38 09.11.2019
4720 Clouds 23 1021 60 10000 3.6 90 18:18 09.11.2019
4721 Clouds 24 1020 53 10000 4.1 100 17:43 09.11.2019
4722 Clouds 25 1020 50 10000 4.6 100 17:23 09.11.2019
4723 Clouds 25 1020 50 10000 5.7 100 16:57 09.11.2019
4724 Clouds 25 1020 50 10000 5.7 100 16:39 09.11.2019
4725 Clouds 26 1019 47 10000 6.2 120 16:19 09.11.2019
4726 Clouds 27 1018 39 10000 7.2 120 15:42 09.11.2019
4727 Clouds 27 1018 39 10000 7.2 120 15:23 09.11.2019
4728 Clouds 27 1018 39 10000 7.2 120 15:23 09.11.2019
4729 Clouds 28 1018 32 10000 5.1 130 14:47 09.11.2019
4730 Clouds 30 1018 27 10000 4.1 120 14:24 09.11.2019
4731 Clouds 30 1018 27 10000 4.1 120 14:24 09.11.2019
4732 Clouds 31 1017 23 10000 5.1 130 13:58 09.11.2019
4733 Clouds 31 1017 23 10000 5.1 130 13:40 09.11.2019
4734 Clouds 32 1018 24 10000 4.1 140 13:21 09.11.2019
4735 Clouds 32 1018 21 10000 5.1 110 12:59 09.11.2019
4736 Clouds 32 1018 21 10000 5.1 110 12:40 09.11.2019
4737 Clouds 31 1019 25 10000 1.5 0 12:22 09.11.2019
4738 Clouds 31 1019 25 10000 1.5 0 11:54 09.11.2019
4739 Clouds 31 1019 25 10000 1.5 0 11:36 09.11.2019
4740 Clouds 31 1019 25 10000 1.5 0 11:18 09.11.2019
4741 Clouds 30 1020 27 10000 2.6 0 10:39 09.11.2019
4742 Clouds 29 1020 30 10000 2.6 170 10:19 09.11.2019
4743 Clouds 29 1020 30 10000 2.6 170 10:19 09.11.2019
4744 Clouds 28 1021 30 10000 3.1 0 09:45 09.11.2019
4745 Clouds 28 1021 28 10000 2.1 0 09:27 09.11.2019
4746 Clouds 27 1021 34 10000 1.5 0 08:58 09.11.2019
4747 Clouds 27 1021 34 10000 1.5 0 08:58 09.11.2019
4748 Clouds 27 1021 34 10000 1.5 0 08:39 09.11.2019
4749 Clouds 25 1022 50 10000 2.1 180 08:19 09.11.2019
4750 Clouds 24 1022 60 10000 2.1 120 07:45 09.11.2019
4751 Clouds 23 1022 64 10000 2.6 130 07:23 09.11.2019
4752 Clouds 22 1023 64 10000 1.5 0 06:49 09.11.2019
4753 Clouds 21 1023 68 10000 1.5 0 06:30 09.11.2019
4754 Clouds 18 1023 82 10000 1 0 05:43 09.11.2019
4755 Clouds 17 1022 88 7000 1.5 60 04:58 09.11.2019
4756 Clouds 16 1022 93 8000 1.5 70 03:37 09.11.2019
4757 Clouds 16 1021 100 10000 1.5 60 02:43 09.11.2019
4758 Clouds 16 1021 93 10000 0.5 0 01:55 09.11.2019
4759 Clouds 16 1021 93 10000 1.5 0 00:51 09.11.2019
4760 Clouds 16 1021 100 10000 2.1 70 00:31 09.11.2019
4761 Clouds 16 1021 93 10000 1 60 23:57 08.11.2019
4762 Clouds 16 1021 93 10000 1 60 23:38 08.11.2019
4763 Clouds 16 1021 93 10000 1.5 80 23:19 08.11.2019
4764 Clouds 17 1022 93 10000 2.6 90 22:47 08.11.2019
4765 Clouds 17 1022 93 10000 1.5 0 22:22 08.11.2019
4766 Clouds 18 1023 88 10000 3.1 80 21:56 08.11.2019
4767 Clouds 18 1023 88 10000 3.1 80 21:38 08.11.2019
4768 Clouds 18 1023 88 10000 3.1 80 21:18 08.11.2019
4769 Clouds 18 1023 88 10000 2.1 70 20:41 08.11.2019
4770 Clouds 19 1023 82 10000 3.1 90 20:21 08.11.2019
4771 Clouds 20 1023 77 10000 3.1 80 19:58 08.11.2019
4772 Clouds 20 1023 77 10000 3.1 80 19:58 08.11.2019
4773 Clouds 20 1023 77 10000 3.1 80 19:38 08.11.2019
4774 Clouds 20 1023 77 10000 3.1 80 19:38 08.11.2019
4775 Clouds 20 1023 77 10000 3.1 80 19:18 08.11.2019
4776 Clouds 20 1023 77 10000 3.1 80 18:55 08.11.2019
4777 Clouds 21 1023 68 10000 4.1 80 18:37 08.11.2019
4778 Clouds 21 1023 68 10000 4.1 80 18:19 08.11.2019
4779 Clouds 22 1023 64 10000 5.7 90 17:55 08.11.2019
4780 Clouds 22 1022 64 10000 4.6 80 17:36 08.11.2019
4781 Clouds 22 1022 64 10000 4.6 80 17:18 08.11.2019
4782 Clouds 23 1022 60 10000 4.6 90 16:57 08.11.2019
4783 Clouds 24 1022 53 10000 5.1 120 16:39 08.11.2019
4784 Clouds 24 1022 53 10000 5.1 120 16:19 08.11.2019
4785 Clouds 27 1021 42 10000 7.2 100 15:56 08.11.2019
4786 Clouds 27 1021 42 10000 7.2 100 15:38 08.11.2019
4787 Clouds 27 1021 42 10000 7.2 100 15:38 08.11.2019
4788 Clouds 27 1021 42 10000 7.2 100 15:19 08.11.2019
4789 Clouds 29 1020 28 10000 3.6 90 14:55 08.11.2019
4790 Clouds 29 1020 28 10000 3.6 90 14:36 08.11.2019
4791 Clouds 29 1020 28 10000 3.6 90 14:36 08.11.2019
4792 Clouds 29 1020 28 10000 3.6 90 14:18 08.11.2019
4793 Clouds 29 1020 28 10000 3.6 90 14:18 08.11.2019
4794 Clouds 29 1020 26 10000 3.6 0 13:42 08.11.2019
4795 Clouds 29 1021 26 10000 3.6 70 13:22 08.11.2019
4796 Clouds 29 1021 26 10000 3.6 70 13:22 08.11.2019
4797 Clouds 29 1021 26 10000 3.6 70 12:57 08.11.2019
4798 Clouds 29 1021 26 10000 3.6 70 12:39 08.11.2019
4799 Clouds 29 1021 26 10000 3.1 0 12:21 08.11.2019
4800 Clouds 29 1021 30 10000 4.1 90 11:55 08.11.2019
4801 Clouds 28 1021 32 10000 3.6 90 11:37 08.11.2019
4802 Clouds 28 1021 32 10000 3.6 90 11:37 08.11.2019
4803 Clouds 28 1021 32 10000 3.6 90 11:19 08.11.2019
4804 Clouds 28 1022 34 10000 4.1 90 10:42 08.11.2019
4805 Clouds 28 1022 37 10000 4.1 110 10:22 08.11.2019
4806 Clouds 28 1023 34 10000 3.6 100 09:58 08.11.2019
4807 Clouds 28 1023 34 10000 3.6 100 09:39 08.11.2019
4808 Clouds 28 1023 30 10000 4.1 80 09:19 08.11.2019
4809 Clouds 26 1023 39 10000 4.1 50 08:46 08.11.2019
4810 Clouds 25 1024 44 10000 2.6 0 08:23 08.11.2019
4811 Clouds 25 1024 47 10000 2.1 0 07:56 08.11.2019
4812 Clouds 22 1024 56 10000 2.6 140 07:37 08.11.2019
4813 Clouds 22 1024 56 10000 2.6 140 07:19 08.11.2019
4814 Clouds 21 1024 60 10000 3.1 140 06:38 08.11.2019
4815 Clouds 19 1024 63 10000 3.1 130 06:19 08.11.2019
4816 Clouds 17 1024 72 10000 2.1 90 05:38 08.11.2019
4817 Clouds 15 1023 82 10000 2.1 140 04:30 08.11.2019
4818 Clouds 14 1023 82 10000 2.1 130 03:43 08.11.2019
4819 Clouds 14 1023 87 10000 2.6 140 03:19 08.11.2019
4820 Clouds 14 1023 87 10000 2.6 140 01:57 08.11.2019
4821 Clouds 14 1023 87 10000 4.1 110 01:37 08.11.2019
4822 Clouds 14 1023 87 10000 3.6 120 00:49 08.11.2019
4823 Clouds 15 1023 82 10000 3.1 80 00:23 08.11.2019
4824 Clouds 15 1023 82 10000 3.1 80 23:52 07.11.2019
4825 Clouds 15 1023 82 10000 3.1 90 23:33 07.11.2019
4826 Clouds 16 1023 82 10000 4.1 90 22:58 07.11.2019
4827 Clouds 16 1023 82 10000 4.1 90 22:40 07.11.2019
4828 Clouds 15 1024 87 10000 3.6 100 22:21 07.11.2019
4829 Clouds 16 1024 82 7000 5.1 110 21:40 07.11.2019
4830 Clouds 16 1024 82 7000 5.1 100 21:21 07.11.2019
4831 Clouds 16 1025 82 7000 4.1 100 20:59 07.11.2019
4832 Clouds 16 1025 82 7000 4.1 100 20:41 07.11.2019
4833 Clouds 17 1024 82 7000 4.6 90 20:23 07.11.2019
4834 Clouds 17 1024 77 7000 5.7 110 19:59 07.11.2019
4835 Clouds 17 1024 77 7000 5.7 110 19:40 07.11.2019
4836 Clouds 18 1024 72 7000 5.1 90 19:21 07.11.2019
4837 Clouds 19 1024 63 7000 5.1 100 18:58 07.11.2019
4838 Clouds 19 1024 63 7000 5.1 100 18:58 07.11.2019
4839 Clouds 19 1024 63 7000 5.1 100 18:39 07.11.2019
4840 Clouds 19 1024 63 7000 5.1 100 18:39 07.11.2019
4841 Clouds 19 1023 59 7000 5.1 110 18:19 07.11.2019
4842 Clouds 20 1023 56 7000 5.7 100 17:57 07.11.2019
4843 Clouds 20 1023 56 7000 5.7 100 17:38 07.11.2019
4844 Clouds 21 1023 52 10000 5.7 90 17:20 07.11.2019
4845 Clouds 22 1022 49 10000 5.7 90 16:55 07.11.2019
4846 Clouds 22 1022 49 10000 5.7 90 16:55 07.11.2019
4847 Clouds 22 1022 49 10000 5.7 90 16:37 07.11.2019
4848 Clouds 23 1022 46 10000 7.2 100 16:19 07.11.2019
4849 Clouds 24 1021 41 10000 5.7 120 15:43 07.11.2019
4850 Clouds 26 1021 36 10000 6.7 110 15:21 07.11.2019
4851 Clouds 26 1021 34 10000 6.7 110 14:59 07.11.2019
4852 Clouds 26 1021 34 10000 6.7 110 14:39 07.11.2019
4853 Clouds 27 1020 30 10000 4.6 130 14:21 07.11.2019
4854 Clouds 28 1020 28 10000 6.2 120 13:55 07.11.2019
4855 Clouds 28 1020 28 10000 6.2 120 13:37 07.11.2019
4856 Clouds 28 1021 26 10000 5.7 130 13:19 07.11.2019
4857 Clouds 28 1021 30 10000 6.2 140 12:57 07.11.2019
4858 Clouds 28 1021 30 10000 6.2 140 12:38 07.11.2019
4859 Clouds 28 1021 30 10000 5.7 110 12:18 07.11.2019
4860 Clouds 28 1021 30 10000 5.1 150 11:42 07.11.2019
4861 Clouds 28 1021 30 10000 5.1 150 11:42 07.11.2019
4862 Clouds 27 1022 34 10000 5.1 170 11:23 07.11.2019
4863 Clouds 27 1022 34 10000 5.1 120 10:44 07.11.2019
4864 Clouds 26 1022 39 10000 5.7 110 10:20 07.11.2019
4865 Clouds 25 1023 41 10000 5.1 140 09:58 07.11.2019
4866 Clouds 25 1023 41 10000 5.1 140 09:40 07.11.2019
4867 Clouds 25 1023 41 10000 5.1 140 09:40 07.11.2019
4868 -273 0 0 0 0 0 09:20 07.11.2019
4869 -273 0 0 0 0 0 08:47 07.11.2019
4870 Clouds 25 1023 41 10000 6.2 150 08:46 07.11.2019
4871 -273 0 0 0 0 0 08:46 07.11.2019
4872 -273 0 0 0 0 0 08:45 07.11.2019
4873 -273 0 0 0 0 0 08:25 07.11.2019
4874 -273 0 0 0 0 0 08:24 07.11.2019
4875 Clouds 23 1024 49 10000 5.7 110 07:58 07.11.2019
4876 Clouds 23 1024 49 10000 5.7 110 07:40 07.11.2019
4877 -273 0 0 0 0 0 07:21 07.11.2019
4878 Clouds 22 1024 53 10000 5.7 130 06:46 07.11.2019
4879 Clouds 20 1024 60 10000 5.7 120 06:27 07.11.2019
4880 Clouds 20 1024 60 10000 5.7 120 06:26 07.11.2019
4881 Clouds 18 1024 68 10000 5.7 140 05:51 07.11.2019
4882 Clouds 18 1023 72 10000 5.7 90 05:32 07.11.2019
4883 Clouds 18 1023 72 10000 5.7 90 05:32 07.11.2019
4884 Clouds 18 1023 72 10000 3.6 130 04:53 07.11.2019
4885 Clouds 18 1023 72 10000 3.6 130 04:52 07.11.2019
4886 Clouds 18 1023 72 10000 3.6 130 04:52 07.11.2019
4887 Clouds 17 1023 77 10000 3.1 120 04:29 07.11.2019
4888 Clouds 16 1021 82 10000 5.1 110 01:30 07.11.2019
4889 Clouds 16 1021 82 10000 5.1 110 01:29 07.11.2019
4890 Clouds 16 1022 82 10000 5.1 110 00:32 07.11.2019
4891 Clouds 16 1022 87 10000 4.6 100 23:59 06.11.2019
4892 Clouds 16 1022 87 10000 4.6 100 23:40 06.11.2019
4893 Clouds 17 1022 82 10000 5.1 110 23:20 06.11.2019
4894 Clouds 17 1022 82 10000 5.1 110 22:40 06.11.2019
4895 Clouds 17 1023 82 10000 5.1 100 22:21 06.11.2019
4896 Clouds 17 1023 88 10000 4.6 100 21:58 06.11.2019
4897 Clouds 17 1023 88 10000 4.6 100 21:39 06.11.2019
4898 Clouds 18 1023 82 10000 4.6 90 21:20 06.11.2019
4899 Clouds 18 1023 82 10000 4.6 90 20:57 06.11.2019
4900 Clouds 18 1023 82 10000 4.6 90 20:39 06.11.2019
4901 Clouds 18 1023 82 10000 4.6 90 20:39 06.11.2019
4902 Clouds 19 1023 77 10000 4.6 90 20:20 06.11.2019
4903 Clouds 19 1023 77 10000 5.7 100 19:56 06.11.2019
4904 Clouds 19 1023 77 10000 5.7 100 19:36 06.11.2019
4905 Clouds 19 1023 77 10000 5.7 100 19:18 06.11.2019
4906 Clouds 20 1023 77 10000 5.1 100 18:55 06.11.2019
4907 Clouds 20 1023 72 10000 4.6 90 18:36 06.11.2019
4908 Clouds 20 1023 72 10000 4.6 90 18:18 06.11.2019
4909 Clouds 21 1022 68 10000 5.7 90 17:42 06.11.2019
4910 Clouds 22 1022 60 10000 7.2 80 17:23 06.11.2019
4911 Clouds 23 1021 53 10000 6.2 100 16:57 06.11.2019
4912 Clouds 23 1021 53 10000 6.2 100 16:39 06.11.2019
4913 Clouds 23 1021 53 10000 6.2 100 16:39 06.11.2019
4914 Clouds 24 1020 47 10000 7.2 90 16:21 06.11.2019
4915 Clouds 25 1019 41 10000 7.2 100 15:57 06.11.2019
4916 Clouds 26 1019 36 10000 6.7 110 15:37 06.11.2019
4917 Clouds 26 1019 36 10000 6.7 110 15:19 06.11.2019
4918 Clouds 28 1019 32 10000 6.2 110 14:57 06.11.2019
4919 Clouds 28 1019 32 10000 6.2 110 14:39 06.11.2019
4920 Clouds 28 1019 30 10000 5.1 110 14:20 06.11.2019
4921 Clouds 29 1019 26 10000 4.1 140 13:58 06.11.2019
4922 Clouds 29 1020 28 10000 3.1 120 13:37 06.11.2019
4923 Clouds 29 1020 28 10000 3.1 120 13:18 06.11.2019
4924 Clouds 29 1020 28 10000 3.6 120 12:55 06.11.2019
4925 Clouds 28 1020 32 10000 5.1 100 12:37 06.11.2019
4926 Clouds 28 1020 32 10000 5.1 100 12:18 06.11.2019
4927 Clouds 29 1020 32 10000 3.6 120 11:55 06.11.2019
4928 Clouds 28 1020 34 10000 5.1 90 11:36 06.11.2019
4929 Clouds 28 1020 34 10000 5.1 90 11:18 06.11.2019
4930 Clouds 27 1021 34 10000 5.1 120 10:42 06.11.2019
4931 Clouds 27 1021 36 10000 57.1 110 10:24 06.11.2019
4932 Clouds 27 1021 36 10000 57.1 110 10:24 06.11.2019
4933 Clouds 26 1022 41 10000 4.1 130 09:58 06.11.2019
4934 Clouds 26 1022 41 10000 4.1 130 09:39 06.11.2019
4935 Clouds 26 1022 39 10000 3.6 130 09:20 06.11.2019
4936 Clouds 25 1023 44 10000 3.1 140 08:55 06.11.2019
4937 Clouds 24 1023 50 10000 3.6 130 08:37 06.11.2019
4938 Clouds 24 1023 50 10000 3.6 130 08:18 06.11.2019
4939 Clouds 23 1023 53 10000 3.1 150 07:44 06.11.2019
4940 Clouds 22 1023 56 10000 4.1 120 07:26 06.11.2019
4941 Clouds 21 1023 60 10000 3.1 110 06:48 06.11.2019
4942 Clouds 19 1023 68 10000 3.1 150 06:30 06.11.2019
4943 Clouds 19 1023 68 10000 3.1 120 05:37 06.11.2019
4944 Clouds 15 1022 87 10000 2.1 160 03:22 06.11.2019
4945 Clouds 15 1022 87 10000 2.1 120 01:41 06.11.2019
4946 Clouds 15 1022 93 10000 2.1 80 00:46 06.11.2019
4947 Clouds 16 1022 87 10000 3.1 130 23:59 05.11.2019
4948 Clouds 16 1022 87 10000 3.1 130 23:40 05.11.2019
4949 Clouds 16 1022 87 10000 3.1 130 23:21 05.11.2019
4950 Clouds 17 1023 82 10000 3.6 110 22:55 05.11.2019
4951 Clouds 17 1023 88 10000 3.1 90 22:37 05.11.2019
4952 Clouds 17 1023 88 10000 3.1 90 22:18 05.11.2019
4953 Clouds 17 1023 88 10000 2.6 80 21:42 05.11.2019
4954 Clouds 18 1023 82 10000 3.1 90 21:21 05.11.2019
4955 Clouds 18 1023 82 10000 5.1 80 20:59 05.11.2019
4956 Clouds 18 1023 82 10000 5.1 80 20:39 05.11.2019
4957 Clouds 19 1023 82 10000 4.1 100 20:20 05.11.2019
4958 Clouds 19 1023 82 10000 5.1 90 19:58 05.11.2019
4959 Clouds 19 1023 82 10000 5.1 90 19:38 05.11.2019
4960 Clouds 19 1023 82 10000 4.6 100 19:20 05.11.2019
4961 Clouds 20 1023 77 10000 4.6 120 18:57 05.11.2019
4962 Clouds 20 1023 77 10000 4.6 120 18:39 05.11.2019
4963 Clouds 20 1023 77 10000 4.6 120 18:39 05.11.2019
4964 Clouds 20 1023 77 10000 5.7 100 18:20 05.11.2019
4965 Clouds 21 1022 73 10000 6.2 110 17:58 05.11.2019
4966 Clouds 21 1022 73 10000 6.2 110 17:39 05.11.2019
4967 Clouds 21 1022 73 10000 7.7 110 17:18 05.11.2019
4968 Clouds 22 1021 68 10000 7.7 110 16:55 05.11.2019
4969 Clouds 24 1020 60 10000 7.7 110 16:37 05.11.2019
4970 Clouds 24 1020 60 10000 7.7 110 16:18 05.11.2019
4971 Clouds 27 1019 44 10000 8.7 110 15:38 05.11.2019
4972 Clouds 27 1019 44 10000 8.7 110 15:19 05.11.2019
4973 Clouds 29 1019 28 10000 5.1 90 14:58 05.11.2019
4974 Clouds 29 1019 28 10000 5.1 90 14:39 05.11.2019
4975 Clouds 30 1019 27 10000 5.1 110 14:21 05.11.2019
4976 Clouds 30 1019 27 10000 3.6 110 13:44 05.11.2019
4977 Clouds 30 1019 25 10000 5.1 110 13:25 05.11.2019
4978 Clouds 30 1019 25 10000 3.6 100 12:59 05.11.2019
4979 Clouds 30 1019 25 10000 3.1 110 12:39 05.11.2019
4980 Clouds 30 1019 25 10000 3.6 100 12:39 05.11.2019
4981 Clouds 30 1019 25 10000 3.1 110 12:20 05.11.2019
4982 Clouds 30 1020 27 10000 4.1 130 11:55 05.11.2019
4983 Clouds 30 1020 27 10000 3.1 190 11:36 05.11.2019
4984 Clouds 30 1020 27 10000 3.1 190 11:18 05.11.2019
4985 Clouds 29 1021 26 10000 3.1 100 10:42 05.11.2019
4986 Clouds 28 1021 30 10000 2.1 0 10:23 05.11.2019
4987 Clouds 28 1021 30 10000 2.1 0 10:23 05.11.2019
4988 Clouds 28 1022 32 10000 3.1 0 09:57 05.11.2019
4989 Clouds 27 1022 32 10000 3.1 0 09:38 05.11.2019
4990 Clouds 27 1022 32 10000 3.1 0 09:19 05.11.2019
4991 Clouds 26 1023 39 10000 2.1 180 08:40 05.11.2019
4992 Clouds 25 1023 44 10000 2.6 0 08:20 05.11.2019
4993 Clouds 24 1023 50 10000 1.5 0 07:59 05.11.2019
4994 Clouds 24 1023 50 10000 1.5 0 07:40 05.11.2019
4995 Clouds 23 1023 56 10000 2.1 170 07:22 05.11.2019
4996 Clouds 21 1024 64 10000 2.1 220 06:50 05.11.2019
4997 Clouds 20 1024 68 10000 2.1 160 05:51 05.11.2019
4998 Clouds 19 1023 72 10000 1.5 0 05:24 05.11.2019
4999 Clouds 16 1023 87 10000 1 0 04:38 05.11.2019
5000 Clouds 14 1022 93 10000 1.5 60 03:56 05.11.2019
5001 Clouds 14 1022 93 10000 1 0 02:51 05.11.2019
5002 Clouds 14 1022 93 10000 1.5 70 02:29 05.11.2019
5003 Clouds 14 1022 93 10000 1.5 70 02:29 05.11.2019
5004 Clouds 15 1022 87 10000 2.1 70 01:25 05.11.2019
5005 Clouds 15 1022 87 10000 2.6 80 00:38 05.11.2019
5006 Clouds 15 1022 87 10000 2.6 80 00:38 05.11.2019
5007 Clouds 15 1022 93 10000 2.1 40 23:57 04.11.2019
5008 Clouds 16 1022 87 10000 3.6 60 23:37 04.11.2019
5009 Clouds 16 1022 87 10000 3.6 60 23:18 04.11.2019
5010 Clouds 16 1022 87 10000 3.6 60 23:18 04.11.2019
5011 Clouds 16 1023 87 10000 2.1 70 22:42 04.11.2019
5012 Clouds 16 1023 87 10000 2.1 70 22:24 04.11.2019
5013 Clouds 16 1023 87 10000 1.5 60 21:56 04.11.2019
5014 Clouds 16 1023 87 10000 1.5 60 21:56 04.11.2019
5015 Clouds 16 1023 87 10000 1.5 60 21:38 04.11.2019
5016 Clouds 17 1023 88 10000 3.6 100 21:19 04.11.2019
5017 Clouds 17 1024 88 10000 3.6 110 20:59 04.11.2019
5018 Clouds 17 1024 88 10000 3.6 110 20:40 04.11.2019
5019 Clouds 17 1024 88 10000 3.1 100 20:21 04.11.2019
5020 Clouds 17 1024 88 10000 3.1 100 20:21 04.11.2019
5021 Clouds 18 1024 82 10000 4.1 100 19:59 04.11.2019
5022 Clouds 18 1024 82 10000 4.1 100 19:41 04.11.2019
5023 Clouds 18 1024 82 10000 4.1 110 19:21 04.11.2019
5024 Clouds 19 1023 77 10000 5.1 110 18:57 04.11.2019
5025 Clouds 19 1023 77 10000 5.1 110 18:39 04.11.2019
5026 Clouds 20 1023 68 10000 5.1 110 18:19 04.11.2019
5027 Clouds 20 1023 68 10000 5.7 110 17:40 04.11.2019
5028 Clouds 21 1022 64 10000 5.1 110 17:21 04.11.2019
5029 Clouds 22 1022 60 10000 6.2 100 16:59 04.11.2019
5030 Clouds 22 1022 60 10000 6.2 100 16:40 04.11.2019
5031 Clouds 22 1022 60 10000 5.7 120 16:22 04.11.2019
5032 Clouds 23 1021 56 10000 7.2 110 15:56 04.11.2019
5033 Clouds 23 1021 56 10000 7.2 110 15:38 04.11.2019
5034 Clouds 25 1021 47 10000 6.7 100 15:19 04.11.2019
5035 Clouds 26 1020 39 10000 5.1 100 14:56 04.11.2019
5036 Clouds 27 1020 36 10000 4.1 140 14:37 04.11.2019
5037 Clouds 27 1020 36 10000 4.1 140 14:18 04.11.2019
5038 Clouds 27 1020 36 10000 6.7 100 13:54 04.11.2019
5039 Clouds 27 1020 36 10000 4.1 120 13:36 04.11.2019
5040 Clouds 27 1020 36 10000 4.1 120 13:18 04.11.2019
5041 Clouds 28 1021 37 10000 3.6 120 12:41 04.11.2019
5042 Clouds 28 1021 37 10000 3.6 120 12:23 04.11.2019
5043 Clouds 26 1021 41 10000 4.1 130 11:57 04.11.2019
5044 Clouds 27 1021 39 10000 3.6 140 11:38 04.11.2019
5045 Clouds 27 1021 39 10000 3.6 140 11:20 04.11.2019
5046 Clouds 27 1022 39 10000 4.6 120 10:44 04.11.2019
5047 Clouds 27 1022 39 10000 3.6 160 10:25 04.11.2019
5048 Clouds 26 1023 44 10000 4.1 140 09:54 04.11.2019
5049 Clouds 26 1023 41 10000 4.1 130 09:36 04.11.2019
5050 Clouds 26 1023 41 10000 4.1 130 09:18 04.11.2019
5051 Clouds 24 1024 47 10000 3.6 110 08:41 04.11.2019
5052 Clouds 24 1024 47 10000 3.6 110 08:21 04.11.2019
5053 Clouds 23 1024 49 10000 3.1 90 07:45 04.11.2019
5054 Clouds 23 1024 49 10000 3.1 80 07:25 04.11.2019
5055 Clouds 21 1024 60 10000 2.1 70 06:59 04.11.2019
5056 Clouds 20 1024 64 10000 2.1 0 06:36 04.11.2019
5057 Clouds 19 1024 63 10000 3.1 80 05:59 04.11.2019
5058 Clouds 17 1023 77 10000 3.6 90 04:45 04.11.2019
5059 Clouds 15 1023 87 10000 2.6 90 04:23 04.11.2019
5060 Clouds 15 1022 82 10000 2.6 140 02:44 04.11.2019
5061 Clouds 16 1022 82 10000 4.6 110 01:22 04.11.2019
5062 Clouds 16 1022 82 10000 3.6 90 00:49 04.11.2019
5063 Clouds 16 1022 82 10000 4.1 110 00:21 04.11.2019
5064 Clouds 16 1022 87 10000 4.1 100 23:44 03.11.2019
5065 Clouds 16 1022 87 10000 3.6 90 23:22 03.11.2019
5066 Clouds 16 1023 87 10000 3.6 120 22:59 03.11.2019
5067 Clouds 16 1023 87 10000 3.6 120 22:41 03.11.2019
5068 Clouds 16 1023 87 10000 3.1 150 22:21 03.11.2019
5069 Clouds 16 1023 87 10000 3.1 140 21:58 03.11.2019
5070 Clouds 16 1023 87 10000 3.1 140 21:40 03.11.2019
5071 Clouds 16 1023 87 10000 3.6 110 21:20 03.11.2019
5072 Clouds 16 1024 87 10000 4.6 100 20:56 03.11.2019
5073 Clouds 17 1024 82 10000 3.6 100 20:36 03.11.2019
5074 Clouds 17 1024 82 10000 3.6 100 20:18 03.11.2019
5075 Clouds 17 1023 82 10000 4.1 100 19:56 03.11.2019
5076 Clouds 17 1023 82 10000 4.1 120 19:37 03.11.2019
5077 Clouds 17 1023 82 10000 4.1 120 19:19 03.11.2019
5078 Clouds 18 1023 77 10000 4.1 140 18:39 03.11.2019
5079 Clouds 19 1022 72 10000 4.6 140 18:19 03.11.2019
5080 Clouds 19 1022 72 10000 6.2 100 17:58 03.11.2019
5081 Clouds 19 1022 72 10000 6.2 100 17:40 03.11.2019
5082 Clouds 20 1022 64 10000 6.2 110 17:19 03.11.2019
5083 Clouds 21 1021 60 10000 8.2 100 16:55 03.11.2019
5084 Clouds 22 1021 56 10000 6.7 110 16:37 03.11.2019
5085 Clouds 22 1021 56 10000 6.7 110 16:19 03.11.2019
5086 Clouds 23 1020 46 10000 6.7 90 15:56 03.11.2019
5087 Clouds 23 1020 46 10000 6.7 90 15:38 03.11.2019
5088 Clouds 24 1019 44 10000 4.6 130 15:20 03.11.2019
5089 Clouds 26 1019 36 10000 3.1 150 14:40 03.11.2019
5090 Clouds 27 1019 34 10000 1.5 0 14:19 03.11.2019
5091 Clouds 27 1019 34 10000 1.5 0 14:19 03.11.2019
5092 Clouds 27 1019 34 10000 1.5 0 14:19 03.11.2019
5093 Clouds 27 1019 34 10000 2.6 0 13:55 03.11.2019
5094 Clouds 27 1020 34 10000 1.5 0 13:36 03.11.2019
5095 Clouds 27 1020 34 10000 1.5 0 13:18 03.11.2019
5096 Clouds 27 1020 30 10000 2.6 0 12:38 03.11.2019
5097 Clouds 27 1020 30 10000 2.6 0 12:19 03.11.2019
5098 Clouds 26 1021 39 10000 3.6 130 11:56 03.11.2019
5099 Clouds 26 1021 39 10000 3.6 130 11:37 03.11.2019
5100 Clouds 26 1021 39 10000 3.6 130 11:19 03.11.2019
5101 Clouds 25 1021 41 10000 4.1 0 10:40 03.11.2019
5102 Clouds 25 1022 44 10000 4.1 130 10:22 03.11.2019
5103 Clouds 25 1022 44 10000 4.1 130 10:22 03.11.2019
5104 Clouds 25 1022 44 10000 4.1 130 10:22 03.11.2019
5105 Clouds 24 1022 44 10000 3.6 130 09:57 03.11.2019
5106 Clouds 24 1022 44 10000 3.6 130 09:39 03.11.2019
5107 Clouds 24 1022 44 10000 3.6 130 09:39 03.11.2019
5108 Clouds 23 1023 49 10000 4.6 110 09:21 03.11.2019
5109 Clouds 23 1023 49 10000 4.1 90 08:42 03.11.2019
5110 Clouds 22 1023 53 10000 4.1 110 08:24 03.11.2019
5111 Clouds 20 1023 60 10000 4.6 100 07:46 03.11.2019
5112 Clouds 21 1023 60 10000 4.1 120 07:28 03.11.2019
5113 Clouds 20 1023 60 10000 4.6 120 06:52 03.11.2019
5114 Clouds 18 1023 68 10000 4.6 150 06:33 03.11.2019
5115 Clouds 18 1023 68 10000 4.6 130 05:40 03.11.2019
5116 Clouds 16 1023 77 10000 4.1 130 04:58 03.11.2019
5117 Clouds 16 1023 77 10000 3.1 120 04:37 03.11.2019
5118 Clouds 16 1022 77 10000 3.6 130 03:35 03.11.2019
5119 Clouds 16 1022 77 10000 3.1 140 02:42 03.11.2019
5120 Clouds 16 1022 82 10000 3.1 110 02:20 03.11.2019
5121 Clouds 16 1022 82 10000 3.1 110 02:20 03.11.2019
5122 Clouds 15 1022 82 10000 4.1 100 01:39 03.11.2019
5123 Clouds 16 1022 82 10000 5.1 100 01:20 03.11.2019
5124 Clouds 16 1022 82 10000 5.1 100 00:45 03.11.2019
5125 Clouds 16 1022 82 10000 5.7 100 00:26 03.11.2019
5126 Clouds 16 1022 82 10000 4.6 100 23:58 02.11.2019
5127 Clouds 16 1022 82 10000 4.6 100 23:38 02.11.2019
5128 Clouds 16 1022 82 10000 5.1 100 23:19 02.11.2019
5129 Clouds 16 1022 82 10000 5.7 110 22:55 02.11.2019
5130 Clouds 16 1023 82 10000 5.7 110 22:37 02.11.2019
5131 Clouds 16 1023 82 10000 5.7 110 22:18 02.11.2019
5132 Clouds 17 1023 77 10000 5.7 120 21:56 02.11.2019
5133 Clouds 17 1023 77 10000 6.2 110 21:38 02.11.2019
5134 Clouds 17 1023 77 10000 6.2 110 21:18 02.11.2019
5135 Clouds 17 1023 77 10000 6.2 110 21:18 02.11.2019
5136 Clouds 17 1023 77 10000 5.7 100 20:58 02.11.2019
5137 Clouds 17 1023 77 10000 5.7 100 20:39 02.11.2019
5138 Clouds 17 1023 77 10000 5.7 100 20:39 02.11.2019
5139 Clouds 17 1023 77 10000 5.7 100 20:19 02.11.2019
5140 Clouds 17 1023 77 10000 5.7 100 19:41 02.11.2019
5141 Clouds 17 1023 77 10000 6.2 90 19:23 02.11.2019
5142 Clouds 17 1023 77 10000 5.7 120 18:56 02.11.2019
5143 Clouds 16 1022 82 10000 6.2 120 18:37 02.11.2019
5144 Clouds 16 1022 82 10000 6.2 120 18:19 02.11.2019
5145 Clouds 17 1022 77 10000 5.1 120 17:56 02.11.2019
5146 Clouds 17 1022 77 10000 6.2 110 17:37 02.11.2019
5147 Clouds 17 1022 77 10000 6.2 110 17:19 02.11.2019
5148 Clouds 18 1022 72 10000 5.7 120 16:57 02.11.2019
5149 Clouds 18 1021 72 10000 7.2 110 16:36 02.11.2019
5150 Clouds 18 1021 72 10000 7.2 110 16:36 02.11.2019
5151 Clouds 18 1021 72 10000 7.2 110 16:18 02.11.2019
5152 Clouds 18 1021 72 10000 7.2 110 16:18 02.11.2019
5153 Clouds 18 1021 72 10000 7.2 110 16:18 02.11.2019
5154 Clouds 19 1021 68 10000 7.7 100 15:41 02.11.2019
5155 Clouds 20 1020 64 10000 7.2 100 15:19 02.11.2019
5156 Clouds 21 1020 56 10000 6.2 130 14:42 02.11.2019
5157 Clouds 22 1020 56 10000 6.2 120 14:23 02.11.2019
5158 Clouds 22 1020 56 10000 7.7 100 13:57 02.11.2019
5159 Clouds 22 1020 56 10000 7.7 100 13:57 02.11.2019
5160 Clouds 22 1020 56 10000 7.7 100 13:38 02.11.2019
5161 Clouds 24 1020 47 10000 6.2 100 13:18 02.11.2019
5162 Clouds 24 1020 50 10000 6.7 120 12:41 02.11.2019
5163 Clouds 24 1020 50 10000 4.1 120 12:22 02.11.2019
5164 Clouds 24 1020 47 10000 5.7 110 11:57 02.11.2019
5165 Clouds 24 1020 47 10000 5.7 110 11:39 02.11.2019
5166 Clouds 24 1020 50 10000 5.1 110 11:20 02.11.2019
5167 Clouds 24 1020 50 10000 5.7 120 10:46 02.11.2019
5168 Clouds 24 1021 53 10000 4.6 150 10:27 02.11.2019
5169 Clouds 23 1021 53 10000 4.1 110 09:57 02.11.2019
5170 Clouds 23 1021 53 10000 4.6 130 09:38 02.11.2019
5171 Clouds 23 1021 53 10000 4.6 130 09:19 02.11.2019
5172 Clouds 22 1022 56 10000 4.6 130 08:44 02.11.2019
5173 Clouds 21 1022 56 10000 5.1 100 08:21 02.11.2019
5174 Clouds 21 1022 56 10000 4.6 130 07:47 02.11.2019
5175 Clouds 20 1022 60 10000 4.1 150 07:27 02.11.2019
5176 Clouds 19 1022 59 10000 4.1 150 06:54 02.11.2019
5177 Clouds 17 1022 63 10000 4.1 150 06:26 02.11.2019
5178 Clouds 16 1022 72 10000 5.1 120 05:55 02.11.2019
5179 Clouds 15 1022 77 10000 5.1 110 04:51 02.11.2019
5180 Clouds 14 1022 87 10000 4.1 120 04:19 02.11.2019
5181 Clouds 14 1021 87 10000 4.6 150 03:46 02.11.2019
5182 Clouds 14 1021 93 10000 4.6 150 02:38 02.11.2019
5183 Clouds 15 1021 87 10000 4.1 140 01:42 02.11.2019
5184 Clouds 15 1021 87 10000 3.6 150 01:20 02.11.2019
5185 Clouds 15 1021 87 10000 4.1 160 00:42 02.11.2019
5186 Clouds 15 1021 93 10000 2.1 170 00:24 02.11.2019
5187 Clouds 15 1021 93 10000 2.1 110 23:44 01.11.2019
5188 Clouds 16 1022 87 10000 4.1 100 23:20 01.11.2019
5189 Clouds 16 1022 87 10000 3.6 120 22:55 01.11.2019
5190 Rain 16 1022 87 10000 4.6 120 22:37 01.11.2019
5191 Rain 16 1022 87 10000 4.6 120 22:18 01.11.2019
5192 Rain 17 1023 88 10000 3.1 150 21:38 01.11.2019
5193 Rain 17 1023 88 10000 3.1 150 21:20 01.11.2019
5194 Rain 17 1023 88 10000 3.6 160 20:55 01.11.2019
5195 Rain 17 1023 88 10000 5.1 170 20:36 01.11.2019
5196 Rain 17 1023 88 10000 5.1 170 20:18 01.11.2019
5197 Clouds 18 1022 88 10000 2.6 160 19:41 01.11.2019
5198 Clouds 18 1022 82 10000 3.6 130 19:22 01.11.2019
5199 Clouds 18 1022 82 10000 4.1 140 18:57 01.11.2019
5200 Clouds 18 1022 82 10000 4.1 140 18:38 01.11.2019
5201 Thunderstorm 18 1022 88 8000 4.6 150 18:18 01.11.2019
5202 Thunderstorm 19 1022 88 7000 3.6 130 17:41 01.11.2019
5203 Thunderstorm 19 1022 88 7000 3.6 90 17:23 01.11.2019
5204 Thunderstorm 19 1021 88 7000 3.1 140 16:58 01.11.2019
5205 Thunderstorm 20 1021 82 7000 4.1 150 16:36 01.11.2019
5206 Thunderstorm 20 1021 82 7000 4.1 150 16:36 01.11.2019
5207 Thunderstorm 20 1021 82 7000 4.1 150 16:18 01.11.2019
5208 Thunderstorm 20 1021 82 7000 4.1 150 16:18 01.11.2019
5209 Thunderstorm 21 1019 73 7000 4.6 150 15:40 01.11.2019
5210 Thunderstorm 22 1019 68 10000 5.1 140 15:22 01.11.2019
5211 Thunderstorm 23 1019 60 10000 5.7 150 14:55 01.11.2019
5212 Clouds 24 1019 57 10000 5.7 140 14:36 01.11.2019
5213 Clouds 24 1019 57 10000 5.7 140 14:36 01.11.2019
5214 Clouds 24 1019 57 10000 5.7 140 14:18 01.11.2019
5215 Clouds 27 1018 44 10000 7.2 110 13:41 01.11.2019
5216 Clouds 27 1018 44 10000 7.2 110 13:22 01.11.2019
5217 Clouds 28 1019 42 10000 5.1 120 12:56 01.11.2019
5218 Clouds 28 1019 42 10000 5.1 120 12:56 01.11.2019
5219 Clouds 28 1018 42 10000 4.6 110 12:37 01.11.2019
5220 Clouds 28 1018 42 10000 4.6 110 12:19 01.11.2019
5221 Clouds 28 1019 42 10000 5.1 100 11:42 01.11.2019
5222 Clouds 28 1019 42 10000 4.1 130 11:24 01.11.2019
5223 Clouds 28 1020 42 10000 4.1 120 10:56 01.11.2019
5224 Clouds 28 1020 45 10000 4.6 110 10:37 01.11.2019
5225 Clouds 28 1020 45 10000 4.6 110 10:18 01.11.2019
5226 Clouds 27 1021 44 10000 4.6 140 09:42 01.11.2019
5227 Clouds 27 1021 44 10000 5.1 100 09:23 01.11.2019
5228 Clouds 26 1021 50 8000 4.1 140 08:55 01.11.2019
5229 Clouds 24 1022 57 8000 4.6 130 08:37 01.11.2019
5230 Clouds 24 1022 57 8000 4.6 130 08:37 01.11.2019
5231 Clouds 24 1022 57 8000 4.6 130 08:18 01.11.2019
5232 Clouds 24 1022 57 8000 4.6 120 07:46 01.11.2019
5233 Clouds 23 1022 60 8000 4.6 130 07:22 01.11.2019
5234 Clouds 22 1022 64 8000 5.1 140 06:55 01.11.2019
5235 Clouds 21 1022 68 7000 5.7 120 06:23 01.11.2019
5236 Clouds 20 1022 77 6000 3.1 140 05:57 01.11.2019
5237 Clouds 19 1022 77 6000 3.1 100 05:35 01.11.2019
5238 Clouds 16 1021 87 10000 1.5 60 03:32 01.11.2019
5239 Clouds 16 1021 93 10000 2.6 80 01:48 01.11.2019
5240 Clouds 17 1021 88 10000 3.6 70 00:58 01.11.2019
5241 Clouds 17 1021 88 10000 3.6 60 00:20 01.11.2019
5242 Clouds 18 1021 82 10000 2.6 60 23:44 31.10.2019
5243 Clouds 18 1022 82 10000 2.6 50 23:24 31.10.2019
5244 Clouds 18 1022 82 10000 2.6 80 22:58 31.10.2019
5245 Clouds 18 1022 82 10000 2.6 80 22:40 31.10.2019
5246 Clouds 18 1022 82 10000 2.6 80 22:40 31.10.2019
5247 Clouds 18 1022 88 10000 5.1 110 22:21 31.10.2019
5248 Clouds 19 1022 82 10000 5.7 110 21:45 31.10.2019
5249 Clouds 19 1022 82 10000 4.6 110 21:23 31.10.2019
5250 Clouds 19 1022 88 10000 3.1 140 20:58 31.10.2019
5251 Clouds 19 1022 88 10000 3.1 140 20:40 31.10.2019
5252 Clouds 20 1023 82 10000 4.6 110 20:22 31.10.2019
5253 Clouds 20 1023 82 10000 3.1 140 19:45 31.10.2019
5254 Clouds 20 1022 82 10000 4.1 130 19:26 31.10.2019
5255 Clouds 21 1022 73 9000 4.6 130 18:58 31.10.2019
5256 Clouds 21 1022 73 9000 4.6 130 18:39 31.10.2019
5257 Clouds 22 1022 68 9000 4.1 130 18:20 31.10.2019
5258 Clouds 22 1022 64 9000 5.1 110 17:43 31.10.2019
5259 Clouds 22 1022 64 9000 5.1 110 17:43 31.10.2019
5260 Clouds 23 1021 60 9000 4.6 90 17:24 31.10.2019
5261 Clear 24 1021 50 9000 5.1 90 16:59 31.10.2019
5262 Clear 24 1021 50 9000 5.1 90 16:40 31.10.2019
5263 Clear 25 1020 47 9000 6.2 100 16:20 31.10.2019
5264 Clear 26 1020 44 10000 6.7 90 15:57 31.10.2019
5265 Clear 26 1020 44 10000 6.7 90 15:38 31.10.2019
5266 Clear 29 1019 32 10000 5.7 100 15:19 31.10.2019
5267 Clear 29 1019 30 10000 5.7 100 14:56 31.10.2019
5268 Clear 29 1019 30 10000 5.7 100 14:38 31.10.2019
5269 Clear 30 1019 30 10000 4.6 110 14:20 31.10.2019
5270 Clear 31 1019 25 10000 5.1 120 13:56 31.10.2019
5271 Clear 31 1019 23 10000 5.1 90 13:37 31.10.2019
5272 Clouds 31 1019 23 10000 5.1 90 13:19 31.10.2019
5273 Clouds 31 1020 25 10000 6.2 90 12:43 31.10.2019
5274 Clouds 31 1020 27 10000 5.1 120 12:24 31.10.2019
5275 Clouds 31 1020 25 10000 4.6 130 11:58 31.10.2019
5276 Clouds 31 1020 25 10000 4.6 130 11:40 31.10.2019
5277 Clouds 31 1020 25 10000 5.1 110 11:19 31.10.2019
5278 Clouds 31 1021 23 10000 5.1 150 10:57 31.10.2019
5279 Clouds 30 1021 25 10000 4.6 130 10:38 31.10.2019
5280 Clouds 30 1021 25 10000 4.6 130 10:19 31.10.2019
5281 Clouds 30 1022 25 10000 5.1 140 09:42 31.10.2019
5282 Clouds 30 1022 25 10000 5.1 110 09:18 31.10.2019
5283 Clouds 29 1022 28 10000 4.1 170 08:49 31.10.2019
5284 Clouds 29 1023 26 10000 3.1 160 08:31 31.10.2019
5285 Clear 26 1023 36 10000 3.1 110 07:56 31.10.2019
5286 Clear 26 1023 36 10000 3.1 110 07:56 31.10.2019
5287 Clear 25 1023 38 10000 3.1 110 07:38 31.10.2019
5288 Clear 25 1023 38 10000 3.1 110 07:19 31.10.2019
5289 Clear 25 1023 44 9000 2.1 0 06:38 31.10.2019
5290 Clear 23 1023 53 8000 2.1 130 06:19 31.10.2019
5291 Clouds 16 1023 87 7000 1 0 04:35 31.10.2019
5292 Clouds 16 1022 93 10000 1.5 0 02:44 31.10.2019
5293 Clouds 16 1022 93 10000 2.6 90 01:53 31.10.2019
5294 Clouds 16 1022 100 10000 1 0 00:39 31.10.2019
5295 Clouds 16 1022 100 10000 0.5 0 00:20 31.10.2019
5296 Clouds 17 1022 93 10000 1.5 310 23:30 30.10.2019
5297 Clouds 18 1022 88 10000 1.5 130 22:44 30.10.2019
5298 Clouds 18 1022 88 10000 2.6 130 22:23 30.10.2019
5299 Clouds 19 1022 88 10000 3.1 130 21:57 30.10.2019
5300 Clouds 19 1022 88 10000 3.1 130 21:38 30.10.2019
5301 Clouds 19 1022 88 10000 3.1 130 21:19 30.10.2019
5302 Clouds 19 1022 88 10000 2.6 140 20:59 30.10.2019
5303 Clouds 19 1022 88 10000 2.6 140 20:41 30.10.2019
5304 Clouds 19 1022 88 10000 3.1 100 20:22 30.10.2019
5305 Clouds 20 1022 82 10000 3.6 120 19:58 30.10.2019
5306 Clouds 20 1022 82 10000 3.6 120 19:39 30.10.2019
5307 Clouds 20 1022 82 10000 3.6 120 19:39 30.10.2019
5308 Clouds 21 1022 73 10000 3.6 140 19:20 30.10.2019
5309 Clouds 21 1022 73 10000 3.6 140 18:58 30.10.2019
5310 Clouds 22 1022 68 10000 2.6 140 18:37 30.10.2019
5311 Clouds 22 1022 68 10000 2.6 140 18:37 30.10.2019
5312 Clouds 22 1022 68 10000 2.6 140 18:18 30.10.2019
5313 Clouds 22 1021 64 10000 5.7 110 17:41 30.10.2019
5314 Clouds 23 1021 60 10000 4.6 90 17:19 30.10.2019
5315 Clouds 24 1021 53 10000 5.7 90 16:56 30.10.2019
5316 Clouds 25 1020 50 10000 6.2 100 16:38 30.10.2019
5317 Clouds 25 1020 50 10000 6.2 100 16:20 30.10.2019
5318 Clouds 28 1020 39 10000 6.7 100 15:57 30.10.2019
5319 Clouds 29 1019 35 10000 6.2 100 15:38 30.10.2019
5320 Clouds 29 1019 35 10000 6.2 100 15:19 30.10.2019
5321 Clouds 29 1019 35 10000 6.2 100 14:55 30.10.2019
5322 Clouds 29 1019 35 10000 6.2 100 14:55 30.10.2019
5323 Clouds 30 1019 33 10000 5.7 100 14:36 30.10.2019
5324 Clouds 30 1019 33 10000 5.7 100 14:18 30.10.2019
5325 Clouds 31 1019 29 10000 5.1 120 13:42 30.10.2019
5326 Clouds 31 1019 29 10000 4.6 90 13:20 30.10.2019
5327 Clouds 31 1019 29 10000 5.1 120 12:58 30.10.2019
5328 Clouds 31 1019 29 10000 5.1 120 12:40 30.10.2019
5329 Clouds 32 1019 24 10000 4.6 110 12:22 30.10.2019
5330 Clouds 31 1019 23 10000 5.1 140 11:43 30.10.2019
5331 Clouds 31 1019 22 10000 4.1 140 11:25 30.10.2019
5332 Clouds 31 1020 22 10000 3.1 160 10:46 30.10.2019
5333 Clouds 31 1020 22 10000 4.1 130 10:28 30.10.2019
5334 Clouds 31 1020 20 10000 4.6 130 09:59 30.10.2019
5335 Clouds 31 1020 20 10000 4.6 130 09:40 30.10.2019
5336 Clouds 31 1021 22 10000 4.1 150 09:22 30.10.2019
5337 Clouds 30 1021 27 10000 3.1 130 08:54 30.10.2019
5338 Clouds 29 1021 30 9000 3.1 170 08:36 30.10.2019
5339 Clouds 29 1021 30 9000 3.1 170 08:18 30.10.2019
5340 Clouds 27 1021 36 9000 2.1 0 07:42 30.10.2019
5341 Clouds 26 1021 36 9000 2.1 150 06:48 30.10.2019
5342 Clouds 24 1021 50 8000 1.5 0 06:29 30.10.2019
5343 Clouds 23 1021 60 8000 1 0 05:55 30.10.2019
5344 Clouds 21 1021 73 8000 0.5 0 05:37 30.10.2019
5345 Clouds 16 1020 87 10000 1.5 0 03:51 30.10.2019
5346 Clouds 16 1019 87 10000 2.1 70 03:21 30.10.2019
5347 Clouds 16 1019 82 10000 2.1 60 02:48 30.10.2019
5348 Clouds 16 1019 87 10000 1.29 129 01:43 30.10.2019
5349 Clouds 17 1019 88 10000 3.1 90 00:37 30.10.2019
5350 Clouds 17 1019 88 10000 3.1 90 00:18 30.10.2019
5351 Clouds 18 1020 77 10000 2.1 60 23:39 29.10.2019
5352 Clouds 19 1020 77 10000 1.5 60 23:18 29.10.2019
5353 Clouds 19 1020 72 10000 1.5 0 22:41 29.10.2019
5354 Clouds 19 1020 72 10000 1.5 0 22:41 29.10.2019
5355 Clouds 19 1021 77 10000 1.5 0 22:19 29.10.2019
5356 Clouds 20 1021 72 10000 2.1 50 21:55 29.10.2019
5357 Clouds 20 1021 72 10000 2.1 50 21:36 29.10.2019
5358 Clouds 20 1021 72 10000 2.1 50 21:18 29.10.2019
5359 Clouds 21 1022 68 10000 1 0 20:42 29.10.2019
5360 Clouds 21 1022 68 10000 1 0 20:22 29.10.2019
5361 Clouds 21 1021 68 10000 2.6 90 19:58 29.10.2019
5362 Clouds 21 1021 68 10000 2.6 90 19:58 29.10.2019
5363 Clouds 21 1021 68 10000 2.6 90 19:39 29.10.2019
5364 Clouds 22 1021 68 8000 2.1 90 19:20 29.10.2019
5365 Clouds 23 1021 64 8000 1.5 0 18:58 29.10.2019
5366 Clouds 23 1021 64 8000 1.5 0 18:38 29.10.2019
5367 Clouds 23 1020 64 7000 3.6 120 18:20 29.10.2019
5368 Clouds 24 1019 64 7000 3.6 130 17:56 29.10.2019
5369 Clouds 25 1019 61 7000 5.1 120 17:37 29.10.2019
5370 Clouds 25 1019 61 7000 5.1 120 17:19 29.10.2019
5371 Clouds 25 1019 61 7000 5.1 110 16:41 29.10.2019
5372 Clouds 26 1018 57 7000 5.1 100 16:22 29.10.2019
5373 Clouds 27 1018 44 10000 6.2 110 15:58 29.10.2019
5374 Clouds 27 1018 44 10000 6.2 110 15:39 29.10.2019
5375 Clouds 29 1017 28 10000 5.7 110 15:20 29.10.2019
5376 Clouds 31 1017 23 10000 4.6 90 14:56 29.10.2019
5377 Clouds 31 1017 23 10000 5.1 100 14:38 29.10.2019
5378 Clouds 31 1017 23 10000 5.1 100 14:19 29.10.2019
5379 Clouds 31 1017 25 10000 4.6 90 13:40 29.10.2019
5380 Clouds 31 1017 25 10000 4.6 90 13:40 29.10.2019
5381 Clouds 31 1017 23 10000 4.1 140 13:22 29.10.2019
5382 Clouds 32 1017 21 10000 2.6 130 12:55 29.10.2019
5383 Clouds 32 1017 25 10000 3.1 140 12:36 29.10.2019
5384 Clouds 32 1017 25 10000 3.1 140 12:18 29.10.2019
5385 Clouds 32 1017 25 10000 3.1 110 11:42 29.10.2019
5386 Clouds 32 1018 29 10000 3.6 180 11:22 29.10.2019
5387 Clouds 32 1018 29 10000 3.1 0 10:58 29.10.2019
5388 Clouds 32 1018 29 10000 3.1 0 10:39 29.10.2019
5389 Clouds 31 1019 31 10000 2.6 0 10:20 29.10.2019
5390 Clouds 30 1019 30 10000 3.1 120 09:57 29.10.2019
5391 Clouds 30 1019 30 10000 3.1 120 09:39 29.10.2019
5392 Clouds 30 1019 37 9000 1.5 0 09:21 29.10.2019
5393 Clouds 30 1019 37 9000 3.1 190 08:45 29.10.2019
5394 Clouds 29 1019 45 9000 2.1 0 08:25 29.10.2019
5395 Clouds 28 1019 51 9000 2.6 180 07:55 29.10.2019
5396 Clouds 27 1019 54 9000 1.5 200 07:36 29.10.2019
5397 Clouds 27 1019 54 9000 1.5 200 07:18 29.10.2019
5398 Clouds 24 1019 64 9000 1.5 0 06:43 29.10.2019
5399 Clouds 24 1019 64 9000 1.5 0 06:21 29.10.2019
5400 Clouds 22 1019 78 10000 1 0 05:50 29.10.2019
5401 Clouds 19 1019 88 10000 1 0 05:19 29.10.2019
5402 Clouds 17 1017 93 10000 1 0 03:55 29.10.2019
5403 Clouds 17 1017 93 10000 0.65 136 02:32 29.10.2019
5404 Clouds 17 1016 93 10000 1.5 320 01:46 29.10.2019
5405 Clouds 18 1016 88 10000 1.03 128 01:18 29.10.2019
5406 Clouds 18 1017 88 10000 1 0 00:30 29.10.2019
5407 Clouds 19 1017 82 10000 1.5 60 23:42 28.10.2019
5408 Clouds 19 1017 82 10000 2.1 40 23:20 28.10.2019
5409 Clouds 19 1017 88 10000 1 70 22:57 28.10.2019
5410 Clouds 20 1017 82 10000 1.5 60 22:37 28.10.2019
5411 Clouds 20 1017 82 10000 1.5 60 22:18 28.10.2019
5412 Clouds 20 1018 77 10000 0.5 0 21:54 28.10.2019
5413 Clouds 20 1018 77 10000 0.5 0 21:54 28.10.2019
5414 Clouds 20 1018 77 10000 2.1 330 21:36 28.10.2019
5415 Clouds 20 1018 77 10000 2.1 330 21:18 28.10.2019
5416 Clouds 21 1018 73 10000 3.1 320 20:42 28.10.2019
5417 Clouds 21 1019 73 10000 3.1 310 20:24 28.10.2019
5418 Clouds 22 1019 68 10000 3.1 320 19:55 28.10.2019
5419 Clouds 22 1019 68 10000 3.6 310 19:37 28.10.2019
5420 Clouds 22 1019 68 10000 3.6 310 19:19 28.10.2019
5421 Clouds 23 1018 69 10000 3.1 300 18:58 28.10.2019
5422 Clouds 23 1018 69 10000 3.1 300 18:58 28.10.2019
5423 Clouds 23 1018 69 10000 3.1 300 18:38 28.10.2019
5424 Clouds 23 1018 69 10000 3.1 300 18:38 28.10.2019
5425 Clouds 24 1018 64 10000 3.1 260 18:20 28.10.2019
5426 Clouds 25 1017 53 10000 1.5 0 17:56 28.10.2019
5427 Clouds 25 1017 53 10000 0.5 0 17:38 28.10.2019
5428 Clouds 25 1017 53 10000 0.5 0 17:18 28.10.2019
5429 Clouds 26 1016 36 7000 1 0 16:55 28.10.2019
5430 Clouds 26 1016 36 10000 2.6 90 16:36 28.10.2019
5431 Clouds 26 1016 36 10000 2.6 90 16:18 28.10.2019
5432 Clouds 27 1015 34 10000 3.1 90 15:56 28.10.2019
5433 Clouds 28 1015 30 10000 4.6 100 15:37 28.10.2019
5434 Clouds 28 1015 30 10000 4.6 100 15:37 28.10.2019
5435 Clouds 28 1015 30 10000 4.6 100 15:18 28.10.2019
5436 Clouds 29 1015 25 10000 5.1 90 14:54 28.10.2019
5437 Clouds 29 1015 26 10000 5.7 80 14:36 28.10.2019
5438 Clouds 29 1015 26 10000 5.7 80 14:18 28.10.2019
5439 Clouds 31 1014 22 10000 3.1 80 13:41 28.10.2019
5440 Clouds 32 1014 22 10000 3.1 50 13:18 28.10.2019
5441 Clouds 32 1014 22 10000 3.1 50 13:18 28.10.2019
5442 Clouds 32 1014 24 10000 2.6 60 12:59 28.10.2019
5443 Clouds 32 1014 24 10000 2.6 60 12:40 28.10.2019
5444 Clouds 32 1015 24 10000 3.1 170 12:19 28.10.2019
5445 Clouds 32 1016 24 10000 3.1 90 11:38 28.10.2019
5446 Clouds 32 1016 24 10000 3.1 90 11:38 28.10.2019
5447 Clouds 32 1016 24 10000 3.1 90 11:19 28.10.2019
5448 Clouds 32 1017 22 10000 1.5 0 10:42 28.10.2019
5449 Clouds 31 1017 20 10000 2.6 0 10:24 28.10.2019
5450 Clouds 30 1017 33 10000 2.6 0 09:58 28.10.2019
5451 Clouds 30 1017 33 10000 2.6 0 09:39 28.10.2019
5452 Clouds 29 1018 39 8000 3.1 70 09:20 28.10.2019
5453 Clouds 29 1018 39 8000 1.5 0 08:57 28.10.2019
5454 Clouds 29 1018 39 8000 1.5 0 08:39 28.10.2019
5455 Clouds 27 1018 44 8000 1.5 0 08:19 28.10.2019
5456 Clouds 27 1018 44 8000 1.5 0 08:19 28.10.2019
5457 Clouds 26 1019 44 8000 2.1 50 07:56 28.10.2019
5458 Clouds 26 1019 41 7000 1.5 80 07:38 28.10.2019
5459 Clouds 26 1019 41 7000 1.5 80 07:19 28.10.2019
5460 Clouds 25 1019 41 7000 1.5 0 06:40 28.10.2019
5461 Smoke 21 1019 77 5000 2.1 110 05:47 28.10.2019
5462 Mist 18 1018 88 4000 1.5 70 03:49 28.10.2019
5463 Clouds 18 1017 88 10000 1 360 02:54 28.10.2019
5464 Clouds 18 1017 93 10000 1 0 02:34 28.10.2019
5465 Clouds 19 1017 88 10000 2.1 120 00:57 28.10.2019
5466 Clouds 18 1018 88 10000 1 0 00:33 28.10.2019
5467 Clouds 19 1018 88 10000 1.5 0 23:47 27.10.2019
5468 Clouds 19 1018 88 10000 1.5 70 23:24 27.10.2019
5469 Clouds 20 1018 77 10000 1.5 80 22:58 27.10.2019
5470 Clouds 20 1018 77 10000 1.5 80 22:40 27.10.2019
5471 Clouds 20 1018 77 10000 2.1 70 22:21 27.10.2019
5472 Clouds 20 1018 77 10000 2.1 70 22:21 27.10.2019
5473 Clouds 21 1018 73 10000 2.6 60 21:57 27.10.2019
5474 Clouds 21 1018 73 10000 2.6 60 21:39 27.10.2019
5475 Clouds 21 1018 73 10000 2.6 60 21:39 27.10.2019
5476 Clouds 21 1018 73 10000 2.6 60 21:39 27.10.2019
5477 Clouds 21 1018 73 10000 1.5 60 21:21 27.10.2019
5478 Clouds 21 1019 73 10000 2.1 50 20:56 27.10.2019
5479 Clouds 21 1019 77 10000 3.1 60 20:38 27.10.2019
5480 Clouds 21 1019 77 10000 3.1 60 20:20 27.10.2019
5481 Clouds 23 1018 60 10000 2.1 70 19:54 27.10.2019
5482 Clouds 23 1018 60 10000 2.1 70 19:36 27.10.2019
5483 Clouds 23 1018 60 10000 2.1 70 19:18 27.10.2019
5484 Clouds 24 1018 57 10000 2.6 90 18:54 27.10.2019
5485 Clouds 24 1018 53 10000 2.1 90 18:36 27.10.2019
5486 Clouds 24 1018 53 10000 2.1 90 18:18 27.10.2019
5487 Clouds 25 1018 44 10000 2.6 60 17:40 27.10.2019
5488 Clouds 25 1017 38 10000 2.1 60 17:19 27.10.2019
5489 Clouds 25 1017 38 10000 1.5 40 16:57 27.10.2019
5490 Clouds 25 1017 38 10000 1.5 40 16:39 27.10.2019
5491 Clouds 26 1016 36 10000 3.6 90 16:20 27.10.2019
5492 Clouds 27 1016 36 10000 3.6 90 15:56 27.10.2019
5493 Clouds 28 1016 34 10000 4.6 100 15:37 27.10.2019
5494 Clouds 28 1016 34 10000 4.6 100 15:19 27.10.2019
5495 Clouds 29 1016 28 10000 5.1 110 14:42 27.10.2019
5496 Clouds 31 1016 23 10000 4.6 100 14:20 27.10.2019
5497 Clouds 32 1016 21 10000 2.1 60 13:57 27.10.2019
5498 Clouds 32 1016 19 10000 3.6 20 13:38 27.10.2019
5499 Clouds 32 1016 19 10000 3.6 20 13:19 27.10.2019
5500 Clouds 32 1017 18 10000 2.1 0 12:45 27.10.2019
5501 Clouds 32 1017 21 10000 3.1 180 12:24 27.10.2019
5502 Clouds 32 1017 21 10000 2.6 0 11:59 27.10.2019
5503 Clouds 32 1017 21 10000 2.6 0 11:40 27.10.2019
5504 Clouds 31 1018 20 10000 2.1 0 11:21 27.10.2019
5505 Clouds 31 1019 19 10000 2.1 50 10:44 27.10.2019
5506 Clouds 31 1019 20 10000 2.1 0 10:24 27.10.2019
5507 Clouds 31 1019 19 10000 2.1 0 09:56 27.10.2019
5508 Clouds 30 1020 20 10000 2.1 10 09:37 27.10.2019
5509 Clouds 30 1020 20 10000 2.1 10 09:37 27.10.2019
5510 Clouds 30 1020 20 10000 2.1 10 09:18 27.10.2019
5511 Clouds 30 1020 20 10000 2.1 10 09:18 27.10.2019
5512 Clouds 30 1020 20 10000 2.1 10 09:18 27.10.2019
5513 Clouds 30 1020 20 10000 2.1 10 09:18 27.10.2019
5514 Clouds 29 1020 26 10000 1 0 08:41 27.10.2019
5515 Clouds 28 1020 28 10000 2.6 180 08:21 27.10.2019
5516 Clouds 27 1021 28 10000 2.1 0 07:50 27.10.2019
5517 Clouds 26 1021 36 8000 2.6 150 07:29 27.10.2019
5518 Clouds 25 1021 47 8000 2.1 160 06:59 27.10.2019
5519 Clouds 25 1021 47 8000 2.1 160 06:40 27.10.2019
5520 Clouds 23 1021 60 8000 2.6 140 06:21 27.10.2019
5521 Clouds 22 1021 64 8000 2.6 110 05:38 27.10.2019
5522 Clouds 18 1021 82 7000 2.1 80 04:47 27.10.2019
5523 Clouds 17 1020 72 10000 1.5 80 02:48 27.10.2019
5524 Clouds 17 1019 82 10000 1.5 80 02:18 27.10.2019
5525 Clouds 18 1020 77 10000 0.5 0 01:49 27.10.2019
5526 Clouds 18 1020 77 10000 0.5 0 01:21 27.10.2019
5527 Clouds 19 1020 72 10000 1 60 00:46 27.10.2019
5528 Clouds 19 1020 72 10000 0.58 57 00:24 27.10.2019
5529 Clouds 19 1020 72 10000 1 350 23:56 26.10.2019
5530 Clouds 19 1020 72 10000 1 350 23:56 26.10.2019
5531 Clouds 19 1021 77 10000 2.1 330 23:37 26.10.2019
5532 Clouds 19 1021 77 10000 2.1 330 23:19 26.10.2019
5533 Clouds 20 1021 72 10000 1 40 22:55 26.10.2019
5534 Clouds 20 1021 72 10000 2.1 60 22:36 26.10.2019
5535 Clouds 20 1021 72 10000 2.1 60 22:18 26.10.2019
5536 Clouds 22 1021 64 10000 1 0 21:42 26.10.2019
5537 Clouds 22 1021 64 10000 1 0 21:42 26.10.2019
5538 Clouds 22 1021 60 10000 2.1 170 21:21 26.10.2019
5539 Clouds 22 1022 56 10000 2.1 160 20:46 26.10.2019
5540 Clouds 22 1022 56 10000 2.1 160 20:46 26.10.2019
5541 Clouds 21 1021 56 10000 2.1 120 20:20 26.10.2019
5542 Clouds 22 1021 56 10000 2.6 130 19:59 26.10.2019
5543 Clouds 22 1021 56 10000 2.6 130 19:40 26.10.2019
5544 Clear 23 1021 46 10000 4.1 110 19:20 26.10.2019
5545 Clear 24 1020 41 10000 2.1 90 18:56 26.10.2019
5546 Clear 24 1020 44 10000 2.1 70 18:37 26.10.2019
5547 Clear 24 1020 44 10000 2.1 70 18:18 26.10.2019
5548 Clear 25 1019 38 10000 2.6 70 17:56 26.10.2019
5549 Clear 26 1019 36 10000 3.6 80 17:36 26.10.2019
5550 Clear 26 1019 36 10000 3.6 80 17:18 26.10.2019
5551 Clear 30 1018 25 10000 6.2 90 16:42 26.10.2019
5552 Clear 30 1018 25 10000 6.2 90 16:22 26.10.2019
5553 Clear 31 1018 22 10000 5.7 90 15:41 26.10.2019
5554 Clear 32 1018 19 10000 5.1 100 15:20 26.10.2019
5555 Clear 32 1018 17 10000 4.1 120 14:41 26.10.2019
5556 Clear 33 1018 17 10000 3.6 110 14:22 26.10.2019
5557 Clear 32 1012 15 0 4.63 100 13:59 26.10.2019
5558 Clear 33 1018 16 10000 4.1 130 13:41 26.10.2019
5559 Clear 32 1012 15 0 4.63 100 13:21 26.10.2019
5560 Clear 32 1012 15 0 4.63 100 12:48 26.10.2019
5561 Clear 33 1020 15 10000 2.6 130 12:25 26.10.2019
5562 Clear 33 1020 15 10000 2.6 130 12:25 26.10.2019
5563 Clear 33 1020 15 10000 2.6 130 11:50 26.10.2019
5564 Clear 33 1020 15 10000 2.6 130 11:29 26.10.2019
5565 Clear 32 1021 17 10000 3.6 130 10:55 26.10.2019
5566 Clear 32 1021 18 10000 3.1 100 10:36 26.10.2019
5567 Clear 32 1021 18 10000 3.1 100 10:18 26.10.2019
5568 Clear 31 1021 18 10000 2.6 170 09:43 26.10.2019
5569 Clear 30 1022 22 10000 1 0 09:25 26.10.2019
5570 Clouds 29 1022 26 8000 1.5 0 08:43 26.10.2019
5571 Clouds 27 1022 32 7000 2.1 190 08:25 26.10.2019
5572 Clouds 25 1022 38 7000 1 0 07:54 26.10.2019
5573 Clouds 23 1022 43 7000 1.5 0 07:28 26.10.2019
5574 Clouds 20 1022 64 7000 1.5 0 06:45 26.10.2019
5575 Clouds 18 1022 68 6000 1 0 06:26 26.10.2019
5576 Clouds 13 1022 87 8000 1.72 154 05:21 26.10.2019
5577 Clouds 13 1021 87 10000 1.72 154 04:24 26.10.2019
5578 Clouds 14 1020 76 10000 1.5 146 02:47 26.10.2019
5579 Clouds 15 1020 72 10000 1.43 145 01:55 26.10.2019
5580 Clouds 15 1021 77 10000 1 0 01:22 26.10.2019
5581 Clear 15 1021 77 10000 0.5 0 00:24 26.10.2019
5582 Clear 15 1021 77 10000 0.5 0 23:43 25.10.2019
5583 Clear 16 1021 72 10000 1.46 147 23:20 25.10.2019
5584 Clear 18 1022 63 10000 0.5 100 22:40 25.10.2019
5585 Clear 18 1022 55 10000 1 90 22:22 25.10.2019
5586 Clear 19 1022 59 10000 2.1 100 21:58 25.10.2019
5587 Clear 19 1022 59 10000 2.1 100 21:39 25.10.2019
5588 Clouds 18 1022 59 10000 1 120 21:19 25.10.2019
5589 Clouds 19 1023 55 10000 1 0 20:55 25.10.2019
5590 Clouds 21 1023 49 10000 0.5 0 20:37 25.10.2019
5591 Clouds 21 1023 49 10000 0.5 0 20:18 25.10.2019
5592 Clouds 22 1022 43 10000 1 0 19:41 25.10.2019
5593 Clouds 22 1022 43 10000 2.6 90 19:23 25.10.2019
5594 Clouds 22 1022 46 10000 2.1 90 18:44 25.10.2019
5595 Clouds 23 1022 46 10000 3.6 110 18:22 25.10.2019
5596 Clouds 25 1021 36 10000 4.6 110 17:41 25.10.2019
5597 Clouds 25 1021 36 10000 4.6 110 17:21 25.10.2019
5598 Clouds 28 1021 23 10000 5.7 100 16:54 25.10.2019
5599 Clouds 29 1020 23 10000 6.2 110 16:36 25.10.2019
5600 Clouds 29 1020 23 10000 6.2 110 16:18 25.10.2019
5601 Clouds 30 1020 20 10000 6.2 100 15:40 25.10.2019
5602 Clouds 31 1020 18 10000 5.7 100 15:21 25.10.2019
5603 Clouds 31 1020 20 10000 6.7 80 14:57 25.10.2019
5604 Clouds 31 1020 20 10000 6.7 80 14:38 25.10.2019
5605 Clouds 31 1020 20 10000 7.7 110 14:20 25.10.2019
5606 Clouds 32 1020 18 10000 6.7 110 13:41 25.10.2019
5607 Clouds 32 1020 18 10000 6.7 110 13:22 25.10.2019
5608 Clouds 32 1020 18 10000 6.7 100 12:55 25.10.2019
5609 Clouds 32 1020 17 10000 6.7 100 12:37 25.10.2019
5610 Clouds 32 1020 17 10000 6.7 100 12:18 25.10.2019
5611 Clouds 31 1021 18 10000 6.2 100 11:40 25.10.2019
5612 Clouds 31 1021 16 10000 6.2 120 11:22 25.10.2019
5613 Clouds 31 1021 16 10000 6.2 120 11:22 25.10.2019
5614 Clouds 31 1022 18 10000 5.7 100 10:55 25.10.2019
5615 Clouds 30 1022 20 10000 4.6 110 10:36 25.10.2019
5616 Clouds 30 1022 20 10000 4.6 110 10:18 25.10.2019
5617 Clouds 29 1022 25 10000 3.6 120 09:41 25.10.2019
5618 Clouds 28 1023 26 10000 3.1 170 09:20 25.10.2019
5619 Fog 27 1023 32 6000 2.1 140 08:52 25.10.2019
5620 Mist 26 1024 36 5000 1.5 100 08:33 25.10.2019
5621 Mist 24 1023 50 4500 1 0 07:58 25.10.2019
5622 Mist 24 1023 50 4500 1 0 07:40 25.10.2019
5623 Mist 21 1023 68 4000 1 0 07:22 25.10.2019
5624 Mist 17 1023 93 2500 1 0 06:36 25.10.2019
5625 Fog 15 1023 100 200 1 0 05:48 25.10.2019
5626 Fog 15 1022 100 100 1 60 05:21 25.10.2019
5627 Fog 14 1022 100 3000 1 124 04:19 25.10.2019
5628 Clouds 15 1021 93 8000 0.69 130 02:34 25.10.2019
5629 Clouds 15 1022 93 8000 1 110 01:52 25.10.2019
5630 Clouds 16 1022 87 10000 1.5 110 00:30 25.10.2019
5631 Clouds 16 1022 93 10000 2.1 70 23:42 24.10.2019
5632 Clouds 16 1023 93 10000 2.6 70 23:24 24.10.2019
5633 Clouds 17 1023 88 10000 2.6 80 22:57 24.10.2019
5634 Clouds 18 1023 82 8000 2.1 80 22:38 24.10.2019
5635 Clouds 18 1023 82 8000 2.1 80 22:19 24.10.2019
5636 Clouds 18 1023 82 8000 2.1 80 22:19 24.10.2019
5637 Clouds 18 1023 82 10000 1.5 80 21:57 24.10.2019
5638 Clouds 18 1023 82 10000 1.5 90 21:38 24.10.2019
5639 Clouds 18 1023 82 10000 1.5 90 21:38 24.10.2019
5640 Clouds 18 1023 82 10000 1.5 90 21:19 24.10.2019
5641 Clouds 18 1023 82 10000 1.5 90 21:19 24.10.2019
5642 Clouds 18 1024 82 8000 2.1 80 20:57 24.10.2019
5643 Clouds 18 1024 82 8000 2.1 80 20:38 24.10.2019
5644 Clouds 19 1023 72 10000 1.5 60 20:20 24.10.2019
5645 Clouds 20 1023 68 10000 2.1 60 19:54 24.10.2019
5646 Clouds 20 1023 68 10000 2.1 60 19:54 24.10.2019
5647 Clouds 21 1023 64 10000 2.1 50 19:36 24.10.2019
5648 Clouds 21 1023 64 10000 2.1 50 19:18 24.10.2019
5649 Clouds 21 1023 64 10000 3.1 90 18:40 24.10.2019
5650 Clouds 22 1023 56 10000 3.1 80 18:22 24.10.2019
5651 Clouds 23 1022 53 10000 3.1 90 17:59 24.10.2019
5652 Clouds 23 1022 53 10000 3.1 90 17:39 24.10.2019
5653 Clouds 24 1022 47 10000 3.6 90 17:20 24.10.2019
5654 Clouds 26 1022 39 10000 4.1 90 16:55 24.10.2019
5655 Clouds 27 1021 32 10000 5.1 80 16:37 24.10.2019
5656 Clouds 27 1021 32 10000 5.1 80 16:18 24.10.2019
5657 Clouds 28 1021 30 10000 6.2 90 15:55 24.10.2019
5658 Clouds 29 1021 25 10000 5.1 90 15:37 24.10.2019
5659 Clouds 29 1021 25 10000 5.1 90 15:18 24.10.2019
5660 Clouds 30 1021 27 10000 5.7 100 14:44 24.10.2019
5661 Clouds 30 1021 30 10000 5.7 100 14:26 24.10.2019
5662 Clouds 30 1021 28 10000 5.1 90 13:59 24.10.2019
5663 Clouds 30 1021 28 10000 5.1 90 13:38 24.10.2019
5664 Clouds 30 1021 28 10000 5.1 90 13:19 24.10.2019
5665 Clouds 30 1021 27 10000 4.1 120 12:56 24.10.2019
5666 Clouds 30 1021 25 10000 4.6 120 12:37 24.10.2019
5667 Clouds 30 1021 25 10000 4.6 120 12:18 24.10.2019
5668 Clouds 29 1022 28 10000 5.1 160 11:55 24.10.2019
5669 Clouds 29 1022 28 10000 4.6 150 11:36 24.10.2019
5670 Clouds 29 1022 28 10000 4.6 150 11:18 24.10.2019
5671 Clouds 28 1022 30 10000 4.1 160 10:42 24.10.2019
5672 Clouds 28 1023 30 10000 5.1 110 10:23 24.10.2019
5673 Clouds 27 1023 39 10000 3.6 120 09:40 24.10.2019
5674 Clouds 27 1023 39 10000 3.6 120 09:40 24.10.2019
5675 Clouds 25 1024 50 10000 2.6 160 09:19 24.10.2019
5676 Clouds 24 1024 53 10000 2.6 160 08:58 24.10.2019
5677 Clouds 24 1024 53 10000 2.6 160 08:39 24.10.2019
5678 Clouds 22 1024 60 10000 2.6 140 08:20 24.10.2019
5679 Clouds 22 1024 60 10000 2.6 140 08:20 24.10.2019
5680 Clouds 20 1024 68 10000 2.6 150 07:47 24.10.2019
5681 Clouds 20 1024 68 10000 2.6 150 07:23 24.10.2019
5682 Clouds 19 1024 72 10000 3.6 150 06:53 24.10.2019
5683 Clouds 19 1024 72 10000 3.1 160 06:34 24.10.2019
5684 Clouds 18 1023 77 10000 3.1 170 05:54 24.10.2019
5685 Clouds 17 1023 82 10000 3.1 110 05:30 24.10.2019
5686 Clouds 17 1023 82 10000 3.1 110 05:30 24.10.2019
5687 Clouds 16 1022 87 10000 2.6 80 04:22 24.10.2019
5688 Clouds 17 1022 88 10000 3.1 100 03:29 24.10.2019
5689 Clouds 17 1022 88 10000 3.6 110 02:35 24.10.2019
5690 Clouds 16 1022 87 10000 2.1 120 01:59 24.10.2019
5691 Clouds 16 1022 93 10000 3.1 90 01:30 24.10.2019
5692 Clouds 17 1022 88 10000 3.1 140 00:51 24.10.2019
5693 Clouds 17 1022 88 10000 3.1 140 00:23 24.10.2019
5694 Clouds 17 1023 88 10000 3.1 150 23:44 23.10.2019
5695 Clouds 17 1023 88 10000 3.1 150 23:24 23.10.2019
5696 Clouds 18 1023 88 10000 3.6 140 22:58 23.10.2019
5697 Clouds 18 1023 88 10000 3.6 140 22:39 23.10.2019
5698 Clouds 18 1023 88 10000 3.6 140 22:19 23.10.2019
5699 Clouds 18 1023 88 10000 5.1 110 21:58 23.10.2019
5700 Clouds 18 1023 88 10000 5.1 110 21:39 23.10.2019
5701 Clouds 19 1023 82 10000 4.6 120 21:20 23.10.2019
5702 Clouds 19 1023 82 8000 5.1 110 20:58 23.10.2019
5703 Clouds 19 1023 82 8000 5.1 110 20:39 23.10.2019
5704 Clouds 20 1023 82 8000 4.6 130 20:21 23.10.2019
5705 Clouds 20 1023 82 8000 6.2 110 19:58 23.10.2019
5706 Clouds 20 1023 82 8000 6.2 110 19:40 23.10.2019
5707 Clouds 21 1022 77 8000 6.2 110 19:19 23.10.2019
5708 Clouds 21 1022 77 8000 5.7 110 18:55 23.10.2019
5709 Clouds 22 1022 68 8000 6.2 110 18:36 23.10.2019
5710 Clouds 22 1022 68 8000 6.2 110 18:18 23.10.2019
5711 Clouds 23 1021 60 10000 5.7 100 17:44 23.10.2019
5712 Clouds 24 1020 53 10000 5.1 100 17:20 23.10.2019
5713 Clouds 24 1020 53 10000 5.1 100 17:20 23.10.2019
5714 Clouds 25 1020 50 10000 5.1 110 16:57 23.10.2019
5715 Clouds 25 1020 50 10000 5.1 110 16:38 23.10.2019
5716 Clouds 27 1020 44 10000 5.7 120 16:19 23.10.2019
5717 Clouds 28 1019 39 10000 4.1 100 15:42 23.10.2019
5718 Clouds 28 1019 42 10000 5.7 120 15:22 23.10.2019
5719 Clouds 29 1019 37 10000 5.1 110 14:58 23.10.2019
5720 Clouds 29 1019 37 10000 4.6 110 14:38 23.10.2019
5721 Clouds 29 1019 37 10000 4.6 110 14:20 23.10.2019
5722 Clouds 29 1019 37 10000 4.6 110 14:20 23.10.2019
5723 Clouds 29 1019 39 10000 4.6 130 13:58 23.10.2019
5724 Clouds 29 1019 39 10000 4.6 130 13:40 23.10.2019
5725 Clouds 29 1019 39 10000 5.1 100 13:22 23.10.2019
5726 Clouds 29 1020 37 10000 5.1 120 12:55 23.10.2019
5727 Clouds 28 1020 42 10000 4.1 90 12:37 23.10.2019
5728 Clouds 28 1020 42 10000 4.1 90 12:18 23.10.2019
5729 Clouds 28 1020 42 10000 5.7 80 11:56 23.10.2019
5730 Clouds 28 1020 42 10000 5.7 80 11:56 23.10.2019
5731 Clouds 28 1021 42 10000 5.1 110 11:37 23.10.2019
5732 Clouds 28 1021 42 10000 5.1 110 11:19 23.10.2019
5733 Clouds 27 1021 42 10000 5.1 100 10:45 23.10.2019
5734 Clouds 26 1022 47 10000 5.1 110 10:25 23.10.2019
5735 Clouds 25 1022 53 10000 3.6 140 09:42 23.10.2019
5736 Clouds 24 1022 57 8000 5.1 110 09:24 23.10.2019
5737 Clouds 24 1022 57 8000 4.1 90 08:59 23.10.2019
5738 Clouds 24 1022 57 8000 4.1 90 08:41 23.10.2019
5739 Clouds 23 1023 60 8000 5.7 100 08:41 23.10.2019
5740 Clouds 23 1023 60 8000 5.7 100 08:41 23.10.2019
5741 Clouds 23 1023 60 8000 5.7 100 08:22 23.10.2019
5742 Clouds 22 1022 68 7000 5.7 120 07:46 23.10.2019
5743 Clouds 21 1022 73 6000 4.6 140 07:22 23.10.2019
5744 Clouds 20 1022 72 7000 3.1 140 06:46 23.10.2019
5745 Clouds 19 1022 77 7000 3.6 130 06:22 23.10.2019
5746 Clouds 18 1021 82 7000 3.1 130 05:41 23.10.2019
5747 Clouds 16 1020 100 10000 1 0 04:38 23.10.2019
5748 Clouds 17 1019 93 10000 1.84 131 03:34 23.10.2019
5749 Clouds 18 1019 88 10000 1 0 02:37 23.10.2019
5750 Clouds 17 1019 93 10000 1.5 90 01:26 23.10.2019
5751 Clouds 18 1020 88 10000 2.1 10 00:38 23.10.2019
5752 Clouds 18 1020 88 10000 2.1 10 00:38 23.10.2019
5753 Clouds 18 1020 88 10000 2.1 10 00:19 23.10.2019
5754 Clouds 18 1020 93 10000 1.5 60 23:39 22.10.2019
5755 Clouds 18 1021 88 10000 1.63 165 23:18 22.10.2019
5756 Clouds 18 1021 88 10000 1.63 165 23:18 22.10.2019
5757 Clouds 18 1021 93 10000 1.5 0 22:55 22.10.2019
5758 Clouds 18 1021 93 10000 1.5 40 22:37 22.10.2019
5759 Clouds 18 1021 93 10000 1.5 40 22:19 22.10.2019
5760 Clouds 18 1021 88 10000 1 0 21:56 22.10.2019
5761 Clouds 18 1021 88 10000 1 0 21:56 22.10.2019
5762 Clouds 18 1021 88 10000 2.1 70 21:36 22.10.2019
5763 Clouds 18 1021 88 10000 2.1 70 21:36 22.10.2019
5764 Clouds 18 1021 88 10000 2.1 70 21:18 22.10.2019
5765 Clouds 18 1021 88 10000 2.6 160 20:55 22.10.2019
5766 Clouds 18 1021 88 10000 4.1 20 20:37 22.10.2019
5767 Clouds 18 1021 88 10000 4.1 20 20:18 22.10.2019
5768 Clouds 17 1022 93 10000 3.1 100 19:42 22.10.2019
5769 Rain 17 1020 93 10000 3.1 20 19:24 22.10.2019
5770 Thunderstorm 18 1020 88 9000 4.6 50 18:57 22.10.2019
5771 Thunderstorm 18 1020 88 9000 4.6 50 18:39 22.10.2019
5772 Thunderstorm 18 1020 88 9000 6.2 70 18:20 22.10.2019
5773 Thunderstorm 18 1020 88 9000 7.2 90 17:56 22.10.2019
5774 Thunderstorm 18 1019 93 9000 6.7 100 17:37 22.10.2019
5775 Thunderstorm 18 1019 93 9000 6.7 100 17:19 22.10.2019
5776 Clouds 20 1019 82 9000 3.6 140 16:56 22.10.2019
5777 Thunderstorm 20 1018 82 8000 5.1 110 16:37 22.10.2019
5778 Thunderstorm 20 1018 82 8000 5.1 110 16:18 22.10.2019
5779 Thunderstorm 20 1017 77 6000 6.2 100 15:42 22.10.2019
5780 Thunderstorm 22 1016 68 6000 10.8 170 15:20 22.10.2019
5781 Clouds 29 1016 39 10000 3.6 80 14:50 22.10.2019
5782 Clouds 31 1016 33 10000 3.1 60 14:22 22.10.2019
5783 Clouds 32 1016 25 10000 2.1 140 13:59 22.10.2019
5784 Clouds 32 1016 25 10000 2.1 140 13:41 22.10.2019
5785 Clouds 30 1016 28 10000 2.1 0 13:19 22.10.2019
5786 Clouds 31 1016 27 10000 3.1 70 12:55 22.10.2019
5787 Clouds 31 1017 31 10000 2.1 0 12:37 22.10.2019
5788 Clouds 31 1017 31 10000 2.1 0 12:19 22.10.2019
5789 Clouds 30 1017 33 10000 2.1 0 11:40 22.10.2019
5790 Clouds 30 1018 37 10000 2.6 0 11:22 22.10.2019
5791 Clouds 29 1018 42 10000 3.6 180 10:59 22.10.2019
5792 Clouds 29 1019 42 10000 2.6 190 10:38 22.10.2019
5793 Clouds 29 1019 42 10000 2.6 190 10:19 22.10.2019
5794 Clouds 28 1019 42 10000 2.6 200 09:57 22.10.2019
5795 Clouds 28 1019 42 10000 2.6 200 09:39 22.10.2019
5796 Clouds 28 1019 42 10000 2.6 200 09:39 22.10.2019
5797 Clouds 27 1019 47 10000 2.1 180 09:21 22.10.2019
5798 Clouds 27 1019 51 8000 2.6 0 08:43 22.10.2019
5799 Clouds 26 1019 54 8000 1.5 0 08:22 22.10.2019
5800 Clouds 25 1019 61 8000 1.5 170 07:57 22.10.2019
5801 Clouds 25 1019 61 8000 1.5 170 07:39 22.10.2019
5802 Clouds 22 1019 68 8000 2.1 260 07:20 22.10.2019
5803 Clouds 21 1019 77 8000 1 0 06:37 22.10.2019
5804 Clouds 21 1019 77 8000 1 0 06:19 22.10.2019
5805 Clouds 17 1018 100 8000 2.1 320 05:27 22.10.2019
5806 Clouds 18 1017 93 10000 1.5 50 03:53 22.10.2019
5807 Clouds 19 1017 88 10000 1 0 02:29 22.10.2019
5808 Clouds 19 1017 88 10000 0.5 0 01:36 22.10.2019
5809 Clouds 19 1017 88 10000 0.5 0 01:18 22.10.2019
5810 Clouds 19 1017 88 10000 0.5 0 00:41 22.10.2019
5811 Clouds 19 1018 88 10000 0.5 0 00:22 22.10.2019
5812 Clouds 20 1018 82 10000 1 0 23:58 21.10.2019
5813 Clouds 19 1018 88 10000 1.5 0 23:37 21.10.2019
5814 Clouds 19 1018 88 10000 1.5 0 23:19 21.10.2019
5815 Clouds 20 1019 77 10000 1.5 160 22:57 21.10.2019
5816 Clouds 20 1019 77 10000 2.1 150 22:38 21.10.2019
5817 Clouds 20 1019 77 10000 2.1 150 22:19 21.10.2019
5818 Clouds 20 1019 77 10000 0.78 104 21:56 21.10.2019
5819 Clouds 21 1019 73 10000 2.6 100 21:37 21.10.2019
5820 Clouds 21 1019 73 10000 2.6 100 21:19 21.10.2019
5821 Clouds 21 1019 73 10000 3.6 150 20:56 21.10.2019
5822 Clouds 22 1019 60 10000 2.6 110 20:37 21.10.2019
5823 Clouds 22 1019 60 10000 2.6 110 20:19 21.10.2019
5824 Clouds 23 1019 53 10000 2.6 90 19:41 21.10.2019
5825 Clouds 22 1018 56 10000 3.1 90 19:23 21.10.2019
5826 Clouds 24 1018 47 10000 3.1 20 18:57 21.10.2019
5827 Clouds 24 1018 47 10000 3.1 20 18:39 21.10.2019
5828 Clouds 24 1018 47 10000 3.1 20 18:39 21.10.2019
5829 Clouds 24 1018 44 10000 3.1 20 18:19 21.10.2019
5830 Clouds 24 1017 47 10000 3.1 30 17:59 21.10.2019
5831 Clouds 24 1017 47 10000 3.1 30 17:38 21.10.2019
5832 Clouds 25 1017 44 10000 4.1 30 17:19 21.10.2019
5833 Clouds 26 1017 41 10000 5.7 10 16:57 21.10.2019
5834 Clouds 26 1017 41 10000 5.7 10 16:39 21.10.2019
5835 Clouds 26 1016 41 10000 2.1 50 16:20 21.10.2019
5836 Clouds 27 1016 39 10000 4.1 360 15:47 21.10.2019
5837 Clouds 27 1016 36 10000 3.1 10 15:27 21.10.2019
5838 Clouds 27 1016 39 10000 2.1 30 14:58 21.10.2019
5839 Clouds 27 1016 39 10000 2.1 30 14:39 21.10.2019
5840 Clouds 28 1016 34 10000 3.1 0 14:21 21.10.2019
5841 Clouds 29 1016 32 10000 5.1 320 13:57 21.10.2019
5842 Clouds 29 1016 32 10000 5.1 320 13:39 21.10.2019
5843 Clouds 28 1017 34 10000 3.1 60 13:19 21.10.2019
5844 Clouds 27 1017 36 10000 2.6 0 12:42 21.10.2019
5845 Clouds 27 1018 36 10000 1.5 0 12:23 21.10.2019
5846 Clouds 27 1018 36 10000 1.5 0 12:23 21.10.2019
5847 Clouds 27 1018 36 10000 3.1 0 11:57 21.10.2019
5848 Clouds 27 1018 36 10000 3.1 0 11:39 21.10.2019
5849 Clouds 26 1018 41 10000 3.1 80 11:20 21.10.2019
5850 Clouds 26 1019 47 10000 3.6 0 10:57 21.10.2019
5851 Clouds 25 1019 47 10000 3.1 0 10:38 21.10.2019
5852 Clouds 25 1019 47 10000 3.1 0 10:19 21.10.2019
5853 Clouds 24 1020 50 10000 3.1 30 09:48 21.10.2019
5854 Clouds 23 1020 53 10000 2.1 20 09:26 21.10.2019
5855 Clouds 23 1021 56 10000 2.1 30 08:58 21.10.2019
5856 Clouds 23 1021 56 10000 2.1 30 08:39 21.10.2019
5857 Clouds 21 1021 60 10000 2.6 20 08:21 21.10.2019
5858 Clouds 20 1021 64 10000 2.6 350 07:39 21.10.2019
5859 Clouds 20 1021 68 10000 4.1 40 07:21 21.10.2019
5860 Clouds 19 1020 72 10000 3.1 50 06:57 21.10.2019
5861 Clouds 19 1020 72 10000 3.1 50 06:39 21.10.2019
5862 Clouds 15 1020 87 10000 1 70 05:57 21.10.2019
5863 Clouds 13 1019 100 10000 1 80 04:46 21.10.2019
5864 Clouds 14 1019 93 10000 1.5 80 03:38 21.10.2019
5865 Clouds 14 1019 93 10000 1.5 50 02:25 21.10.2019
5866 Clouds 14 1019 93 10000 1.5 50 01:59 21.10.2019
5867 Clouds 14 1019 93 10000 2.1 90 01:23 21.10.2019
5868 Clouds 15 1020 87 10000 2.6 90 00:48 21.10.2019
5869 Clouds 15 1020 87 10000 3.1 110 00:26 21.10.2019
5870 Clouds 15 1020 93 10000 2.6 90 23:42 20.10.2019
5871 Clouds 15 1021 93 10000 1.5 70 23:22 20.10.2019
5872 Fog 15 1021 87 10000 2.1 70 22:57 20.10.2019
5873 Clouds 15 1021 87 10000 2.6 90 22:38 20.10.2019
5874 Clouds 15 1021 87 10000 2.6 90 22:18 20.10.2019
5875 Clouds 16 1021 82 10000 2.1 70 21:57 20.10.2019
5876 Clouds 16 1021 82 10000 2.1 70 21:57 20.10.2019
5877 Clouds 16 1021 82 10000 2.1 70 21:38 20.10.2019
5878 Clouds 16 1021 87 10000 4.1 100 21:20 20.10.2019
5879 Clouds 17 1021 82 10000 3.6 130 20:41 20.10.2019
5880 Clouds 17 1021 82 10000 3.6 130 20:19 20.10.2019
5881 Clouds 17 1021 82 10000 4.1 140 19:57 20.10.2019
5882 Clouds 17 1021 82 10000 4.1 140 19:57 20.10.2019
5883 Clouds 17 1021 82 10000 4.1 140 19:38 20.10.2019
5884 Clouds 19 1020 63 10000 6.2 90 19:20 20.10.2019
5885 Clear 19 1020 52 0 2.1 70 18:56 20.10.2019
5886 Clouds 20 1019 49 10000 3.1 80 18:37 20.10.2019
5887 Clouds 20 1019 49 10000 3.1 80 18:19 20.10.2019
5888 Clouds 21 1019 46 10000 4.6 80 17:43 20.10.2019
5889 Clouds 23 1019 40 10000 2.1 40 17:24 20.10.2019
5890 Clouds 25 1019 25 10000 1 180 16:59 20.10.2019
5891 Clouds 25 1019 25 10000 1 180 16:41 20.10.2019
5892 Clouds 27 1018 22 10000 1.5 0 16:22 20.10.2019
5893 Clouds 28 1018 21 10000 2.6 190 15:56 20.10.2019
5894 Clouds 28 1018 21 10000 3.1 220 15:38 20.10.2019
5895 Clouds 28 1018 21 10000 3.1 220 15:19 20.10.2019
5896 Clouds 28 1018 21 10000 1 0 14:56 20.10.2019
5897 Clouds 27 1019 24 10000 2.1 60 14:37 20.10.2019
5898 Clouds 27 1019 24 10000 2.1 60 14:18 20.10.2019
5899 Clouds 27 1019 22 10000 1.5 0 13:54 20.10.2019
5900 Clouds 27 1019 22 10000 1.5 0 13:54 20.10.2019
5901 Clouds 27 1019 22 10000 1.5 0 13:54 20.10.2019
5902 Clouds 27 1019 22 10000 1.5 0 13:54 20.10.2019
5903 Clouds 27 1019 24 10000 2.6 0 13:36 20.10.2019
5904 Clouds 27 1019 24 10000 2.6 0 13:18 20.10.2019
5905 Clouds 26 1019 26 10000 2.1 0 12:54 20.10.2019
5906 Clouds 26 1019 26 10000 2.1 0 12:54 20.10.2019
5907 Clouds 26 1020 27 10000 3.1 60 12:36 20.10.2019
5908 Clouds 26 1020 27 10000 3.1 60 12:18 20.10.2019
5909 Clouds 26 1020 26 10000 3.6 190 11:41 20.10.2019
5910 Clouds 25 1020 29 10000 3.1 130 11:22 20.10.2019
5911 Clouds 25 1021 27 10000 3.1 0 10:58 20.10.2019
5912 Clouds 25 1021 27 10000 3.1 0 10:39 20.10.2019
5913 Clouds 25 1021 27 10000 3.1 0 10:39 20.10.2019
5914 Clouds 24 1021 31 10000 3.6 180 10:21 20.10.2019
5915 Clouds 23 1022 33 10000 2.6 0 09:55 20.10.2019
5916 Clouds 22 1022 37 10000 3.6 160 09:37 20.10.2019
5917 Clouds 22 1022 37 10000 3.6 160 09:18 20.10.2019
5918 Clouds 22 1022 37 10000 3.6 160 09:18 20.10.2019
5919 Clouds 21 1022 43 10000 3.6 130 08:39 20.10.2019
5920 Clouds 18 1023 59 10000 2.6 0 08:20 20.10.2019
5921 Clouds 18 1023 59 10000 2.6 0 07:47 20.10.2019
5922 Clouds 17 1023 63 10000 3.6 100 07:26 20.10.2019
5923 Clouds 15 1023 72 10000 2.1 150 06:30 20.10.2019
5924 Clouds 11 1022 93 10000 3.6 90 04:29 20.10.2019
5925 Clouds 12 1021 81 10000 3.1 100 03:50 20.10.2019
5926 Clouds 13 1021 76 10000 3.1 120 03:22 20.10.2019
5927 Clouds 13 1021 76 10000 3.1 130 02:48 20.10.2019
5928 Clouds 14 1021 71 10000 4.1 120 02:22 20.10.2019
5929 Clouds 14 1021 76 10000 4.6 100 01:47 20.10.2019
5930 Clouds 14 1021 76 10000 4.6 100 01:20 20.10.2019
5931 Clouds 14 1022 82 10000 3.6 130 00:48 20.10.2019
5932 Clouds 13 1022 87 10000 4.1 120 00:20 20.10.2019
5933 Clouds 13 1022 87 10000 4.6 100 23:44 19.10.2019
5934 Clouds 14 1022 82 10000 5.7 120 23:24 19.10.2019
5935 Clouds 14 1023 82 10000 5.1 100 22:59 19.10.2019
5936 Clouds 14 1023 82 10000 5.1 100 22:40 19.10.2019
5937 Clouds 14 1023 82 10000 4.6 90 22:20 19.10.2019
5938 Clouds 14 1023 87 10000 5.1 100 21:54 19.10.2019
5939 Clouds 15 1023 82 10000 5.1 90 21:36 19.10.2019
5940 Clouds 15 1023 82 10000 5.1 90 21:18 19.10.2019
5941 Clouds 15 1023 82 10000 5.7 100 20:41 19.10.2019
5942 Clouds 15 1023 82 10000 5.7 100 20:20 19.10.2019
5943 Clouds 16 1023 77 10000 6.7 100 19:41 19.10.2019
5944 Clouds 16 1022 77 10000 5.1 100 19:23 19.10.2019
5945 Clouds 17 1022 67 10000 7.2 100 18:54 19.10.2019
5946 Clouds 17 1022 67 10000 7.2 100 18:54 19.10.2019
5947 Clouds 18 1022 63 10000 5.7 100 18:36 19.10.2019
5948 Clouds 18 1022 63 10000 5.7 100 18:18 19.10.2019
5949 Clouds 18 1022 63 10000 5.7 100 18:18 19.10.2019
5950 Clouds 18 1022 63 10000 5.7 100 18:18 19.10.2019
5951 Clouds 19 1021 59 10000 5.7 100 17:40 19.10.2019
5952 Clouds 20 1021 52 10000 5.7 100 17:21 19.10.2019
5953 Clouds 21 1021 46 10000 5.1 120 16:54 19.10.2019
5954 Clouds 22 1020 40 10000 5.1 110 16:36 19.10.2019
5955 Clouds 22 1020 40 10000 5.1 110 16:18 19.10.2019
5956 Clouds 23 1020 40 10000 5.1 120 15:40 19.10.2019
5957 Clouds 23 1020 40 10000 5.1 120 15:40 19.10.2019
5958 Clouds 23 1020 38 10000 4.1 130 15:22 19.10.2019
5959 Clouds 23 1020 35 10000 4.1 110 14:38 19.10.2019
5960 Clouds 24 1020 36 10000 4.6 120 14:20 19.10.2019
5961 Clouds 24 1020 38 10000 5.1 100 13:56 19.10.2019
5962 Clouds 24 1020 38 10000 4.6 110 13:38 19.10.2019
5963 Clouds 24 1020 38 10000 4.6 110 13:18 19.10.2019
5964 Clouds 24 1020 38 10000 5.1 130 12:42 19.10.2019
5965 Clouds 24 1021 38 10000 4.6 110 12:23 19.10.2019
5966 Clouds 24 1021 36 10000 4.6 100 11:59 19.10.2019
5967 Clouds 24 1021 36 10000 4.6 100 11:40 19.10.2019
5968 Clouds 23 1021 40 10000 4.1 120 11:22 19.10.2019
5969 Clouds 22 1021 43 10000 4.1 140 10:54 19.10.2019
5970 Clouds 22 1022 43 10000 4.1 130 10:36 19.10.2019
5971 Clouds 22 1022 43 10000 4.1 130 10:18 19.10.2019
5972 Clouds 20 1023 49 10000 4.1 120 09:41 19.10.2019
5973 Clouds 20 1023 49 10000 4.1 120 09:41 19.10.2019
5974 Clouds 20 1023 49 10000 4.1 120 09:23 19.10.2019
5975 Clouds 19 1023 48 10000 4.1 120 08:58 19.10.2019
5976 Clouds 19 1023 48 10000 4.1 120 08:58 19.10.2019
5977 Clouds 18 1023 52 10000 4.6 130 08:39 19.10.2019
5978 Clouds 18 1023 52 10000 4.6 130 08:39 19.10.2019
5979 Clouds 18 1023 52 10000 4.6 130 08:19 19.10.2019
5980 Clouds 17 1023 55 10000 4.1 130 07:42 19.10.2019
5981 Clouds 17 1023 55 10000 4.1 130 07:23 19.10.2019
5982 Clouds 15 1023 62 10000 4.6 150 06:39 19.10.2019
5983 Clouds 14 1023 67 10000 4.6 140 05:54 19.10.2019
5984 Clouds 13 1023 71 10000 3.6 140 05:26 19.10.2019
5985 Clouds 13 1022 76 10000 3.6 140 03:22 19.10.2019
5986 Clouds 13 1022 76 10000 3.6 140 03:22 19.10.2019
5987 Clouds 14 1022 71 10000 4.6 110 02:34 19.10.2019
5988 Clouds 14 1022 71 10000 3.6 120 01:50 19.10.2019
5989 Clouds 14 1022 76 10000 5.7 100 00:57 19.10.2019
5990 Clouds 14 1023 76 10000 6.2 100 00:37 19.10.2019
5991 Clouds 14 1023 76 10000 6.2 100 00:19 19.10.2019
5992 Clouds 15 1023 77 10000 5.7 100 23:38 18.10.2019
5993 Clouds 15 1023 77 10000 5.7 100 23:20 18.10.2019
5994 Clouds 15 1023 77 10000 6.2 120 22:55 18.10.2019
5995 Clouds 15 1023 82 10000 4.6 120 22:36 18.10.2019
5996 Clouds 15 1023 82 10000 4.6 120 22:18 18.10.2019
5997 Clouds 15 1024 82 10000 4.6 120 21:55 18.10.2019
5998 Clouds 15 1024 82 10000 3.6 120 21:36 18.10.2019
5999 Clouds 15 1024 82 10000 3.6 120 21:18 18.10.2019
6000 Clouds 15 1024 82 10000 3.6 120 21:18 18.10.2019
6001 Clouds 15 1023 82 10000 4.1 130 20:43 18.10.2019
6002 Clouds 15 1023 82 10000 4.1 130 20:23 18.10.2019
6003 Clouds 16 1023 77 10000 5.1 120 19:58 18.10.2019
6004 Clouds 16 1023 77 10000 5.1 120 19:40 18.10.2019
6005 Clouds 16 1023 77 10000 5.1 120 19:22 18.10.2019
6006 Clouds 16 1023 77 10000 5.7 120 18:59 18.10.2019
6007 Clouds 16 1023 77 10000 5.7 120 18:41 18.10.2019
6008 Clouds 16 1023 77 10000 4.1 120 18:22 18.10.2019
6009 Clouds 17 1022 72 10000 7.2 110 17:55 18.10.2019
6010 Clouds 18 1022 68 10000 6.7 100 17:36 18.10.2019
6011 Clouds 18 1022 68 10000 6.7 100 17:18 18.10.2019
6012 Clouds 19 1021 63 10000 6.2 110 16:39 18.10.2019
6013 Clouds 20 1021 60 10000 5.7 100 16:20 18.10.2019
6014 Clouds 21 1021 56 10000 5.7 110 15:57 18.10.2019
6015 Clouds 21 1021 56 10000 6.7 110 15:37 18.10.2019
6016 Clouds 21 1021 56 10000 6.7 110 15:19 18.10.2019
6017 Clouds 21 1021 56 10000 6.2 120 14:56 18.10.2019
6018 Clouds 22 1021 56 10000 7.7 110 14:38 18.10.2019
6019 Clouds 22 1021 56 10000 7.7 110 14:18 18.10.2019
6020 Clouds 23 1021 53 10000 4.6 110 13:45 18.10.2019
6021 Clouds 23 1021 53 10000 4.6 110 13:45 18.10.2019
6022 Clouds 23 1021 53 7000 5.1 130 13:26 18.10.2019
6023 Clouds 23 1021 53 7000 5.7 100 12:59 18.10.2019
6024 Clouds 23 1021 53 7000 5.7 100 12:40 18.10.2019
6025 Clouds 22 1021 53 10000 5.1 130 12:22 18.10.2019
6026 Clouds 22 1022 53 10000 5.1 160 11:57 18.10.2019
6027 Clouds 22 1022 53 10000 5.1 160 11:39 18.10.2019
6028 Clouds 22 1022 53 10000 5.1 100 11:20 18.10.2019
6029 Clouds 20 1023 60 10000 5.7 100 10:56 18.10.2019
6030 Clouds 20 1023 60 10000 5.7 130 10:38 18.10.2019
6031 Clouds 20 1023 60 10000 5.7 130 10:38 18.10.2019
6032 Clouds 20 1023 60 10000 5.7 130 10:18 18.10.2019
6033 Clouds 20 1023 60 10000 4.1 150 09:55 18.10.2019
6034 Clouds 20 1023 60 10000 5.1 130 09:37 18.10.2019
6035 Clouds 20 1023 60 10000 5.1 130 09:18 18.10.2019
6036 Clouds 20 1024 60 10000 6.2 120 08:42 18.10.2019
6037 Clouds 20 1024 60 10000 6.2 120 08:42 18.10.2019
6038 Clouds 18 1024 68 10000 6.7 130 08:23 18.10.2019
6039 Clouds 18 1024 68 10000 6.7 130 08:23 18.10.2019
6040 Clouds 16 1024 72 10000 5.7 150 07:44 18.10.2019
6041 Clouds 15 1024 77 10000 4.6 140 07:26 18.10.2019
6042 Clouds 14 1024 82 10000 5.1 160 06:41 18.10.2019
6043 Clouds 14 1024 76 10000 5.7 170 06:22 18.10.2019
6044 Clouds 13 1024 82 10000 3.6 150 05:58 18.10.2019
6045 Clouds 13 1023 76 10000 4.1 150 05:24 18.10.2019
6046 Clouds 13 1023 82 10000 3.6 160 04:49 18.10.2019
6047 Clouds 13 1023 93 10000 3.6 140 03:33 18.10.2019
6048 Clouds 14 1023 87 10000 4.6 160 02:36 18.10.2019
6049 Clouds 15 1023 82 10000 4.6 150 01:55 18.10.2019
6050 Clouds 15 1023 82 10000 5.7 150 01:30 18.10.2019
6051 Clouds 15 1023 87 10000 4.1 160 00:46 18.10.2019
6052 Clouds 15 1023 87 10000 5.1 140 00:21 18.10.2019
6053 Clouds 15 1023 82 10000 5.1 140 23:59 17.10.2019
6054 Clouds 16 1024 82 10000 5.1 130 23:38 17.10.2019
6055 Clouds 16 1024 82 10000 5.1 130 23:38 17.10.2019
6056 Clouds 16 1024 82 10000 5.1 130 23:19 17.10.2019
6057 Clouds 16 1024 82 10000 4.6 140 22:55 17.10.2019
6058 Clouds 16 1024 82 10000 3.6 160 22:37 17.10.2019
6059 Clouds 16 1024 82 10000 3.6 160 22:18 17.10.2019
6060 Clouds 16 1024 82 10000 5.7 170 21:56 17.10.2019
6061 Clouds 16 1024 87 10000 5.7 160 21:37 17.10.2019
6062 Clouds 16 1024 87 10000 5.7 160 21:19 17.10.2019
6063 Clouds 17 1024 82 10000 4.1 140 20:56 17.10.2019
6064 Clouds 17 1024 82 10000 4.1 140 20:56 17.10.2019
6065 Clouds 17 1024 82 10000 5.7 120 20:37 17.10.2019
6066 Clouds 17 1024 82 10000 5.7 120 20:18 17.10.2019
6067 Clouds 17 1024 82 10000 5.7 120 19:42 17.10.2019
6068 Clouds 17 1024 82 10000 5.7 120 19:42 17.10.2019
6069 Clouds 17 1024 82 10000 5.7 120 19:42 17.10.2019
6070 Clouds 17 1024 88 10000 5.7 120 19:20 17.10.2019
6071 Clouds 18 1023 82 10000 4.6 130 18:59 17.10.2019
6072 Clouds 18 1023 82 10000 4.6 130 18:39 17.10.2019
6073 Clouds 18 1023 82 10000 5.1 140 18:20 17.10.2019
6074 Clouds 18 1023 82 10000 5.7 140 17:44 17.10.2019
6075 Clouds 19 1022 77 10000 7.2 120 17:25 17.10.2019
6076 Rain 20 1022 72 10000 6.7 120 16:59 17.10.2019
6077 Rain 20 1022 72 10000 6.7 120 16:41 17.10.2019
6078 Clouds 21 1021 68 10000 6.7 150 16:19 17.10.2019
6079 -273 0 0 0 0 0 15:57 17.10.2019
6080 Clouds 22 1021 60 10000 7.7 110 15:57 17.10.2019
6081 Clouds 22 1021 60 10000 7.7 110 15:38 17.10.2019
6082 Clouds 22 1021 60 10000 7.7 110 15:38 17.10.2019
6083 Clouds 23 1021 60 10000 9.8 120 15:20 17.10.2019
6084 Clouds 24 1020 57 10000 7.7 110 14:56 17.10.2019
6085 Clouds 24 1020 57 10000 7.7 110 14:38 17.10.2019
6086 Clouds 24 1020 53 10000 7.2 120 14:20 17.10.2019
6087 Clouds 24 1020 53 10000 7.2 110 13:40 17.10.2019
6088 Clouds 25 1020 47 10000 6.7 110 13:20 17.10.2019
6089 Clouds 25 1021 50 10000 6.2 120 12:58 17.10.2019
6090 Clouds 24 1021 50 10000 6.7 120 12:37 17.10.2019
6091 Clouds 24 1021 50 10000 6.7 120 12:19 17.10.2019
6092 Clouds 23 1022 56 10000 6.2 100 11:42 17.10.2019
6093 Clouds 23 1022 56 10000 6.2 100 11:42 17.10.2019
6094 Clouds 22 1022 56 10000 6.2 110 11:22 17.10.2019
6095 Clouds 22 1023 60 10000 5.1 140 10:59 17.10.2019
6096 Clouds 22 1023 60 10000 5.1 140 10:41 17.10.2019
6097 Clouds 21 1023 64 10000 5.1 120 10:19 17.10.2019
6098 Clouds 20 1023 64 10000 4.1 150 09:56 17.10.2019
6099 Clouds 20 1023 64 10000 5.7 120 09:37 17.10.2019
6100 Clouds 20 1023 64 10000 5.7 120 09:19 17.10.2019
6101 Clouds 19 1023 68 10000 5.1 130 08:48 17.10.2019
6102 Clouds 18 1023 72 10000 5.7 160 08:27 17.10.2019
6103 Clouds 19 1023 68 10000 4.6 150 07:58 17.10.2019
6104 Clouds 19 1023 68 10000 4.6 150 07:40 17.10.2019
6105 Clouds 18 1023 72 10000 4.6 140 07:20 17.10.2019
6106 Clouds 18 1023 72 10000 4.6 140 07:20 17.10.2019
6107 Clouds 18 1023 72 10000 5.1 140 06:42 17.10.2019
6108 Clouds 18 1023 72 10000 4.6 140 06:23 17.10.2019
6109 Clouds 16 1022 82 10000 4.6 150 05:58 17.10.2019
6110 Clouds 16 1022 82 10000 3.6 150 05:34 17.10.2019
6111 Clouds 15 1022 87 10000 4.1 140 04:57 17.10.2019
6112 Clouds 15 1022 82 10000 4.1 140 03:58 17.10.2019
6113 Clouds 15 1021 82 10000 3.6 150 03:38 17.10.2019
6114 Clouds 15 1022 82 10000 4.1 150 01:55 17.10.2019
6115 Clouds 16 1022 77 10000 5.1 140 00:41 17.10.2019
6116 Clouds 16 1022 77 10000 5.1 150 00:20 17.10.2019
6117 Clouds 16 1022 77 10000 5.1 150 00:20 17.10.2019
6118 Clouds 16 1022 77 10000 4.6 140 23:42 16.10.2019
6119 Clouds 16 1023 77 10000 5.7 150 23:21 16.10.2019
6120 Clouds 16 1023 82 10000 4.1 150 22:56 16.10.2019
6121 Clouds 16 1023 82 10000 4.1 160 22:38 16.10.2019
6122 Clouds 16 1023 82 10000 4.1 160 22:19 16.10.2019
6123 Clouds 17 1023 82 10000 4.6 140 21:58 16.10.2019
6124 Clouds 17 1023 82 10000 5.1 130 21:38 16.10.2019
6125 Clouds 17 1023 82 10000 5.1 130 21:19 16.10.2019
6126 Clouds 17 1023 82 10000 5.1 130 20:58 16.10.2019
6127 Clouds 17 1023 82 10000 5.1 130 20:58 16.10.2019
6128 Clouds 17 1023 82 10000 5.1 130 20:39 16.10.2019
6129 Clouds 17 1023 82 10000 5.1 130 20:21 16.10.2019
6130 Clouds 17 1022 82 10000 6.7 120 19:59 16.10.2019
6131 Clouds 17 1022 82 10000 6.7 120 19:39 16.10.2019
6132 Clouds 18 1022 77 10000 5.7 130 19:20 16.10.2019
6133 Clouds 18 1022 77 10000 5.7 130 18:40 16.10.2019
6134 Clouds 19 1021 77 10000 5.1 130 18:20 16.10.2019
6135 Rain 19 1021 77 10000 4.6 110 17:58 16.10.2019
6136 Rain 19 1021 77 10000 4.6 110 17:58 16.10.2019
6137 Rain 19 1021 77 10000 4.6 110 17:39 16.10.2019
6138 Clouds 19 1021 72 10000 6.2 110 17:21 16.10.2019
6139 Clouds 20 1020 64 10000 4.6 150 17:00 16.10.2019
6140 Clouds 20 1020 64 10000 4.6 150 16:41 16.10.2019
6141 Clouds 21 1020 60 10000 6.7 120 16:21 16.10.2019
6142 Clouds 22 1020 60 10000 6.2 110 15:57 16.10.2019
6143 Clouds 22 1020 60 10000 6.2 110 15:56 16.10.2019
6144 Clouds 22 1020 60 10000 6.2 110 15:56 16.10.2019
6145 Clouds 22 1020 60 10000 6.2 110 15:56 16.10.2019
6146 Clouds 22 1019 60 10000 6.2 100 15:38 16.10.2019
6147 Clouds 22 1019 60 10000 6.2 100 15:18 16.10.2019
6148 Clouds 24 1019 50 10000 6.7 110 14:56 16.10.2019
6149 Clouds 24 1019 50 10000 6.7 110 14:56 16.10.2019
6150 Clouds 24 1019 50 10000 6.7 110 14:37 16.10.2019
6151 Clouds 24 1019 50 10000 6.7 110 14:37 16.10.2019
6152 Clouds 24 1019 50 10000 6.7 110 14:18 16.10.2019
6153 Clouds 24 1019 53 10000 6.2 130 13:55 16.10.2019
6154 Clouds 24 1019 53 10000 6.2 130 13:55 16.10.2019
6155 Clouds 23 1020 56 10000 6.2 140 13:36 16.10.2019
6156 Clouds 23 1020 56 10000 6.2 140 13:18 16.10.2019
6157 Clouds 23 1020 56 10000 6.2 100 12:40 16.10.2019
6158 Clouds 22 1020 60 10000 7.2 100 12:18 16.10.2019
6159 Clouds 22 1021 60 10000 5.1 100 11:42 16.10.2019
6160 Clouds 23 1021 60 10000 6.7 110 11:18 16.10.2019
6161 Clouds 23 1021 60 10000 6.7 110 11:18 16.10.2019
6162 Clouds 21 1021 68 10000 7.2 120 10:39 16.10.2019
6163 Clouds 21 1022 64 10000 5.7 110 10:20 16.10.2019
6164 Clouds 21 1022 64 10000 4.1 140 09:55 16.10.2019
6165 Clouds 21 1022 64 10000 3.6 140 09:37 16.10.2019
6166 Clouds 21 1022 64 10000 3.6 140 09:19 16.10.2019
6167 Clouds 20 1022 72 10000 4.6 120 08:42 16.10.2019
6168 Clouds 20 1022 72 10000 5.1 120 08:24 16.10.2019
6169 Clouds 18 1022 77 10000 4.1 140 07:45 16.10.2019
6170 Clouds 18 1022 77 10000 4.1 140 07:45 16.10.2019
6171 -273 0 0 0 0 0 07:25 16.10.2019
6172 Clouds 17 1022 82 10000 4.6 150 06:58 16.10.2019
6173 Clouds 17 1022 82 10000 4.6 150 06:58 16.10.2019
6174 Clouds 17 1022 82 10000 4.6 150 06:39 16.10.2019
6175 Clouds 16 1021 87 10000 3.1 140 05:44 16.10.2019
6176 Clouds 16 1020 93 10000 4.1 110 02:58 16.10.2019
6177 Clouds 17 1020 88 10000 4.1 120 02:38 16.10.2019
6178 Clouds 17 1021 93 10000 3.1 110 01:19 16.10.2019
6179 Clouds 17 1021 88 10000 4.6 110 00:47 16.10.2019
6180 Clouds 17 1021 88 10000 3.6 110 00:27 16.10.2019
6181 Clouds 17 1021 93 10000 3.1 120 23:40 15.10.2019
6182 Clouds 17 1021 93 10000 4.1 110 23:22 15.10.2019
6183 Clouds 17 1021 93 10000 4.1 110 23:22 15.10.2019
6184 Clouds 17 1021 93 10000 3.6 140 22:56 15.10.2019
6185 Clouds 17 1021 93 10000 4.6 130 22:38 15.10.2019
6186 Clouds 17 1021 93 10000 4.6 130 22:19 15.10.2019
6187 Clouds 17 1021 93 10000 5.1 120 21:56 15.10.2019
6188 Clouds 17 1021 93 10000 3.6 110 21:38 15.10.2019
6189 Clouds 17 1021 93 10000 3.6 110 21:19 15.10.2019
6190 Rain 18 1021 88 8000 3.6 100 20:57 15.10.2019
6191 Rain 18 1021 88 8000 3.6 100 20:57 15.10.2019
6192 Rain 18 1021 88 8000 3.6 100 20:39 15.10.2019
6193 Thunderstorm 18 1021 88 10000 3.1 140 20:20 15.10.2019
6194 Thunderstorm 18 1021 88 10000 3.1 140 20:20 15.10.2019
6195 Thunderstorm 18 1021 88 10000 4.1 120 19:57 15.10.2019
6196 Thunderstorm 18 1021 88 10000 4.1 120 19:39 15.10.2019
6197 Thunderstorm 18 1020 93 6000 4.1 110 19:19 15.10.2019
6198 Thunderstorm 18 1020 93 6000 4.1 110 19:19 15.10.2019
6199 Thunderstorm 18 1020 93 6000 4.6 110 18:47 15.10.2019
6200 Thunderstorm 18 1020 93 4000 3.6 90 18:28 15.10.2019
6201 Thunderstorm 17 1019 100 4000 3.1 70 17:58 15.10.2019
6202 Thunderstorm 17 1019 100 4000 3.1 70 17:38 15.10.2019
6203 Thunderstorm 18 1019 93 2500 3.1 0 17:19 15.10.2019
6204 Thunderstorm 19 1017 88 10000 7.2 160 16:46 15.10.2019
6205 Thunderstorm 21 1017 73 10000 7.2 110 16:23 15.10.2019
6206 Thunderstorm 24 1017 60 10000 5.1 60 15:59 15.10.2019
6207 Thunderstorm 24 1017 60 10000 5.1 60 15:40 15.10.2019
6208 Thunderstorm 24 1017 60 10000 6.2 40 15:20 15.10.2019
6209 Thunderstorm 26 1016 50 10000 5.1 30 14:57 15.10.2019
6210 Thunderstorm 26 1016 54 10000 5.1 30 14:38 15.10.2019
6211 Thunderstorm 26 1016 54 10000 5.1 30 14:19 15.10.2019
6212 Clouds 28 1017 45 10000 4.6 40 13:44 15.10.2019
6213 Clouds 28 1017 45 10000 3.1 0 13:21 15.10.2019
6214 Clouds 28 1017 42 10000 2.1 110 12:59 15.10.2019
6215 Clouds 28 1017 42 10000 2.1 110 12:39 15.10.2019
6216 Clouds 28 1017 45 10000 3.1 110 12:20 15.10.2019
6217 Clouds 28 1018 48 10000 2.1 0 11:44 15.10.2019
6218 Clouds 27 1019 47 10000 2.1 0 11:21 15.10.2019
6219 Clouds 27 1019 47 10000 2.6 0 10:58 15.10.2019
6220 Clouds 27 1019 47 10000 2.6 0 10:39 15.10.2019
6221 Clouds 25 1019 53 10000 1.5 0 10:19 15.10.2019
6222 Clouds 25 1020 53 10000 1.5 0 09:57 15.10.2019
6223 Clouds 25 1020 53 10000 3.6 70 09:37 15.10.2019
6224 Clouds 25 1020 53 10000 3.6 70 09:19 15.10.2019
6225 Clouds 24 1020 53 10000 2.6 80 08:42 15.10.2019
6226 Clouds 23 1020 60 10000 2.1 50 08:21 15.10.2019
6227 Clouds 22 1020 73 10000 2.1 60 07:56 15.10.2019
6228 Clouds 22 1020 73 10000 2.1 60 07:56 15.10.2019
6229 -273 0 0 0 0 0 07:56 15.10.2019
6230 Clouds 20 1020 82 8000 2.1 100 07:38 15.10.2019
6231 Clouds 20 1020 82 8000 2.1 100 07:18 15.10.2019
6232 Mist 19 1020 88 5000 1.5 70 06:43 15.10.2019
6233 Mist 17 1020 100 3500 1 0 06:22 15.10.2019
6234 Mist 17 1020 93 1500 1.5 0 05:41 15.10.2019
6235 Mist 17 1019 93 2000 0.5 0 05:22 15.10.2019
6236 Mist 16 1019 100 3000 1 0 04:23 15.10.2019
6237 Clouds 17 1019 93 10000 0.91 156.552 03:36 15.10.2019
6238 Clouds 16 1019 100 10000 1.27 159.762 02:23 15.10.2019
6239 Clouds 17 1019 93 10000 1.27 159.762 01:47 15.10.2019
6240 Clouds 17 1019 93 10000 1 50 01:19 15.10.2019
6241 Clouds 17 1020 93 10000 0.71 151.545 00:47 15.10.2019
6242 Clouds 17 1020 93 10000 1 0 00:20 15.10.2019
6243 Clouds 17 1020 93 10000 2.1 70 23:40 14.10.2019
6244 Clouds 17 1020 93 10000 2.1 50 23:19 14.10.2019
6245 Clouds 17 1021 93 10000 2.1 80 22:41 14.10.2019
6246 Rain 18 1021 93 10000 2.1 60 22:21 14.10.2019
6247 Rain 18 1021 93 10000 2.1 60 22:21 14.10.2019
6248 Clouds 18 1021 88 10000 1.5 0 21:59 14.10.2019
6249 Clouds 18 1021 88 10000 1.5 0 21:40 14.10.2019
6250 Clouds 18 1021 88 10000 2.1 70 21:21 14.10.2019
6251 Thunderstorm 17 1021 93 10000 1 0 20:59 14.10.2019
6252 Thunderstorm 17 1021 93 10000 1 0 20:39 14.10.2019
6253 Thunderstorm 17 1021 100 10000 2.6 60 20:20 14.10.2019
6254 Thunderstorm 18 1021 88 7000 1.5 50 19:58 14.10.2019
6255 Thunderstorm 18 1021 88 7000 1.5 50 19:40 14.10.2019
6256 Thunderstorm 18 1021 88 7000 0.5 0 19:21 14.10.2019
6257 Thunderstorm 18 1021 88 7000 2.6 50 18:57 14.10.2019
6258 Thunderstorm 17 1021 93 7000 3.1 30 18:38 14.10.2019
6259 Thunderstorm 17 1021 93 7000 3.1 30 18:18 14.10.2019
6260 Thunderstorm 17 1021 93 7000 3.1 30 18:18 14.10.2019
6261 Thunderstorm 19 1020 88 7000 3.6 40 17:44 14.10.2019
6262 Thunderstorm 20 1020 77 7000 1 0 17:25 14.10.2019
6263 Thunderstorm 21 1019 68 9000 3.6 190 16:58 14.10.2019
6264 Thunderstorm 21 1019 68 9000 3.6 190 16:40 14.10.2019
6265 Clouds 23 1019 56 9000 5.7 200 16:20 14.10.2019
6266 Clouds 24 1018 53 10000 4.1 190 15:41 14.10.2019
6267 Clouds 26 1017 41 10000 3.6 140 15:22 14.10.2019
6268 Clouds 28 1017 37 10000 2.1 180 14:44 14.10.2019
6269 Clouds 25 1017 50 10000 3.6 190 14:26 14.10.2019
6270 Clouds 23 1018 53 10000 7.7 200 13:59 14.10.2019
6271 Clouds 23 1018 53 10000 7.7 200 13:40 14.10.2019
6272 Clouds 26 1018 47 10000 9.8 220 13:21 14.10.2019
6273 Clouds 28 1018 37 10000 2.6 180 12:42 14.10.2019
6274 Clouds 28 1019 39 10000 1.5 0 12:21 14.10.2019
6275 Clouds 28 1019 37 10000 2.1 40 11:57 14.10.2019
6276 Clouds 28 1019 37 10000 2.1 40 11:39 14.10.2019
6277 Clouds 28 1020 37 10000 2.1 0 11:20 14.10.2019
6278 Clouds 29 1020 37 10000 2.6 0 10:44 14.10.2019
6279 Clouds 28 1021 42 10000 2.6 0 10:21 14.10.2019
6280 Clouds 26 1021 47 10000 2.6 250 09:59 14.10.2019
6281 Clouds 26 1021 47 10000 2.6 250 09:40 14.10.2019
6282 Clouds 25 1021 50 10000 2.6 0 09:20 14.10.2019
6283 Clouds 24 1021 53 10000 3.6 230 08:48 14.10.2019
6284 Clouds 23 1022 60 10000 2.6 250 08:23 14.10.2019
6285 Clouds 23 1022 60 10000 2.6 190 07:44 14.10.2019
6286 Clouds 21 1022 64 10000 1 0 07:22 14.10.2019
6287 Clouds 20 1022 68 10000 0.5 0 06:55 14.10.2019
6288 Clouds 18 1021 82 10000 0.5 0 06:27 14.10.2019
6289 Clouds 16 1021 87 10000 1 0 05:52 14.10.2019
6290 Clouds 15 1021 87 10000 0.5 0 04:51 14.10.2019
6291 Clouds 15 1021 87 10000 2.1 330 03:48 14.10.2019
6292 Clouds 15 1021 87 10000 1 0 03:22 14.10.2019
6293 Clouds 16 1020 87 10000 2.1 60 01:46 14.10.2019
6294 Clouds 16 1021 87 10000 2.6 80 01:18 14.10.2019
6295 Clouds 17 1021 82 10000 3.6 100 00:23 14.10.2019
6296 Clouds 17 1021 82 10000 4.1 80 23:46 13.10.2019
6297 Clouds 17 1021 82 10000 2.6 50 23:21 13.10.2019
6298 Clouds 17 1021 82 10000 3.1 70 23:00 13.10.2019
6299 Clouds 17 1021 82 10000 3.1 70 22:41 13.10.2019
6300 Clouds 17 1022 82 10000 3.1 60 22:22 13.10.2019
6301 Clouds 17 1022 82 10000 3.1 60 22:22 13.10.2019
6302 Clouds 17 1022 82 10000 3.1 90 21:58 13.10.2019
6303 Clouds 17 1022 82 10000 5.1 90 21:38 13.10.2019
6304 Clouds 17 1022 82 10000 5.1 90 21:19 13.10.2019
6305 Clouds 18 1021 77 10000 4.1 80 20:58 13.10.2019
6306 Clouds 18 1021 77 10000 4.1 80 20:40 13.10.2019
6307 Clouds 18 1021 77 10000 3.6 100 20:21 13.10.2019
6308 Clouds 18 1021 77 10000 3.6 100 20:21 13.10.2019
6309 -273 0 0 0 0 0 19:59 13.10.2019
6310 Clouds 19 1021 72 10000 4.1 110 19:39 13.10.2019
6311 Clouds 19 1021 72 10000 4.1 110 19:39 13.10.2019
6312 Clouds 19 1021 72 10000 6.2 110 19:21 13.10.2019
6313 -273 0 0 0 0 0 18:59 13.10.2019
6314 Clouds 20 1020 64 10000 4.6 120 18:58 13.10.2019
6315 Clouds 20 1020 64 10000 4.6 120 18:58 13.10.2019
6316 Clouds 21 1020 56 10000 6.7 90 18:37 13.10.2019
6317 Clouds 21 1020 56 10000 6.7 90 18:19 13.10.2019
6318 Clouds 21 1020 56 10000 4.6 100 17:57 13.10.2019
6319 Clouds 21 1020 56 10000 4.6 100 17:39 13.10.2019
6320 Clouds 22 1019 53 10000 5.7 90 17:21 13.10.2019
6321 Clouds 24 1019 44 10000 6.2 100 16:43 13.10.2019
6322 Clouds 25 1019 41 10000 5.7 80 16:19 13.10.2019
6323 Clouds 26 1018 39 10000 5.1 100 15:57 13.10.2019
6324 -273 0 0 0 0 0 15:57 13.10.2019
6325 Clouds 27 1018 34 10000 4.1 110 15:38 13.10.2019
6326 Clouds 27 1018 34 10000 4.1 110 15:18 13.10.2019
6327 Clouds 27 1018 34 10000 5.1 110 14:57 13.10.2019
6328 Clouds 27 1018 34 10000 5.1 110 14:38 13.10.2019
6329 Clouds 27 1018 34 10000 4.6 140 14:19 13.10.2019
6330 Clouds 28 1018 32 10000 3.1 130 13:41 13.10.2019
6331 Clouds 27 1018 34 10000 3.1 90 13:23 13.10.2019
6332 Clouds 27 1019 36 10000 3.6 130 12:59 13.10.2019
6333 Clouds 27 1019 34 10000 4.1 120 12:39 13.10.2019
6334 Clouds 27 1019 34 10000 4.1 120 12:20 13.10.2019
6335 Clouds 27 1019 34 10000 4.6 120 11:58 13.10.2019
6336 Clouds 27 1019 34 10000 4.6 120 11:39 13.10.2019
6337 Clouds 26 1020 41 10000 4.1 140 11:20 13.10.2019
6338 -273 0 0 0 0 0 10:56 13.10.2019
6339 Clouds 24 1021 44 10000 4.6 100 10:38 13.10.2019
6340 Clouds 24 1021 44 10000 4.6 100 10:19 13.10.2019
6341 Clouds 23 1022 53 10000 3.6 150 09:39 13.10.2019
6342 Clouds 23 1022 53 10000 3.6 150 09:21 13.10.2019
6343 Clouds 22 1022 56 10000 3.6 120 08:43 13.10.2019
6344 Clouds 21 1022 60 10000 3.6 130 08:25 13.10.2019
6345 Clouds 21 1022 60 10000 3.6 130 08:25 13.10.2019
6346 Clouds 21 1022 60 10000 3.1 110 07:51 13.10.2019
6347 Clouds 20 1022 60 10000 3.1 130 07:33 13.10.2019
6348 Clouds 19 1022 68 10000 3.6 160 06:51 13.10.2019
6349 Clouds 18 1021 72 10000 3.1 140 06:23 13.10.2019
6350 Clouds 18 1021 72 10000 3.1 140 06:23 13.10.2019
6351 Clouds 15 1021 87 10000 4.6 110 05:19 13.10.2019
6352 Clouds 16 1020 87 10000 3.6 110 04:34 13.10.2019
6353 Clouds 17 1019 82 10000 3.1 100 02:53 13.10.2019
6354 Clouds 16 1019 87 10000 3.1 80 02:27 13.10.2019
6355 Clouds 16 1019 87 10000 4.1 90 01:36 13.10.2019
6356 Clouds 16 1020 87 10000 2.1 90 00:55 13.10.2019
6357 Clouds 17 1020 88 10000 3.1 60 00:37 13.10.2019
6358 Clouds 17 1020 88 10000 3.1 60 00:18 13.10.2019
6359 Clouds 16 1020 93 10000 3.6 70 23:41 12.10.2019
6360 Clouds 17 1020 88 10000 4.1 70 23:22 12.10.2019
6361 Drizzle 17 1021 88 10000 4.1 80 22:58 12.10.2019
6362 Drizzle 17 1021 88 10000 4.1 80 22:58 12.10.2019
6363 Drizzle 17 1021 88 10000 4.1 80 22:40 12.10.2019
6364 Drizzle 17 1021 88 10000 3.1 80 22:21 12.10.2019
6365 Clouds 18 1021 82 10000 3.6 70 21:57 12.10.2019
6366 Clouds 18 1021 82 10000 3.6 70 21:38 12.10.2019
6367 Clouds 18 1022 82 10000 4.6 80 21:20 12.10.2019
6368 Clouds 18 1022 82 10000 4.6 80 21:20 12.10.2019
6369 Clouds 19 1021 77 10000 4.6 90 20:45 12.10.2019
6370 Clouds 19 1021 77 10000 4.6 90 20:27 12.10.2019
6371 Clouds 19 1021 77 10000 5.1 110 19:42 12.10.2019
6372 Clouds 19 1020 77 10000 5.7 130 19:23 12.10.2019
6373 Clouds 20 1020 72 10000 6.2 120 18:59 12.10.2019
6374 Clouds 20 1020 72 10000 6.2 120 18:41 12.10.2019
6375 Clouds 20 1020 72 10000 6.2 120 18:41 12.10.2019
6376 Clouds 21 1019 68 10000 7.7 100 18:23 12.10.2019
6377 Clouds 22 1019 60 10000 7.7 100 17:45 12.10.2019
6378 Clouds 23 1018 56 10000 6.7 110 17:21 12.10.2019
6379 Clouds 24 1018 50 10000 5.1 90 16:57 12.10.2019
6380 Clouds 24 1018 50 10000 5.1 90 16:57 12.10.2019
6381 Clouds 25 1018 44 10000 5.7 120 16:38 12.10.2019
6382 Clouds 25 1018 44 10000 5.7 120 16:19 12.10.2019
6383 -273 0 0 0 0 0 15:44 12.10.2019
6384 Clouds 28 1017 37 10000 4.1 110 15:25 12.10.2019
6385 Clouds 28 1017 34 10000 4.1 180 14:59 12.10.2019
6386 Clouds 28 1017 32 10000 3.6 140 14:38 12.10.2019
6387 Clouds 28 1017 32 10000 3.6 140 14:19 12.10.2019
6388 Clouds 28 1017 34 10000 3.6 130 13:45 12.10.2019
6389 Clouds 28 1017 32 10000 3.1 160 13:27 12.10.2019
6390 Clouds 28 1018 32 10000 3.1 140 12:41 12.10.2019
6391 Clouds 28 1018 34 10000 3.6 150 12:22 12.10.2019
6392 Clouds 28 1018 34 10000 3.6 150 12:22 12.10.2019
6393 Clouds 27 1019 39 10000 3.6 130 11:59 12.10.2019
6394 Clouds 27 1019 39 10000 3.6 130 11:40 12.10.2019
6395 Clouds 27 1019 39 10000 3.6 0 11:22 12.10.2019
6396 Clouds 25 1020 44 10000 4.1 0 10:56 12.10.2019
6397 Clouds 25 1020 50 10000 3.6 130 10:37 12.10.2019
6398 Clouds 25 1020 50 10000 3.6 130 10:18 12.10.2019
6399 Clouds 25 1021 50 10000 4.1 180 09:55 12.10.2019
6400 Clouds 25 1021 50 10000 4.1 180 09:54 12.10.2019
6401 Clouds 24 1021 50 10000 3.1 140 09:36 12.10.2019
6402 Clouds 24 1021 50 10000 3.1 140 09:18 12.10.2019
6403 Clouds 24 1021 50 10000 3.1 140 09:18 12.10.2019
6404 -273 0 0 0 0 0 08:41 12.10.2019
6405 Clouds 23 1021 56 10000 2.6 140 08:20 12.10.2019
6406 Clouds 23 1021 56 10000 2.6 140 08:20 12.10.2019
6407 Clouds 23 1021 56 10000 2.6 140 08:20 12.10.2019
6408 Clouds 21 1021 60 10000 3.1 110 07:35 12.10.2019
6409 Clouds 20 1021 64 10000 3.6 80 06:59 12.10.2019
6410 Clouds 17 1020 82 10000 2.6 70 05:49 12.10.2019
6411 Clouds 16 1020 87 10000 1.5 60 05:24 12.10.2019
6412 Clouds 16 1020 87 10000 3.6 80 04:26 12.10.2019
6413 Clouds 17 1020 82 10000 3.6 80 03:41 12.10.2019
6414 Clouds 17 1020 82 10000 3.1 80 01:56 12.10.2019
6415 Clouds 17 1020 88 10000 2.6 80 01:24 12.10.2019
6416 Clouds 17 1020 88 10000 2.6 80 00:42 12.10.2019
6417 Clouds 17 1020 88 10000 4.1 90 00:19 12.10.2019
6418 Clouds 17 1020 88 10000 3.6 60 23:40 11.10.2019
6419 Clouds 18 1021 82 10000 4.6 70 23:20 11.10.2019
6420 Clouds 18 1021 82 10000 2.6 70 22:41 11.10.2019
6421 Clouds 18 1021 82 10000 2.1 60 22:22 11.10.2019
6422 Clouds 19 1022 77 10000 2.1 30 21:58 11.10.2019
6423 Clouds 19 1022 77 10000 2.1 30 21:39 11.10.2019
6424 Clouds 19 1022 77 10000 2.6 90 21:21 11.10.2019
6425 Clouds 19 1022 77 10000 4.1 130 20:45 11.10.2019
6426 Clouds 20 1022 68 10000 3.1 190 20:27 11.10.2019
6427 Clouds 20 1022 68 10000 3.1 190 20:27 11.10.2019
6428 Clouds 19 1022 77 10000 3.1 130 19:59 11.10.2019
6429 Clouds 19 1022 77 10000 3.1 130 19:39 11.10.2019
6430 Clouds 20 1021 72 10000 3.6 140 19:18 11.10.2019
6431 Clouds 20 1021 72 10000 3.6 140 19:18 11.10.2019
6432 Clouds 20 1021 72 10000 3.6 140 19:18 11.10.2019
6433 Clouds 20 1021 72 10000 3.6 140 19:18 11.10.2019
6434 Clouds 21 1021 64 10000 5.1 100 18:59 11.10.2019
6435 Clouds 21 1021 64 10000 5.1 100 18:59 11.10.2019
6436 Clouds 21 1020 60 10000 3.1 110 18:38 11.10.2019
6437 Clouds 21 1020 60 10000 3.1 110 18:19 11.10.2019
6438 Clouds 21 1020 60 10000 3.1 110 18:19 11.10.2019
6439 Clouds 21 1020 60 10000 3.1 110 18:19 11.10.2019
6440 Clouds 21 1020 60 10000 4.6 120 17:58 11.10.2019
6441 Clouds 22 1020 53 10000 6.2 170 17:38 11.10.2019
6442 Clouds 22 1020 53 10000 6.2 170 17:19 11.10.2019
6443 Clouds 24 1019 50 10000 5.7 180 16:58 11.10.2019
6444 Clouds 25 1019 41 10000 5.1 180 16:39 11.10.2019
6445 Clouds 25 1019 41 10000 5.1 180 16:19 11.10.2019
6446 Clouds 26 1019 39 10000 6.2 190 15:41 11.10.2019
6447 Clouds 26 1019 39 10000 6.2 190 15:41 11.10.2019
6448 Clouds 26 1018 44 10000 2.6 160 15:20 11.10.2019
6449 Clouds 26 1018 44 10000 3.6 100 14:58 11.10.2019
6450 Clouds 26 1018 44 10000 3.6 100 14:58 11.10.2019
6451 Clouds 28 1018 37 10000 4.1 120 14:38 11.10.2019
6452 Clouds 28 1018 37 10000 4.1 120 14:19 11.10.2019
6453 Clouds 28 1018 37 10000 4.1 120 14:19 11.10.2019
6454 Clouds 27 1019 42 10000 3.6 150 13:45 11.10.2019
6455 Clouds 27 1019 39 10000 3.6 120 13:25 11.10.2019
6456 Clouds 27 1019 39 10000 3.1 140 12:57 11.10.2019
6457 Clouds 27 1020 42 10000 2.6 0 12:38 11.10.2019
6458 Clouds 27 1020 42 10000 2.6 0 12:20 11.10.2019
6459 Clouds 26 1021 44 10000 3.6 0 11:58 11.10.2019
6460 Clouds 26 1021 44 10000 3.6 160 11:38 11.10.2019
6461 Clouds 26 1021 44 10000 3.6 160 11:20 11.10.2019
6462 -273 0 0 0 0 0 10:54 11.10.2019
6463 Clouds 24 1022 47 10000 4.1 90 10:36 11.10.2019
6464 Clouds 24 1022 47 10000 4.1 90 10:18 11.10.2019
6465 Clouds 23 1023 49 10000 4.1 120 09:41 11.10.2019
6466 Clouds 23 1023 49 10000 2.6 0 09:20 11.10.2019
6467 Clouds 21 1023 56 10000 3.1 130 08:56 11.10.2019
6468 Clouds 21 1023 56 10000 3.1 130 08:38 11.10.2019
6469 Clouds 21 1023 56 10000 3.1 130 08:19 11.10.2019
6470 Clouds 20 1023 60 10000 4.6 100 07:51 11.10.2019
6471 Clouds 20 1023 60 10000 3.6 100 07:33 11.10.2019
6472 Clouds 19 1023 63 10000 4.1 100 06:49 11.10.2019
6473 Clouds 18 1023 68 10000 3.1 90 06:24 11.10.2019
6474 Clouds 16 1023 82 10000 1.5 70 05:41 11.10.2019
6475 Clouds 14 1023 93 10000 2.1 60 05:23 11.10.2019
6476 Clouds 13 1022 93 10000 3.1 80 04:38 11.10.2019
6477 Clouds 14 1022 93 10000 2.1 60 02:47 11.10.2019
6478 Clouds 17 1023 77 10000 2.6 120 00:52 11.10.2019
6479 Clouds 17 1024 77 10000 3.6 100 00:30 11.10.2019
6480 Clouds 17 1024 82 10000 2.6 90 23:48 10.10.2019
6481 Clouds 17 1024 82 10000 4.1 90 23:23 10.10.2019
6482 Clouds 16 1024 87 10000 4.6 90 22:59 10.10.2019
6483 Clouds 16 1024 87 10000 4.6 90 22:40 10.10.2019
6484 Clouds 17 1024 82 10000 4.1 100 22:21 10.10.2019
6485 Clouds 17 1024 82 10000 4.1 100 22:21 10.10.2019
6486 Clouds 17 1024 82 10000 4.6 100 21:58 10.10.2019
6487 Clouds 17 1024 82 10000 4.6 100 21:40 10.10.2019
6488 Clouds 17 1024 82 10000 4.1 110 21:22 10.10.2019
6489 Clouds 17 1024 82 10000 4.1 70 20:57 10.10.2019
6490 Clouds 17 1024 82 10000 4.1 70 20:39 10.10.2019
6491 Clouds 17 1023 82 10000 4.1 60 20:18 10.10.2019
6492 Clouds 17 1023 82 10000 4.1 60 20:18 10.10.2019
6493 Clouds 17 1023 82 10000 4.1 60 20:18 10.10.2019
6494 Clouds 17 1023 82 10000 5.1 80 19:54 10.10.2019
6495 Clouds 18 1023 77 10000 6.2 100 19:36 10.10.2019
6496 Clouds 18 1023 77 10000 6.2 100 19:18 10.10.2019
6497 Clouds 19 1024 68 10000 5.7 130 18:41 10.10.2019
6498 Clouds 19 1023 68 10000 4.6 140 18:20 10.10.2019
6499 Clouds 19 1022 68 10000 6.2 100 17:55 10.10.2019
6500 Clouds 20 1022 64 10000 6.2 110 17:37 10.10.2019
6501 Clouds 20 1022 64 10000 6.2 110 17:18 10.10.2019
6502 Clouds 21 1021 60 10000 5.7 100 16:46 10.10.2019
6503 Clouds 23 1021 53 10000 5.7 110 16:26 10.10.2019
6504 Clouds 23 1021 53 10000 5.7 110 16:26 10.10.2019
6505 Clouds 24 1021 50 10000 5.1 120 15:58 10.10.2019
6506 Clouds 25 1021 47 10000 6.2 90 15:38 10.10.2019
6507 Clouds 25 1021 47 10000 6.2 90 15:19 10.10.2019
6508 Clouds 26 1020 44 10000 4.1 130 14:55 10.10.2019
6509 Clouds 26 1020 44 10000 4.6 120 14:36 10.10.2019
6510 Clouds 26 1020 44 10000 4.6 120 14:18 10.10.2019
6511 Clouds 26 1021 41 10000 4.1 130 13:42 10.10.2019
6512 Clouds 26 1021 41 10000 4.1 130 13:24 10.10.2019
6513 Clouds 26 1021 41 10000 5.1 130 12:57 10.10.2019
6514 Clouds 26 1021 41 10000 5.1 130 12:57 10.10.2019
6515 Clouds 26 1021 41 10000 5.1 130 12:39 10.10.2019
6516 Clouds 25 1021 44 10000 3.6 160 12:20 10.10.2019
6517 Clouds 25 1021 44 10000 3.6 160 12:20 10.10.2019
6518 Clouds 25 1022 44 10000 4.1 140 11:56 10.10.2019
6519 Clouds 25 1022 44 10000 4.6 120 11:38 10.10.2019
6520 Clouds 25 1022 44 10000 4.6 120 11:19 10.10.2019
6521 Clouds 24 1023 47 10000 4.1 120 10:44 10.10.2019
6522 Clear 23 1023 49 10000 4.6 120 10:26 10.10.2019
6523 Clouds 22 1024 53 10000 5.1 120 09:56 10.10.2019
6524 Clouds 21 1024 56 10000 5.1 110 09:38 10.10.2019
6525 Clouds 21 1024 56 10000 5.1 110 09:38 10.10.2019
6526 Clouds 21 1024 56 10000 5.1 110 09:19 10.10.2019
6527 Clouds 20 1024 60 10000 5.1 100 08:56 10.10.2019
6528 Clouds 19 1024 63 10000 4.6 110 08:37 10.10.2019
6529 Clouds 19 1024 63 10000 4.6 110 08:18 10.10.2019
6530 Clouds 20 1024 60 10000 6.2 90 07:42 10.10.2019
6531 Clouds 20 1024 60 10000 6.2 90 07:20 10.10.2019
6532 Clouds 19 1024 68 10000 3.1 130 06:46 10.10.2019
6533 Clouds 17 1024 77 10000 2.6 100 06:26 10.10.2019
6534 Rain 16 1023 82 10000 4.6 100 05:25 10.10.2019
6535 Clouds 16 1023 82 10000 4.1 100 04:37 10.10.2019
6536 Clouds 16 1023 82 10000 5.1 110 03:42 10.10.2019
6537 Clouds 15 1023 93 10000 2.1 150 01:43 10.10.2019
6538 Clouds 16 1023 87 10000 3.1 140 01:24 10.10.2019
6539 Clouds 16 1023 87 10000 2.1 160 00:53 10.10.2019
6540 Clouds 16 1023 87 10000 3.1 100 00:21 10.10.2019
6541 Clouds 17 1024 82 10000 3.1 130 23:39 09.10.2019
6542 Clouds 17 1024 82 10000 3.1 130 23:20 09.10.2019
6543 Clouds 17 1024 82 10000 4.1 90 22:43 09.10.2019
6544 Clouds 17 1024 82 10000 4.6 100 22:24 09.10.2019
6545 Clouds 16 1024 87 10000 4.6 100 21:59 09.10.2019
6546 Clouds 16 1024 87 10000 4.6 100 21:59 09.10.2019
6547 Clouds 16 1024 87 10000 4.6 100 21:39 09.10.2019
6548 Clouds 16 1024 87 10000 5.1 100 21:20 09.10.2019
6549 Clouds 16 1024 87 10000 5.1 100 20:56 09.10.2019
6550 Clouds 17 1024 82 10000 4.6 90 20:37 09.10.2019
6551 Clouds 17 1024 82 10000 4.6 90 20:18 09.10.2019
6552 Clouds 17 1024 82 10000 4.6 90 20:18 09.10.2019
6553 Clouds 17 1024 82 10000 4.6 90 20:18 09.10.2019
6554 Clouds 17 1024 82 10000 5.1 100 19:45 09.10.2019
6555 Clouds 17 1024 82 10000 4.6 100 19:24 09.10.2019
6556 Clouds 17 1023 82 10000 4.6 110 18:58 09.10.2019
6557 Clouds 18 1023 77 10000 5.7 110 18:38 09.10.2019
6558 Clouds 18 1023 77 10000 5.7 110 18:18 09.10.2019
6559 Clouds 18 1023 77 10000 5.7 110 17:55 09.10.2019
6560 Clouds 19 1022 72 10000 6.2 90 17:37 09.10.2019
6561 Clouds 19 1022 72 10000 6.2 90 17:18 09.10.2019
6562 Clouds 21 1022 64 10000 5.7 100 16:41 09.10.2019
6563 Clouds 22 1021 56 10000 6.7 90 16:23 09.10.2019
6564 Clouds 23 1021 49 10000 6.7 110 15:58 09.10.2019
6565 Clouds 23 1021 49 10000 6.7 110 15:58 09.10.2019
6566 Clouds 23 1021 49 10000 6.7 110 15:39 09.10.2019
6567 Clouds 24 1021 53 10000 6.7 110 15:20 09.10.2019
6568 Clouds 25 1021 44 10000 5.7 110 14:58 09.10.2019
6569 Clouds 25 1021 44 10000 5.7 110 14:58 09.10.2019
6570 Clouds 25 1021 44 10000 5.7 110 14:40 09.10.2019
6571 Clouds 25 1021 47 10000 5.7 110 14:18 09.10.2019
6572 Clouds 24 1021 50 10000 6.2 140 13:40 09.10.2019
6573 Clouds 24 1021 47 10000 6.2 110 13:21 09.10.2019
6574 Clouds 24 1022 47 10000 4.6 140 12:59 09.10.2019
6575 Clouds 24 1022 47 10000 4.6 140 12:59 09.10.2019
6576 Clouds 24 1022 47 10000 4.6 140 12:40 09.10.2019
6577 Clouds 23 1022 53 10000 5.7 110 12:21 09.10.2019
6578 Clouds 24 1023 50 10000 5.7 100 11:55 09.10.2019
6579 Clouds 23 1023 53 10000 5.1 90 11:37 09.10.2019
6580 Clouds 23 1023 53 10000 5.1 90 11:19 09.10.2019
6581 Clouds 21 1023 60 10000 6.7 100 10:43 09.10.2019
6582 Clouds 21 1023 60 10000 6.7 100 10:43 09.10.2019
6583 Clouds 22 1024 53 10000 6.7 110 10:21 09.10.2019
6584 Clouds 22 1024 53 10000 6.7 110 10:21 09.10.2019
6585 Clouds 22 1024 53 10000 6.2 120 09:59 09.10.2019
6586 Clouds 22 1024 53 10000 6.2 120 09:40 09.10.2019
6587 Clouds 22 1024 53 10000 6.2 120 09:40 09.10.2019
6588 Clouds 22 1024 53 10000 6.2 120 09:40 09.10.2019
6589 Clouds 21 1024 56 10000 6.2 120 09:18 09.10.2019
6590 Clouds 22 1024 56 10000 7.2 100 08:41 09.10.2019
6591 Clouds 20 1024 68 10000 4.6 120 08:21 09.10.2019
6592 Clouds 20 1024 68 10000 4.6 120 08:21 09.10.2019
6593 Clouds 18 1024 77 10000 3.1 120 07:56 09.10.2019
6594 Rain 17 1024 82 10000 2.6 130 07:37 09.10.2019
6595 Rain 17 1024 82 10000 2.6 130 07:19 09.10.2019
6596 Clouds 16 1024 87 7000 2.6 140 06:49 09.10.2019
6597 Rain 16 1023 82 8000 2.6 90 05:55 09.10.2019
6598 Clouds 15 1023 87 10000 3.1 130 05:23 09.10.2019
6599 Clouds 14 1023 93 10000 2.6 160 04:20 09.10.2019
6600 Clouds 15 1022 87 10000 2.6 120 02:45 09.10.2019
6601 Clouds 15 1023 82 10000 3.1 130 01:42 09.10.2019
6602 Clouds 15 1023 82 10000 3.1 150 01:19 09.10.2019
6603 Clouds 15 1023 82 10000 3.1 140 00:56 09.10.2019
6604 Clouds 14 1024 87 10000 2.6 140 00:38 09.10.2019
6605 Clouds 14 1024 87 10000 2.6 140 00:38 09.10.2019
6606 Clouds 14 1024 87 10000 2.6 140 00:38 09.10.2019
6607 Clouds 14 1024 87 10000 2.6 140 00:19 09.10.2019
6608 Clouds 15 1024 82 10000 3.1 140 23:39 08.10.2019
6609 Clouds 15 1024 77 10000 4.1 120 23:18 08.10.2019
6610 Clouds 15 1024 82 10000 5.1 110 22:56 08.10.2019
6611 Clouds 15 1025 82 10000 2.6 140 22:37 08.10.2019
6612 Clouds 15 1025 82 10000 2.6 140 22:18 08.10.2019
6613 Clouds 15 1025 82 10000 4.1 140 21:56 08.10.2019
6614 Clouds 15 1025 82 10000 3.6 130 21:38 08.10.2019
6615 Clouds 15 1025 82 10000 3.6 130 21:18 08.10.2019
6616 Clouds 15 1025 82 10000 3.1 140 20:55 08.10.2019
6617 Clouds 15 1025 82 10000 4.1 130 20:37 08.10.2019
6618 Clouds 15 1025 82 10000 4.1 130 20:18 08.10.2019
6619 Clouds 16 1025 77 10000 4.1 120 19:55 08.10.2019
6620 Clouds 16 1025 82 10000 5.1 130 19:36 08.10.2019
6621 Clouds 16 1025 82 10000 5.1 130 19:18 08.10.2019
6622 Clouds 16 1025 77 10000 5.7 120 18:42 08.10.2019
6623 Clouds 17 1024 72 10000 6.2 110 18:24 08.10.2019
6624 Clouds 18 1024 77 10000 5.7 100 17:57 08.10.2019
6625 Clouds 18 1024 77 10000 5.7 100 17:57 08.10.2019
6626 Clouds 18 1024 77 10000 5.7 100 17:57 08.10.2019
6627 Clouds 18 1023 77 10000 7.2 90 17:39 08.10.2019
6628 Clouds 18 1023 77 10000 7.2 90 17:19 08.10.2019
6629 Clouds 20 1023 64 10000 8.7 110 16:56 08.10.2019
6630 Clouds 22 1022 56 10000 7.2 110 16:37 08.10.2019
6631 Clouds 22 1022 56 10000 7.2 110 16:18 08.10.2019
6632 Clouds 23 1022 49 10000 7.7 100 15:38 08.10.2019
6633 Clouds 23 1022 49 10000 7.7 100 15:20 08.10.2019
6634 Clouds 23 1022 53 10000 6.2 120 14:56 08.10.2019
6635 Clouds 25 1022 47 10000 7.2 120 14:37 08.10.2019
6636 Clouds 25 1022 47 10000 7.2 120 14:19 08.10.2019
6637 Clouds 24 1022 50 10000 7.2 90 13:55 08.10.2019
6638 Clouds 24 1022 47 10000 6.2 120 13:37 08.10.2019
6639 Clouds 24 1022 47 10000 6.2 120 13:18 08.10.2019
6640 Clouds 24 1022 47 10000 6.2 120 13:18 08.10.2019
6641 Clouds 24<